<?xml version='1.0' encoding='UTF-8'?><gpx version="1.1" creator="JPX - https://github.com/jenetics/jpx" xmlns="http://www.topografix.com/GPX/1/1"><trk><trkseg><trkpt lat="44.0059175" lon="11.9414958"><ele>219.99999999999997</ele><time>2026-04-11T09:18:43.013Z</time></trkpt><trkpt lat="44.0059269" lon="11.9416015"><ele>220.0</ele><time>2026-04-11T09:18:46.014Z</time></trkpt><trkpt lat="44.0059298" lon="11.9417266"><ele>220.0</ele><time>2026-04-11T09:18:49.012Z</time></trkpt><trkpt lat="44.0059538" lon="11.9418131"><ele>220.0</ele><time>2026-04-11T09:18:51.014Z</time></trkpt><trkpt lat="44.0059805" lon="11.941899"><ele>219.99999999999997</ele><time>2026-04-11T09:18:53.012Z</time></trkpt><trkpt lat="44.0060309" lon="11.9419787"><ele>220.0</ele><time>2026-04-11T09:18:55.013Z</time></trkpt><trkpt lat="44.006076" lon="11.9420653"><ele>220.66666666666666</ele><time>2026-04-11T09:18:57.012Z</time></trkpt><trkpt lat="44.0061216" lon="11.9421492"><ele>221.33333333333331</ele><time>2026-04-11T09:18:59.012Z</time></trkpt><trkpt lat="44.0061842" lon="11.9422226"><ele>222.0</ele><time>2026-04-11T09:19:01.013Z</time></trkpt><trkpt lat="44.0062401" lon="11.9422806"><ele>222.66666666666669</ele><time>2026-04-11T09:19:03.012Z</time></trkpt><trkpt lat="44.0063278" lon="11.9422931"><ele>223.33333333333334</ele><time>2026-04-11T09:19:06.013Z</time></trkpt><trkpt lat="44.0063928" lon="11.9422522"><ele>224.0</ele><time>2026-04-11T09:19:08.013Z</time></trkpt><trkpt lat="44.0064591" lon="11.9422064"><ele>224.0</ele><time>2026-04-11T09:19:11.013Z</time></trkpt><trkpt lat="44.0065296" lon="11.9421815"><ele>223.99999999999997</ele><time>2026-04-11T09:19:15.012Z</time></trkpt><trkpt lat="44.006595" lon="11.9420814"><ele>223.99999999999997</ele><time>2026-04-11T09:19:17.013Z</time></trkpt><trkpt lat="44.0066782" lon="11.9419364"><ele>224.0</ele><time>2026-04-11T09:19:19.014Z</time></trkpt><trkpt lat="44.0067277" lon="11.9418611"><ele>224.0</ele><time>2026-04-11T09:19:20.013Z</time></trkpt><trkpt lat="44.0067809" lon="11.9417767"><ele>223.00000000000003</ele><time>2026-04-11T09:19:21.012Z</time></trkpt><trkpt lat="44.006841" lon="11.941702"><ele>222.0</ele><time>2026-04-11T09:19:22.014Z</time></trkpt><trkpt lat="44.0069016" lon="11.9416267"><ele>221.0</ele><time>2026-04-11T09:19:23.012Z</time></trkpt><trkpt lat="44.00696" lon="11.9415418"><ele>220.0</ele><time>2026-04-11T09:19:24.014Z</time></trkpt><trkpt lat="44.0070192" lon="11.9414575"><ele>219.00000000000003</ele><time>2026-04-11T09:19:25.012Z</time></trkpt><trkpt lat="44.0070758" lon="11.9413717"><ele>218.0</ele><time>2026-04-11T09:19:26.013Z</time></trkpt><trkpt lat="44.0071327" lon="11.9412869"><ele>218.00000000000003</ele><time>2026-04-11T09:19:27.013Z</time></trkpt><trkpt lat="44.0071806" lon="11.9411948"><ele>218.0</ele><time>2026-04-11T09:19:28.012Z</time></trkpt><trkpt lat="44.0072247" lon="11.9411003"><ele>218.0</ele><time>2026-04-11T09:19:29.012Z</time></trkpt><trkpt lat="44.0072568" lon="11.9409972"><ele>218.0</ele><time>2026-04-11T09:19:30.014Z</time></trkpt><trkpt lat="44.007282" lon="11.9408914"><ele>218.00000000000003</ele><time>2026-04-11T09:19:31.014Z</time></trkpt><trkpt lat="44.0072969" lon="11.9407887"><ele>218.0</ele><time>2026-04-11T09:19:32.014Z</time></trkpt><trkpt lat="44.0073066" lon="11.9406826"><ele>218.33333333333334</ele><time>2026-04-11T09:19:33.013Z</time></trkpt><trkpt lat="44.007314" lon="11.9405764"><ele>218.66666666666669</ele><time>2026-04-11T09:19:34.012Z</time></trkpt><trkpt lat="44.0073172" lon="11.9404679"><ele>219.0</ele><time>2026-04-11T09:19:35.014Z</time></trkpt><trkpt lat="44.0073137" lon="11.9403552"><ele>219.33333333333331</ele><time>2026-04-11T09:19:36.013Z</time></trkpt><trkpt lat="44.0073107" lon="11.9402421"><ele>219.66666666666666</ele><time>2026-04-11T09:19:37.013Z</time></trkpt><trkpt lat="44.0073034" lon="11.9401289"><ele>220.0</ele><time>2026-04-11T09:19:38.013Z</time></trkpt><trkpt lat="44.0072974" lon="11.9400166"><ele>220.33333333333331</ele><time>2026-04-11T09:19:39.012Z</time></trkpt><trkpt lat="44.0072945" lon="11.9399041"><ele>220.66666666666666</ele><time>2026-04-11T09:19:40.012Z</time></trkpt><trkpt lat="44.0072846" lon="11.9397878"><ele>221.0</ele><time>2026-04-11T09:19:41.013Z</time></trkpt><trkpt lat="44.0072746" lon="11.9396711"><ele>221.33333333333331</ele><time>2026-04-11T09:19:42.012Z</time></trkpt><trkpt lat="44.0072686" lon="11.9395528"><ele>221.66666666666666</ele><time>2026-04-11T09:19:43.011Z</time></trkpt><trkpt lat="44.0072598" lon="11.9394335"><ele>222.0</ele><time>2026-04-11T09:19:44.012Z</time></trkpt><trkpt lat="44.0072537" lon="11.9393151"><ele>221.39999999999998</ele><time>2026-04-11T09:19:45.012Z</time></trkpt><trkpt lat="44.0072491" lon="11.9392028"><ele>220.79999999999998</ele><time>2026-04-11T09:19:46.012Z</time></trkpt><trkpt lat="44.007241" lon="11.9390999"><ele>220.2</ele><time>2026-04-11T09:19:47.011Z</time></trkpt><trkpt lat="44.0072549" lon="11.9389576"><ele>219.6</ele><time>2026-04-11T09:19:49.012Z</time></trkpt><trkpt lat="44.0073365" lon="11.9389022"><ele>219.0</ele><time>2026-04-11T09:19:51.011Z</time></trkpt><trkpt lat="44.0074517" lon="11.9388762"><ele>218.0</ele><time>2026-04-11T09:19:53.011Z</time></trkpt><trkpt lat="44.0075175" lon="11.9388656"><ele>217.0</ele><time>2026-04-11T09:19:54.011Z</time></trkpt><trkpt lat="44.007589" lon="11.9388575"><ele>216.0</ele><time>2026-04-11T09:19:55.011Z</time></trkpt><trkpt lat="44.0076644" lon="11.9388419"><ele>215.0</ele><time>2026-04-11T09:19:56.012Z</time></trkpt><trkpt lat="44.0077441" lon="11.938829"><ele>214.0</ele><time>2026-04-11T09:19:57.011Z</time></trkpt><trkpt lat="44.0078232" lon="11.9388175"><ele>213.0</ele><time>2026-04-11T09:19:58.012Z</time></trkpt><trkpt lat="44.0079023" lon="11.9388017"><ele>213.0</ele><time>2026-04-11T09:19:59.012Z</time></trkpt><trkpt lat="44.007976" lon="11.9387846"><ele>213.0</ele><time>2026-04-11T09:20:00.012Z</time></trkpt><trkpt lat="44.0080444" lon="11.93877"><ele>213.0</ele><time>2026-04-11T09:20:01.012Z</time></trkpt><trkpt lat="44.0081488" lon="11.9387502"><ele>213.0</ele><time>2026-04-11T09:20:03.012Z</time></trkpt><trkpt lat="44.0082139" lon="11.9387294"><ele>213.0</ele><time>2026-04-11T09:20:05.012Z</time></trkpt><trkpt lat="44.0082728" lon="11.93879"><ele>213.0</ele><time>2026-04-11T09:20:08.011Z</time></trkpt><trkpt lat="44.0082844" lon="11.9388946"><ele>212.99999999999997</ele><time>2026-04-11T09:20:11.012Z</time></trkpt><trkpt lat="44.0082624" lon="11.9389848"><ele>213.0</ele><time>2026-04-11T09:20:13.011Z</time></trkpt><trkpt lat="44.0082246" lon="11.9390767"><ele>213.0</ele><time>2026-04-11T09:20:15.011Z</time></trkpt><trkpt lat="44.0081716" lon="11.9391705"><ele>213.0</ele><time>2026-04-11T09:20:17.012Z</time></trkpt><trkpt lat="44.0081278" lon="11.9392559"><ele>213.0</ele><time>2026-04-11T09:20:19.012Z</time></trkpt><trkpt lat="44.0080787" lon="11.9393303"><ele>212.99999999999997</ele><time>2026-04-11T09:20:22.013Z</time></trkpt><trkpt lat="44.0080441" lon="11.9394044"><ele>213.0</ele><time>2026-04-11T09:20:29.012Z</time></trkpt><trkpt lat="44.0079819" lon="11.9395198"><ele>212.83333333333334</ele><time>2026-04-11T09:20:31.011Z</time></trkpt><trkpt lat="44.0079233" lon="11.9396326"><ele>212.66666666666669</ele><time>2026-04-11T09:20:33.013Z</time></trkpt><trkpt lat="44.0078876" lon="11.9397428"><ele>212.5</ele><time>2026-04-11T09:20:35.012Z</time></trkpt><trkpt lat="44.0078869" lon="11.9398636"><ele>212.33333333333334</ele><time>2026-04-11T09:20:37.012Z</time></trkpt><trkpt lat="44.0078912" lon="11.9399578"><ele>212.16666666666669</ele><time>2026-04-11T09:20:38.012Z</time></trkpt><trkpt lat="44.007865" lon="11.9400529"><ele>212.0</ele><time>2026-04-11T09:20:39.011Z</time></trkpt><trkpt lat="44.0078341" lon="11.9401444"><ele>211.66666666666669</ele><time>2026-04-11T09:20:40.011Z</time></trkpt><trkpt lat="44.0078125" lon="11.9402427"><ele>211.33333333333334</ele><time>2026-04-11T09:20:41.011Z</time></trkpt><trkpt lat="44.0077885" lon="11.9403471"><ele>211.0</ele><time>2026-04-11T09:20:42.012Z</time></trkpt><trkpt lat="44.0077583" lon="11.9404511"><ele>210.66666666666669</ele><time>2026-04-11T09:20:43.011Z</time></trkpt><trkpt lat="44.0077355" lon="11.9405527"><ele>210.33333333333334</ele><time>2026-04-11T09:20:44.012Z</time></trkpt><trkpt lat="44.0077361" lon="11.9406605"><ele>210.0</ele><time>2026-04-11T09:20:45.012Z</time></trkpt><trkpt lat="44.0077553" lon="11.9407822"><ele>210.8</ele><time>2026-04-11T09:20:46.012Z</time></trkpt><trkpt lat="44.0077889" lon="11.9408937"><ele>211.6</ele><time>2026-04-11T09:20:47.013Z</time></trkpt><trkpt lat="44.0078288" lon="11.9410097"><ele>212.39999999999998</ele><time>2026-04-11T09:20:48.012Z</time></trkpt><trkpt lat="44.0078672" lon="11.9411294"><ele>213.2</ele><time>2026-04-11T09:20:49.011Z</time></trkpt><trkpt lat="44.0079127" lon="11.9412498"><ele>214.0</ele><time>2026-04-11T09:20:50.013Z</time></trkpt><trkpt lat="44.0079619" lon="11.941362"><ele>214.0</ele><time>2026-04-11T09:20:51.011Z</time></trkpt><trkpt lat="44.0080184" lon="11.9414702"><ele>213.99999999999997</ele><time>2026-04-11T09:20:52.012Z</time></trkpt><trkpt lat="44.0080784" lon="11.9415635"><ele>213.99999999999997</ele><time>2026-04-11T09:20:53.012Z</time></trkpt><trkpt lat="44.0081582" lon="11.9416405"><ele>214.0</ele><time>2026-04-11T09:20:54.012Z</time></trkpt><trkpt lat="44.0082326" lon="11.9417019"><ele>214.0</ele><time>2026-04-11T09:20:55.011Z</time></trkpt><trkpt lat="44.0083215" lon="11.9417616"><ele>212.14285714285717</ele><time>2026-04-11T09:20:56.011Z</time></trkpt><trkpt lat="44.0083995" lon="11.9418088"><ele>210.28571428571428</ele><time>2026-04-11T09:20:57.011Z</time></trkpt><trkpt lat="44.0084688" lon="11.9418233"><ele>208.42857142857144</ele><time>2026-04-11T09:20:58.012Z</time></trkpt><trkpt lat="44.0085378" lon="11.9418237"><ele>206.57142857142858</ele><time>2026-04-11T09:20:59.012Z</time></trkpt><trkpt lat="44.0086058" lon="11.9417739"><ele>204.71428571428572</ele><time>2026-04-11T09:21:00.012Z</time></trkpt><trkpt lat="44.008664" lon="11.9417128"><ele>202.85714285714286</ele><time>2026-04-11T09:21:01.012Z</time></trkpt><trkpt lat="44.0087139" lon="11.9416363"><ele>201.0</ele><time>2026-04-11T09:21:02.011Z</time></trkpt><trkpt lat="44.0087453" lon="11.9415378"><ele>198.66666666666666</ele><time>2026-04-11T09:21:03.011Z</time></trkpt><trkpt lat="44.0087669" lon="11.9414275"><ele>196.33333333333334</ele><time>2026-04-11T09:21:04.011Z</time></trkpt><trkpt lat="44.0087861" lon="11.9413122"><ele>194.0</ele><time>2026-04-11T09:21:05.011Z</time></trkpt><trkpt lat="44.0088019" lon="11.9411948"><ele>191.66666666666669</ele><time>2026-04-11T09:21:06.011Z</time></trkpt><trkpt lat="44.0088136" lon="11.9410722"><ele>189.33333333333334</ele><time>2026-04-11T09:21:07.011Z</time></trkpt><trkpt lat="44.0088293" lon="11.9409558"><ele>187.0</ele><time>2026-04-11T09:21:08.012Z</time></trkpt><trkpt lat="44.0088456" lon="11.9408399"><ele>186.0</ele><time>2026-04-11T09:21:09.011Z</time></trkpt><trkpt lat="44.0088818" lon="11.9407339"><ele>185.0</ele><time>2026-04-11T09:21:10.012Z</time></trkpt><trkpt lat="44.008919" lon="11.9406248"><ele>184.0</ele><time>2026-04-11T09:21:11.011Z</time></trkpt><trkpt lat="44.0089569" lon="11.9405245"><ele>183.0</ele><time>2026-04-11T09:21:12.011Z</time></trkpt><trkpt lat="44.0090181" lon="11.9404262"><ele>182.0</ele><time>2026-04-11T09:21:13.012Z</time></trkpt><trkpt lat="44.0090773" lon="11.9403352"><ele>181.0</ele><time>2026-04-11T09:21:14.011Z</time></trkpt><trkpt lat="44.0091381" lon="11.9402495"><ele>179.66666666666669</ele><time>2026-04-11T09:21:15.011Z</time></trkpt><trkpt lat="44.009201" lon="11.940172"><ele>178.33333333333334</ele><time>2026-04-11T09:21:16.011Z</time></trkpt><trkpt lat="44.0092721" lon="11.9401014"><ele>177.0</ele><time>2026-04-11T09:21:17.011Z</time></trkpt><trkpt lat="44.0093448" lon="11.9400312"><ele>175.66666666666666</ele><time>2026-04-11T09:21:18.012Z</time></trkpt><trkpt lat="44.0094162" lon="11.9399618"><ele>174.33333333333331</ele><time>2026-04-11T09:21:19.012Z</time></trkpt><trkpt lat="44.0094885" lon="11.9398864"><ele>173.0</ele><time>2026-04-11T09:21:20.012Z</time></trkpt><trkpt lat="44.0095604" lon="11.9398133"><ele>173.0</ele><time>2026-04-11T09:21:21.012Z</time></trkpt><trkpt lat="44.0096307" lon="11.9397572"><ele>173.0</ele><time>2026-04-11T09:21:22.011Z</time></trkpt><trkpt lat="44.009688" lon="11.9397203"><ele>173.0</ele><time>2026-04-11T09:21:23.012Z</time></trkpt><trkpt lat="44.0097726" lon="11.9396884"><ele>173.0</ele><time>2026-04-11T09:21:25.011Z</time></trkpt><trkpt lat="44.0098406" lon="11.939699"><ele>173.0</ele><time>2026-04-11T09:21:27.011Z</time></trkpt><trkpt lat="44.0099284" lon="11.9396957"><ele>173.0</ele><time>2026-04-11T09:21:30.012Z</time></trkpt><trkpt lat="44.0100088" lon="11.9397325"><ele>172.16666666666666</ele><time>2026-04-11T09:21:32.012Z</time></trkpt><trkpt lat="44.010099" lon="11.9397506"><ele>171.33333333333331</ele><time>2026-04-11T09:21:34.012Z</time></trkpt><trkpt lat="44.0101649" lon="11.9397612"><ele>170.5</ele><time>2026-04-11T09:21:35.012Z</time></trkpt><trkpt lat="44.0102297" lon="11.9397725"><ele>169.66666666666666</ele><time>2026-04-11T09:21:36.011Z</time></trkpt><trkpt lat="44.0103106" lon="11.9397847"><ele>168.83333333333334</ele><time>2026-04-11T09:21:37.012Z</time></trkpt><trkpt lat="44.0103922" lon="11.9397977"><ele>168.0</ele><time>2026-04-11T09:21:38.012Z</time></trkpt><trkpt lat="44.0104701" lon="11.9398062"><ele>168.0</ele><time>2026-04-11T09:21:39.011Z</time></trkpt><trkpt lat="44.0105533" lon="11.9398231"><ele>168.0</ele><time>2026-04-11T09:21:40.011Z</time></trkpt><trkpt lat="44.0106352" lon="11.9398391"><ele>168.0</ele><time>2026-04-11T09:21:41.011Z</time></trkpt><trkpt lat="44.0107165" lon="11.9398418"><ele>168.0</ele><time>2026-04-11T09:21:42.011Z</time></trkpt><trkpt lat="44.0107947" lon="11.9398376"><ele>168.0</ele><time>2026-04-11T09:21:43.011Z</time></trkpt><trkpt lat="44.0108712" lon="11.939811"><ele>168.0</ele><time>2026-04-11T09:21:44.011Z</time></trkpt><trkpt lat="44.0109389" lon="11.9397505"><ele>169.4</ele><time>2026-04-11T09:21:45.012Z</time></trkpt><trkpt lat="44.0110003" lon="11.939674"><ele>170.8</ele><time>2026-04-11T09:21:46.011Z</time></trkpt><trkpt lat="44.0110572" lon="11.9395805"><ele>172.2</ele><time>2026-04-11T09:21:47.011Z</time></trkpt><trkpt lat="44.0111137" lon="11.9394713"><ele>173.6</ele><time>2026-04-11T09:21:48.011Z</time></trkpt><trkpt lat="44.0111675" lon="11.9393537"><ele>175.0</ele><time>2026-04-11T09:21:49.013Z</time></trkpt><trkpt lat="44.0112227" lon="11.9392393"><ele>174.6</ele><time>2026-04-11T09:21:50.011Z</time></trkpt><trkpt lat="44.0112794" lon="11.9391334"><ele>174.2</ele><time>2026-04-11T09:21:51.012Z</time></trkpt><trkpt lat="44.0113433" lon="11.9390357"><ele>173.8</ele><time>2026-04-11T09:21:52.012Z</time></trkpt><trkpt lat="44.0114172" lon="11.9389575"><ele>173.4</ele><time>2026-04-11T09:21:53.012Z</time></trkpt><trkpt lat="44.0115181" lon="11.9389095"><ele>173.0</ele><time>2026-04-11T09:21:54.011Z</time></trkpt><trkpt lat="44.0116067" lon="11.9388609"><ele>175.0</ele><time>2026-04-11T09:21:55.013Z</time></trkpt><trkpt lat="44.0116732" lon="11.9387962"><ele>177.0</ele><time>2026-04-11T09:21:56.012Z</time></trkpt><trkpt lat="44.0117145" lon="11.9387246"><ele>179.0</ele><time>2026-04-11T09:21:57.011Z</time></trkpt><trkpt lat="44.011755" lon="11.938632"><ele>181.0</ele><time>2026-04-11T09:21:58.011Z</time></trkpt><trkpt lat="44.0118132" lon="11.9385488"><ele>183.0</ele><time>2026-04-11T09:21:59.013Z</time></trkpt><trkpt lat="44.0118888" lon="11.9385004"><ele>185.0</ele><time>2026-04-11T09:22:00.013Z</time></trkpt><trkpt lat="44.0119695" lon="11.938488"><ele>185.0</ele><time>2026-04-11T09:22:01.011Z</time></trkpt><trkpt lat="44.0120431" lon="11.9384921"><ele>185.0</ele><time>2026-04-11T09:22:02.011Z</time></trkpt><trkpt lat="44.0121322" lon="11.9385509"><ele>185.0</ele><time>2026-04-11T09:22:03.012Z</time></trkpt><trkpt lat="44.0122122" lon="11.9385761"><ele>185.0</ele><time>2026-04-11T09:22:04.012Z</time></trkpt><trkpt lat="44.0122854" lon="11.9385873"><ele>185.0</ele><time>2026-04-11T09:22:05.011Z</time></trkpt><trkpt lat="44.0123758" lon="11.938496"><ele>185.0</ele><time>2026-04-11T09:22:07.012Z</time></trkpt><trkpt lat="44.0123774" lon="11.9384007"><ele>185.5</ele><time>2026-04-11T09:22:09.011Z</time></trkpt><trkpt lat="44.0122357" lon="11.9383085"><ele>186.0</ele><time>2026-04-11T09:22:10.012Z</time></trkpt><trkpt lat="44.0121569" lon="11.9382251"><ele>186.5</ele><time>2026-04-11T09:22:11.011Z</time></trkpt><trkpt lat="44.0120926" lon="11.9381095"><ele>187.0</ele><time>2026-04-11T09:22:12.011Z</time></trkpt><trkpt lat="44.0120381" lon="11.9379955"><ele>187.0</ele><time>2026-04-11T09:22:13.012Z</time></trkpt><trkpt lat="44.0119976" lon="11.9378748"><ele>187.0</ele><time>2026-04-11T09:22:14.011Z</time></trkpt><trkpt lat="44.0119628" lon="11.9377389"><ele>187.0</ele><time>2026-04-11T09:22:15.012Z</time></trkpt><trkpt lat="44.0119243" lon="11.9375777"><ele>187.0</ele><time>2026-04-11T09:22:16.012Z</time></trkpt><trkpt lat="44.011897" lon="11.9374212"><ele>187.0</ele><time>2026-04-11T09:22:17.011Z</time></trkpt><trkpt lat="44.0118727" lon="11.937259"><ele>190.5</ele><time>2026-04-11T09:22:18.013Z</time></trkpt><trkpt lat="44.0118531" lon="11.9370866"><ele>194.0</ele><time>2026-04-11T09:22:19.012Z</time></trkpt><trkpt lat="44.0118381" lon="11.9369151"><ele>197.5</ele><time>2026-04-11T09:22:20.011Z</time></trkpt><trkpt lat="44.0118218" lon="11.9367415"><ele>201.0</ele><time>2026-04-11T09:22:21.012Z</time></trkpt><trkpt lat="44.0118006" lon="11.9365806"><ele>203.75</ele><time>2026-04-11T09:22:22.012Z</time></trkpt><trkpt lat="44.0117701" lon="11.9364189"><ele>206.5</ele><time>2026-04-11T09:22:23.011Z</time></trkpt><trkpt lat="44.0117487" lon="11.9362653"><ele>209.25</ele><time>2026-04-11T09:22:24.012Z</time></trkpt><trkpt lat="44.0117311" lon="11.9361061"><ele>212.0</ele><time>2026-04-11T09:22:25.011Z</time></trkpt><trkpt lat="44.0117123" lon="11.935951"><ele>213.6</ele><time>2026-04-11T09:22:26.011Z</time></trkpt><trkpt lat="44.0117048" lon="11.9358136"><ele>215.2</ele><time>2026-04-11T09:22:27.012Z</time></trkpt><trkpt lat="44.0117153" lon="11.9356786"><ele>216.8</ele><time>2026-04-11T09:22:28.011Z</time></trkpt><trkpt lat="44.0117364" lon="11.9355324"><ele>218.4</ele><time>2026-04-11T09:22:29.012Z</time></trkpt><trkpt lat="44.0117559" lon="11.9353852"><ele>220.0</ele><time>2026-04-11T09:22:30.012Z</time></trkpt><trkpt lat="44.0117561" lon="11.9352588"><ele>220.0</ele><time>2026-04-11T09:22:31.011Z</time></trkpt><trkpt lat="44.0117565" lon="11.9351194"><ele>220.0</ele><time>2026-04-11T09:22:32.011Z</time></trkpt><trkpt lat="44.0117343" lon="11.9349924"><ele>220.0</ele><time>2026-04-11T09:22:33.011Z</time></trkpt><trkpt lat="44.0116943" lon="11.9348728"><ele>220.0</ele><time>2026-04-11T09:22:34.011Z</time></trkpt><trkpt lat="44.0116621" lon="11.9347732"><ele>220.0</ele><time>2026-04-11T09:22:35.011Z</time></trkpt><trkpt lat="44.0116207" lon="11.9346506"><ele>218.99999999999997</ele><time>2026-04-11T09:22:37.012Z</time></trkpt><trkpt lat="44.0115982" lon="11.9345552"><ele>218.0</ele><time>2026-04-11T09:22:39.012Z</time></trkpt><trkpt lat="44.0115575" lon="11.9343939"><ele>217.0</ele><time>2026-04-11T09:22:41.012Z</time></trkpt><trkpt lat="44.0115243" lon="11.9342858"><ele>216.0</ele><time>2026-04-11T09:22:42.011Z</time></trkpt><trkpt lat="44.0114727" lon="11.9341993"><ele>214.99999999999997</ele><time>2026-04-11T09:22:43.011Z</time></trkpt><trkpt lat="44.0114128" lon="11.9341329"><ele>214.0</ele><time>2026-04-11T09:22:44.011Z</time></trkpt><trkpt lat="44.0113553" lon="11.934073"><ele>213.99999999999997</ele><time>2026-04-11T09:22:45.011Z</time></trkpt><trkpt lat="44.0112977" lon="11.9340046"><ele>214.0</ele><time>2026-04-11T09:22:46.011Z</time></trkpt><trkpt lat="44.0112674" lon="11.9339045"><ele>214.0</ele><time>2026-04-11T09:22:47.011Z</time></trkpt><trkpt lat="44.0111825" lon="11.9337904"><ele>214.0</ele><time>2026-04-11T09:22:49.011Z</time></trkpt><trkpt lat="44.0111223" lon="11.9337374"><ele>213.99999999999997</ele><time>2026-04-11T09:22:50.012Z</time></trkpt><trkpt lat="44.0110681" lon="11.9336767"><ele>214.0</ele><time>2026-04-11T09:22:51.011Z</time></trkpt><trkpt lat="44.0110082" lon="11.9335924"><ele>213.99999999999997</ele><time>2026-04-11T09:22:52.011Z</time></trkpt><trkpt lat="44.0109461" lon="11.9335385"><ele>214.0</ele><time>2026-04-11T09:22:53.011Z</time></trkpt><trkpt lat="44.0108762" lon="11.9334445"><ele>214.0</ele><time>2026-04-11T09:22:54.011Z</time></trkpt><trkpt lat="44.0107939" lon="11.9333758"><ele>214.0</ele><time>2026-04-11T09:22:55.011Z</time></trkpt><trkpt lat="44.0107244" lon="11.9333008"><ele>213.99999999999997</ele><time>2026-04-11T09:22:56.011Z</time></trkpt><trkpt lat="44.0106694" lon="11.9332079"><ele>214.0</ele><time>2026-04-11T09:22:57.012Z</time></trkpt><trkpt lat="44.010614" lon="11.933095"><ele>210.39999999999998</ele><time>2026-04-11T09:22:58.012Z</time></trkpt><trkpt lat="44.0105207" lon="11.9330328"><ele>206.79999999999998</ele><time>2026-04-11T09:22:59.012Z</time></trkpt><trkpt lat="44.0104403" lon="11.9329629"><ele>203.2</ele><time>2026-04-11T09:23:00.012Z</time></trkpt><trkpt lat="44.0103762" lon="11.9328805"><ele>199.60000000000002</ele><time>2026-04-11T09:23:01.013Z</time></trkpt><trkpt lat="44.0103117" lon="11.9327761"><ele>196.0</ele><time>2026-04-11T09:23:02.011Z</time></trkpt><trkpt lat="44.0102391" lon="11.9326823"><ele>196.0</ele><time>2026-04-11T09:23:03.011Z</time></trkpt><trkpt lat="44.0101748" lon="11.9325961"><ele>196.0</ele><time>2026-04-11T09:23:04.012Z</time></trkpt><trkpt lat="44.0101296" lon="11.9324906"><ele>196.0</ele><time>2026-04-11T09:23:05.012Z</time></trkpt><trkpt lat="44.0100801" lon="11.9323795"><ele>196.0</ele><time>2026-04-11T09:23:06.012Z</time></trkpt><trkpt lat="44.0100845" lon="11.93225"><ele>196.0</ele><time>2026-04-11T09:23:07.012Z</time></trkpt><trkpt lat="44.0100504" lon="11.9321338"><ele>196.20000000000002</ele><time>2026-04-11T09:23:08.013Z</time></trkpt><trkpt lat="44.0100197" lon="11.9320145"><ele>196.4</ele><time>2026-04-11T09:23:09.012Z</time></trkpt><trkpt lat="44.0100083" lon="11.9318777"><ele>196.6</ele><time>2026-04-11T09:23:10.012Z</time></trkpt><trkpt lat="44.0099687" lon="11.9317375"><ele>196.8</ele><time>2026-04-11T09:23:11.011Z</time></trkpt><trkpt lat="44.0098953" lon="11.9316546"><ele>197.0</ele><time>2026-04-11T09:23:12.011Z</time></trkpt><trkpt lat="44.0098295" lon="11.9315672"><ele>197.0</ele><time>2026-04-11T09:23:13.011Z</time></trkpt><trkpt lat="44.0097644" lon="11.9314907"><ele>197.0</ele><time>2026-04-11T09:23:14.012Z</time></trkpt><trkpt lat="44.009702" lon="11.931403"><ele>197.0</ele><time>2026-04-11T09:23:15.012Z</time></trkpt><trkpt lat="44.0096217" lon="11.9313361"><ele>197.0</ele><time>2026-04-11T09:23:16.011Z</time></trkpt><trkpt lat="44.0095403" lon="11.9312753"><ele>197.0</ele><time>2026-04-11T09:23:17.012Z</time></trkpt><trkpt lat="44.0094591" lon="11.9312063"><ele>197.0</ele><time>2026-04-11T09:23:18.011Z</time></trkpt><trkpt lat="44.009353" lon="11.9311584"><ele>197.0</ele><time>2026-04-11T09:23:19.013Z</time></trkpt><trkpt lat="44.0092581" lon="11.9311025"><ele>197.0</ele><time>2026-04-11T09:23:20.011Z</time></trkpt><trkpt lat="44.0091788" lon="11.931069"><ele>197.0</ele><time>2026-04-11T09:23:21.012Z</time></trkpt><trkpt lat="44.0090941" lon="11.9310237"><ele>197.0</ele><time>2026-04-11T09:23:22.012Z</time></trkpt><trkpt lat="44.009004" lon="11.9309623"><ele>195.0</ele><time>2026-04-11T09:23:23.011Z</time></trkpt><trkpt lat="44.0089166" lon="11.9309138"><ele>193.0</ele><time>2026-04-11T09:23:24.012Z</time></trkpt><trkpt lat="44.0088251" lon="11.9308566"><ele>191.0</ele><time>2026-04-11T09:23:25.012Z</time></trkpt><trkpt lat="44.0087505" lon="11.9307795"><ele>189.0</ele><time>2026-04-11T09:23:26.012Z</time></trkpt><trkpt lat="44.0086721" lon="11.930691"><ele>187.0</ele><time>2026-04-11T09:23:27.012Z</time></trkpt><trkpt lat="44.0085855" lon="11.9306025"><ele>187.0</ele><time>2026-04-11T09:23:28.013Z</time></trkpt><trkpt lat="44.0085222" lon="11.9304713"><ele>187.0</ele><time>2026-04-11T09:23:29.011Z</time></trkpt><trkpt lat="44.0084523" lon="11.930365"><ele>187.0</ele><time>2026-04-11T09:23:30.011Z</time></trkpt><trkpt lat="44.0083888" lon="11.9302252"><ele>187.0</ele><time>2026-04-11T09:23:31.011Z</time></trkpt><trkpt lat="44.0083156" lon="11.9301397"><ele>187.0</ele><time>2026-04-11T09:23:32.012Z</time></trkpt><trkpt lat="44.0082423" lon="11.9300592"><ele>185.2</ele><time>2026-04-11T09:23:33.011Z</time></trkpt><trkpt lat="44.0081723" lon="11.9299753"><ele>183.39999999999998</ele><time>2026-04-11T09:23:34.011Z</time></trkpt><trkpt lat="44.0081029" lon="11.9298948"><ele>181.60000000000002</ele><time>2026-04-11T09:23:35.011Z</time></trkpt><trkpt lat="44.0080266" lon="11.9298055"><ele>179.8</ele><time>2026-04-11T09:23:36.012Z</time></trkpt><trkpt lat="44.0079549" lon="11.9297164"><ele>178.0</ele><time>2026-04-11T09:23:37.011Z</time></trkpt><trkpt lat="44.0078971" lon="11.9296121"><ele>178.0</ele><time>2026-04-11T09:23:38.012Z</time></trkpt><trkpt lat="44.007809" lon="11.9295289"><ele>178.0</ele><time>2026-04-11T09:23:39.012Z</time></trkpt><trkpt lat="44.0077381" lon="11.9294389"><ele>178.0</ele><time>2026-04-11T09:23:40.011Z</time></trkpt><trkpt lat="44.0076605" lon="11.9293672"><ele>178.0</ele><time>2026-04-11T09:23:41.012Z</time></trkpt><trkpt lat="44.0075959" lon="11.9292656"><ele>178.0</ele><time>2026-04-11T09:23:42.011Z</time></trkpt><trkpt lat="44.0075425" lon="11.9291607"><ele>179.5</ele><time>2026-04-11T09:23:43.012Z</time></trkpt><trkpt lat="44.0074989" lon="11.9290572"><ele>181.0</ele><time>2026-04-11T09:23:44.011Z</time></trkpt><trkpt lat="44.0074764" lon="11.9289538"><ele>182.5</ele><time>2026-04-11T09:23:45.013Z</time></trkpt><trkpt lat="44.0074469" lon="11.9288388"><ele>184.0</ele><time>2026-04-11T09:23:46.012Z</time></trkpt><trkpt lat="44.0074249" lon="11.9287409"><ele>185.5</ele><time>2026-04-11T09:23:47.012Z</time></trkpt><trkpt lat="44.0074837" lon="11.9286055"><ele>187.0</ele><time>2026-04-11T09:23:48.011Z</time></trkpt><trkpt lat="44.0075383" lon="11.9284914"><ele>187.16666666666669</ele><time>2026-04-11T09:23:49.012Z</time></trkpt><trkpt lat="44.0075972" lon="11.9283696"><ele>187.33333333333334</ele><time>2026-04-11T09:23:50.011Z</time></trkpt><trkpt lat="44.0076421" lon="11.9282555"><ele>187.5</ele><time>2026-04-11T09:23:51.011Z</time></trkpt><trkpt lat="44.007696" lon="11.928166"><ele>187.66666666666666</ele><time>2026-04-11T09:23:52.011Z</time></trkpt><trkpt lat="44.0077383" lon="11.9280653"><ele>187.83333333333331</ele><time>2026-04-11T09:23:53.013Z</time></trkpt><trkpt lat="44.0077858" lon="11.927975"><ele>188.0</ele><time>2026-04-11T09:23:54.012Z</time></trkpt><trkpt lat="44.0078258" lon="11.9278891"><ele>188.0</ele><time>2026-04-11T09:23:55.013Z</time></trkpt><trkpt lat="44.0078746" lon="11.9278119"><ele>188.0</ele><time>2026-04-11T09:23:56.011Z</time></trkpt><trkpt lat="44.0079183" lon="11.9277452"><ele>188.0</ele><time>2026-04-11T09:23:57.011Z</time></trkpt><trkpt lat="44.0079619" lon="11.9276811"><ele>188.0</ele><time>2026-04-11T09:23:58.012Z</time></trkpt><trkpt lat="44.008034" lon="11.9275719"><ele>188.0</ele><time>2026-04-11T09:24:00.012Z</time></trkpt><trkpt lat="44.0080797" lon="11.9274836"><ele>188.0</ele><time>2026-04-11T09:24:02.011Z</time></trkpt><trkpt lat="44.0080251" lon="11.92744"><ele>188.0</ele><time>2026-04-11T09:24:05.011Z</time></trkpt><trkpt lat="44.0079609" lon="11.9274966"><ele>188.0</ele><time>2026-04-11T09:24:07.011Z</time></trkpt><trkpt lat="44.0078663" lon="11.9275744"><ele>188.0</ele><time>2026-04-11T09:24:09.011Z</time></trkpt><trkpt lat="44.0078035" lon="11.9276618"><ele>188.0</ele><time>2026-04-11T09:24:11.011Z</time></trkpt><trkpt lat="44.007716" lon="11.9276826"><ele>188.0</ele><time>2026-04-11T09:24:13.011Z</time></trkpt><trkpt lat="44.0076304" lon="11.9276274"><ele>188.0</ele><time>2026-04-11T09:24:15.012Z</time></trkpt><trkpt lat="44.0075332" lon="11.9275604"><ele>188.0</ele><time>2026-04-11T09:24:17.011Z</time></trkpt><trkpt lat="44.0074566" lon="11.9274863"><ele>188.0</ele><time>2026-04-11T09:24:19.011Z</time></trkpt><trkpt lat="44.0074372" lon="11.9273915"><ele>188.0</ele><time>2026-04-11T09:24:21.013Z</time></trkpt><trkpt lat="44.0074843" lon="11.9272952"><ele>188.0</ele><time>2026-04-11T09:24:23.013Z</time></trkpt><trkpt lat="44.0075571" lon="11.9271952"><ele>186.2</ele><time>2026-04-11T09:24:25.013Z</time></trkpt><trkpt lat="44.0076501" lon="11.9270883"><ele>184.4</ele><time>2026-04-11T09:24:27.012Z</time></trkpt><trkpt lat="44.007746" lon="11.9269695"><ele>182.6</ele><time>2026-04-11T09:24:29.012Z</time></trkpt><trkpt lat="44.0078017" lon="11.9269125"><ele>180.79999999999998</ele><time>2026-04-11T09:24:30.012Z</time></trkpt><trkpt lat="44.0078609" lon="11.9268585"><ele>179.0</ele><time>2026-04-11T09:24:31.012Z</time></trkpt><trkpt lat="44.007926" lon="11.9268116"><ele>179.0</ele><time>2026-04-11T09:24:32.011Z</time></trkpt><trkpt lat="44.0079961" lon="11.9267649"><ele>179.0</ele><time>2026-04-11T09:24:33.011Z</time></trkpt><trkpt lat="44.0080702" lon="11.926725"><ele>179.0</ele><time>2026-04-11T09:24:34.012Z</time></trkpt><trkpt lat="44.0081494" lon="11.9266858"><ele>179.0</ele><time>2026-04-11T09:24:35.012Z</time></trkpt><trkpt lat="44.0082251" lon="11.9266484"><ele>179.0</ele><time>2026-04-11T09:24:36.012Z</time></trkpt><trkpt lat="44.0083028" lon="11.926613"><ele>179.0</ele><time>2026-04-11T09:24:37.011Z</time></trkpt><trkpt lat="44.0083774" lon="11.9265801"><ele>180.0</ele><time>2026-04-11T09:24:38.012Z</time></trkpt><trkpt lat="44.0084503" lon="11.9265504"><ele>181.0</ele><time>2026-04-11T09:24:39.011Z</time></trkpt><trkpt lat="44.008524" lon="11.9265217"><ele>182.0</ele><time>2026-04-11T09:24:40.011Z</time></trkpt><trkpt lat="44.0085969" lon="11.926491"><ele>183.0</ele><time>2026-04-11T09:24:41.011Z</time></trkpt><trkpt lat="44.0086631" lon="11.9264626"><ele>184.0</ele><time>2026-04-11T09:24:42.012Z</time></trkpt><trkpt lat="44.0087652" lon="11.9264158"><ele>185.0</ele><time>2026-04-11T09:24:44.011Z</time></trkpt><trkpt lat="44.0088452" lon="11.9263784"><ele>185.0</ele><time>2026-04-11T09:24:46.013Z</time></trkpt><trkpt lat="44.0089097" lon="11.9263261"><ele>185.0</ele><time>2026-04-11T09:24:48.011Z</time></trkpt><trkpt lat="44.0089738" lon="11.9262518"><ele>185.0</ele><time>2026-04-11T09:24:52.012Z</time></trkpt><trkpt lat="44.0090386" lon="11.9262149"><ele>185.0</ele><time>2026-04-11T09:24:54.012Z</time></trkpt><trkpt lat="44.0091284" lon="11.9261676"><ele>185.0</ele><time>2026-04-11T09:24:56.012Z</time></trkpt><trkpt lat="44.0092212" lon="11.9261194"><ele>185.0</ele><time>2026-04-11T09:24:58.011Z</time></trkpt><trkpt lat="44.0093155" lon="11.9260843"><ele>184.8</ele><time>2026-04-11T09:25:00.012Z</time></trkpt><trkpt lat="44.0094163" lon="11.9260396"><ele>184.6</ele><time>2026-04-11T09:25:02.011Z</time></trkpt><trkpt lat="44.0095156" lon="11.9260004"><ele>184.39999999999998</ele><time>2026-04-11T09:25:04.011Z</time></trkpt><trkpt lat="44.0096144" lon="11.925963"><ele>184.2</ele><time>2026-04-11T09:25:06.012Z</time></trkpt><trkpt lat="44.0097063" lon="11.9259039"><ele>184.0</ele><time>2026-04-11T09:25:08.012Z</time></trkpt><trkpt lat="44.0097968" lon="11.925836"><ele>184.0</ele><time>2026-04-11T09:25:10.012Z</time></trkpt><trkpt lat="44.0098745" lon="11.925753"><ele>184.0</ele><time>2026-04-11T09:25:12.012Z</time></trkpt><trkpt lat="44.0099416" lon="11.9256704"><ele>184.0</ele><time>2026-04-11T09:25:14.012Z</time></trkpt><trkpt lat="44.0100093" lon="11.9255783"><ele>184.0</ele><time>2026-04-11T09:25:16.011Z</time></trkpt><trkpt lat="44.0100726" lon="11.925474"><ele>184.0</ele><time>2026-04-11T09:25:18.012Z</time></trkpt><trkpt lat="44.0101206" lon="11.9253627"><ele>184.66666666666669</ele><time>2026-04-11T09:25:20.012Z</time></trkpt><trkpt lat="44.0101492" lon="11.9252476"><ele>185.33333333333334</ele><time>2026-04-11T09:25:22.011Z</time></trkpt><trkpt lat="44.0101714" lon="11.9251573"><ele>186.0</ele><time>2026-04-11T09:25:24.012Z</time></trkpt><trkpt lat="44.0101725" lon="11.9250603"><ele>186.66666666666666</ele><time>2026-04-11T09:25:27.011Z</time></trkpt><trkpt lat="44.0101308" lon="11.9249658"><ele>187.33333333333331</ele><time>2026-04-11T09:25:46.012Z</time></trkpt><trkpt lat="44.0100758" lon="11.9248637"><ele>188.0</ele><time>2026-04-11T09:25:49.012Z</time></trkpt><trkpt lat="44.0100289" lon="11.9247948"><ele>187.0</ele><time>2026-04-11T09:25:51.011Z</time></trkpt><trkpt lat="44.0099795" lon="11.924727"><ele>186.0</ele><time>2026-04-11T09:25:53.011Z</time></trkpt><trkpt lat="44.0099277" lon="11.9246632"><ele>185.0</ele><time>2026-04-11T09:25:55.012Z</time></trkpt><trkpt lat="44.0098785" lon="11.9245958"><ele>184.0</ele><time>2026-04-11T09:25:57.011Z</time></trkpt><trkpt lat="44.0098278" lon="11.9245346"><ele>183.0</ele><time>2026-04-11T09:25:59.011Z</time></trkpt><trkpt lat="44.0097679" lon="11.9244898"><ele>182.0</ele><time>2026-04-11T09:26:01.013Z</time></trkpt><trkpt lat="44.0097008" lon="11.9244585"><ele>181.0</ele><time>2026-04-11T09:26:03.012Z</time></trkpt><trkpt lat="44.0096291" lon="11.9244465"><ele>181.0</ele><time>2026-04-11T09:26:05.011Z</time></trkpt><trkpt lat="44.009556" lon="11.9244252"><ele>181.0</ele><time>2026-04-11T09:26:07.011Z</time></trkpt><trkpt lat="44.0094791" lon="11.9243816"><ele>181.0</ele><time>2026-04-11T09:26:09.013Z</time></trkpt><trkpt lat="44.0094024" lon="11.9243411"><ele>181.0</ele><time>2026-04-11T09:26:11.011Z</time></trkpt><trkpt lat="44.0093294" lon="11.9243112"><ele>181.0</ele><time>2026-04-11T09:26:13.011Z</time></trkpt><trkpt lat="44.0092574" lon="11.9242895"><ele>181.0</ele><time>2026-04-11T09:26:15.012Z</time></trkpt><trkpt lat="44.009182" lon="11.924271"><ele>180.83333333333334</ele><time>2026-04-11T09:26:17.012Z</time></trkpt><trkpt lat="44.0091061" lon="11.9242503"><ele>180.66666666666669</ele><time>2026-04-11T09:26:19.011Z</time></trkpt><trkpt lat="44.0090259" lon="11.9242335"><ele>180.5</ele><time>2026-04-11T09:26:21.011Z</time></trkpt><trkpt lat="44.0089401" lon="11.924217"><ele>180.33333333333334</ele><time>2026-04-11T09:26:23.011Z</time></trkpt><trkpt lat="44.0088624" lon="11.9241984"><ele>180.16666666666666</ele><time>2026-04-11T09:26:25.011Z</time></trkpt><trkpt lat="44.008782" lon="11.92418"><ele>180.0</ele><time>2026-04-11T09:26:27.012Z</time></trkpt><trkpt lat="44.0086899" lon="11.9241592"><ele>180.0</ele><time>2026-04-11T09:26:29.012Z</time></trkpt><trkpt lat="44.0085976" lon="11.9241441"><ele>180.0</ele><time>2026-04-11T09:26:31.011Z</time></trkpt><trkpt lat="44.0085089" lon="11.9241323"><ele>180.0</ele><time>2026-04-11T09:26:33.012Z</time></trkpt><trkpt lat="44.0084159" lon="11.9241126"><ele>180.0</ele><time>2026-04-11T09:26:35.012Z</time></trkpt><trkpt lat="44.0083311" lon="11.9240681"><ele>180.0</ele><time>2026-04-11T09:26:37.011Z</time></trkpt><trkpt lat="44.0082721" lon="11.9239759"><ele>180.4</ele><time>2026-04-11T09:26:39.011Z</time></trkpt><trkpt lat="44.0082496" lon="11.9238518"><ele>180.8</ele><time>2026-04-11T09:26:41.01Z</time></trkpt><trkpt lat="44.0082436" lon="11.9237104"><ele>181.2</ele><time>2026-04-11T09:26:43.011Z</time></trkpt><trkpt lat="44.0082444" lon="11.9235669"><ele>181.6</ele><time>2026-04-11T09:26:45.011Z</time></trkpt><trkpt lat="44.0082438" lon="11.9234271"><ele>182.0</ele><time>2026-04-11T09:26:47.01Z</time></trkpt><trkpt lat="44.0081948" lon="11.9233118"><ele>183.16666666666666</ele><time>2026-04-11T09:26:49.011Z</time></trkpt><trkpt lat="44.0081156" lon="11.9232252"><ele>184.33333333333331</ele><time>2026-04-11T09:26:51.011Z</time></trkpt><trkpt lat="44.0080487" lon="11.9232444"><ele>185.5</ele><time>2026-04-11T09:26:52.012Z</time></trkpt><trkpt lat="44.0079447" lon="11.9232312"><ele>186.66666666666666</ele><time>2026-04-11T09:26:54.012Z</time></trkpt><trkpt lat="44.007862" lon="11.9231766"><ele>187.83333333333334</ele><time>2026-04-11T09:26:56.012Z</time></trkpt><trkpt lat="44.0078365" lon="11.9230779"><ele>189.0</ele><time>2026-04-11T09:26:58.011Z</time></trkpt><trkpt lat="44.0078723" lon="11.9230008"><ele>189.0</ele><time>2026-04-11T09:27:00.012Z</time></trkpt><trkpt lat="44.0079007" lon="11.9229143"><ele>189.0</ele><time>2026-04-11T09:27:02.01Z</time></trkpt><trkpt lat="44.0079207" lon="11.9228282"><ele>189.0</ele><time>2026-04-11T09:27:04.011Z</time></trkpt><trkpt lat="44.0079171" lon="11.922694"><ele>189.0</ele><time>2026-04-11T09:27:07.011Z</time></trkpt><trkpt lat="44.0079653" lon="11.9225917"><ele>189.0</ele><time>2026-04-11T09:27:09.01Z</time></trkpt><trkpt lat="44.0079922" lon="11.9225111"><ele>189.0</ele><time>2026-04-11T09:27:10.011Z</time></trkpt><trkpt lat="44.0080109" lon="11.922424"><ele>189.0</ele><time>2026-04-11T09:27:11.011Z</time></trkpt><trkpt lat="44.0080338" lon="11.9223088"><ele>190.39999999999998</ele><time>2026-04-11T09:27:12.01Z</time></trkpt><trkpt lat="44.0080642" lon="11.9221696"><ele>191.8</ele><time>2026-04-11T09:27:13.01Z</time></trkpt><trkpt lat="44.0080998" lon="11.9220152"><ele>193.2</ele><time>2026-04-11T09:27:14.012Z</time></trkpt><trkpt lat="44.0081373" lon="11.9218633"><ele>194.60000000000002</ele><time>2026-04-11T09:27:15.011Z</time></trkpt><trkpt lat="44.0081713" lon="11.9217202"><ele>196.0</ele><time>2026-04-11T09:27:16.012Z</time></trkpt><trkpt lat="44.0082013" lon="11.921591"><ele>196.16666666666666</ele><time>2026-04-11T09:27:17.011Z</time></trkpt><trkpt lat="44.0082326" lon="11.9214757"><ele>196.33333333333331</ele><time>2026-04-11T09:27:18.011Z</time></trkpt><trkpt lat="44.0082564" lon="11.9213747"><ele>196.5</ele><time>2026-04-11T09:27:19.01Z</time></trkpt><trkpt lat="44.0083077" lon="11.9212569"><ele>196.66666666666669</ele><time>2026-04-11T09:27:21.01Z</time></trkpt><trkpt lat="44.0083763" lon="11.9212171"><ele>196.83333333333334</ele><time>2026-04-11T09:27:24.01Z</time></trkpt><trkpt lat="44.0083012" lon="11.9212087"><ele>197.0</ele><time>2026-04-11T09:27:41.01Z</time></trkpt><trkpt lat="44.0082029" lon="11.9211503"><ele>197.0</ele><time>2026-04-11T09:27:44.01Z</time></trkpt><trkpt lat="44.0081618" lon="11.9210618"><ele>197.0</ele><time>2026-04-11T09:27:45.01Z</time></trkpt><trkpt lat="44.0081378" lon="11.9209575"><ele>197.0</ele><time>2026-04-11T09:27:46.011Z</time></trkpt><trkpt lat="44.0081264" lon="11.9208301"><ele>197.0</ele><time>2026-04-11T09:27:47.011Z</time></trkpt><trkpt lat="44.0081283" lon="11.9206802"><ele>197.0</ele><time>2026-04-11T09:27:48.011Z</time></trkpt><trkpt lat="44.0081358" lon="11.9205108"><ele>198.66666666666669</ele><time>2026-04-11T09:27:49.011Z</time></trkpt><trkpt lat="44.0081494" lon="11.9203192"><ele>200.33333333333331</ele><time>2026-04-11T09:27:50.011Z</time></trkpt><trkpt lat="44.0081638" lon="11.9200985"><ele>202.0</ele><time>2026-04-11T09:27:51.011Z</time></trkpt><trkpt lat="44.008177" lon="11.9198496"><ele>204.66666666666666</ele><time>2026-04-11T09:27:52.011Z</time></trkpt><trkpt lat="44.0081902" lon="11.9195733"><ele>207.33333333333331</ele><time>2026-04-11T09:27:53.01Z</time></trkpt><trkpt lat="44.0082041" lon="11.9192958"><ele>210.0</ele><time>2026-04-11T09:27:54.012Z</time></trkpt><trkpt lat="44.0082179" lon="11.9190603"><ele>211.25</ele><time>2026-04-11T09:27:55.01Z</time></trkpt><trkpt lat="44.0082272" lon="11.9188491"><ele>212.5</ele><time>2026-04-11T09:27:56.011Z</time></trkpt><trkpt lat="44.0082349" lon="11.9186643"><ele>213.75</ele><time>2026-04-11T09:27:57.011Z</time></trkpt><trkpt lat="44.0082416" lon="11.9185049"><ele>215.0</ele><time>2026-04-11T09:27:58.011Z</time></trkpt><trkpt lat="44.0082317" lon="11.9183609"><ele>215.8</ele><time>2026-04-11T09:27:59.01Z</time></trkpt><trkpt lat="44.008205" lon="11.9182215"><ele>216.6</ele><time>2026-04-11T09:28:00.011Z</time></trkpt><trkpt lat="44.0081651" lon="11.9180922"><ele>217.39999999999998</ele><time>2026-04-11T09:28:01.011Z</time></trkpt><trkpt lat="44.0081234" lon="11.9179919"><ele>218.2</ele><time>2026-04-11T09:28:02.012Z</time></trkpt><trkpt lat="44.0081143" lon="11.9178577"><ele>219.0</ele><time>2026-04-11T09:28:04.011Z</time></trkpt><trkpt lat="44.0081958" lon="11.9178893"><ele>219.0</ele><time>2026-04-11T09:28:07.011Z</time></trkpt><trkpt lat="44.0082215" lon="11.9179834"><ele>219.0</ele><time>2026-04-11T09:28:08.011Z</time></trkpt><trkpt lat="44.0082568" lon="11.9180781"><ele>219.0</ele><time>2026-04-11T09:28:09.011Z</time></trkpt><trkpt lat="44.0083027" lon="11.9181764"><ele>219.0</ele><time>2026-04-11T09:28:10.011Z</time></trkpt><trkpt lat="44.0083681" lon="11.9182577"><ele>219.0</ele><time>2026-04-11T09:28:11.01Z</time></trkpt><trkpt lat="44.0084409" lon="11.9183133"><ele>219.0</ele><time>2026-04-11T09:28:12.011Z</time></trkpt><trkpt lat="44.0085136" lon="11.9183532"><ele>218.0</ele><time>2026-04-11T09:28:13.01Z</time></trkpt><trkpt lat="44.0085873" lon="11.9184028"><ele>217.0</ele><time>2026-04-11T09:28:14.01Z</time></trkpt><trkpt lat="44.0086561" lon="11.9184481"><ele>216.0</ele><time>2026-04-11T09:28:15.01Z</time></trkpt><trkpt lat="44.0087215" lon="11.9184818"><ele>215.0</ele><time>2026-04-11T09:28:16.011Z</time></trkpt><trkpt lat="44.0087793" lon="11.9185216"><ele>214.0</ele><time>2026-04-11T09:28:17.011Z</time></trkpt><trkpt lat="44.0088429" lon="11.9185316"><ele>213.0</ele><time>2026-04-11T09:28:20.012Z</time></trkpt><trkpt lat="44.0087496" lon="11.9184916"><ele>213.0</ele><time>2026-04-11T09:28:23.011Z</time></trkpt><trkpt lat="44.0086547" lon="11.9184019"><ele>213.0</ele><time>2026-04-11T09:28:25.01Z</time></trkpt><trkpt lat="44.0086173" lon="11.918241"><ele>213.0</ele><time>2026-04-11T09:28:27.01Z</time></trkpt><trkpt lat="44.0086331" lon="11.9180859"><ele>213.0</ele><time>2026-04-11T09:28:29.01Z</time></trkpt><trkpt lat="44.0086771" lon="11.91795"><ele>215.0</ele><time>2026-04-11T09:28:31.011Z</time></trkpt><trkpt lat="44.0087421" lon="11.9178482"><ele>217.0</ele><time>2026-04-11T09:28:33.012Z</time></trkpt><trkpt lat="44.0088338" lon="11.9177469"><ele>219.0</ele><time>2026-04-11T09:28:35.011Z</time></trkpt><trkpt lat="44.0089378" lon="11.9176598"><ele>221.0</ele><time>2026-04-11T09:28:37.01Z</time></trkpt><trkpt lat="44.0090384" lon="11.9176138"><ele>223.0</ele><time>2026-04-11T09:28:39.01Z</time></trkpt><trkpt lat="44.0091021" lon="11.9176297"><ele>225.75</ele><time>2026-04-11T09:28:40.011Z</time></trkpt><trkpt lat="44.0092361" lon="11.9176836"><ele>228.5</ele><time>2026-04-11T09:28:42.01Z</time></trkpt><trkpt lat="44.0093557" lon="11.9178231"><ele>231.25</ele><time>2026-04-11T09:28:43.011Z</time></trkpt><trkpt lat="44.0094382" lon="11.9178971"><ele>234.0</ele><time>2026-04-11T09:28:44.011Z</time></trkpt><trkpt lat="44.0095289" lon="11.9179694"><ele>234.0</ele><time>2026-04-11T09:28:45.011Z</time></trkpt><trkpt lat="44.0096186" lon="11.9180279"><ele>233.99999999999997</ele><time>2026-04-11T09:28:46.01Z</time></trkpt><trkpt lat="44.0097043" lon="11.9180858"><ele>233.99999999999997</ele><time>2026-04-11T09:28:47.011Z</time></trkpt><trkpt lat="44.0098025" lon="11.9181292"><ele>234.0</ele><time>2026-04-11T09:28:48.01Z</time></trkpt><trkpt lat="44.0099051" lon="11.9181807"><ele>234.0</ele><time>2026-04-11T09:28:49.01Z</time></trkpt><trkpt lat="44.0099934" lon="11.9182294"><ele>236.0</ele><time>2026-04-11T09:28:50.01Z</time></trkpt><trkpt lat="44.0100811" lon="11.9182746"><ele>238.0</ele><time>2026-04-11T09:28:51.01Z</time></trkpt><trkpt lat="44.0101588" lon="11.9183115"><ele>240.0</ele><time>2026-04-11T09:28:52.01Z</time></trkpt><trkpt lat="44.0102337" lon="11.9183368"><ele>242.0</ele><time>2026-04-11T09:28:53.011Z</time></trkpt><trkpt lat="44.0103082" lon="11.9183459"><ele>244.0</ele><time>2026-04-11T09:28:54.011Z</time></trkpt><trkpt lat="44.0103805" lon="11.9183357"><ele>246.0</ele><time>2026-04-11T09:28:55.011Z</time></trkpt><trkpt lat="44.0104513" lon="11.9183278"><ele>246.0</ele><time>2026-04-11T09:28:56.01Z</time></trkpt><trkpt lat="44.0105043" lon="11.9182636"><ele>246.00000000000003</ele><time>2026-04-11T09:28:57.011Z</time></trkpt><trkpt lat="44.010605" lon="11.9181772"><ele>246.00000000000003</ele><time>2026-04-11T09:28:58.01Z</time></trkpt><trkpt lat="44.0106906" lon="11.9181376"><ele>246.0</ele><time>2026-04-11T09:28:59.01Z</time></trkpt><trkpt lat="44.0107448" lon="11.9180344"><ele>246.0</ele><time>2026-04-11T09:29:00.011Z</time></trkpt><trkpt lat="44.010823" lon="11.9179845"><ele>248.0</ele><time>2026-04-11T09:29:01.011Z</time></trkpt><trkpt lat="44.0109251" lon="11.9178933"><ele>250.00000000000003</ele><time>2026-04-11T09:29:02.01Z</time></trkpt><trkpt lat="44.0110003" lon="11.9177854"><ele>252.00000000000003</ele><time>2026-04-11T09:29:03.012Z</time></trkpt><trkpt lat="44.0110874" lon="11.9177054"><ele>254.0</ele><time>2026-04-11T09:29:04.01Z</time></trkpt><trkpt lat="44.0111576" lon="11.9176408"><ele>256.0</ele><time>2026-04-11T09:29:05.011Z</time></trkpt><trkpt lat="44.0112063" lon="11.9175591"><ele>256.0</ele><time>2026-04-11T09:29:06.011Z</time></trkpt><trkpt lat="44.0112819" lon="11.9174933"><ele>256.0</ele><time>2026-04-11T09:29:07.011Z</time></trkpt><trkpt lat="44.0113648" lon="11.9174317"><ele>256.0</ele><time>2026-04-11T09:29:10.01Z</time></trkpt><trkpt lat="44.0114326" lon="11.917475"><ele>256.0</ele><time>2026-04-11T09:32:29.012Z</time></trkpt><trkpt lat="44.0114425" lon="11.9176488"><ele>256.0</ele><time>2026-04-11T09:32:31.01Z</time></trkpt><trkpt lat="44.0114599" lon="11.9177404"><ele>255.99999999999997</ele><time>2026-04-11T09:32:32.011Z</time></trkpt><trkpt lat="44.01148" lon="11.9178358"><ele>256.0</ele><time>2026-04-11T09:32:33.011Z</time></trkpt><trkpt lat="44.0114577" lon="11.9179705"><ele>256.0</ele><time>2026-04-11T09:32:34.01Z</time></trkpt><trkpt lat="44.0114487" lon="11.9180779"><ele>256.0</ele><time>2026-04-11T09:32:35.01Z</time></trkpt><trkpt lat="44.0114323" lon="11.9181845"><ele>255.99999999999997</ele><time>2026-04-11T09:32:36.01Z</time></trkpt><trkpt lat="44.0114103" lon="11.9182867"><ele>256.0</ele><time>2026-04-11T09:32:37.01Z</time></trkpt><trkpt lat="44.0113804" lon="11.9183859"><ele>254.85714285714283</ele><time>2026-04-11T09:32:38.011Z</time></trkpt><trkpt lat="44.011359" lon="11.9184871"><ele>253.7142857142857</ele><time>2026-04-11T09:32:39.01Z</time></trkpt><trkpt lat="44.0113441" lon="11.9185826"><ele>252.57142857142856</ele><time>2026-04-11T09:32:40.011Z</time></trkpt><trkpt lat="44.0113301" lon="11.9186761"><ele>251.42857142857144</ele><time>2026-04-11T09:32:41.01Z</time></trkpt><trkpt lat="44.0113125" lon="11.9187657"><ele>250.2857142857143</ele><time>2026-04-11T09:32:42.01Z</time></trkpt><trkpt lat="44.0112944" lon="11.9188506"><ele>249.14285714285717</ele><time>2026-04-11T09:32:43.011Z</time></trkpt><trkpt lat="44.0113802" lon="11.9189111"><ele>248.0</ele><time>2026-04-11T09:32:46.011Z</time></trkpt><trkpt lat="44.0114443" lon="11.9189704"><ele>248.0</ele><time>2026-04-11T09:32:48.01Z</time></trkpt><trkpt lat="44.0115612" lon="11.9190458"><ele>248.0</ele><time>2026-04-11T09:32:50.01Z</time></trkpt><trkpt lat="44.0116241" lon="11.9190988"><ele>248.0</ele><time>2026-04-11T09:32:51.012Z</time></trkpt><trkpt lat="44.0116885" lon="11.9191735"><ele>248.0</ele><time>2026-04-11T09:32:53.01Z</time></trkpt><trkpt lat="44.0117534" lon="11.9192454"><ele>248.0</ele><time>2026-04-11T09:32:54.01Z</time></trkpt><trkpt lat="44.0118095" lon="11.9193283"><ele>251.00000000000003</ele><time>2026-04-11T09:32:55.01Z</time></trkpt><trkpt lat="44.0118715" lon="11.9194281"><ele>254.0</ele><time>2026-04-11T09:32:56.01Z</time></trkpt><trkpt lat="44.0119428" lon="11.9195323"><ele>257.0</ele><time>2026-04-11T09:32:57.012Z</time></trkpt><trkpt lat="44.0119957" lon="11.9196262"><ele>260.0</ele><time>2026-04-11T09:32:58.01Z</time></trkpt><trkpt lat="44.0120587" lon="11.9197088"><ele>263.0</ele><time>2026-04-11T09:32:59.01Z</time></trkpt><trkpt lat="44.0121258" lon="11.9197414"><ele>266.0</ele><time>2026-04-11T09:33:00.011Z</time></trkpt><trkpt lat="44.0122148" lon="11.9197708"><ele>266.0</ele><time>2026-04-11T09:33:01.01Z</time></trkpt><trkpt lat="44.0123015" lon="11.919805"><ele>266.0</ele><time>2026-04-11T09:33:02.012Z</time></trkpt><trkpt lat="44.0124214" lon="11.9198138"><ele>266.0</ele><time>2026-04-11T09:33:03.011Z</time></trkpt><trkpt lat="44.0125207" lon="11.91981"><ele>266.0</ele><time>2026-04-11T09:33:04.01Z</time></trkpt><trkpt lat="44.0126246" lon="11.9198233"><ele>266.0</ele><time>2026-04-11T09:33:05.011Z</time></trkpt><trkpt lat="44.0127226" lon="11.9198349"><ele>266.40000000000003</ele><time>2026-04-11T09:33:06.01Z</time></trkpt><trkpt lat="44.0128325" lon="11.9198629"><ele>266.8</ele><time>2026-04-11T09:33:07.011Z</time></trkpt><trkpt lat="44.012908" lon="11.9199196"><ele>267.20000000000005</ele><time>2026-04-11T09:33:08.011Z</time></trkpt><trkpt lat="44.0129987" lon="11.9199794"><ele>267.6</ele><time>2026-04-11T09:33:09.011Z</time></trkpt><trkpt lat="44.0130664" lon="11.9200314"><ele>268.0</ele><time>2026-04-11T09:33:10.012Z</time></trkpt><trkpt lat="44.0131454" lon="11.9200923"><ele>268.0</ele><time>2026-04-11T09:33:11.01Z</time></trkpt><trkpt lat="44.0132269" lon="11.9201554"><ele>268.0</ele><time>2026-04-11T09:33:12.01Z</time></trkpt><trkpt lat="44.0132702" lon="11.9202866"><ele>268.0</ele><time>2026-04-11T09:33:13.011Z</time></trkpt><trkpt lat="44.0132976" lon="11.9204743"><ele>268.0</ele><time>2026-04-11T09:33:14.011Z</time></trkpt><trkpt lat="44.0132839" lon="11.9206405"><ele>268.0</ele><time>2026-04-11T09:33:15.011Z</time></trkpt><trkpt lat="44.0132614" lon="11.9207745"><ele>268.0</ele><time>2026-04-11T09:33:16.011Z</time></trkpt><trkpt lat="44.0132618" lon="11.920894"><ele>268.0</ele><time>2026-04-11T09:33:17.01Z</time></trkpt><trkpt lat="44.0132862" lon="11.9209767"><ele>268.0</ele><time>2026-04-11T09:33:18.01Z</time></trkpt><trkpt lat="44.013341" lon="11.9210497"><ele>268.0</ele><time>2026-04-11T09:33:19.011Z</time></trkpt><trkpt lat="44.0133992" lon="11.9210838"><ele>268.0</ele><time>2026-04-11T09:33:20.011Z</time></trkpt><trkpt lat="44.0134637" lon="11.9210742"><ele>269.0</ele><time>2026-04-11T09:33:21.011Z</time></trkpt><trkpt lat="44.0135166" lon="11.921023"><ele>270.0</ele><time>2026-04-11T09:33:22.011Z</time></trkpt><trkpt lat="44.0135608" lon="11.9209303"><ele>271.0</ele><time>2026-04-11T09:33:23.012Z</time></trkpt><trkpt lat="44.0136001" lon="11.9208069"><ele>272.0</ele><time>2026-04-11T09:33:24.011Z</time></trkpt><trkpt lat="44.013669" lon="11.9206781"><ele>273.0</ele><time>2026-04-11T09:33:25.012Z</time></trkpt><trkpt lat="44.0137261" lon="11.9205445"><ele>276.8</ele><time>2026-04-11T09:33:26.011Z</time></trkpt><trkpt lat="44.0138236" lon="11.9204685"><ele>280.6</ele><time>2026-04-11T09:33:27.012Z</time></trkpt><trkpt lat="44.0139054" lon="11.9203874"><ele>284.4</ele><time>2026-04-11T09:33:28.012Z</time></trkpt><trkpt lat="44.0140087" lon="11.9203182"><ele>288.2</ele><time>2026-04-11T09:33:29.01Z</time></trkpt><trkpt lat="44.0141044" lon="11.920288"><ele>292.0</ele><time>2026-04-11T09:33:30.01Z</time></trkpt><trkpt lat="44.0142112" lon="11.920277"><ele>293.6</ele><time>2026-04-11T09:33:31.01Z</time></trkpt><trkpt lat="44.0142666" lon="11.9204098"><ele>295.2</ele><time>2026-04-11T09:33:32.01Z</time></trkpt><trkpt lat="44.0143585" lon="11.9204776"><ele>296.8</ele><time>2026-04-11T09:33:33.011Z</time></trkpt><trkpt lat="44.0144437" lon="11.9205375"><ele>298.4</ele><time>2026-04-11T09:33:34.01Z</time></trkpt><trkpt lat="44.0145317" lon="11.9205966"><ele>300.0</ele><time>2026-04-11T09:33:35.011Z</time></trkpt><trkpt lat="44.0146066" lon="11.9205985"><ele>300.0</ele><time>2026-04-11T09:33:36.011Z</time></trkpt><trkpt lat="44.0146886" lon="11.9206322"><ele>300.0</ele><time>2026-04-11T09:33:37.01Z</time></trkpt><trkpt lat="44.014775" lon="11.9205929"><ele>300.0</ele><time>2026-04-11T09:33:38.011Z</time></trkpt><trkpt lat="44.0148735" lon="11.9205578"><ele>300.0</ele><time>2026-04-11T09:33:39.01Z</time></trkpt><trkpt lat="44.0149512" lon="11.9205038"><ele>300.0</ele><time>2026-04-11T09:33:40.011Z</time></trkpt><trkpt lat="44.0150191" lon="11.9204221"><ele>300.6</ele><time>2026-04-11T09:33:41.01Z</time></trkpt><trkpt lat="44.0150957" lon="11.9203385"><ele>301.2</ele><time>2026-04-11T09:33:42.011Z</time></trkpt><trkpt lat="44.0151553" lon="11.9201919"><ele>301.8</ele><time>2026-04-11T09:33:43.01Z</time></trkpt><trkpt lat="44.0152263" lon="11.9200917"><ele>302.4</ele><time>2026-04-11T09:33:44.011Z</time></trkpt><trkpt lat="44.0153046" lon="11.9200127"><ele>303.0</ele><time>2026-04-11T09:33:45.01Z</time></trkpt><trkpt lat="44.0153839" lon="11.9199594"><ele>308.8333333333333</ele><time>2026-04-11T09:33:46.01Z</time></trkpt><trkpt lat="44.015466" lon="11.9199296"><ele>314.6666666666667</ele><time>2026-04-11T09:33:47.011Z</time></trkpt><trkpt lat="44.0155333" lon="11.9198852"><ele>320.5</ele><time>2026-04-11T09:33:48.012Z</time></trkpt><trkpt lat="44.0155907" lon="11.9198252"><ele>326.33333333333337</ele><time>2026-04-11T09:33:49.011Z</time></trkpt><trkpt lat="44.0156575" lon="11.9197447"><ele>332.1666666666667</ele><time>2026-04-11T09:33:50.011Z</time></trkpt><trkpt lat="44.0156846" lon="11.9196258"><ele>338.0</ele><time>2026-04-11T09:33:51.01Z</time></trkpt><trkpt lat="44.0156917" lon="11.9194902"><ele>338.0</ele><time>2026-04-11T09:33:52.011Z</time></trkpt><trkpt lat="44.0156737" lon="11.919328"><ele>338.0</ele><time>2026-04-11T09:33:53.01Z</time></trkpt><trkpt lat="44.0156554" lon="11.9191272"><ele>338.0</ele><time>2026-04-11T09:33:54.01Z</time></trkpt><trkpt lat="44.0157234" lon="11.9190595"><ele>338.0</ele><time>2026-04-11T09:33:55.011Z</time></trkpt><trkpt lat="44.0157568" lon="11.91896"><ele>338.0</ele><time>2026-04-11T09:33:56.01Z</time></trkpt><trkpt lat="44.0158049" lon="11.918862"><ele>336.4</ele><time>2026-04-11T09:33:57.012Z</time></trkpt><trkpt lat="44.0158907" lon="11.9187398"><ele>334.79999999999995</ele><time>2026-04-11T09:33:58.01Z</time></trkpt><trkpt lat="44.0159619" lon="11.9186753"><ele>333.2</ele><time>2026-04-11T09:33:59.01Z</time></trkpt><trkpt lat="44.0160847" lon="11.9186773"><ele>331.6</ele><time>2026-04-11T09:34:00.011Z</time></trkpt><trkpt lat="44.0161865" lon="11.9186498"><ele>330.0</ele><time>2026-04-11T09:34:01.01Z</time></trkpt><trkpt lat="44.0162719" lon="11.9187129"><ele>330.0</ele><time>2026-04-11T09:34:02.011Z</time></trkpt><trkpt lat="44.0163581" lon="11.9187242"><ele>330.0</ele><time>2026-04-11T09:34:03.011Z</time></trkpt><trkpt lat="44.0164605" lon="11.9186664"><ele>330.0</ele><time>2026-04-11T09:34:05.01Z</time></trkpt><trkpt lat="44.0165027" lon="11.9185848"><ele>330.0</ele><time>2026-04-11T09:34:06.01Z</time></trkpt><trkpt lat="44.0165391" lon="11.9185098"><ele>330.0</ele><time>2026-04-11T09:34:07.011Z</time></trkpt><trkpt lat="44.0165799" lon="11.9183747"><ele>330.0</ele><time>2026-04-11T09:34:08.012Z</time></trkpt><trkpt lat="44.0166074" lon="11.9182549"><ele>330.6</ele><time>2026-04-11T09:34:09.012Z</time></trkpt><trkpt lat="44.0166343" lon="11.9181369"><ele>331.2</ele><time>2026-04-11T09:34:10.011Z</time></trkpt><trkpt lat="44.016643" lon="11.9179856"><ele>331.79999999999995</ele><time>2026-04-11T09:34:11.011Z</time></trkpt><trkpt lat="44.0166508" lon="11.9178485"><ele>332.4</ele><time>2026-04-11T09:34:12.01Z</time></trkpt><trkpt lat="44.0166601" lon="11.9177114"><ele>333.0</ele><time>2026-04-11T09:34:13.011Z</time></trkpt><trkpt lat="44.0166898" lon="11.9175467"><ele>335.8333333333333</ele><time>2026-04-11T09:34:15.011Z</time></trkpt><trkpt lat="44.0167666" lon="11.9175127"><ele>338.6666666666667</ele><time>2026-04-11T09:34:16.011Z</time></trkpt><trkpt lat="44.0168348" lon="11.9174699"><ele>341.5</ele><time>2026-04-11T09:34:17.012Z</time></trkpt><trkpt lat="44.0169022" lon="11.91741"><ele>344.33333333333337</ele><time>2026-04-11T09:34:18.012Z</time></trkpt><trkpt lat="44.0169649" lon="11.9173103"><ele>347.1666666666667</ele><time>2026-04-11T09:34:19.01Z</time></trkpt><trkpt lat="44.0170347" lon="11.9172222"><ele>350.0</ele><time>2026-04-11T09:34:20.012Z</time></trkpt><trkpt lat="44.0170855" lon="11.9171012"><ele>350.0</ele><time>2026-04-11T09:34:21.011Z</time></trkpt><trkpt lat="44.0171484" lon="11.9170057"><ele>350.0</ele><time>2026-04-11T09:34:22.011Z</time></trkpt><trkpt lat="44.0172145" lon="11.9169143"><ele>350.0</ele><time>2026-04-11T09:34:23.01Z</time></trkpt><trkpt lat="44.0172803" lon="11.9168399"><ele>350.0</ele><time>2026-04-11T09:34:24.01Z</time></trkpt><trkpt lat="44.0173462" lon="11.9167651"><ele>350.0</ele><time>2026-04-11T09:34:25.01Z</time></trkpt><trkpt lat="44.0174126" lon="11.9166801"><ele>350.0</ele><time>2026-04-11T09:34:26.011Z</time></trkpt><trkpt lat="44.0174797" lon="11.916594"><ele>349.8</ele><time>2026-04-11T09:34:27.01Z</time></trkpt><trkpt lat="44.017551" lon="11.9165036"><ele>349.6</ele><time>2026-04-11T09:34:28.01Z</time></trkpt><trkpt lat="44.0176246" lon="11.9164121"><ele>349.4</ele><time>2026-04-11T09:34:29.01Z</time></trkpt><trkpt lat="44.0176968" lon="11.9163196"><ele>349.2</ele><time>2026-04-11T09:34:30.011Z</time></trkpt><trkpt lat="44.0177624" lon="11.9162279"><ele>349.0</ele><time>2026-04-11T09:34:31.011Z</time></trkpt><trkpt lat="44.0178224" lon="11.9161463"><ele>349.0</ele><time>2026-04-11T09:34:32.011Z</time></trkpt><trkpt lat="44.0178898" lon="11.916071"><ele>349.0</ele><time>2026-04-11T09:34:33.01Z</time></trkpt><trkpt lat="44.0179554" lon="11.9160004"><ele>349.0</ele><time>2026-04-11T09:34:34.012Z</time></trkpt><trkpt lat="44.0180223" lon="11.9159522"><ele>349.0</ele><time>2026-04-11T09:34:35.011Z</time></trkpt><trkpt lat="44.0180906" lon="11.9159299"><ele>349.0</ele><time>2026-04-11T09:34:36.01Z</time></trkpt><trkpt lat="44.0181569" lon="11.9159074"><ele>349.0</ele><time>2026-04-11T09:34:37.011Z</time></trkpt><trkpt lat="44.0182264" lon="11.9158688"><ele>349.6</ele><time>2026-04-11T09:34:38.01Z</time></trkpt><trkpt lat="44.0182851" lon="11.9157962"><ele>350.2</ele><time>2026-04-11T09:34:39.01Z</time></trkpt><trkpt lat="44.0183508" lon="11.9157242"><ele>350.8</ele><time>2026-04-11T09:34:40.01Z</time></trkpt><trkpt lat="44.0183917" lon="11.9155772"><ele>351.40000000000003</ele><time>2026-04-11T09:34:41.01Z</time></trkpt><trkpt lat="44.0184505" lon="11.91545"><ele>352.0</ele><time>2026-04-11T09:34:42.011Z</time></trkpt><trkpt lat="44.0184938" lon="11.9153388"><ele>352.0</ele><time>2026-04-11T09:34:43.012Z</time></trkpt><trkpt lat="44.0185273" lon="11.9152179"><ele>352.0</ele><time>2026-04-11T09:34:44.01Z</time></trkpt><trkpt lat="44.0185474" lon="11.915108"><ele>352.0</ele><time>2026-04-11T09:34:45.011Z</time></trkpt><trkpt lat="44.018582" lon="11.9149366"><ele>352.0</ele><time>2026-04-11T09:34:47.011Z</time></trkpt><trkpt lat="44.0186197" lon="11.9147688"><ele>352.0</ele><time>2026-04-11T09:34:49.01Z</time></trkpt><trkpt lat="44.0186401" lon="11.9146359"><ele>355.66666666666663</ele><time>2026-04-11T09:34:51.011Z</time></trkpt><trkpt lat="44.0186768" lon="11.9144992"><ele>359.3333333333333</ele><time>2026-04-11T09:34:53.012Z</time></trkpt><trkpt lat="44.0186886" lon="11.9144079"><ele>363.0</ele><time>2026-04-11T09:34:55.011Z</time></trkpt><trkpt lat="44.0187203" lon="11.9143276"><ele>366.6666666666667</ele><time>2026-04-11T09:34:57.01Z</time></trkpt><trkpt lat="44.0186821" lon="11.9144357"><ele>370.33333333333337</ele><time>2026-04-11T09:35:07.011Z</time></trkpt><trkpt lat="44.0186382" lon="11.9145887"><ele>374.0</ele><time>2026-04-11T09:35:09.01Z</time></trkpt><trkpt lat="44.0186293" lon="11.9146808"><ele>374.0</ele><time>2026-04-11T09:35:10.011Z</time></trkpt><trkpt lat="44.0186284" lon="11.9148369"><ele>374.0</ele><time>2026-04-11T09:35:12.011Z</time></trkpt><trkpt lat="44.0185986" lon="11.9149333"><ele>374.0</ele><time>2026-04-11T09:35:14.011Z</time></trkpt><trkpt lat="44.0185414" lon="11.9148894"><ele>374.0</ele><time>2026-04-11T09:35:38.01Z</time></trkpt><trkpt lat="44.0184611" lon="11.9148807"><ele>374.0</ele><time>2026-04-11T09:35:48.011Z</time></trkpt><trkpt lat="44.0184106" lon="11.9148081"><ele>374.0</ele><time>2026-04-11T09:35:54.011Z</time></trkpt><trkpt lat="44.018342" lon="11.9148107"><ele>376.2857142857143</ele><time>2026-04-11T09:35:58.011Z</time></trkpt><trkpt lat="44.0182676" lon="11.9148281"><ele>378.5714285714286</ele><time>2026-04-11T09:36:04.011Z</time></trkpt><trkpt lat="44.0182031" lon="11.9148702"><ele>380.8571428571429</ele><time>2026-04-11T09:36:08.01Z</time></trkpt><trkpt lat="44.0181701" lon="11.9149528"><ele>383.1428571428571</ele><time>2026-04-11T09:36:11.011Z</time></trkpt><trkpt lat="44.0180944" lon="11.9149783"><ele>385.42857142857144</ele><time>2026-04-11T09:36:13.012Z</time></trkpt><trkpt lat="44.0180152" lon="11.9149821"><ele>387.7142857142857</ele><time>2026-04-11T09:36:15.011Z</time></trkpt><trkpt lat="44.0179517" lon="11.914984"><ele>390.0</ele><time>2026-04-11T09:36:17.011Z</time></trkpt><trkpt lat="44.0178842" lon="11.9149864"><ele>390.0</ele><time>2026-04-11T09:36:19.01Z</time></trkpt><trkpt lat="44.0178163" lon="11.9149646"><ele>390.0</ele><time>2026-04-11T09:36:21.011Z</time></trkpt><trkpt lat="44.0177399" lon="11.9149297"><ele>390.0</ele><time>2026-04-11T09:36:23.01Z</time></trkpt><trkpt lat="44.0176769" lon="11.914897"><ele>390.0</ele><time>2026-04-11T09:36:26.011Z</time></trkpt><trkpt lat="44.0176252" lon="11.9148261"><ele>390.0</ele><time>2026-04-11T09:36:32.01Z</time></trkpt><trkpt lat="44.0175726" lon="11.9147735"><ele>390.0</ele><time>2026-04-11T09:37:03.011Z</time></trkpt><trkpt lat="44.0175115" lon="11.9147361"><ele>390.0</ele><time>2026-04-11T09:38:24.01Z</time></trkpt><trkpt lat="44.0174458" lon="11.9147216"><ele>393.2857142857143</ele><time>2026-04-11T09:43:42.01Z</time></trkpt><trkpt lat="44.0173728" lon="11.9147034"><ele>396.57142857142856</ele><time>2026-04-11T09:43:45.01Z</time></trkpt><trkpt lat="44.0173183" lon="11.9146425"><ele>399.8571428571429</ele><time>2026-04-11T09:43:55.009Z</time></trkpt><trkpt lat="44.0172605" lon="11.9145717"><ele>403.1428571428571</ele><time>2026-04-11T09:44:07.01Z</time></trkpt><trkpt lat="44.0172879" lon="11.9144924"><ele>406.42857142857144</ele><time>2026-04-11T09:44:14.009Z</time></trkpt><trkpt lat="44.0173436" lon="11.9144398"><ele>409.7142857142857</ele><time>2026-04-11T09:44:23.009Z</time></trkpt><trkpt lat="44.0174045" lon="11.9143806"><ele>413.0</ele><time>2026-04-11T09:44:38.01Z</time></trkpt><trkpt lat="44.0174596" lon="11.9143095"><ele>412.99999999999994</ele><time>2026-04-11T09:44:42.009Z</time></trkpt><trkpt lat="44.0174007" lon="11.9142471"><ele>413.0</ele><time>2026-04-11T09:45:19.009Z</time></trkpt><trkpt lat="44.0173837" lon="11.9141472"><ele>413.0</ele><time>2026-04-11T09:45:23.01Z</time></trkpt><trkpt lat="44.0173991" lon="11.9140363"><ele>413.0</ele><time>2026-04-11T09:45:26.01Z</time></trkpt><trkpt lat="44.0174462" lon="11.9139566"><ele>412.99999999999994</ele><time>2026-04-11T09:47:27.01Z</time></trkpt><trkpt lat="44.0174692" lon="11.9138492"><ele>413.0</ele><time>2026-04-11T09:47:30.009Z</time></trkpt><trkpt lat="44.0175256" lon="11.9137787"><ele>412.8333333333333</ele><time>2026-04-11T09:47:33.011Z</time></trkpt><trkpt lat="44.0175702" lon="11.9136996"><ele>412.66666666666663</ele><time>2026-04-11T09:47:36.01Z</time></trkpt><trkpt lat="44.0176531" lon="11.9136948"><ele>412.5</ele><time>2026-04-11T09:47:40.01Z</time></trkpt><trkpt lat="44.0177271" lon="11.9136642"><ele>412.33333333333337</ele><time>2026-04-11T09:47:44.01Z</time></trkpt><trkpt lat="44.0177798" lon="11.9136143"><ele>412.1666666666667</ele><time>2026-04-11T09:47:47.01Z</time></trkpt><trkpt lat="44.017812" lon="11.9135085"><ele>412.0</ele><time>2026-04-11T09:47:50.01Z</time></trkpt><trkpt lat="44.0178437" lon="11.9134074"><ele>416.57142857142856</ele><time>2026-04-11T09:47:52.01Z</time></trkpt><trkpt lat="44.017879" lon="11.9133122"><ele>421.1428571428571</ele><time>2026-04-11T09:47:54.01Z</time></trkpt><trkpt lat="44.0179159" lon="11.9132199"><ele>425.71428571428567</ele><time>2026-04-11T09:47:56.011Z</time></trkpt><trkpt lat="44.0179469" lon="11.9131437"><ele>430.2857142857143</ele><time>2026-04-11T09:47:58.009Z</time></trkpt><trkpt lat="44.0179926" lon="11.9130619"><ele>434.8571428571429</ele><time>2026-04-11T09:48:00.009Z</time></trkpt><trkpt lat="44.0180622" lon="11.9130471"><ele>439.4285714285714</ele><time>2026-04-11T09:48:42.008Z</time></trkpt><trkpt lat="44.018071" lon="11.9129556"><ele>444.0</ele><time>2026-04-11T09:48:48.009Z</time></trkpt><trkpt lat="44.0181075" lon="11.9128579"><ele>444.0</ele><time>2026-04-11T09:49:59.086Z</time></trkpt><trkpt lat="44.0181034" lon="11.9127199"><ele>444.0</ele><time>2026-04-11T09:50:02.014Z</time></trkpt><trkpt lat="44.0181215" lon="11.9126267"><ele>444.0</ele><time>2026-04-11T09:50:04.008Z</time></trkpt><trkpt lat="44.0181825" lon="11.9125641"><ele>444.0</ele><time>2026-04-11T09:50:06.008Z</time></trkpt><trkpt lat="44.0182338" lon="11.9125046"><ele>444.0</ele><time>2026-04-11T09:55:49.008Z</time></trkpt><trkpt lat="44.0182762" lon="11.9123759"><ele>444.0</ele><time>2026-04-11T09:55:51.008Z</time></trkpt><trkpt lat="44.0183108" lon="11.9122759"><ele>445.1666666666667</ele><time>2026-04-11T09:55:53.008Z</time></trkpt><trkpt lat="44.0183361" lon="11.9121946"><ele>446.33333333333337</ele><time>2026-04-11T09:56:02.008Z</time></trkpt><trkpt lat="44.0183654" lon="11.9121074"><ele>447.5</ele><time>2026-04-11T09:56:04.008Z</time></trkpt><trkpt lat="44.0183985" lon="11.9120251"><ele>448.6666666666667</ele><time>2026-04-11T09:56:06.009Z</time></trkpt><trkpt lat="44.0184662" lon="11.9119361"><ele>449.83333333333337</ele><time>2026-04-11T09:56:17.008Z</time></trkpt><trkpt lat="44.0185181" lon="11.9118484"><ele>451.0</ele><time>2026-04-11T09:56:19.008Z</time></trkpt><trkpt lat="44.0185799" lon="11.9117609"><ele>452.1666666666667</ele><time>2026-04-11T09:56:21.008Z</time></trkpt><trkpt lat="44.0186399" lon="11.9116718"><ele>453.33333333333337</ele><time>2026-04-11T09:56:23.007Z</time></trkpt><trkpt lat="44.018672" lon="11.9115876"><ele>454.5</ele><time>2026-04-11T09:56:27.008Z</time></trkpt><trkpt lat="44.0187118" lon="11.9115083"><ele>455.66666666666663</ele><time>2026-04-11T09:56:29.007Z</time></trkpt><trkpt lat="44.018775" lon="11.91141"><ele>456.8333333333333</ele><time>2026-04-11T09:56:32.009Z</time></trkpt><trkpt lat="44.0188319" lon="11.9113417"><ele>458.0</ele><time>2026-04-11T09:56:34.007Z</time></trkpt><trkpt lat="44.01892" lon="11.9112717"><ele>457.99999999999994</ele><time>2026-04-11T09:56:36.008Z</time></trkpt><trkpt lat="44.0189964" lon="11.9112211"><ele>458.0</ele><time>2026-04-11T09:56:38.007Z</time></trkpt><trkpt lat="44.019048" lon="11.911166"><ele>458.0</ele><time>2026-04-11T09:56:40.008Z</time></trkpt><trkpt lat="44.0191094" lon="11.9111159"><ele>458.0</ele><time>2026-04-11T09:56:42.008Z</time></trkpt><trkpt lat="44.0191784" lon="11.9110693"><ele>457.99999999999994</ele><time>2026-04-11T09:56:43.008Z</time></trkpt><trkpt lat="44.0192685" lon="11.911038"><ele>458.0</ele><time>2026-04-11T09:56:45.008Z</time></trkpt><trkpt lat="44.0193417" lon="11.9109876"><ele>453.79999999999995</ele><time>2026-04-11T09:56:47.008Z</time></trkpt><trkpt lat="44.019422" lon="11.9109437"><ele>449.59999999999997</ele><time>2026-04-11T09:56:49.007Z</time></trkpt><trkpt lat="44.019486" lon="11.9109283"><ele>445.40000000000003</ele><time>2026-04-11T09:56:51.007Z</time></trkpt><trkpt lat="44.0193623" lon="11.9109735"><ele>441.20000000000005</ele><time>2026-04-11T09:57:06.007Z</time></trkpt><trkpt lat="44.0192842" lon="11.9110293"><ele>437.0</ele><time>2026-04-11T09:57:08.007Z</time></trkpt><trkpt lat="44.0193675" lon="11.9109724"><ele>436.99999999999994</ele><time>2026-04-11T09:57:27.008Z</time></trkpt><trkpt lat="44.0194453" lon="11.9109149"><ele>437.0</ele><time>2026-04-11T09:57:34.008Z</time></trkpt><trkpt lat="44.0193643" lon="11.910907"><ele>437.0</ele><time>2026-04-11T09:57:45.007Z</time></trkpt><trkpt lat="44.0192838" lon="11.9109393"><ele>437.0</ele><time>2026-04-11T09:57:48.008Z</time></trkpt><trkpt lat="44.0191992" lon="11.9109569"><ele>436.99999999999994</ele><time>2026-04-11T09:58:57.007Z</time></trkpt><trkpt lat="44.0191243" lon="11.9109682"><ele>437.0</ele><time>2026-04-11T09:58:59.009Z</time></trkpt><trkpt lat="44.0190338" lon="11.9109801"><ele>436.6</ele><time>2026-04-11T09:59:01.007Z</time></trkpt><trkpt lat="44.0189648" lon="11.9109709"><ele>436.20000000000005</ele><time>2026-04-11T09:59:02.008Z</time></trkpt><trkpt lat="44.0188613" lon="11.910971"><ele>435.8</ele><time>2026-04-11T09:59:04.007Z</time></trkpt><trkpt lat="44.0187386" lon="11.9109226"><ele>435.4</ele><time>2026-04-11T09:59:06.008Z</time></trkpt><trkpt lat="44.0186733" lon="11.9109096"><ele>435.0</ele><time>2026-04-11T09:59:07.007Z</time></trkpt><trkpt lat="44.0185544" lon="11.9108986"><ele>435.0</ele><time>2026-04-11T09:59:09.008Z</time></trkpt><trkpt lat="44.0184501" lon="11.910881"><ele>435.0</ele><time>2026-04-11T09:59:11.008Z</time></trkpt><trkpt lat="44.0183572" lon="11.9108797"><ele>435.0</ele><time>2026-04-11T09:59:13.009Z</time></trkpt><trkpt lat="44.0182469" lon="11.910843"><ele>435.0</ele><time>2026-04-11T09:59:15.007Z</time></trkpt><trkpt lat="44.0181452" lon="11.9108408"><ele>435.0</ele><time>2026-04-11T09:59:17.007Z</time></trkpt><trkpt lat="44.0180659" lon="11.9107485"><ele>435.4</ele><time>2026-04-11T09:59:19.007Z</time></trkpt><trkpt lat="44.0179804" lon="11.9106758"><ele>435.8</ele><time>2026-04-11T09:59:21.008Z</time></trkpt><trkpt lat="44.0179143" lon="11.9106457"><ele>436.20000000000005</ele><time>2026-04-11T09:59:22.007Z</time></trkpt><trkpt lat="44.0178058" lon="11.9106592"><ele>436.6</ele><time>2026-04-11T09:59:24.009Z</time></trkpt><trkpt lat="44.0177066" lon="11.9106806"><ele>437.0</ele><time>2026-04-11T09:59:26.008Z</time></trkpt><trkpt lat="44.0176258" lon="11.9106725"><ele>437.0</ele><time>2026-04-11T09:59:28.008Z</time></trkpt><trkpt lat="44.0175368" lon="11.9105748"><ele>437.00000000000006</ele><time>2026-04-11T09:59:30.007Z</time></trkpt><trkpt lat="44.0174954" lon="11.9104601"><ele>437.00000000000006</ele><time>2026-04-11T09:59:31.008Z</time></trkpt><trkpt lat="44.0173846" lon="11.9104154"><ele>437.0</ele><time>2026-04-11T09:59:33.007Z</time></trkpt><trkpt lat="44.0173187" lon="11.9103986"><ele>437.0</ele><time>2026-04-11T09:59:34.008Z</time></trkpt><trkpt lat="44.0172079" lon="11.9103524"><ele>434.6</ele><time>2026-04-11T09:59:36.008Z</time></trkpt><trkpt lat="44.0171445" lon="11.9103279"><ele>432.20000000000005</ele><time>2026-04-11T09:59:37.007Z</time></trkpt><trkpt lat="44.0170422" lon="11.910372"><ele>429.8</ele><time>2026-04-11T09:59:39.008Z</time></trkpt><trkpt lat="44.0169287" lon="11.9104603"><ele>427.4</ele><time>2026-04-11T09:59:41.008Z</time></trkpt><trkpt lat="44.0168329" lon="11.910489"><ele>425.0</ele><time>2026-04-11T09:59:43.008Z</time></trkpt><trkpt lat="44.0167417" lon="11.9105051"><ele>424.99999999999994</ele><time>2026-04-11T09:59:45.007Z</time></trkpt><trkpt lat="44.0166431" lon="11.9104938"><ele>425.0</ele><time>2026-04-11T09:59:47.008Z</time></trkpt><trkpt lat="44.0165458" lon="11.9105002"><ele>425.0</ele><time>2026-04-11T09:59:49.007Z</time></trkpt><trkpt lat="44.0164842" lon="11.9105191"><ele>425.0</ele><time>2026-04-11T09:59:51.008Z</time></trkpt><trkpt lat="44.0165657" lon="11.910508"><ele>424.99999999999994</ele><time>2026-04-11T10:00:01.007Z</time></trkpt><trkpt lat="44.0166365" lon="11.9104654"><ele>425.0</ele><time>2026-04-11T10:00:03.007Z</time></trkpt><trkpt lat="44.0167174" lon="11.9104805"><ele>424.99999999999994</ele><time>2026-04-11T10:00:05.007Z</time></trkpt><trkpt lat="44.0167962" lon="11.9105041"><ele>425.0</ele><time>2026-04-11T10:00:07.008Z</time></trkpt><trkpt lat="44.0168701" lon="11.9105062"><ele>425.0</ele><time>2026-04-11T10:00:10.009Z</time></trkpt><trkpt lat="44.0169358" lon="11.9104638"><ele>425.0</ele><time>2026-04-11T10:00:12.007Z</time></trkpt><trkpt lat="44.0170066" lon="11.9104178"><ele>424.99999999999994</ele><time>2026-04-11T10:00:14.007Z</time></trkpt><trkpt lat="44.0170976" lon="11.9103595"><ele>425.0</ele><time>2026-04-11T10:00:17.007Z</time></trkpt><trkpt lat="44.0171692" lon="11.9103298"><ele>424.99999999999994</ele><time>2026-04-11T10:00:19.008Z</time></trkpt><trkpt lat="44.0170991" lon="11.9102603"><ele>425.0</ele><time>2026-04-11T10:00:29.009Z</time></trkpt><trkpt lat="44.0170349" lon="11.910227"><ele>425.0</ele><time>2026-04-11T10:00:32.008Z</time></trkpt><trkpt lat="44.016958" lon="11.910258"><ele>425.0</ele><time>2026-04-11T10:01:09.008Z</time></trkpt><trkpt lat="44.0168819" lon="11.9102414"><ele>424.99999999999994</ele><time>2026-04-11T10:17:35.003Z</time></trkpt><trkpt lat="44.0168085" lon="11.9102186"><ele>425.0</ele><time>2026-04-11T10:18:29.003Z</time></trkpt><trkpt lat="44.0167794" lon="11.9101318"><ele>425.0</ele><time>2026-04-11T10:18:45.003Z</time></trkpt><trkpt lat="44.0167144" lon="11.9101214"><ele>425.0</ele><time>2026-04-11T10:18:56.003Z</time></trkpt><trkpt lat="44.01665" lon="11.9100999"><ele>425.0</ele><time>2026-04-11T10:19:02.004Z</time></trkpt><trkpt lat="44.0165715" lon="11.9100818"><ele>425.0</ele><time>2026-04-11T10:58:24.994Z</time></trkpt><trkpt lat="44.0165015" lon="11.910056"><ele>425.0</ele><time>2026-04-11T10:58:27.995Z</time></trkpt><trkpt lat="44.016424" lon="11.9100763"><ele>425.0</ele><time>2026-04-11T10:58:30.995Z</time></trkpt><trkpt lat="44.0163499" lon="11.9101078"><ele>425.0</ele><time>2026-04-11T10:58:33.994Z</time></trkpt><trkpt lat="44.016269" lon="11.9101474"><ele>422.2857142857143</ele><time>2026-04-11T10:58:36.993Z</time></trkpt><trkpt lat="44.016197" lon="11.9101916"><ele>419.57142857142856</ele><time>2026-04-11T10:58:39.993Z</time></trkpt><trkpt lat="44.0161526" lon="11.9102537"><ele>416.8571428571429</ele><time>2026-04-11T10:58:41.993Z</time></trkpt><trkpt lat="44.01611" lon="11.9103379"><ele>414.1428571428571</ele><time>2026-04-11T10:58:43.993Z</time></trkpt><trkpt lat="44.0160646" lon="11.9104278"><ele>411.42857142857144</ele><time>2026-04-11T10:58:47.994Z</time></trkpt><trkpt lat="44.0160277" lon="11.9105044"><ele>408.7142857142857</ele><time>2026-04-11T10:58:58.993Z</time></trkpt><trkpt lat="44.0159913" lon="11.9105833"><ele>406.0</ele><time>2026-04-11T10:59:07.994Z</time></trkpt><trkpt lat="44.0159277" lon="11.9105928"><ele>406.0</ele><time>2026-04-11T10:59:37.994Z</time></trkpt><trkpt lat="44.0158442" lon="11.9105956"><ele>406.0</ele><time>2026-04-11T10:59:53.994Z</time></trkpt><trkpt lat="44.0157729" lon="11.9105751"><ele>406.0</ele><time>2026-04-11T10:59:57.993Z</time></trkpt><trkpt lat="44.0157226" lon="11.9105176"><ele>406.0</ele><time>2026-04-11T11:00:05.993Z</time></trkpt><trkpt lat="44.015651" lon="11.9105142"><ele>406.0</ele><time>2026-04-11T11:00:11.994Z</time></trkpt><trkpt lat="44.0155773" lon="11.9105099"><ele>406.0</ele><time>2026-04-11T11:00:26.993Z</time></trkpt><trkpt lat="44.0155031" lon="11.910485"><ele>406.0</ele><time>2026-04-11T11:00:31.994Z</time></trkpt><trkpt lat="44.0154389" lon="11.9104715"><ele>404.14285714285717</ele><time>2026-04-11T11:00:37.993Z</time></trkpt><trkpt lat="44.0153802" lon="11.910434"><ele>402.2857142857143</ele><time>2026-04-11T11:00:43.994Z</time></trkpt><trkpt lat="44.0153211" lon="11.9103877"><ele>400.42857142857144</ele><time>2026-04-11T11:00:46.994Z</time></trkpt><trkpt lat="44.0152631" lon="11.9103529"><ele>398.57142857142856</ele><time>2026-04-11T11:00:49.994Z</time></trkpt><trkpt lat="44.0151902" lon="11.9103384"><ele>396.7142857142857</ele><time>2026-04-11T11:00:54.993Z</time></trkpt><trkpt lat="44.0151233" lon="11.9103103"><ele>394.8571428571429</ele><time>2026-04-11T11:01:03.994Z</time></trkpt><trkpt lat="44.0150535" lon="11.9102999"><ele>393.0</ele><time>2026-04-11T11:01:35.994Z</time></trkpt><trkpt lat="44.0149826" lon="11.9103223"><ele>393.00000000000006</ele><time>2026-04-11T11:01:46.995Z</time></trkpt><trkpt lat="44.0150431" lon="11.9102979"><ele>393.0</ele><time>2026-04-11T11:23:17.988Z</time></trkpt><trkpt lat="44.0150922" lon="11.9103746"><ele>393.0</ele><time>2026-04-11T11:23:47.987Z</time></trkpt><trkpt lat="44.0150645" lon="11.9105006"><ele>393.0</ele><time>2026-04-11T11:23:50.988Z</time></trkpt><trkpt lat="44.0150509" lon="11.9105868"><ele>393.0</ele><time>2026-04-11T11:23:52.987Z</time></trkpt><trkpt lat="44.0150363" lon="11.9106889"><ele>393.00000000000006</ele><time>2026-04-11T11:24:04.988Z</time></trkpt><trkpt lat="44.0149695" lon="11.910693"><ele>393.0</ele><time>2026-04-11T11:25:05.987Z</time></trkpt><trkpt lat="44.0149031" lon="11.9107318"><ele>392.1666666666667</ele><time>2026-04-11T11:25:16.988Z</time></trkpt><trkpt lat="44.0148313" lon="11.9107179"><ele>391.33333333333337</ele><time>2026-04-11T11:25:22.988Z</time></trkpt><trkpt lat="44.01475" lon="11.910681"><ele>390.5</ele><time>2026-04-11T11:25:29.987Z</time></trkpt><trkpt lat="44.0146821" lon="11.9106467"><ele>389.6666666666667</ele><time>2026-04-11T11:25:52.987Z</time></trkpt><trkpt lat="44.01462" lon="11.9106003"><ele>388.83333333333337</ele><time>2026-04-11T11:25:57.987Z</time></trkpt><trkpt lat="44.0145396" lon="11.9105687"><ele>388.0</ele><time>2026-04-11T11:26:05.987Z</time></trkpt><trkpt lat="44.0144683" lon="11.9105882"><ele>388.00000000000006</ele><time>2026-04-11T11:26:09.986Z</time></trkpt><trkpt lat="44.0143947" lon="11.9105723"><ele>388.0</ele><time>2026-04-11T11:26:14.986Z</time></trkpt><trkpt lat="44.0143297" lon="11.910575"><ele>388.0</ele><time>2026-04-11T11:33:20.985Z</time></trkpt><trkpt lat="44.0142549" lon="11.9105727"><ele>388.0</ele><time>2026-04-11T11:33:22.984Z</time></trkpt><trkpt lat="44.0141793" lon="11.9105519"><ele>388.00000000000006</ele><time>2026-04-11T11:33:24.986Z</time></trkpt><trkpt lat="44.0141087" lon="11.9105394"><ele>388.0</ele><time>2026-04-11T11:33:25.984Z</time></trkpt><trkpt lat="44.0140185" lon="11.9105164"><ele>385.50000000000006</ele><time>2026-04-11T11:33:28.984Z</time></trkpt><trkpt lat="44.0139305" lon="11.9104857"><ele>383.0</ele><time>2026-04-11T11:33:31.984Z</time></trkpt><trkpt lat="44.0138701" lon="11.9104577"><ele>380.5</ele><time>2026-04-11T11:33:34.985Z</time></trkpt><trkpt lat="44.0138471" lon="11.9103523"><ele>378.0</ele><time>2026-04-11T11:33:40.985Z</time></trkpt><trkpt lat="44.0138302" lon="11.910256"><ele>375.5</ele><time>2026-04-11T11:33:55.985Z</time></trkpt><trkpt lat="44.0138172" lon="11.9101476"><ele>373.0</ele><time>2026-04-11T11:33:59.985Z</time></trkpt><trkpt lat="44.0137655" lon="11.9100905"><ele>373.0</ele><time>2026-04-11T11:34:03.984Z</time></trkpt><trkpt lat="44.0136966" lon="11.9100838"><ele>373.0</ele><time>2026-04-11T11:34:06.986Z</time></trkpt><trkpt lat="44.0136182" lon="11.9100823"><ele>373.0</ele><time>2026-04-11T11:34:09.985Z</time></trkpt><trkpt lat="44.013549" lon="11.9100759"><ele>373.0</ele><time>2026-04-11T11:34:13.985Z</time></trkpt><trkpt lat="44.0134652" lon="11.9100545"><ele>373.0</ele><time>2026-04-11T11:34:16.984Z</time></trkpt><trkpt lat="44.0133891" lon="11.910041"><ele>373.0</ele><time>2026-04-11T11:34:19.985Z</time></trkpt><trkpt lat="44.0133016" lon="11.9100268"><ele>369.14285714285717</ele><time>2026-04-11T11:34:22.984Z</time></trkpt><trkpt lat="44.0132267" lon="11.9100101"><ele>365.28571428571433</ele><time>2026-04-11T11:34:25.984Z</time></trkpt><trkpt lat="44.0131641" lon="11.91"><ele>361.42857142857144</ele><time>2026-04-11T11:34:29.985Z</time></trkpt><trkpt lat="44.0130973" lon="11.9100034"><ele>357.57142857142856</ele><time>2026-04-11T11:34:34.984Z</time></trkpt><trkpt lat="44.0130232" lon="11.9100171"><ele>353.7142857142857</ele><time>2026-04-11T11:34:37.984Z</time></trkpt><trkpt lat="44.0129484" lon="11.910008"><ele>349.85714285714283</ele><time>2026-04-11T11:34:39.984Z</time></trkpt><trkpt lat="44.0128626" lon="11.9099825"><ele>346.0</ele><time>2026-04-11T11:34:41.985Z</time></trkpt><trkpt lat="44.0127891" lon="11.9099556"><ele>346.0</ele><time>2026-04-11T11:34:43.984Z</time></trkpt><trkpt lat="44.0127072" lon="11.9099342"><ele>346.0</ele><time>2026-04-11T11:34:45.985Z</time></trkpt><trkpt lat="44.0126228" lon="11.909896"><ele>346.0</ele><time>2026-04-11T11:34:47.985Z</time></trkpt><trkpt lat="44.0125658" lon="11.9098474"><ele>346.0</ele><time>2026-04-11T11:34:50.985Z</time></trkpt><trkpt lat="44.0126147" lon="11.9099179"><ele>346.0</ele><time>2026-04-11T11:36:01.984Z</time></trkpt><trkpt lat="44.0126802" lon="11.9099109"><ele>346.0</ele><time>2026-04-11T11:36:04.984Z</time></trkpt><trkpt lat="44.0127352" lon="11.9098254"><ele>346.0</ele><time>2026-04-11T11:36:20.986Z</time></trkpt><trkpt lat="44.0127937" lon="11.9097758"><ele>346.0</ele><time>2026-04-11T11:36:24.985Z</time></trkpt><trkpt lat="44.0127319" lon="11.9097941"><ele>346.0</ele><time>2026-04-11T11:36:43.983Z</time></trkpt><trkpt lat="44.0126694" lon="11.9098554"><ele>346.0</ele><time>2026-04-11T11:36:56.984Z</time></trkpt><trkpt lat="44.0126121" lon="11.9099114"><ele>346.0</ele><time>2026-04-11T11:39:08.984Z</time></trkpt><trkpt lat="44.0125622" lon="11.9098311"><ele>346.0</ele><time>2026-04-11T11:39:12.983Z</time></trkpt><trkpt lat="44.012502" lon="11.9098029"><ele>346.0</ele><time>2026-04-11T11:39:16.984Z</time></trkpt><trkpt lat="44.0124355" lon="11.9097638"><ele>343.1428571428571</ele><time>2026-04-11T11:39:23.985Z</time></trkpt><trkpt lat="44.0123783" lon="11.9097155"><ele>340.28571428571433</ele><time>2026-04-11T11:39:29.983Z</time></trkpt><trkpt lat="44.0122956" lon="11.9097168"><ele>337.42857142857144</ele><time>2026-04-11T11:39:33.983Z</time></trkpt><trkpt lat="44.0122348" lon="11.9097756"><ele>334.57142857142856</ele><time>2026-04-11T11:39:36.984Z</time></trkpt><trkpt lat="44.0121761" lon="11.9098276"><ele>331.71428571428567</ele><time>2026-04-11T11:39:41.984Z</time></trkpt><trkpt lat="44.012115" lon="11.9098964"><ele>328.8571428571429</ele><time>2026-04-11T11:39:46.984Z</time></trkpt><trkpt lat="44.0120392" lon="11.9099041"><ele>326.0</ele><time>2026-04-11T11:39:50.983Z</time></trkpt><trkpt lat="44.0120032" lon="11.9100073"><ele>326.0</ele><time>2026-04-11T11:39:54.983Z</time></trkpt><trkpt lat="44.0119269" lon="11.9100311"><ele>326.0</ele><time>2026-04-11T11:39:58.984Z</time></trkpt><trkpt lat="44.0118444" lon="11.9100167"><ele>326.0</ele><time>2026-04-11T11:40:01.984Z</time></trkpt><trkpt lat="44.0117775" lon="11.9099812"><ele>326.0</ele><time>2026-04-11T11:40:03.983Z</time></trkpt><trkpt lat="44.0117023" lon="11.9099706"><ele>326.0</ele><time>2026-04-11T11:40:06.984Z</time></trkpt><trkpt lat="44.011617" lon="11.9099854"><ele>326.0</ele><time>2026-04-11T11:40:09.984Z</time></trkpt><trkpt lat="44.0115511" lon="11.9100002"><ele>325.33333333333337</ele><time>2026-04-11T11:40:11.984Z</time></trkpt><trkpt lat="44.0114661" lon="11.9100341"><ele>324.6666666666667</ele><time>2026-04-11T11:40:13.983Z</time></trkpt><trkpt lat="44.0113864" lon="11.9100611"><ele>324.0</ele><time>2026-04-11T11:40:15.984Z</time></trkpt><trkpt lat="44.0113158" lon="11.9100825"><ele>323.3333333333333</ele><time>2026-04-11T11:40:17.985Z</time></trkpt><trkpt lat="44.0112479" lon="11.9100764"><ele>322.66666666666663</ele><time>2026-04-11T11:40:19.983Z</time></trkpt><trkpt lat="44.0111725" lon="11.9101215"><ele>322.0</ele><time>2026-04-11T11:40:41.982Z</time></trkpt><trkpt lat="44.0110845" lon="11.9101579"><ele>322.0</ele><time>2026-04-11T11:40:43.984Z</time></trkpt><trkpt lat="44.0109766" lon="11.9101883"><ele>322.0</ele><time>2026-04-11T11:40:45.982Z</time></trkpt><trkpt lat="44.0109112" lon="11.9102072"><ele>322.0</ele><time>2026-04-11T11:40:46.983Z</time></trkpt><trkpt lat="44.0108435" lon="11.9102257"><ele>322.0</ele><time>2026-04-11T11:40:47.983Z</time></trkpt><trkpt lat="44.0107746" lon="11.910238"><ele>322.0</ele><time>2026-04-11T11:40:48.982Z</time></trkpt><trkpt lat="44.0107071" lon="11.9102513"><ele>322.0</ele><time>2026-04-11T11:40:49.983Z</time></trkpt><trkpt lat="44.0106385" lon="11.9102694"><ele>320.16666666666663</ele><time>2026-04-11T11:40:50.983Z</time></trkpt><trkpt lat="44.0105665" lon="11.9102926"><ele>318.3333333333333</ele><time>2026-04-11T11:40:51.982Z</time></trkpt><trkpt lat="44.0104975" lon="11.9103161"><ele>316.5</ele><time>2026-04-11T11:40:52.982Z</time></trkpt><trkpt lat="44.0104297" lon="11.9103463"><ele>314.6666666666667</ele><time>2026-04-11T11:40:53.982Z</time></trkpt><trkpt lat="44.0103716" lon="11.9103907"><ele>312.83333333333337</ele><time>2026-04-11T11:40:54.983Z</time></trkpt><trkpt lat="44.0102508" lon="11.9104544"><ele>311.0</ele><time>2026-04-11T11:40:56.982Z</time></trkpt><trkpt lat="44.0101893" lon="11.910497"><ele>311.0</ele><time>2026-04-11T11:40:57.982Z</time></trkpt><trkpt lat="44.0101246" lon="11.9105347"><ele>311.0</ele><time>2026-04-11T11:40:58.983Z</time></trkpt><trkpt lat="44.0100577" lon="11.9105698"><ele>311.0</ele><time>2026-04-11T11:40:59.982Z</time></trkpt><trkpt lat="44.0099972" lon="11.9106003"><ele>311.0</ele><time>2026-04-11T11:41:00.982Z</time></trkpt><trkpt lat="44.0099319" lon="11.910645"><ele>311.0</ele><time>2026-04-11T11:41:01.982Z</time></trkpt><trkpt lat="44.0098064" lon="11.9106926"><ele>311.0</ele><time>2026-04-11T11:41:03.982Z</time></trkpt><trkpt lat="44.0097312" lon="11.9107313"><ele>309.83333333333337</ele><time>2026-04-11T11:41:04.982Z</time></trkpt><trkpt lat="44.0096637" lon="11.9107679"><ele>308.6666666666667</ele><time>2026-04-11T11:41:05.982Z</time></trkpt><trkpt lat="44.0096" lon="11.9107804"><ele>307.5</ele><time>2026-04-11T11:41:06.983Z</time></trkpt><trkpt lat="44.0094641" lon="11.9107867"><ele>306.3333333333333</ele><time>2026-04-11T11:41:08.983Z</time></trkpt><trkpt lat="44.0093955" lon="11.9107978"><ele>305.16666666666663</ele><time>2026-04-11T11:41:09.983Z</time></trkpt><trkpt lat="44.0093215" lon="11.9108083"><ele>304.0</ele><time>2026-04-11T11:41:10.983Z</time></trkpt><trkpt lat="44.0092455" lon="11.9108086"><ele>304.0</ele><time>2026-04-11T11:41:11.983Z</time></trkpt><trkpt lat="44.0091655" lon="11.910807"><ele>304.0</ele><time>2026-04-11T11:41:12.983Z</time></trkpt><trkpt lat="44.0090805" lon="11.910812"><ele>304.0</ele><time>2026-04-11T11:41:13.983Z</time></trkpt><trkpt lat="44.0089962" lon="11.9108191"><ele>304.0</ele><time>2026-04-11T11:41:14.982Z</time></trkpt><trkpt lat="44.0089179" lon="11.9108168"><ele>304.0</ele><time>2026-04-11T11:41:15.984Z</time></trkpt><trkpt lat="44.0088344" lon="11.9108118"><ele>304.0</ele><time>2026-04-11T11:41:16.983Z</time></trkpt><trkpt lat="44.0087456" lon="11.9108007"><ele>302.0</ele><time>2026-04-11T11:41:17.983Z</time></trkpt><trkpt lat="44.0086578" lon="11.9107947"><ele>300.0</ele><time>2026-04-11T11:41:18.982Z</time></trkpt><trkpt lat="44.0085573" lon="11.9107983"><ele>298.0</ele><time>2026-04-11T11:41:19.982Z</time></trkpt><trkpt lat="44.0084718" lon="11.9108083"><ele>296.0</ele><time>2026-04-11T11:41:20.982Z</time></trkpt><trkpt lat="44.0083835" lon="11.9108226"><ele>294.0</ele><time>2026-04-11T11:41:21.982Z</time></trkpt><trkpt lat="44.0082945" lon="11.9108278"><ele>293.1666666666667</ele><time>2026-04-11T11:41:22.983Z</time></trkpt><trkpt lat="44.0082023" lon="11.9108629"><ele>292.3333333333333</ele><time>2026-04-11T11:41:23.982Z</time></trkpt><trkpt lat="44.008123" lon="11.9109042"><ele>291.5</ele><time>2026-04-11T11:41:24.983Z</time></trkpt><trkpt lat="44.0080348" lon="11.9109395"><ele>290.66666666666663</ele><time>2026-04-11T11:41:25.983Z</time></trkpt><trkpt lat="44.0079508" lon="11.9109639"><ele>289.8333333333333</ele><time>2026-04-11T11:41:26.983Z</time></trkpt><trkpt lat="44.00787" lon="11.9110141"><ele>289.0</ele><time>2026-04-11T11:41:27.983Z</time></trkpt><trkpt lat="44.0077875" lon="11.9110713"><ele>289.0</ele><time>2026-04-11T11:41:28.984Z</time></trkpt><trkpt lat="44.0077035" lon="11.9111314"><ele>289.0</ele><time>2026-04-11T11:41:29.982Z</time></trkpt><trkpt lat="44.0076361" lon="11.9111499"><ele>289.0</ele><time>2026-04-11T11:41:30.983Z</time></trkpt><trkpt lat="44.007576" lon="11.9111958"><ele>289.0</ele><time>2026-04-11T11:41:31.982Z</time></trkpt><trkpt lat="44.0075114" lon="11.9112306"><ele>289.0</ele><time>2026-04-11T11:41:32.983Z</time></trkpt><trkpt lat="44.0074224" lon="11.9112834"><ele>289.0</ele><time>2026-04-11T11:41:34.983Z</time></trkpt><trkpt lat="44.0073608" lon="11.9113273"><ele>284.7142857142857</ele><time>2026-04-11T11:41:35.982Z</time></trkpt><trkpt lat="44.0073027" lon="11.9113834"><ele>280.42857142857144</ele><time>2026-04-11T11:41:36.982Z</time></trkpt><trkpt lat="44.0072441" lon="11.9114407"><ele>276.1428571428571</ele><time>2026-04-11T11:41:37.983Z</time></trkpt><trkpt lat="44.0071754" lon="11.9114985"><ele>271.8571428571429</ele><time>2026-04-11T11:41:38.982Z</time></trkpt><trkpt lat="44.0071105" lon="11.911552"><ele>267.57142857142856</ele><time>2026-04-11T11:41:39.982Z</time></trkpt><trkpt lat="44.0070433" lon="11.9115993"><ele>263.2857142857143</ele><time>2026-04-11T11:41:40.982Z</time></trkpt><trkpt lat="44.0069795" lon="11.9116401"><ele>259.0</ele><time>2026-04-11T11:41:41.982Z</time></trkpt><trkpt lat="44.0068959" lon="11.9117477"><ele>258.5</ele><time>2026-04-11T11:41:43.982Z</time></trkpt><trkpt lat="44.006915" lon="11.9118779"><ele>258.0</ele><time>2026-04-11T11:41:45.983Z</time></trkpt><trkpt lat="44.0069354" lon="11.9120132"><ele>257.5</ele><time>2026-04-11T11:41:47.982Z</time></trkpt><trkpt lat="44.0069736" lon="11.9120977"><ele>257.0</ele><time>2026-04-11T11:41:59.983Z</time></trkpt><trkpt lat="44.0070446" lon="11.9121048"><ele>256.5</ele><time>2026-04-11T11:42:02.982Z</time></trkpt><trkpt lat="44.0070084" lon="11.9120275"><ele>256.0</ele><time>2026-04-11T11:42:05.982Z</time></trkpt><trkpt lat="44.0069667" lon="11.9119096"><ele>255.99999999999997</ele><time>2026-04-11T11:42:10.983Z</time></trkpt><trkpt lat="44.0069061" lon="11.911849"><ele>256.0</ele><time>2026-04-11T11:42:12.983Z</time></trkpt><trkpt lat="44.0068797" lon="11.911764"><ele>256.0</ele><time>2026-04-11T11:42:14.983Z</time></trkpt><trkpt lat="44.0069463" lon="11.9116854"><ele>256.0</ele><time>2026-04-11T11:42:16.982Z</time></trkpt><trkpt lat="44.0070311" lon="11.9116198"><ele>255.99999999999997</ele><time>2026-04-11T11:42:18.983Z</time></trkpt><trkpt lat="44.0071283" lon="11.9115495"><ele>256.0</ele><time>2026-04-11T11:42:20.982Z</time></trkpt><trkpt lat="44.0072101" lon="11.9114694"><ele>256.6</ele><time>2026-04-11T11:42:22.982Z</time></trkpt><trkpt lat="44.007305" lon="11.9113896"><ele>257.20000000000005</ele><time>2026-04-11T11:42:24.982Z</time></trkpt><trkpt lat="44.0073815" lon="11.911302"><ele>257.79999999999995</ele><time>2026-04-11T11:42:26.982Z</time></trkpt><trkpt lat="44.007453" lon="11.9111886"><ele>258.4</ele><time>2026-04-11T11:42:28.983Z</time></trkpt><trkpt lat="44.0074925" lon="11.9110968"><ele>259.0</ele><time>2026-04-11T11:42:30.982Z</time></trkpt><trkpt lat="44.0074274" lon="11.9110896"><ele>259.0</ele><time>2026-04-11T11:42:32.982Z</time></trkpt><trkpt lat="44.0073456" lon="11.9111764"><ele>259.0</ele><time>2026-04-11T11:42:34.982Z</time></trkpt><trkpt lat="44.0072954" lon="11.9112294"><ele>259.0</ele><time>2026-04-11T11:42:35.982Z</time></trkpt><trkpt lat="44.0072352" lon="11.9112736"><ele>259.0</ele><time>2026-04-11T11:42:36.982Z</time></trkpt><trkpt lat="44.0071655" lon="11.9113179"><ele>259.0</ele><time>2026-04-11T11:42:37.983Z</time></trkpt><trkpt lat="44.0070863" lon="11.9113584"><ele>259.0</ele><time>2026-04-11T11:42:38.982Z</time></trkpt><trkpt lat="44.0069998" lon="11.9113929"><ele>259.0</ele><time>2026-04-11T11:42:39.982Z</time></trkpt><trkpt lat="44.0069099" lon="11.9114269"><ele>259.0</ele><time>2026-04-11T11:42:40.983Z</time></trkpt><trkpt lat="44.0068207" lon="11.9114595"><ele>259.0</ele><time>2026-04-11T11:42:41.983Z</time></trkpt><trkpt lat="44.0067328" lon="11.9114969"><ele>259.0</ele><time>2026-04-11T11:42:42.982Z</time></trkpt><trkpt lat="44.0066541" lon="11.9115251"><ele>259.0</ele><time>2026-04-11T11:42:43.982Z</time></trkpt><trkpt lat="44.0065806" lon="11.9115505"><ele>259.0</ele><time>2026-04-11T11:42:44.984Z</time></trkpt><trkpt lat="44.0065141" lon="11.9115765"><ele>257.0</ele><time>2026-04-11T11:42:45.982Z</time></trkpt><trkpt lat="44.0064431" lon="11.9115947"><ele>255.0</ele><time>2026-04-11T11:42:46.983Z</time></trkpt><trkpt lat="44.0063811" lon="11.9116119"><ele>253.0</ele><time>2026-04-11T11:42:47.982Z</time></trkpt><trkpt lat="44.0063164" lon="11.911625"><ele>251.0</ele><time>2026-04-11T11:42:48.984Z</time></trkpt><trkpt lat="44.0062522" lon="11.9116283"><ele>249.0</ele><time>2026-04-11T11:42:49.983Z</time></trkpt><trkpt lat="44.006137" lon="11.9116454"><ele>247.0</ele><time>2026-04-11T11:42:51.983Z</time></trkpt><trkpt lat="44.0060718" lon="11.9116608"><ele>245.0</ele><time>2026-04-11T11:42:52.982Z</time></trkpt><trkpt lat="44.006005" lon="11.9116885"><ele>245.0</ele><time>2026-04-11T11:42:53.983Z</time></trkpt><trkpt lat="44.0059374" lon="11.9117167"><ele>245.0</ele><time>2026-04-11T11:42:54.983Z</time></trkpt><trkpt lat="44.0058715" lon="11.9117414"><ele>245.0</ele><time>2026-04-11T11:42:55.982Z</time></trkpt><trkpt lat="44.0057566" lon="11.9117782"><ele>245.0</ele><time>2026-04-11T11:42:57.982Z</time></trkpt><trkpt lat="44.0056415" lon="11.9117952"><ele>245.0</ele><time>2026-04-11T11:42:59.983Z</time></trkpt><trkpt lat="44.0055371" lon="11.911791"><ele>243.8</ele><time>2026-04-11T11:43:01.984Z</time></trkpt><trkpt lat="44.005433" lon="11.911752"><ele>242.6</ele><time>2026-04-11T11:43:03.983Z</time></trkpt><trkpt lat="44.0053143" lon="11.9117119"><ele>241.39999999999998</ele><time>2026-04-11T11:43:05.983Z</time></trkpt><trkpt lat="44.0051912" lon="11.9117107"><ele>240.2</ele><time>2026-04-11T11:43:07.982Z</time></trkpt><trkpt lat="44.0051218" lon="11.9117112"><ele>239.0</ele><time>2026-04-11T11:43:08.982Z</time></trkpt><trkpt lat="44.005056" lon="11.9117118"><ele>238.79999999999998</ele><time>2026-04-11T11:43:09.983Z</time></trkpt><trkpt lat="44.004993" lon="11.9117102"><ele>238.59999999999997</ele><time>2026-04-11T11:43:10.982Z</time></trkpt><trkpt lat="44.0048784" lon="11.9117078"><ele>238.4</ele><time>2026-04-11T11:43:12.982Z</time></trkpt><trkpt lat="44.0048692" lon="11.9115995"><ele>238.2</ele><time>2026-04-11T11:43:20.982Z</time></trkpt><trkpt lat="44.0048944" lon="11.9114781"><ele>238.0</ele><time>2026-04-11T11:43:22.983Z</time></trkpt><trkpt lat="44.0049073" lon="11.9113268"><ele>238.0</ele><time>2026-04-11T11:43:24.983Z</time></trkpt><trkpt lat="44.0048613" lon="11.9112019"><ele>238.0</ele><time>2026-04-11T11:43:26.982Z</time></trkpt><trkpt lat="44.0047913" lon="11.9110815"><ele>238.0</ele><time>2026-04-11T11:43:28.982Z</time></trkpt><trkpt lat="44.0047757" lon="11.9109341"><ele>238.0</ele><time>2026-04-11T11:43:30.982Z</time></trkpt><trkpt lat="44.0048131" lon="11.9107805"><ele>238.0</ele><time>2026-04-11T11:43:32.982Z</time></trkpt><trkpt lat="44.0048428" lon="11.9106183"><ele>238.83333333333331</ele><time>2026-04-11T11:43:34.983Z</time></trkpt><trkpt lat="44.004862" lon="11.9104464"><ele>239.66666666666666</ele><time>2026-04-11T11:43:36.982Z</time></trkpt><trkpt lat="44.0048554" lon="11.9103504"><ele>240.5</ele><time>2026-04-11T11:43:37.982Z</time></trkpt><trkpt lat="44.0048297" lon="11.9102402"><ele>241.33333333333331</ele><time>2026-04-11T11:43:38.982Z</time></trkpt><trkpt lat="44.0048049" lon="11.910132"><ele>242.16666666666666</ele><time>2026-04-11T11:43:39.982Z</time></trkpt><trkpt lat="44.0047824" lon="11.9100195"><ele>243.0</ele><time>2026-04-11T11:43:40.982Z</time></trkpt><trkpt lat="44.0047584" lon="11.9099127"><ele>245.8</ele><time>2026-04-11T11:43:41.983Z</time></trkpt><trkpt lat="44.0047341" lon="11.9098188"><ele>248.60000000000002</ele><time>2026-04-11T11:43:42.982Z</time></trkpt><trkpt lat="44.0047064" lon="11.9096881"><ele>251.39999999999998</ele><time>2026-04-11T11:43:44.983Z</time></trkpt><trkpt lat="44.0047913" lon="11.9095964"><ele>254.2</ele><time>2026-04-11T11:43:47.983Z</time></trkpt><trkpt lat="44.0049071" lon="11.9095542"><ele>257.0</ele><time>2026-04-11T11:43:49.983Z</time></trkpt><trkpt lat="44.0049694" lon="11.9095281"><ele>257.33333333333337</ele><time>2026-04-11T11:43:50.982Z</time></trkpt><trkpt lat="44.0050382" lon="11.909505"><ele>257.6666666666667</ele><time>2026-04-11T11:43:51.982Z</time></trkpt><trkpt lat="44.0051102" lon="11.9095015"><ele>258.0</ele><time>2026-04-11T11:43:52.983Z</time></trkpt><trkpt lat="44.0051863" lon="11.9095114"><ele>258.3333333333333</ele><time>2026-04-11T11:43:53.983Z</time></trkpt><trkpt lat="44.0052603" lon="11.9095356"><ele>258.66666666666663</ele><time>2026-04-11T11:43:54.982Z</time></trkpt><trkpt lat="44.0053379" lon="11.9095584"><ele>259.0</ele><time>2026-04-11T11:43:55.982Z</time></trkpt><trkpt lat="44.0054201" lon="11.9095797"><ele>259.0</ele><time>2026-04-11T11:43:56.982Z</time></trkpt><trkpt lat="44.0055017" lon="11.9096006"><ele>259.0</ele><time>2026-04-11T11:43:57.984Z</time></trkpt><trkpt lat="44.0055811" lon="11.9096268"><ele>259.0</ele><time>2026-04-11T11:43:58.983Z</time></trkpt><trkpt lat="44.0056566" lon="11.90965"><ele>259.0</ele><time>2026-04-11T11:43:59.983Z</time></trkpt><trkpt lat="44.0057255" lon="11.9096808"><ele>259.0</ele><time>2026-04-11T11:44:00.983Z</time></trkpt><trkpt lat="44.0057863" lon="11.9097185"><ele>259.0</ele><time>2026-04-11T11:44:01.983Z</time></trkpt><trkpt lat="44.0058965" lon="11.9098199"><ele>260.8333333333333</ele><time>2026-04-11T11:44:03.982Z</time></trkpt><trkpt lat="44.0059451" lon="11.9098902"><ele>262.66666666666663</ele><time>2026-04-11T11:44:04.982Z</time></trkpt><trkpt lat="44.0060052" lon="11.9099673"><ele>264.5</ele><time>2026-04-11T11:44:05.983Z</time></trkpt><trkpt lat="44.0060619" lon="11.9100085"><ele>266.3333333333333</ele><time>2026-04-11T11:44:06.983Z</time></trkpt><trkpt lat="44.0061475" lon="11.9100313"><ele>268.1666666666667</ele><time>2026-04-11T11:44:08.982Z</time></trkpt><trkpt lat="44.0062227" lon="11.9099881"><ele>270.0</ele><time>2026-04-11T11:44:10.983Z</time></trkpt><trkpt lat="44.0063034" lon="11.9099414"><ele>270.0</ele><time>2026-04-11T11:44:12.983Z</time></trkpt><trkpt lat="44.0064159" lon="11.9098766"><ele>270.0</ele><time>2026-04-11T11:44:14.982Z</time></trkpt><trkpt lat="44.0064807" lon="11.9098424"><ele>270.0</ele><time>2026-04-11T11:44:15.982Z</time></trkpt><trkpt lat="44.0065498" lon="11.9098105"><ele>270.0</ele><time>2026-04-11T11:44:16.982Z</time></trkpt><trkpt lat="44.0066104" lon="11.9097731"><ele>270.0</ele><time>2026-04-11T11:44:17.983Z</time></trkpt><trkpt lat="44.0066714" lon="11.9097396"><ele>270.0</ele><time>2026-04-11T11:44:18.983Z</time></trkpt><trkpt lat="44.0067359" lon="11.9096953"><ele>269.4</ele><time>2026-04-11T11:44:19.984Z</time></trkpt><trkpt lat="44.0068417" lon="11.9096226"><ele>268.8</ele><time>2026-04-11T11:44:21.982Z</time></trkpt><trkpt lat="44.0069284" lon="11.9095889"><ele>268.2</ele><time>2026-04-11T11:44:23.982Z</time></trkpt><trkpt lat="44.0068452" lon="11.9096453"><ele>267.6</ele><time>2026-04-11T11:44:45.982Z</time></trkpt><trkpt lat="44.0067605" lon="11.9096913"><ele>267.0</ele><time>2026-04-11T11:44:47.982Z</time></trkpt><trkpt lat="44.0066805" lon="11.9097501"><ele>267.5</ele><time>2026-04-11T11:44:49.983Z</time></trkpt><trkpt lat="44.0066067" lon="11.9097967"><ele>268.0</ele><time>2026-04-11T11:44:51.982Z</time></trkpt><trkpt lat="44.0065255" lon="11.9098286"><ele>268.5</ele><time>2026-04-11T11:44:53.983Z</time></trkpt><trkpt lat="44.0064351" lon="11.9098624"><ele>269.0</ele><time>2026-04-11T11:44:55.981Z</time></trkpt><trkpt lat="44.0063545" lon="11.9099163"><ele>269.5</ele><time>2026-04-11T11:44:57.982Z</time></trkpt><trkpt lat="44.0062935" lon="11.9099592"><ele>270.0</ele><time>2026-04-11T11:45:00.982Z</time></trkpt><trkpt lat="44.0062876" lon="11.9098628"><ele>270.0</ele><time>2026-04-11T11:45:23.982Z</time></trkpt><trkpt lat="44.0063788" lon="11.9098243"><ele>270.0</ele><time>2026-04-11T11:45:26.982Z</time></trkpt><trkpt lat="44.0064441" lon="11.9097813"><ele>270.0</ele><time>2026-04-11T11:45:28.982Z</time></trkpt><trkpt lat="44.0065067" lon="11.909753"><ele>270.0</ele><time>2026-04-11T11:45:30.981Z</time></trkpt><trkpt lat="44.00658" lon="11.9097421"><ele>270.0</ele><time>2026-04-11T11:45:33.982Z</time></trkpt><trkpt lat="44.0066593" lon="11.9097395"><ele>270.0</ele><time>2026-04-11T11:45:36.981Z</time></trkpt><trkpt lat="44.0067305" lon="11.9097357"><ele>270.0</ele><time>2026-04-11T11:46:03.981Z</time></trkpt><trkpt lat="44.0066578" lon="11.9097432"><ele>270.0</ele><time>2026-04-11T11:46:10.981Z</time></trkpt><trkpt lat="44.0065721" lon="11.9098067"><ele>270.0</ele><time>2026-04-11T11:46:13.981Z</time></trkpt><trkpt lat="44.0065062" lon="11.9098343"><ele>270.0</ele><time>2026-04-11T11:46:15.982Z</time></trkpt><trkpt lat="44.00644" lon="11.9098654"><ele>270.0</ele><time>2026-04-11T11:48:26.981Z</time></trkpt><trkpt lat="44.0063799" lon="11.9098932"><ele>270.0</ele><time>2026-04-11T11:48:28.982Z</time></trkpt><trkpt lat="44.0063074" lon="11.909929"><ele>270.0</ele><time>2026-04-11T11:48:31.983Z</time></trkpt><trkpt lat="44.0062909" lon="11.9098033"><ele>270.0</ele><time>2026-04-11T11:48:35.982Z</time></trkpt><trkpt lat="44.0062851" lon="11.9097119"><ele>270.0</ele><time>2026-04-11T11:48:37.982Z</time></trkpt><trkpt lat="44.0062834" lon="11.909622"><ele>270.0</ele><time>2026-04-11T11:48:41.981Z</time></trkpt><trkpt lat="44.006226" lon="11.9095758"><ele>270.0</ele><time>2026-04-11T11:48:44.982Z</time></trkpt><trkpt lat="44.0061844" lon="11.9094933"><ele>270.0</ele><time>2026-04-11T11:49:01.981Z</time></trkpt><trkpt lat="44.0062469" lon="11.9095416"><ele>270.0</ele><time>2026-04-11T11:49:09.98Z</time></trkpt><trkpt lat="44.0062984" lon="11.9095928"><ele>270.0</ele><time>2026-04-11T11:49:19.981Z</time></trkpt><trkpt lat="44.0063506" lon="11.9095229"><ele>270.0</ele><time>2026-04-11T11:49:27.981Z</time></trkpt><trkpt lat="44.0063412" lon="11.9094281"><ele>270.0</ele><time>2026-04-11T11:49:29.98Z</time></trkpt><trkpt lat="44.0063956" lon="11.9093472"><ele>270.0</ele><time>2026-04-11T11:49:32.981Z</time></trkpt><trkpt lat="44.0064213" lon="11.9092423"><ele>270.0</ele><time>2026-04-11T11:49:35.981Z</time></trkpt><trkpt lat="44.0064534" lon="11.9091414"><ele>270.0</ele><time>2026-04-11T11:49:38.98Z</time></trkpt><trkpt lat="44.0065001" lon="11.9090796"><ele>270.0</ele><time>2026-04-11T11:49:40.98Z</time></trkpt><trkpt lat="44.00655" lon="11.9090071"><ele>270.0</ele><time>2026-04-11T11:49:43.981Z</time></trkpt><trkpt lat="44.0066072" lon="11.9089588"><ele>271.57142857142856</ele><time>2026-04-11T11:49:45.981Z</time></trkpt><trkpt lat="44.0066536" lon="11.9088975"><ele>273.1428571428571</ele><time>2026-04-11T11:49:50.981Z</time></trkpt><trkpt lat="44.0066842" lon="11.9089869"><ele>274.7142857142857</ele><time>2026-04-11T11:50:50.981Z</time></trkpt><trkpt lat="44.0067525" lon="11.9089451"><ele>276.2857142857143</ele><time>2026-04-11T11:50:56.981Z</time></trkpt><trkpt lat="44.006796" lon="11.9088809"><ele>277.8571428571429</ele><time>2026-04-11T11:50:59.981Z</time></trkpt><trkpt lat="44.0068478" lon="11.9088239"><ele>279.42857142857144</ele><time>2026-04-11T11:51:10.98Z</time></trkpt><trkpt lat="44.0069147" lon="11.9087563"><ele>281.0</ele><time>2026-04-11T11:51:31.98Z</time></trkpt><trkpt lat="44.006965" lon="11.908703"><ele>283.28571428571433</ele><time>2026-04-11T11:51:38.98Z</time></trkpt><trkpt lat="44.0069743" lon="11.9086137"><ele>285.57142857142856</ele><time>2026-04-11T11:54:02.98Z</time></trkpt><trkpt lat="44.0069464" lon="11.9085277"><ele>287.8571428571429</ele><time>2026-04-11T11:54:13.981Z</time></trkpt><trkpt lat="44.0069756" lon="11.9084496"><ele>290.14285714285717</ele><time>2026-04-11T11:54:19.979Z</time></trkpt><trkpt lat="44.0070433" lon="11.9084167"><ele>292.42857142857144</ele><time>2026-04-11T11:54:21.98Z</time></trkpt><trkpt lat="44.0071086" lon="11.9084046"><ele>294.7142857142857</ele><time>2026-04-11T11:54:23.98Z</time></trkpt><trkpt lat="44.0071769" lon="11.9083475"><ele>297.0</ele><time>2026-04-11T11:54:26.98Z</time></trkpt><trkpt lat="44.007251" lon="11.9083699"><ele>298.5</ele><time>2026-04-11T11:54:29.98Z</time></trkpt><trkpt lat="44.0073149" lon="11.9083098"><ele>300.0</ele><time>2026-04-11T11:54:39.979Z</time></trkpt><trkpt lat="44.007389" lon="11.9082318"><ele>301.5</ele><time>2026-04-11T11:54:42.98Z</time></trkpt><trkpt lat="44.0073834" lon="11.9080974"><ele>303.0</ele><time>2026-04-11T11:54:45.979Z</time></trkpt><trkpt lat="44.0074464" lon="11.9080671"><ele>304.5</ele><time>2026-04-11T11:54:49.98Z</time></trkpt><trkpt lat="44.0074801" lon="11.9079824"><ele>306.0</ele><time>2026-04-11T12:00:35.979Z</time></trkpt><trkpt lat="44.0074743" lon="11.9078542"><ele>306.0</ele><time>2026-04-11T12:00:37.978Z</time></trkpt><trkpt lat="44.0074482" lon="11.9076856"><ele>306.0</ele><time>2026-04-11T12:00:39.977Z</time></trkpt><trkpt lat="44.007438" lon="11.9075786"><ele>306.0</ele><time>2026-04-11T12:00:40.977Z</time></trkpt><trkpt lat="44.0074234" lon="11.9074529"><ele>306.0</ele><time>2026-04-11T12:00:41.977Z</time></trkpt><trkpt lat="44.0074024" lon="11.9073104"><ele>306.0</ele><time>2026-04-11T12:00:42.978Z</time></trkpt><trkpt lat="44.0073592" lon="11.9071926"><ele>308.6666666666667</ele><time>2026-04-11T12:00:43.978Z</time></trkpt><trkpt lat="44.0073074" lon="11.9070936"><ele>311.3333333333333</ele><time>2026-04-11T12:00:44.978Z</time></trkpt><trkpt lat="44.0072442" lon="11.9070052"><ele>314.0</ele><time>2026-04-11T12:00:45.977Z</time></trkpt><trkpt lat="44.0071706" lon="11.9069249"><ele>316.66666666666663</ele><time>2026-04-11T12:00:46.978Z</time></trkpt><trkpt lat="44.007087" lon="11.9068756"><ele>319.3333333333333</ele><time>2026-04-11T12:00:47.977Z</time></trkpt><trkpt lat="44.0070053" lon="11.9068371"><ele>322.0</ele><time>2026-04-11T12:00:48.978Z</time></trkpt><trkpt lat="44.0069263" lon="11.9068123"><ele>322.0</ele><time>2026-04-11T12:00:49.977Z</time></trkpt><trkpt lat="44.0068462" lon="11.9068001"><ele>322.0</ele><time>2026-04-11T12:00:50.978Z</time></trkpt><trkpt lat="44.0067729" lon="11.906778"><ele>322.0</ele><time>2026-04-11T12:00:51.978Z</time></trkpt><trkpt lat="44.0066802" lon="11.9066871"><ele>322.0</ele><time>2026-04-11T12:00:53.978Z</time></trkpt><trkpt lat="44.0067401" lon="11.9065557"><ele>322.0</ele><time>2026-04-11T12:00:55.978Z</time></trkpt><trkpt lat="44.006822" lon="11.9065238"><ele>325.25</ele><time>2026-04-11T12:00:56.977Z</time></trkpt><trkpt lat="44.0069292" lon="11.9065047"><ele>328.5</ele><time>2026-04-11T12:00:57.978Z</time></trkpt><trkpt lat="44.0070474" lon="11.9064942"><ele>331.75</ele><time>2026-04-11T12:00:58.979Z</time></trkpt><trkpt lat="44.007161" lon="11.9064899"><ele>335.0</ele><time>2026-04-11T12:00:59.978Z</time></trkpt><trkpt lat="44.0072729" lon="11.9065115"><ele>335.0</ele><time>2026-04-11T12:01:00.979Z</time></trkpt><trkpt lat="44.0073795" lon="11.906569"><ele>335.0</ele><time>2026-04-11T12:01:01.979Z</time></trkpt><trkpt lat="44.0074793" lon="11.9066502"><ele>335.0</ele><time>2026-04-11T12:01:02.978Z</time></trkpt><trkpt lat="44.0075729" lon="11.9067329"><ele>335.0</ele><time>2026-04-11T12:01:03.977Z</time></trkpt><trkpt lat="44.0076574" lon="11.9068152"><ele>335.0</ele><time>2026-04-11T12:01:04.977Z</time></trkpt><trkpt lat="44.0077214" lon="11.906904"><ele>335.6666666666667</ele><time>2026-04-11T12:01:05.977Z</time></trkpt><trkpt lat="44.0077617" lon="11.9070057"><ele>336.33333333333337</ele><time>2026-04-11T12:01:06.977Z</time></trkpt><trkpt lat="44.0077844" lon="11.9070995"><ele>337.0</ele><time>2026-04-11T12:01:07.977Z</time></trkpt><trkpt lat="44.007828" lon="11.9071635"><ele>337.6666666666667</ele><time>2026-04-11T12:01:08.978Z</time></trkpt><trkpt lat="44.0079193" lon="11.9071383"><ele>338.3333333333333</ele><time>2026-04-11T12:01:10.977Z</time></trkpt><trkpt lat="44.0079161" lon="11.9069525"><ele>339.0</ele><time>2026-04-11T12:01:12.979Z</time></trkpt><trkpt lat="44.0078748" lon="11.9068474"><ele>339.0</ele><time>2026-04-11T12:01:13.979Z</time></trkpt><trkpt lat="44.0078242" lon="11.9067449"><ele>339.0</ele><time>2026-04-11T12:01:14.977Z</time></trkpt><trkpt lat="44.0077724" lon="11.906633"><ele>339.0</ele><time>2026-04-11T12:01:15.977Z</time></trkpt><trkpt lat="44.0077347" lon="11.9065233"><ele>339.0</ele><time>2026-04-11T12:01:16.978Z</time></trkpt><trkpt lat="44.0077259" lon="11.9064164"><ele>339.0</ele><time>2026-04-11T12:01:17.978Z</time></trkpt><trkpt lat="44.0077618" lon="11.9063245"><ele>339.0</ele><time>2026-04-11T12:01:18.977Z</time></trkpt><trkpt lat="44.0078372" lon="11.9062492"><ele>342.25</ele><time>2026-04-11T12:01:19.978Z</time></trkpt><trkpt lat="44.0079417" lon="11.9061812"><ele>345.5</ele><time>2026-04-11T12:01:20.977Z</time></trkpt><trkpt lat="44.008059" lon="11.9061156"><ele>348.75</ele><time>2026-04-11T12:01:21.978Z</time></trkpt><trkpt lat="44.0081897" lon="11.9060597"><ele>352.0</ele><time>2026-04-11T12:01:22.978Z</time></trkpt><trkpt lat="44.0083061" lon="11.9059991"><ele>354.75</ele><time>2026-04-11T12:01:23.977Z</time></trkpt><trkpt lat="44.0084229" lon="11.9059432"><ele>357.5</ele><time>2026-04-11T12:01:24.979Z</time></trkpt><trkpt lat="44.0085413" lon="11.9058861"><ele>360.25</ele><time>2026-04-11T12:01:25.977Z</time></trkpt><trkpt lat="44.008654" lon="11.9058368"><ele>363.0</ele><time>2026-04-11T12:01:26.977Z</time></trkpt><trkpt lat="44.0087593" lon="11.9057928"><ele>363.0</ele><time>2026-04-11T12:01:27.977Z</time></trkpt><trkpt lat="44.0088649" lon="11.9057424"><ele>363.0</ele><time>2026-04-11T12:01:28.977Z</time></trkpt><trkpt lat="44.0089613" lon="11.905686"><ele>363.0</ele><time>2026-04-11T12:01:29.977Z</time></trkpt><trkpt lat="44.009059" lon="11.9056224"><ele>363.0</ele><time>2026-04-11T12:01:30.978Z</time></trkpt><trkpt lat="44.0091488" lon="11.9055545"><ele>363.0</ele><time>2026-04-11T12:01:31.977Z</time></trkpt><trkpt lat="44.0092359" lon="11.9054804"><ele>363.2</ele><time>2026-04-11T12:01:32.977Z</time></trkpt><trkpt lat="44.0093251" lon="11.9054035"><ele>363.4</ele><time>2026-04-11T12:01:33.978Z</time></trkpt><trkpt lat="44.0094131" lon="11.9053394"><ele>363.59999999999997</ele><time>2026-04-11T12:01:34.977Z</time></trkpt><trkpt lat="44.0095064" lon="11.9052727"><ele>363.79999999999995</ele><time>2026-04-11T12:01:35.978Z</time></trkpt><trkpt lat="44.0095966" lon="11.9051997"><ele>364.0</ele><time>2026-04-11T12:01:36.978Z</time></trkpt><trkpt lat="44.0096925" lon="11.9051319"><ele>364.0</ele><time>2026-04-11T12:01:37.977Z</time></trkpt><trkpt lat="44.0097869" lon="11.9050657"><ele>364.0</ele><time>2026-04-11T12:01:38.978Z</time></trkpt><trkpt lat="44.009877" lon="11.9049979"><ele>364.0</ele><time>2026-04-11T12:01:39.979Z</time></trkpt><trkpt lat="44.0099629" lon="11.9049374"><ele>364.0</ele><time>2026-04-11T12:01:40.978Z</time></trkpt><trkpt lat="44.0100489" lon="11.9048825"><ele>364.0</ele><time>2026-04-11T12:01:41.979Z</time></trkpt><trkpt lat="44.0101369" lon="11.9048315"><ele>366.79999999999995</ele><time>2026-04-11T12:01:42.979Z</time></trkpt><trkpt lat="44.0102317" lon="11.9047858"><ele>369.59999999999997</ele><time>2026-04-11T12:01:43.978Z</time></trkpt><trkpt lat="44.0103423" lon="11.9047367"><ele>372.4</ele><time>2026-04-11T12:01:44.977Z</time></trkpt><trkpt lat="44.0104499" lon="11.904701"><ele>375.2</ele><time>2026-04-11T12:01:45.977Z</time></trkpt><trkpt lat="44.0105553" lon="11.90468"><ele>378.0</ele><time>2026-04-11T12:01:46.978Z</time></trkpt><trkpt lat="44.0106632" lon="11.9046696"><ele>378.0</ele><time>2026-04-11T12:01:47.977Z</time></trkpt><trkpt lat="44.0107713" lon="11.9046678"><ele>378.0</ele><time>2026-04-11T12:01:48.978Z</time></trkpt><trkpt lat="44.0108787" lon="11.9046833"><ele>378.0</ele><time>2026-04-11T12:01:49.977Z</time></trkpt><trkpt lat="44.0109857" lon="11.9047025"><ele>378.0</ele><time>2026-04-11T12:01:50.977Z</time></trkpt><trkpt lat="44.0110897" lon="11.9047298"><ele>378.0</ele><time>2026-04-11T12:01:51.977Z</time></trkpt><trkpt lat="44.0111915" lon="11.9047649"><ele>378.79999999999995</ele><time>2026-04-11T12:01:52.978Z</time></trkpt><trkpt lat="44.0112687" lon="11.9048425"><ele>379.6</ele><time>2026-04-11T12:01:53.977Z</time></trkpt><trkpt lat="44.0113457" lon="11.9049226"><ele>380.4</ele><time>2026-04-11T12:01:54.978Z</time></trkpt><trkpt lat="44.0114132" lon="11.9050268"><ele>381.20000000000005</ele><time>2026-04-11T12:01:55.977Z</time></trkpt><trkpt lat="44.0114505" lon="11.9051522"><ele>382.0</ele><time>2026-04-11T12:01:56.978Z</time></trkpt><trkpt lat="44.0114598" lon="11.9052816"><ele>380.3333333333333</ele><time>2026-04-11T12:01:57.977Z</time></trkpt><trkpt lat="44.0114518" lon="11.9054048"><ele>378.66666666666663</ele><time>2026-04-11T12:01:58.977Z</time></trkpt><trkpt lat="44.011413" lon="11.9055267"><ele>377.0</ele><time>2026-04-11T12:01:59.977Z</time></trkpt><trkpt lat="44.0113771" lon="11.9056335"><ele>375.3333333333333</ele><time>2026-04-11T12:02:00.977Z</time></trkpt><trkpt lat="44.0113439" lon="11.9057433"><ele>373.6666666666667</ele><time>2026-04-11T12:02:01.978Z</time></trkpt><trkpt lat="44.0113361" lon="11.9058375"><ele>372.0</ele><time>2026-04-11T12:02:02.977Z</time></trkpt><trkpt lat="44.0113883" lon="11.9059633"><ele>372.0</ele><time>2026-04-11T12:02:04.977Z</time></trkpt><trkpt lat="44.0114943" lon="11.9059442"><ele>372.0</ele><time>2026-04-11T12:02:06.978Z</time></trkpt><trkpt lat="44.0115429" lon="11.9058118"><ele>372.0</ele><time>2026-04-11T12:02:07.977Z</time></trkpt><trkpt lat="44.0115884" lon="11.9057226"><ele>372.0</ele><time>2026-04-11T12:02:08.977Z</time></trkpt><trkpt lat="44.0116156" lon="11.9055121"><ele>372.0</ele><time>2026-04-11T12:02:09.977Z</time></trkpt><trkpt lat="44.0116495" lon="11.905373"><ele>374.0</ele><time>2026-04-11T12:02:10.977Z</time></trkpt><trkpt lat="44.011668" lon="11.9052229"><ele>376.0</ele><time>2026-04-11T12:02:11.977Z</time></trkpt><trkpt lat="44.0116684" lon="11.9050716"><ele>378.0</ele><time>2026-04-11T12:02:12.978Z</time></trkpt><trkpt lat="44.0116499" lon="11.9049251"><ele>380.0</ele><time>2026-04-11T12:02:13.978Z</time></trkpt><trkpt lat="44.0116145" lon="11.9047796"><ele>382.0</ele><time>2026-04-11T12:02:14.977Z</time></trkpt><trkpt lat="44.0115626" lon="11.9046421"><ele>382.0</ele><time>2026-04-11T12:02:15.978Z</time></trkpt><trkpt lat="44.0114956" lon="11.9045165"><ele>382.0</ele><time>2026-04-11T12:02:16.978Z</time></trkpt><trkpt lat="44.0114111" lon="11.9044201"><ele>382.0</ele><time>2026-04-11T12:02:17.977Z</time></trkpt><trkpt lat="44.0113226" lon="11.9043457"><ele>382.0</ele><time>2026-04-11T12:02:18.977Z</time></trkpt><trkpt lat="44.0112121" lon="11.9043022"><ele>382.0</ele><time>2026-04-11T12:02:19.977Z</time></trkpt><trkpt lat="44.0111139" lon="11.9042664"><ele>386.20000000000005</ele><time>2026-04-11T12:02:20.978Z</time></trkpt><trkpt lat="44.0110216" lon="11.9042393"><ele>390.4</ele><time>2026-04-11T12:02:21.977Z</time></trkpt><trkpt lat="44.0109542" lon="11.9042025"><ele>394.6</ele><time>2026-04-11T12:02:22.977Z</time></trkpt><trkpt lat="44.0109182" lon="11.9040795"><ele>398.79999999999995</ele><time>2026-04-11T12:02:24.977Z</time></trkpt><trkpt lat="44.0110338" lon="11.9039791"><ele>403.0</ele><time>2026-04-11T12:02:26.978Z</time></trkpt><trkpt lat="44.0111275" lon="11.9039261"><ele>403.0</ele><time>2026-04-11T12:02:27.978Z</time></trkpt><trkpt lat="44.0112136" lon="11.9038509"><ele>403.0</ele><time>2026-04-11T12:02:28.977Z</time></trkpt><trkpt lat="44.0112857" lon="11.9037446"><ele>403.0</ele><time>2026-04-11T12:02:29.977Z</time></trkpt><trkpt lat="44.0113405" lon="11.9036115"><ele>403.0</ele><time>2026-04-11T12:02:30.978Z</time></trkpt><trkpt lat="44.0113834" lon="11.903471"><ele>403.0</ele><time>2026-04-11T12:02:31.977Z</time></trkpt><trkpt lat="44.0114307" lon="11.9033422"><ele>402.4</ele><time>2026-04-11T12:02:32.977Z</time></trkpt><trkpt lat="44.0114903" lon="11.9032259"><ele>401.79999999999995</ele><time>2026-04-11T12:02:33.978Z</time></trkpt><trkpt lat="44.0115673" lon="11.9031224"><ele>401.2</ele><time>2026-04-11T12:02:34.977Z</time></trkpt><trkpt lat="44.0116536" lon="11.9030296"><ele>400.6</ele><time>2026-04-11T12:02:35.978Z</time></trkpt><trkpt lat="44.0117383" lon="11.9029257"><ele>400.0</ele><time>2026-04-11T12:02:36.978Z</time></trkpt><trkpt lat="44.0118111" lon="11.9028087"><ele>403.8</ele><time>2026-04-11T12:02:37.979Z</time></trkpt><trkpt lat="44.0118668" lon="11.9026791"><ele>407.6</ele><time>2026-04-11T12:02:38.978Z</time></trkpt><trkpt lat="44.0118971" lon="11.9025401"><ele>411.4</ele><time>2026-04-11T12:02:39.977Z</time></trkpt><trkpt lat="44.0119116" lon="11.9023916"><ele>415.2</ele><time>2026-04-11T12:02:40.978Z</time></trkpt><trkpt lat="44.0119198" lon="11.9022521"><ele>419.0</ele><time>2026-04-11T12:02:41.977Z</time></trkpt><trkpt lat="44.0119322" lon="11.9021204"><ele>419.0</ele><time>2026-04-11T12:02:42.977Z</time></trkpt><trkpt lat="44.0119736" lon="11.9020283"><ele>419.0</ele><time>2026-04-11T12:02:43.978Z</time></trkpt><trkpt lat="44.0120458" lon="11.9019531"><ele>419.0</ele><time>2026-04-11T12:02:44.978Z</time></trkpt><trkpt lat="44.0121382" lon="11.9019052"><ele>419.0</ele><time>2026-04-11T12:02:45.977Z</time></trkpt><trkpt lat="44.0122294" lon="11.9018698"><ele>419.0</ele><time>2026-04-11T12:02:46.978Z</time></trkpt><trkpt lat="44.0123265" lon="11.9018157"><ele>420.4</ele><time>2026-04-11T12:02:47.978Z</time></trkpt><trkpt lat="44.0124207" lon="11.9017405"><ele>421.79999999999995</ele><time>2026-04-11T12:02:48.977Z</time></trkpt><trkpt lat="44.0125057" lon="11.901661"><ele>423.20000000000005</ele><time>2026-04-11T12:02:49.977Z</time></trkpt><trkpt lat="44.0125797" lon="11.9015785"><ele>424.6</ele><time>2026-04-11T12:02:50.978Z</time></trkpt><trkpt lat="44.0126405" lon="11.9014995"><ele>426.0</ele><time>2026-04-11T12:02:51.977Z</time></trkpt><trkpt lat="44.012686" lon="11.9014215"><ele>426.0</ele><time>2026-04-11T12:02:52.978Z</time></trkpt><trkpt lat="44.012722" lon="11.9013457"><ele>426.0</ele><time>2026-04-11T12:02:53.978Z</time></trkpt><trkpt lat="44.0127596" lon="11.9012199"><ele>426.0</ele><time>2026-04-11T12:02:55.978Z</time></trkpt><trkpt lat="44.0127923" lon="11.901141"><ele>426.0</ele><time>2026-04-11T12:02:58.977Z</time></trkpt><trkpt lat="44.0127777" lon="11.9010386"><ele>426.0</ele><time>2026-04-11T12:03:27.978Z</time></trkpt><trkpt lat="44.012805" lon="11.9009094"><ele>426.0</ele><time>2026-04-11T12:03:30.978Z</time></trkpt><trkpt lat="44.0128191" lon="11.9007819"><ele>426.0</ele><time>2026-04-11T12:03:32.977Z</time></trkpt><trkpt lat="44.0128634" lon="11.9006559"><ele>426.0</ele><time>2026-04-11T12:03:34.977Z</time></trkpt><trkpt lat="44.0129422" lon="11.9005583"><ele>426.0</ele><time>2026-04-11T12:03:36.977Z</time></trkpt><trkpt lat="44.0129958" lon="11.9004991"><ele>426.0</ele><time>2026-04-11T12:03:38.977Z</time></trkpt><trkpt lat="44.0130565" lon="11.9004072"><ele>426.0</ele><time>2026-04-11T12:03:40.978Z</time></trkpt><trkpt lat="44.0131228" lon="11.9002946"><ele>426.0</ele><time>2026-04-11T12:03:42.977Z</time></trkpt><trkpt lat="44.0131686" lon="11.9001508"><ele>426.0</ele><time>2026-04-11T12:03:44.979Z</time></trkpt><trkpt lat="44.0131857" lon="11.900066"><ele>426.0</ele><time>2026-04-11T12:03:45.977Z</time></trkpt><trkpt lat="44.0132076" lon="11.8999104"><ele>426.0</ele><time>2026-04-11T12:03:47.978Z</time></trkpt><trkpt lat="44.0131964" lon="11.8997644"><ele>426.0</ele><time>2026-04-11T12:03:49.979Z</time></trkpt><trkpt lat="44.0131866" lon="11.8996742"><ele>426.0</ele><time>2026-04-11T12:03:50.978Z</time></trkpt><trkpt lat="44.0131745" lon="11.8995819"><ele>426.0</ele><time>2026-04-11T12:03:51.977Z</time></trkpt><trkpt lat="44.0131343" lon="11.8995088"><ele>426.0</ele><time>2026-04-11T12:03:52.977Z</time></trkpt><trkpt lat="44.013104" lon="11.8994207"><ele>426.0</ele><time>2026-04-11T12:03:53.978Z</time></trkpt><trkpt lat="44.0130184" lon="11.8992925"><ele>426.0</ele><time>2026-04-11T12:03:55.979Z</time></trkpt><trkpt lat="44.0129988" lon="11.8991054"><ele>427.5</ele><time>2026-04-11T12:03:57.978Z</time></trkpt><trkpt lat="44.013056" lon="11.8990446"><ele>429.0</ele><time>2026-04-11T12:03:58.978Z</time></trkpt><trkpt lat="44.0130887" lon="11.898958"><ele>430.5</ele><time>2026-04-11T12:03:59.978Z</time></trkpt><trkpt lat="44.0131197" lon="11.8987918"><ele>432.0</ele><time>2026-04-11T12:04:01.978Z</time></trkpt><trkpt lat="44.013129" lon="11.8987015"><ele>433.5</ele><time>2026-04-11T12:04:02.978Z</time></trkpt><trkpt lat="44.0131366" lon="11.8986142"><ele>435.0</ele><time>2026-04-11T12:04:03.977Z</time></trkpt><trkpt lat="44.0131352" lon="11.8984377"><ele>438.0</ele><time>2026-04-11T12:04:05.978Z</time></trkpt><trkpt lat="44.0131301" lon="11.8982723"><ele>441.0</ele><time>2026-04-11T12:04:07.978Z</time></trkpt><trkpt lat="44.0131078" lon="11.8981213"><ele>444.0</ele><time>2026-04-11T12:04:09.977Z</time></trkpt><trkpt lat="44.0130428" lon="11.8980152"><ele>447.0</ele><time>2026-04-11T12:04:11.977Z</time></trkpt><trkpt lat="44.0129758" lon="11.8978695"><ele>446.99999999999994</ele><time>2026-04-11T12:04:13.978Z</time></trkpt><trkpt lat="44.0129447" lon="11.8977909"><ele>447.0</ele><time>2026-04-11T12:04:14.977Z</time></trkpt><trkpt lat="44.0129172" lon="11.8977027"><ele>447.0</ele><time>2026-04-11T12:04:15.979Z</time></trkpt><trkpt lat="44.0128931" lon="11.8976132"><ele>447.0</ele><time>2026-04-11T12:04:16.978Z</time></trkpt><trkpt lat="44.0128386" lon="11.8975433"><ele>447.0</ele><time>2026-04-11T12:04:17.977Z</time></trkpt><trkpt lat="44.0127961" lon="11.8974739"><ele>446.99999999999994</ele><time>2026-04-11T12:04:18.978Z</time></trkpt><trkpt lat="44.012755" lon="11.8973917"><ele>447.0</ele><time>2026-04-11T12:04:19.977Z</time></trkpt><trkpt lat="44.0127023" lon="11.8973127"><ele>451.20000000000005</ele><time>2026-04-11T12:04:20.978Z</time></trkpt><trkpt lat="44.0126211" lon="11.897222"><ele>455.40000000000003</ele><time>2026-04-11T12:04:22.977Z</time></trkpt><trkpt lat="44.0125787" lon="11.8971138"><ele>459.59999999999997</ele><time>2026-04-11T12:04:24.978Z</time></trkpt><trkpt lat="44.0126192" lon="11.8969791"><ele>463.79999999999995</ele><time>2026-04-11T12:04:26.977Z</time></trkpt><trkpt lat="44.0126694" lon="11.8968202"><ele>468.0</ele><time>2026-04-11T12:04:28.978Z</time></trkpt><trkpt lat="44.0126875" lon="11.8967307"><ele>470.59999999999997</ele><time>2026-04-11T12:04:29.977Z</time></trkpt><trkpt lat="44.01272" lon="11.8965664"><ele>473.19999999999993</ele><time>2026-04-11T12:04:31.978Z</time></trkpt><trkpt lat="44.0127156" lon="11.896417"><ele>475.8</ele><time>2026-04-11T12:04:33.977Z</time></trkpt><trkpt lat="44.0127007" lon="11.8962646"><ele>478.4</ele><time>2026-04-11T12:04:35.976Z</time></trkpt><trkpt lat="44.0126726" lon="11.8961676"><ele>481.0</ele><time>2026-04-11T12:05:39.977Z</time></trkpt><trkpt lat="44.0126315" lon="11.8960597"><ele>481.0</ele><time>2026-04-11T12:05:42.977Z</time></trkpt><trkpt lat="44.0125818" lon="11.8959467"><ele>481.0</ele><time>2026-04-11T12:05:44.978Z</time></trkpt><trkpt lat="44.0125094" lon="11.8958139"><ele>481.0</ele><time>2026-04-11T12:05:46.977Z</time></trkpt><trkpt lat="44.0124601" lon="11.8957474"><ele>481.0</ele><time>2026-04-11T12:05:47.977Z</time></trkpt><trkpt lat="44.0124218" lon="11.8956762"><ele>481.0</ele><time>2026-04-11T12:05:48.977Z</time></trkpt><trkpt lat="44.0123228" lon="11.8955662"><ele>482.20000000000005</ele><time>2026-04-11T12:05:50.976Z</time></trkpt><trkpt lat="44.0122151" lon="11.8954811"><ele>483.40000000000003</ele><time>2026-04-11T12:05:52.976Z</time></trkpt><trkpt lat="44.0121553" lon="11.8954378"><ele>484.6</ele><time>2026-04-11T12:05:53.977Z</time></trkpt><trkpt lat="44.0120429" lon="11.8953655"><ele>485.8</ele><time>2026-04-11T12:05:55.976Z</time></trkpt><trkpt lat="44.0119747" lon="11.8953329"><ele>487.0</ele><time>2026-04-11T12:05:56.977Z</time></trkpt><trkpt lat="44.0119194" lon="11.8952827"><ele>487.0</ele><time>2026-04-11T12:05:57.976Z</time></trkpt><trkpt lat="44.0118595" lon="11.8952302"><ele>487.0</ele><time>2026-04-11T12:05:58.977Z</time></trkpt><trkpt lat="44.0117764" lon="11.8952304"><ele>487.0</ele><time>2026-04-11T12:05:59.976Z</time></trkpt><trkpt lat="44.0116963" lon="11.8952058"><ele>487.0</ele><time>2026-04-11T12:06:00.977Z</time></trkpt><trkpt lat="44.0116211" lon="11.8951847"><ele>487.0</ele><time>2026-04-11T12:06:01.976Z</time></trkpt><trkpt lat="44.0115577" lon="11.8951801"><ele>487.0</ele><time>2026-04-11T12:06:02.976Z</time></trkpt><trkpt lat="44.0114894" lon="11.8951947"><ele>487.0</ele><time>2026-04-11T12:06:03.977Z</time></trkpt><trkpt lat="44.0114147" lon="11.8951783"><ele>486.33333333333337</ele><time>2026-04-11T12:06:04.976Z</time></trkpt><trkpt lat="44.0113324" lon="11.8951767"><ele>485.6666666666667</ele><time>2026-04-11T12:06:05.976Z</time></trkpt><trkpt lat="44.0112445" lon="11.8951638"><ele>485.0</ele><time>2026-04-11T12:06:06.976Z</time></trkpt><trkpt lat="44.0111629" lon="11.8951681"><ele>484.33333333333337</ele><time>2026-04-11T12:06:07.976Z</time></trkpt><trkpt lat="44.0110714" lon="11.8951623"><ele>483.6666666666667</ele><time>2026-04-11T12:06:08.976Z</time></trkpt><trkpt lat="44.0109791" lon="11.8951462"><ele>483.0</ele><time>2026-04-11T12:06:09.977Z</time></trkpt><trkpt lat="44.0108842" lon="11.8951177"><ele>488.0</ele><time>2026-04-11T12:06:10.978Z</time></trkpt><trkpt lat="44.010787" lon="11.8950869"><ele>493.0</ele><time>2026-04-11T12:06:11.977Z</time></trkpt><trkpt lat="44.0107012" lon="11.8950494"><ele>498.0</ele><time>2026-04-11T12:06:12.977Z</time></trkpt><trkpt lat="44.0106245" lon="11.8950102"><ele>503.0</ele><time>2026-04-11T12:06:13.976Z</time></trkpt><trkpt lat="44.0105544" lon="11.894965"><ele>508.0</ele><time>2026-04-11T12:06:14.976Z</time></trkpt><trkpt lat="44.0104886" lon="11.8949321"><ele>513.0</ele><time>2026-04-11T12:06:15.976Z</time></trkpt><trkpt lat="44.0103518" lon="11.8948976"><ele>513.0</ele><time>2026-04-11T12:06:17.977Z</time></trkpt><trkpt lat="44.0102653" lon="11.8948911"><ele>513.0</ele><time>2026-04-11T12:06:18.977Z</time></trkpt><trkpt lat="44.0101758" lon="11.8948952"><ele>513.0</ele><time>2026-04-11T12:06:19.977Z</time></trkpt><trkpt lat="44.0100792" lon="11.8948962"><ele>513.0</ele><time>2026-04-11T12:06:20.977Z</time></trkpt><trkpt lat="44.0099979" lon="11.8948995"><ele>513.0</ele><time>2026-04-11T12:06:21.976Z</time></trkpt><trkpt lat="44.0099116" lon="11.8948909"><ele>513.0</ele><time>2026-04-11T12:06:22.977Z</time></trkpt><trkpt lat="44.0098412" lon="11.8948628"><ele>515.6</ele><time>2026-04-11T12:06:23.977Z</time></trkpt><trkpt lat="44.0097596" lon="11.8947407"><ele>518.1999999999999</ele><time>2026-04-11T12:06:24.977Z</time></trkpt><trkpt lat="44.0096756" lon="11.8946803"><ele>520.8</ele><time>2026-04-11T12:06:25.977Z</time></trkpt><trkpt lat="44.0095873" lon="11.8946286"><ele>523.4</ele><time>2026-04-11T12:06:26.978Z</time></trkpt><trkpt lat="44.0094955" lon="11.8945898"><ele>526.0</ele><time>2026-04-11T12:06:27.978Z</time></trkpt><trkpt lat="44.0094003" lon="11.8945761"><ele>526.0</ele><time>2026-04-11T12:06:28.977Z</time></trkpt><trkpt lat="44.0093241" lon="11.8945833"><ele>526.0</ele><time>2026-04-11T12:06:29.977Z</time></trkpt><trkpt lat="44.0092248" lon="11.8945817"><ele>526.0</ele><time>2026-04-11T12:06:30.978Z</time></trkpt><trkpt lat="44.0091387" lon="11.8945724"><ele>526.0</ele><time>2026-04-11T12:06:31.977Z</time></trkpt><trkpt lat="44.0090666" lon="11.8946052"><ele>526.0</ele><time>2026-04-11T12:06:32.977Z</time></trkpt><trkpt lat="44.0089922" lon="11.8946085"><ele>526.0</ele><time>2026-04-11T12:06:33.976Z</time></trkpt><trkpt lat="44.0088697" lon="11.894655"><ele>526.5</ele><time>2026-04-11T12:06:35.977Z</time></trkpt><trkpt lat="44.0087869" lon="11.8946021"><ele>527.0</ele><time>2026-04-11T12:06:37.977Z</time></trkpt><trkpt lat="44.0087455" lon="11.8944432"><ele>527.5</ele><time>2026-04-11T12:06:39.976Z</time></trkpt><trkpt lat="44.0087197" lon="11.8943577"><ele>528.0</ele><time>2026-04-11T12:06:40.976Z</time></trkpt><trkpt lat="44.0086817" lon="11.8942683"><ele>528.5</ele><time>2026-04-11T12:06:41.977Z</time></trkpt><trkpt lat="44.0086367" lon="11.8941802"><ele>529.0</ele><time>2026-04-11T12:06:42.977Z</time></trkpt><trkpt lat="44.0085428" lon="11.8941265"><ele>530.0</ele><time>2026-04-11T12:06:43.976Z</time></trkpt><trkpt lat="44.0084692" lon="11.8940449"><ele>531.0</ele><time>2026-04-11T12:06:44.976Z</time></trkpt><trkpt lat="44.008406" lon="11.8939489"><ele>532.0</ele><time>2026-04-11T12:06:45.978Z</time></trkpt><trkpt lat="44.0083489" lon="11.8938417"><ele>533.0</ele><time>2026-04-11T12:06:46.977Z</time></trkpt><trkpt lat="44.0082958" lon="11.8937255"><ele>534.0</ele><time>2026-04-11T12:06:47.976Z</time></trkpt><trkpt lat="44.0082409" lon="11.8936146"><ele>529.8</ele><time>2026-04-11T12:06:48.977Z</time></trkpt><trkpt lat="44.0082101" lon="11.8934818"><ele>525.5999999999999</ele><time>2026-04-11T12:06:49.976Z</time></trkpt><trkpt lat="44.0081922" lon="11.893349"><ele>521.4</ele><time>2026-04-11T12:06:50.977Z</time></trkpt><trkpt lat="44.0081785" lon="11.8932198"><ele>517.1999999999999</ele><time>2026-04-11T12:06:51.977Z</time></trkpt><trkpt lat="44.008184" lon="11.8931047"><ele>513.0</ele><time>2026-04-11T12:06:52.976Z</time></trkpt><trkpt lat="44.0082122" lon="11.8929949"><ele>513.0</ele><time>2026-04-11T12:06:53.977Z</time></trkpt><trkpt lat="44.0082468" lon="11.8928863"><ele>513.0</ele><time>2026-04-11T12:06:54.977Z</time></trkpt><trkpt lat="44.0082792" lon="11.8927736"><ele>513.0</ele><time>2026-04-11T12:06:55.977Z</time></trkpt><trkpt lat="44.0082893" lon="11.8926606"><ele>513.0</ele><time>2026-04-11T12:06:56.976Z</time></trkpt><trkpt lat="44.0082812" lon="11.8925031"><ele>513.0</ele><time>2026-04-11T12:06:57.978Z</time></trkpt><trkpt lat="44.0082397" lon="11.8923793"><ele>516.1999999999999</ele><time>2026-04-11T12:06:58.976Z</time></trkpt><trkpt lat="44.0081081" lon="11.8923342"><ele>519.4</ele><time>2026-04-11T12:06:59.976Z</time></trkpt><trkpt lat="44.0080534" lon="11.8922332"><ele>522.5999999999999</ele><time>2026-04-11T12:07:00.976Z</time></trkpt><trkpt lat="44.0079491" lon="11.8921566"><ele>525.8</ele><time>2026-04-11T12:07:01.977Z</time></trkpt><trkpt lat="44.0078545" lon="11.8920932"><ele>529.0</ele><time>2026-04-11T12:07:02.977Z</time></trkpt><trkpt lat="44.0077692" lon="11.8920321"><ele>529.0</ele><time>2026-04-11T12:07:03.976Z</time></trkpt><trkpt lat="44.0076885" lon="11.8919609"><ele>529.0</ele><time>2026-04-11T12:07:04.976Z</time></trkpt><trkpt lat="44.0076254" lon="11.8918827"><ele>529.0</ele><time>2026-04-11T12:07:05.977Z</time></trkpt><trkpt lat="44.0075659" lon="11.8918113"><ele>529.0</ele><time>2026-04-11T12:07:06.976Z</time></trkpt><trkpt lat="44.0075812" lon="11.8917136"><ele>529.0</ele><time>2026-04-11T12:07:07.976Z</time></trkpt><trkpt lat="44.0075783" lon="11.8916248"><ele>529.0</ele><time>2026-04-11T12:07:08.976Z</time></trkpt><trkpt lat="44.0076031" lon="11.8915215"><ele>526.8333333333334</ele><time>2026-04-11T12:07:09.976Z</time></trkpt><trkpt lat="44.0075855" lon="11.8914275"><ele>524.6666666666667</ele><time>2026-04-11T12:07:10.976Z</time></trkpt><trkpt lat="44.0075376" lon="11.8913379"><ele>522.5</ele><time>2026-04-11T12:07:11.978Z</time></trkpt><trkpt lat="44.0074903" lon="11.8912507"><ele>520.3333333333334</ele><time>2026-04-11T12:07:12.976Z</time></trkpt><trkpt lat="44.0073783" lon="11.8911917"><ele>518.1666666666666</ele><time>2026-04-11T12:07:13.977Z</time></trkpt><trkpt lat="44.0073073" lon="11.8911459"><ele>516.0</ele><time>2026-04-11T12:07:14.977Z</time></trkpt><trkpt lat="44.0072251" lon="11.8910837"><ele>516.0</ele><time>2026-04-11T12:07:15.978Z</time></trkpt><trkpt lat="44.0071299" lon="11.8910183"><ele>516.0</ele><time>2026-04-11T12:07:16.977Z</time></trkpt><trkpt lat="44.0070438" lon="11.8909573"><ele>516.0</ele><time>2026-04-11T12:07:17.976Z</time></trkpt><trkpt lat="44.00702" lon="11.8908432"><ele>516.0</ele><time>2026-04-11T12:07:18.977Z</time></trkpt><trkpt lat="44.0069636" lon="11.8907556"><ele>516.0</ele><time>2026-04-11T12:07:19.977Z</time></trkpt><trkpt lat="44.0069362" lon="11.8906083"><ele>517.8333333333334</ele><time>2026-04-11T12:07:20.976Z</time></trkpt><trkpt lat="44.0069413" lon="11.8904873"><ele>519.6666666666666</ele><time>2026-04-11T12:07:21.977Z</time></trkpt><trkpt lat="44.0069605" lon="11.8903675"><ele>521.5</ele><time>2026-04-11T12:07:22.977Z</time></trkpt><trkpt lat="44.0070399" lon="11.8902925"><ele>523.3333333333333</ele><time>2026-04-11T12:07:23.977Z</time></trkpt><trkpt lat="44.007036" lon="11.8901831"><ele>525.1666666666666</ele><time>2026-04-11T12:07:24.976Z</time></trkpt><trkpt lat="44.0070528" lon="11.8900759"><ele>527.0</ele><time>2026-04-11T12:07:25.976Z</time></trkpt><trkpt lat="44.0070319" lon="11.8899717"><ele>525.2</ele><time>2026-04-11T12:07:26.977Z</time></trkpt><trkpt lat="44.006888" lon="11.8899124"><ele>523.4000000000001</ele><time>2026-04-11T12:07:27.978Z</time></trkpt><trkpt lat="44.0067956" lon="11.8898654"><ele>521.5999999999999</ele><time>2026-04-11T12:07:28.977Z</time></trkpt><trkpt lat="44.0067071" lon="11.8897963"><ele>519.8</ele><time>2026-04-11T12:07:29.977Z</time></trkpt><trkpt lat="44.0066295" lon="11.8897324"><ele>518.0</ele><time>2026-04-11T12:07:30.977Z</time></trkpt><trkpt lat="44.0065483" lon="11.8897"><ele>518.0</ele><time>2026-04-11T12:07:31.976Z</time></trkpt><trkpt lat="44.0064683" lon="11.8896714"><ele>518.0</ele><time>2026-04-11T12:07:32.977Z</time></trkpt><trkpt lat="44.006383" lon="11.8896461"><ele>518.0</ele><time>2026-04-11T12:07:33.977Z</time></trkpt><trkpt lat="44.006275" lon="11.8896193"><ele>518.0</ele><time>2026-04-11T12:07:34.977Z</time></trkpt><trkpt lat="44.0061773" lon="11.8895923"><ele>518.0</ele><time>2026-04-11T12:07:35.977Z</time></trkpt><trkpt lat="44.0060877" lon="11.8895869"><ele>518.0</ele><time>2026-04-11T12:07:36.976Z</time></trkpt><trkpt lat="44.006011" lon="11.8895729"><ele>518.0</ele><time>2026-04-11T12:07:37.977Z</time></trkpt><trkpt lat="44.0059585" lon="11.8895046"><ele>518.0</ele><time>2026-04-11T12:07:38.976Z</time></trkpt><trkpt lat="44.0059117" lon="11.8894217"><ele>518.0</ele><time>2026-04-11T12:07:39.977Z</time></trkpt><trkpt lat="44.0058664" lon="11.8893401"><ele>518.0</ele><time>2026-04-11T12:07:40.976Z</time></trkpt><trkpt lat="44.0058337" lon="11.8892447"><ele>518.0</ele><time>2026-04-11T12:07:41.977Z</time></trkpt><trkpt lat="44.005813" lon="11.8891496"><ele>518.0</ele><time>2026-04-11T12:07:42.976Z</time></trkpt><trkpt lat="44.0057599" lon="11.889089"><ele>517.8333333333333</ele><time>2026-04-11T12:07:43.976Z</time></trkpt><trkpt lat="44.005699" lon="11.8890588"><ele>517.6666666666666</ele><time>2026-04-11T12:07:44.977Z</time></trkpt><trkpt lat="44.0056518" lon="11.8889997"><ele>517.5</ele><time>2026-04-11T12:07:45.976Z</time></trkpt><trkpt lat="44.0055684" lon="11.8888842"><ele>517.3333333333334</ele><time>2026-04-11T12:07:47.976Z</time></trkpt><trkpt lat="44.0055137" lon="11.8887975"><ele>517.1666666666667</ele><time>2026-04-11T12:07:49.976Z</time></trkpt><trkpt lat="44.0054829" lon="11.888714"><ele>517.0</ele><time>2026-04-11T12:08:35.977Z</time></trkpt><trkpt lat="44.0055298" lon="11.8886228"><ele>517.0</ele><time>2026-04-11T12:08:37.978Z</time></trkpt><trkpt lat="44.0055639" lon="11.8885262"><ele>517.0</ele><time>2026-04-11T12:08:39.977Z</time></trkpt><trkpt lat="44.0056089" lon="11.8884052"><ele>517.0</ele><time>2026-04-11T12:08:41.976Z</time></trkpt><trkpt lat="44.0056608" lon="11.8882959"><ele>517.0</ele><time>2026-04-11T12:08:43.977Z</time></trkpt><trkpt lat="44.0057366" lon="11.8882588"><ele>517.0</ele><time>2026-04-11T12:08:45.977Z</time></trkpt><trkpt lat="44.0058178" lon="11.8881909"><ele>517.0</ele><time>2026-04-11T12:08:47.977Z</time></trkpt><trkpt lat="44.0058253" lon="11.8880852"><ele>520.0</ele><time>2026-04-11T12:08:49.976Z</time></trkpt><trkpt lat="44.0058389" lon="11.8879891"><ele>523.0</ele><time>2026-04-11T12:08:51.977Z</time></trkpt><trkpt lat="44.0058072" lon="11.8878674"><ele>526.0</ele><time>2026-04-11T12:08:53.976Z</time></trkpt><trkpt lat="44.0057441" lon="11.8877716"><ele>529.0</ele><time>2026-04-11T12:08:55.978Z</time></trkpt><trkpt lat="44.0056849" lon="11.8876845"><ele>532.0</ele><time>2026-04-11T12:08:57.976Z</time></trkpt><trkpt lat="44.0056375" lon="11.8876182"><ele>535.0</ele><time>2026-04-11T12:08:59.976Z</time></trkpt><trkpt lat="44.0056391" lon="11.8875083"><ele>535.3333333333334</ele><time>2026-04-11T12:09:02.976Z</time></trkpt><trkpt lat="44.0056493" lon="11.8873855"><ele>535.6666666666667</ele><time>2026-04-11T12:09:04.976Z</time></trkpt><trkpt lat="44.0056499" lon="11.8872831"><ele>536.0</ele><time>2026-04-11T12:09:09.978Z</time></trkpt><trkpt lat="44.0057111" lon="11.8872209"><ele>536.3333333333334</ele><time>2026-04-11T12:09:12.976Z</time></trkpt><trkpt lat="44.0057749" lon="11.8871863"><ele>536.6666666666666</ele><time>2026-04-11T12:09:14.976Z</time></trkpt><trkpt lat="44.0058573" lon="11.887153"><ele>537.0</ele><time>2026-04-11T12:09:16.977Z</time></trkpt><trkpt lat="44.0059317" lon="11.8871094"><ele>541.0</ele><time>2026-04-11T12:09:18.976Z</time></trkpt><trkpt lat="44.0060126" lon="11.8870532"><ele>545.0</ele><time>2026-04-11T12:09:22.977Z</time></trkpt><trkpt lat="44.0060729" lon="11.8870141"><ele>549.0</ele><time>2026-04-11T12:09:24.977Z</time></trkpt><trkpt lat="44.006148" lon="11.8870469"><ele>553.0</ele><time>2026-04-11T12:09:27.977Z</time></trkpt><trkpt lat="44.0062121" lon="11.8871037"><ele>557.0</ele><time>2026-04-11T12:09:30.977Z</time></trkpt><trkpt lat="44.0062759" lon="11.8870978"><ele>561.0</ele><time>2026-04-11T12:09:32.976Z</time></trkpt><trkpt lat="44.0063568" lon="11.8871313"><ele>561.0</ele><time>2026-04-11T12:09:35.976Z</time></trkpt><trkpt lat="44.006447" lon="11.8871223"><ele>561.0</ele><time>2026-04-11T12:09:38.976Z</time></trkpt><trkpt lat="44.0065276" lon="11.8870828"><ele>561.0</ele><time>2026-04-11T12:09:41.977Z</time></trkpt><trkpt lat="44.0065923" lon="11.8871349"><ele>561.0</ele><time>2026-04-11T12:09:45.977Z</time></trkpt><trkpt lat="44.0066731" lon="11.8871758"><ele>561.0</ele><time>2026-04-11T12:09:48.976Z</time></trkpt><trkpt lat="44.006749" lon="11.8872004"><ele>561.0</ele><time>2026-04-11T12:09:51.977Z</time></trkpt><trkpt lat="44.0068248" lon="11.8871803"><ele>564.8333333333334</ele><time>2026-04-11T12:09:54.978Z</time></trkpt><trkpt lat="44.006885" lon="11.8871417"><ele>568.6666666666666</ele><time>2026-04-11T12:09:57.977Z</time></trkpt><trkpt lat="44.0069251" lon="11.8870631"><ele>572.5</ele><time>2026-04-11T12:09:59.978Z</time></trkpt><trkpt lat="44.0069901" lon="11.8870145"><ele>576.3333333333333</ele><time>2026-04-11T12:10:01.976Z</time></trkpt><trkpt lat="44.0070642" lon="11.8869476"><ele>580.1666666666666</ele><time>2026-04-11T12:10:03.976Z</time></trkpt><trkpt lat="44.0071327" lon="11.8868812"><ele>584.0</ele><time>2026-04-11T12:10:07.976Z</time></trkpt><trkpt lat="44.0071694" lon="11.8867834"><ele>579.0</ele><time>2026-04-11T12:10:09.976Z</time></trkpt><trkpt lat="44.0072027" lon="11.8866604"><ele>574.0</ele><time>2026-04-11T12:10:11.977Z</time></trkpt><trkpt lat="44.0072335" lon="11.8865573"><ele>569.0</ele><time>2026-04-11T12:10:13.976Z</time></trkpt><trkpt lat="44.0072893" lon="11.8865073"><ele>564.0</ele><time>2026-04-11T12:10:17.976Z</time></trkpt><trkpt lat="44.0073592" lon="11.886454"><ele>559.0</ele><time>2026-04-11T12:10:19.976Z</time></trkpt><trkpt lat="44.0074184" lon="11.8864216"><ele>554.0</ele><time>2026-04-11T12:10:21.976Z</time></trkpt><trkpt lat="44.0074633" lon="11.8863596"><ele>549.0</ele><time>2026-04-11T12:10:26.977Z</time></trkpt><trkpt lat="44.0074533" lon="11.8862327"><ele>549.0</ele><time>2026-04-11T12:10:29.976Z</time></trkpt><trkpt lat="44.0074637" lon="11.8861274"><ele>549.0</ele><time>2026-04-11T12:10:30.976Z</time></trkpt><trkpt lat="44.0074584" lon="11.8859928"><ele>549.0</ele><time>2026-04-11T12:10:32.977Z</time></trkpt><trkpt lat="44.0074466" lon="11.8858664"><ele>549.0</ele><time>2026-04-11T12:10:34.976Z</time></trkpt><trkpt lat="44.0074679" lon="11.8857502"><ele>549.0</ele><time>2026-04-11T12:10:36.977Z</time></trkpt><trkpt lat="44.0074947" lon="11.8856552"><ele>549.0</ele><time>2026-04-11T12:10:38.977Z</time></trkpt><trkpt lat="44.0074196" lon="11.8855949"><ele>545.6666666666666</ele><time>2026-04-11T12:10:41.976Z</time></trkpt><trkpt lat="44.0073831" lon="11.8855216"><ele>542.3333333333334</ele><time>2026-04-11T12:11:14.976Z</time></trkpt><trkpt lat="44.0073409" lon="11.885414"><ele>539.0</ele><time>2026-04-11T12:11:16.976Z</time></trkpt><trkpt lat="44.0073044" lon="11.8853403"><ele>535.6666666666667</ele><time>2026-04-11T12:11:17.976Z</time></trkpt><trkpt lat="44.0072668" lon="11.8852645"><ele>532.3333333333334</ele><time>2026-04-11T12:11:18.976Z</time></trkpt><trkpt lat="44.0072086" lon="11.88513"><ele>529.0</ele><time>2026-04-11T12:11:20.976Z</time></trkpt><trkpt lat="44.0071847" lon="11.885047"><ele>529.0</ele><time>2026-04-11T12:11:21.975Z</time></trkpt><trkpt lat="44.0071591" lon="11.8849654"><ele>529.0</ele><time>2026-04-11T12:11:22.975Z</time></trkpt><trkpt lat="44.0071283" lon="11.8848371"><ele>529.0</ele><time>2026-04-11T12:11:24.975Z</time></trkpt><trkpt lat="44.0071403" lon="11.884677"><ele>529.0</ele><time>2026-04-11T12:11:26.975Z</time></trkpt><trkpt lat="44.0071596" lon="11.884577"><ele>529.0</ele><time>2026-04-11T12:11:27.976Z</time></trkpt><trkpt lat="44.0071568" lon="11.8844895"><ele>529.0</ele><time>2026-04-11T12:11:28.975Z</time></trkpt><trkpt lat="44.0071545" lon="11.8843711"><ele>532.6</ele><time>2026-04-11T12:11:29.977Z</time></trkpt><trkpt lat="44.0071249" lon="11.8842501"><ele>536.2</ele><time>2026-04-11T12:11:30.976Z</time></trkpt><trkpt lat="44.0070985" lon="11.8841484"><ele>539.8000000000001</ele><time>2026-04-11T12:11:32.975Z</time></trkpt><trkpt lat="44.0070443" lon="11.8840239"><ele>543.4</ele><time>2026-04-11T12:11:34.975Z</time></trkpt><trkpt lat="44.0070328" lon="11.8838854"><ele>547.0</ele><time>2026-04-11T12:11:36.976Z</time></trkpt><trkpt lat="44.0070123" lon="11.8837605"><ele>547.0</ele><time>2026-04-11T12:11:38.975Z</time></trkpt><trkpt lat="44.006989" lon="11.8836637"><ele>547.0</ele><time>2026-04-11T12:11:40.976Z</time></trkpt><trkpt lat="44.006929" lon="11.8835576"><ele>547.0</ele><time>2026-04-11T12:11:42.976Z</time></trkpt><trkpt lat="44.0068706" lon="11.883501"><ele>547.0</ele><time>2026-04-11T12:11:44.976Z</time></trkpt><trkpt lat="44.0068154" lon="11.8834347"><ele>547.0</ele><time>2026-04-11T12:16:52.975Z</time></trkpt><trkpt lat="44.0067461" lon="11.8833808"><ele>547.0</ele><time>2026-04-11T12:16:55.975Z</time></trkpt><trkpt lat="44.0067025" lon="11.8832975"><ele>545.6666666666667</ele><time>2026-04-11T12:16:58.976Z</time></trkpt><trkpt lat="44.0066866" lon="11.8831841"><ele>544.3333333333334</ele><time>2026-04-11T12:17:00.975Z</time></trkpt><trkpt lat="44.0066938" lon="11.8830736"><ele>543.0</ele><time>2026-04-11T12:17:02.975Z</time></trkpt><trkpt lat="44.0066979" lon="11.8829636"><ele>541.6666666666666</ele><time>2026-04-11T12:17:04.976Z</time></trkpt><trkpt lat="44.0066814" lon="11.8828203"><ele>540.3333333333333</ele><time>2026-04-11T12:17:06.976Z</time></trkpt><trkpt lat="44.0066362" lon="11.8826961"><ele>539.0</ele><time>2026-04-11T12:17:08.976Z</time></trkpt><trkpt lat="44.0066044" lon="11.8825993"><ele>543.8333333333333</ele><time>2026-04-11T12:17:10.975Z</time></trkpt><trkpt lat="44.0065543" lon="11.8824957"><ele>548.6666666666666</ele><time>2026-04-11T12:17:12.976Z</time></trkpt><trkpt lat="44.0065094" lon="11.8824143"><ele>553.5</ele><time>2026-04-11T12:17:14.976Z</time></trkpt><trkpt lat="44.006433" lon="11.8823479"><ele>558.3333333333334</ele><time>2026-04-11T12:17:16.975Z</time></trkpt><trkpt lat="44.0063953" lon="11.8822759"><ele>563.1666666666667</ele><time>2026-04-11T12:17:18.975Z</time></trkpt><trkpt lat="44.0063766" lon="11.8821652"><ele>568.0</ele><time>2026-04-11T12:17:20.975Z</time></trkpt><trkpt lat="44.0063205" lon="11.8820466"><ele>568.0</ele><time>2026-04-11T12:17:24.976Z</time></trkpt><trkpt lat="44.0062788" lon="11.8819603"><ele>568.0</ele><time>2026-04-11T12:17:26.975Z</time></trkpt><trkpt lat="44.0062134" lon="11.8819539"><ele>568.0</ele><time>2026-04-11T12:17:28.975Z</time></trkpt><trkpt lat="44.006147" lon="11.8819045"><ele>568.0</ele><time>2026-04-11T12:17:30.975Z</time></trkpt><trkpt lat="44.0060755" lon="11.8818276"><ele>568.0</ele><time>2026-04-11T12:17:33.976Z</time></trkpt><trkpt lat="44.0060004" lon="11.881766"><ele>568.0</ele><time>2026-04-11T12:17:35.975Z</time></trkpt><trkpt lat="44.0059207" lon="11.8817372"><ele>569.1666666666667</ele><time>2026-04-11T12:17:37.976Z</time></trkpt><trkpt lat="44.0058508" lon="11.8817518"><ele>570.3333333333334</ele><time>2026-04-11T12:17:39.976Z</time></trkpt><trkpt lat="44.0057794" lon="11.8817497"><ele>571.5</ele><time>2026-04-11T12:17:41.976Z</time></trkpt><trkpt lat="44.0056761" lon="11.8817371"><ele>572.6666666666666</ele><time>2026-04-11T12:17:43.975Z</time></trkpt><trkpt lat="44.0056005" lon="11.8817589"><ele>573.8333333333333</ele><time>2026-04-11T12:17:45.976Z</time></trkpt><trkpt lat="44.0055386" lon="11.881742"><ele>575.0</ele><time>2026-04-11T12:17:46.976Z</time></trkpt><trkpt lat="44.0054331" lon="11.8817233"><ele>575.0</ele><time>2026-04-11T12:17:48.975Z</time></trkpt><trkpt lat="44.0054011" lon="11.8816093"><ele>575.0</ele><time>2026-04-11T12:17:51.975Z</time></trkpt><trkpt lat="44.0054191" lon="11.8814933"><ele>575.0</ele><time>2026-04-11T12:17:54.977Z</time></trkpt><trkpt lat="44.0054901" lon="11.8813764"><ele>575.0</ele><time>2026-04-11T12:17:56.975Z</time></trkpt><trkpt lat="44.0055426" lon="11.8813075"><ele>575.0</ele><time>2026-04-11T12:17:58.975Z</time></trkpt><trkpt lat="44.0056018" lon="11.8812475"><ele>575.0</ele><time>2026-04-11T12:18:00.975Z</time></trkpt><trkpt lat="44.0056486" lon="11.881161"><ele>575.0</ele><time>2026-04-11T12:18:02.976Z</time></trkpt><trkpt lat="44.0056999" lon="11.8810709"><ele>575.0</ele><time>2026-04-11T12:18:04.976Z</time></trkpt><trkpt lat="44.0057507" lon="11.8810027"><ele>575.0</ele><time>2026-04-11T12:18:07.975Z</time></trkpt><trkpt lat="44.0057769" lon="11.8808905"><ele>575.0</ele><time>2026-04-11T12:18:10.976Z</time></trkpt><trkpt lat="44.0057555" lon="11.8807702"><ele>575.0</ele><time>2026-04-11T12:18:13.975Z</time></trkpt><trkpt lat="44.0057651" lon="11.8806663"><ele>575.0</ele><time>2026-04-11T12:18:17.975Z</time></trkpt><trkpt lat="44.0058005" lon="11.8805648"><ele>572.3333333333333</ele><time>2026-04-11T12:18:20.974Z</time></trkpt><trkpt lat="44.0058131" lon="11.8804666"><ele>569.6666666666666</ele><time>2026-04-11T12:18:22.974Z</time></trkpt><trkpt lat="44.0058342" lon="11.8803592"><ele>567.0</ele><time>2026-04-11T12:18:25.975Z</time></trkpt><trkpt lat="44.0057707" lon="11.8802902"><ele>564.3333333333334</ele><time>2026-04-11T12:18:30.974Z</time></trkpt><trkpt lat="44.0056804" lon="11.8802587"><ele>561.6666666666667</ele><time>2026-04-11T12:18:33.975Z</time></trkpt><trkpt lat="44.0056453" lon="11.8801627"><ele>559.0</ele><time>2026-04-11T12:18:37.974Z</time></trkpt><trkpt lat="44.0055914" lon="11.8801161"><ele>561.3333333333334</ele><time>2026-04-11T12:18:40.974Z</time></trkpt><trkpt lat="44.0055452" lon="11.8800244"><ele>563.6666666666667</ele><time>2026-04-11T12:18:43.974Z</time></trkpt><trkpt lat="44.0055013" lon="11.879908"><ele>566.0</ele><time>2026-04-11T12:18:46.974Z</time></trkpt><trkpt lat="44.0054626" lon="11.8798264"><ele>568.3333333333334</ele><time>2026-04-11T12:18:52.975Z</time></trkpt><trkpt lat="44.0054288" lon="11.8797252"><ele>570.6666666666666</ele><time>2026-04-11T12:18:55.974Z</time></trkpt><trkpt lat="44.0053889" lon="11.8796086"><ele>573.0</ele><time>2026-04-11T12:18:59.974Z</time></trkpt><trkpt lat="44.0053414" lon="11.879542"><ele>573.0</ele><time>2026-04-11T12:19:01.974Z</time></trkpt><trkpt lat="44.0053026" lon="11.8794416"><ele>573.0</ele><time>2026-04-11T12:19:04.975Z</time></trkpt><trkpt lat="44.0052431" lon="11.8793731"><ele>573.0</ele><time>2026-04-11T12:19:07.975Z</time></trkpt><trkpt lat="44.0051732" lon="11.8793199"><ele>573.0</ele><time>2026-04-11T12:19:10.974Z</time></trkpt><trkpt lat="44.0050977" lon="11.8792855"><ele>573.0</ele><time>2026-04-11T12:19:13.974Z</time></trkpt><trkpt lat="44.005015" lon="11.879249"><ele>573.0</ele><time>2026-04-11T12:19:15.975Z</time></trkpt><trkpt lat="44.0049594" lon="11.8791991"><ele>571.2857142857143</ele><time>2026-04-11T12:19:17.974Z</time></trkpt><trkpt lat="44.0049506" lon="11.8791053"><ele>569.5714285714287</ele><time>2026-04-11T12:24:02.974Z</time></trkpt><trkpt lat="44.0049528" lon="11.8790174"><ele>567.8571428571429</ele><time>2026-04-11T12:24:05.975Z</time></trkpt><trkpt lat="44.0049331" lon="11.8789277"><ele>566.1428571428571</ele><time>2026-04-11T12:25:22.974Z</time></trkpt><trkpt lat="44.0048905" lon="11.8788596"><ele>564.4285714285713</ele><time>2026-04-11T12:25:31.974Z</time></trkpt><trkpt lat="44.0048759" lon="11.8787408"><ele>562.7142857142857</ele><time>2026-04-11T12:25:34.973Z</time></trkpt><trkpt lat="44.0048658" lon="11.8786116"><ele>561.0</ele><time>2026-04-11T12:25:36.973Z</time></trkpt><trkpt lat="44.0048583" lon="11.8784954"><ele>565.6666666666666</ele><time>2026-04-11T12:25:38.974Z</time></trkpt><trkpt lat="44.004848" lon="11.8783825"><ele>570.3333333333334</ele><time>2026-04-11T12:25:40.973Z</time></trkpt><trkpt lat="44.004806" lon="11.878305"><ele>575.0</ele><time>2026-04-11T12:25:43.975Z</time></trkpt><trkpt lat="44.0047477" lon="11.8782198"><ele>579.6666666666667</ele><time>2026-04-11T12:25:59.974Z</time></trkpt><trkpt lat="44.0046905" lon="11.8781625"><ele>584.3333333333334</ele><time>2026-04-11T12:26:01.973Z</time></trkpt><trkpt lat="44.0046151" lon="11.8780964"><ele>589.0</ele><time>2026-04-11T12:26:03.974Z</time></trkpt><trkpt lat="44.0045478" lon="11.8780029"><ele>589.0</ele><time>2026-04-11T12:26:06.974Z</time></trkpt><trkpt lat="44.0044825" lon="11.8779971"><ele>589.0</ele><time>2026-04-11T12:26:07.973Z</time></trkpt><trkpt lat="44.0043813" lon="11.8779456"><ele>589.0</ele><time>2026-04-11T12:26:09.974Z</time></trkpt><trkpt lat="44.0043189" lon="11.8779233"><ele>589.0</ele><time>2026-04-11T12:26:11.973Z</time></trkpt><trkpt lat="44.0041904" lon="11.8778897"><ele>589.0</ele><time>2026-04-11T12:26:14.973Z</time></trkpt><trkpt lat="44.0041267" lon="11.8778661"><ele>589.0</ele><time>2026-04-11T12:26:15.974Z</time></trkpt><trkpt lat="44.0040601" lon="11.8778455"><ele>587.0</ele><time>2026-04-11T12:26:16.974Z</time></trkpt><trkpt lat="44.0039574" lon="11.8778098"><ele>585.0</ele><time>2026-04-11T12:26:18.974Z</time></trkpt><trkpt lat="44.0038517" lon="11.8777223"><ele>583.0</ele><time>2026-04-11T12:26:20.973Z</time></trkpt><trkpt lat="44.00378" lon="11.8776349"><ele>581.0</ele><time>2026-04-11T12:26:22.974Z</time></trkpt><trkpt lat="44.0037297" lon="11.8775743"><ele>579.0</ele><time>2026-04-11T12:26:23.975Z</time></trkpt><trkpt lat="44.0036797" lon="11.8774752"><ele>585.4</ele><time>2026-04-11T12:26:25.974Z</time></trkpt><trkpt lat="44.0035751" lon="11.8774341"><ele>591.8</ele><time>2026-04-11T12:26:27.973Z</time></trkpt><trkpt lat="44.0034941" lon="11.8774281"><ele>598.2</ele><time>2026-04-11T12:26:28.973Z</time></trkpt><trkpt lat="44.0033885" lon="11.8773686"><ele>604.6</ele><time>2026-04-11T12:26:30.974Z</time></trkpt><trkpt lat="44.003327" lon="11.877321"><ele>611.0</ele><time>2026-04-11T12:26:32.974Z</time></trkpt><trkpt lat="44.0032289" lon="11.8771981"><ele>611.2</ele><time>2026-04-11T12:26:34.973Z</time></trkpt><trkpt lat="44.0031392" lon="11.8771217"><ele>611.4000000000001</ele><time>2026-04-11T12:26:36.973Z</time></trkpt><trkpt lat="44.0030503" lon="11.8770123"><ele>611.6</ele><time>2026-04-11T12:26:38.974Z</time></trkpt><trkpt lat="44.0030193" lon="11.8768796"><ele>611.8000000000001</ele><time>2026-04-11T12:26:40.974Z</time></trkpt><trkpt lat="44.0029899" lon="11.8767998"><ele>612.0</ele><time>2026-04-11T12:26:41.975Z</time></trkpt><trkpt lat="44.002945" lon="11.8767093"><ele>614.1666666666666</ele><time>2026-04-11T12:26:42.973Z</time></trkpt><trkpt lat="44.0028876" lon="11.8766387"><ele>616.3333333333334</ele><time>2026-04-11T12:26:43.973Z</time></trkpt><trkpt lat="44.0028504" lon="11.8765554"><ele>618.5</ele><time>2026-04-11T12:26:44.974Z</time></trkpt><trkpt lat="44.0028104" lon="11.8764713"><ele>620.6666666666667</ele><time>2026-04-11T12:26:45.974Z</time></trkpt><trkpt lat="44.0026963" lon="11.8764392"><ele>622.8333333333334</ele><time>2026-04-11T12:26:47.974Z</time></trkpt><trkpt lat="44.0025993" lon="11.8764476"><ele>625.0</ele><time>2026-04-11T12:26:49.973Z</time></trkpt><trkpt lat="44.0024732" lon="11.8763904"><ele>626.3333333333334</ele><time>2026-04-11T12:26:51.974Z</time></trkpt><trkpt lat="44.0024078" lon="11.8763849"><ele>627.6666666666667</ele><time>2026-04-11T12:26:52.974Z</time></trkpt><trkpt lat="44.0023446" lon="11.8763714"><ele>629.0</ele><time>2026-04-11T12:26:53.974Z</time></trkpt><trkpt lat="44.0022793" lon="11.8763286"><ele>630.3333333333334</ele><time>2026-04-11T12:26:54.975Z</time></trkpt><trkpt lat="44.0022249" lon="11.8762721"><ele>631.6666666666666</ele><time>2026-04-11T12:26:55.974Z</time></trkpt><trkpt lat="44.002161" lon="11.8762273"><ele>633.0</ele><time>2026-04-11T12:26:56.973Z</time></trkpt><trkpt lat="44.0020586" lon="11.8761035"><ele>633.0</ele><time>2026-04-11T12:26:58.974Z</time></trkpt><trkpt lat="44.0019744" lon="11.875969"><ele>633.0</ele><time>2026-04-11T12:27:00.974Z</time></trkpt><trkpt lat="44.0019209" lon="11.8758924"><ele>633.0</ele><time>2026-04-11T12:27:01.973Z</time></trkpt><trkpt lat="44.0018822" lon="11.8757817"><ele>633.0</ele><time>2026-04-11T12:27:02.974Z</time></trkpt><trkpt lat="44.0018051" lon="11.8757254"><ele>633.0</ele><time>2026-04-11T12:27:04.974Z</time></trkpt><trkpt lat="44.0017219" lon="11.8756054"><ele>633.6666666666666</ele><time>2026-04-11T12:27:06.975Z</time></trkpt><trkpt lat="44.0016688" lon="11.875538"><ele>634.3333333333334</ele><time>2026-04-11T12:27:07.973Z</time></trkpt><trkpt lat="44.0015965" lon="11.875479"><ele>635.0</ele><time>2026-04-11T12:27:08.973Z</time></trkpt><trkpt lat="44.0015339" lon="11.8754092"><ele>635.6666666666667</ele><time>2026-04-11T12:27:09.974Z</time></trkpt><trkpt lat="44.0014594" lon="11.8753599"><ele>636.3333333333334</ele><time>2026-04-11T12:27:10.974Z</time></trkpt><trkpt lat="44.0014079" lon="11.8752919"><ele>637.0</ele><time>2026-04-11T12:27:11.974Z</time></trkpt><trkpt lat="44.0013486" lon="11.8752291"><ele>635.8000000000001</ele><time>2026-04-11T12:27:12.973Z</time></trkpt><trkpt lat="44.0012851" lon="11.8751743"><ele>634.6</ele><time>2026-04-11T12:27:13.973Z</time></trkpt><trkpt lat="44.0011716" lon="11.8751291"><ele>633.4000000000001</ele><time>2026-04-11T12:27:15.973Z</time></trkpt><trkpt lat="44.0010637" lon="11.8750484"><ele>632.2</ele><time>2026-04-11T12:27:17.973Z</time></trkpt><trkpt lat="44.0009968" lon="11.8750025"><ele>631.0</ele><time>2026-04-11T12:27:18.973Z</time></trkpt><trkpt lat="44.0009481" lon="11.8749275"><ele>631.0</ele><time>2026-04-11T12:27:19.973Z</time></trkpt><trkpt lat="44.0008819" lon="11.8748946"><ele>631.0</ele><time>2026-04-11T12:27:20.974Z</time></trkpt><trkpt lat="44.0007948" lon="11.8748462"><ele>631.0</ele><time>2026-04-11T12:27:21.974Z</time></trkpt><trkpt lat="44.0007218" lon="11.8747972"><ele>631.0</ele><time>2026-04-11T12:27:22.974Z</time></trkpt><trkpt lat="44.0006589" lon="11.8747529"><ele>631.0</ele><time>2026-04-11T12:27:23.973Z</time></trkpt><trkpt lat="44.0006029" lon="11.8747116"><ele>631.0</ele><time>2026-04-11T12:27:24.973Z</time></trkpt><trkpt lat="44.0005295" lon="11.8746498"><ele>630.5</ele><time>2026-04-11T12:27:25.973Z</time></trkpt><trkpt lat="44.0005151" lon="11.8745539"><ele>630.0</ele><time>2026-04-11T12:27:26.973Z</time></trkpt><trkpt lat="44.0004871" lon="11.874473"><ele>629.5</ele><time>2026-04-11T12:27:27.973Z</time></trkpt><trkpt lat="44.000453" lon="11.8743861"><ele>629.0</ele><time>2026-04-11T12:27:28.973Z</time></trkpt><trkpt lat="44.0004002" lon="11.8742625"><ele>628.5</ele><time>2026-04-11T12:27:30.974Z</time></trkpt><trkpt lat="44.0003645" lon="11.8741348"><ele>628.0</ele><time>2026-04-11T12:27:32.973Z</time></trkpt><trkpt lat="44.0003134" lon="11.8740378"><ele>628.0</ele><time>2026-04-11T12:27:35.973Z</time></trkpt><trkpt lat="44.0002219" lon="11.8740183"><ele>628.0</ele><time>2026-04-11T12:27:37.975Z</time></trkpt><trkpt lat="44.0001036" lon="11.8740129"><ele>628.0</ele><time>2026-04-11T12:27:39.974Z</time></trkpt><trkpt lat="43.9999865" lon="11.8740197"><ele>628.0</ele><time>2026-04-11T12:27:41.974Z</time></trkpt><trkpt lat="43.9998727" lon="11.874015"><ele>628.0</ele><time>2026-04-11T12:27:43.975Z</time></trkpt><trkpt lat="43.9997459" lon="11.8740034"><ele>628.0</ele><time>2026-04-11T12:27:45.974Z</time></trkpt><trkpt lat="43.9996825" lon="11.8740067"><ele>628.0</ele><time>2026-04-11T12:27:46.974Z</time></trkpt><trkpt lat="43.9996173" lon="11.8740134"><ele>628.0</ele><time>2026-04-11T12:27:47.974Z</time></trkpt><trkpt lat="43.9995485" lon="11.8740341"><ele>628.0</ele><time>2026-04-11T12:27:48.973Z</time></trkpt><trkpt lat="43.9994844" lon="11.8740489"><ele>628.0</ele><time>2026-04-11T12:27:49.974Z</time></trkpt><trkpt lat="43.9994208" lon="11.8740739"><ele>628.0</ele><time>2026-04-11T12:27:50.974Z</time></trkpt><trkpt lat="43.9992814" lon="11.8741503"><ele>628.0</ele><time>2026-04-11T12:27:52.973Z</time></trkpt><trkpt lat="43.9992054" lon="11.8741836"><ele>628.0</ele><time>2026-04-11T12:27:53.973Z</time></trkpt><trkpt lat="43.999118" lon="11.8742156"><ele>628.0</ele><time>2026-04-11T12:27:55.974Z</time></trkpt><trkpt lat="43.9990085" lon="11.8742517"><ele>628.0</ele><time>2026-04-11T12:27:57.973Z</time></trkpt><trkpt lat="43.9989373" lon="11.8742837"><ele>628.0</ele><time>2026-04-11T12:27:59.973Z</time></trkpt><trkpt lat="43.9988617" lon="11.8743009"><ele>628.0</ele><time>2026-04-11T12:31:48.973Z</time></trkpt><trkpt lat="43.9987902" lon="11.8742766"><ele>628.1666666666667</ele><time>2026-04-11T12:31:50.973Z</time></trkpt><trkpt lat="43.9986764" lon="11.8742846"><ele>628.3333333333334</ele><time>2026-04-11T12:31:52.972Z</time></trkpt><trkpt lat="43.9985934" lon="11.8742937"><ele>628.5</ele><time>2026-04-11T12:31:54.973Z</time></trkpt><trkpt lat="43.998523" lon="11.8742879"><ele>628.6666666666666</ele><time>2026-04-11T12:31:56.972Z</time></trkpt><trkpt lat="43.9984611" lon="11.8742615"><ele>628.8333333333333</ele><time>2026-04-11T12:31:58.973Z</time></trkpt><trkpt lat="43.9984009" lon="11.8742161"><ele>629.0</ele><time>2026-04-11T12:32:00.973Z</time></trkpt><trkpt lat="43.998345" lon="11.8741653"><ele>630.5</ele><time>2026-04-11T12:32:05.974Z</time></trkpt><trkpt lat="43.9982558" lon="11.8740924"><ele>632.0</ele><time>2026-04-11T12:32:07.972Z</time></trkpt><trkpt lat="43.9982052" lon="11.8740033"><ele>633.5</ele><time>2026-04-11T12:32:09.972Z</time></trkpt><trkpt lat="43.9981443" lon="11.8739393"><ele>635.0</ele><time>2026-04-11T12:32:12.973Z</time></trkpt><trkpt lat="43.9980887" lon="11.8738738"><ele>636.5</ele><time>2026-04-11T12:32:18.972Z</time></trkpt><trkpt lat="43.9980228" lon="11.8738666"><ele>638.0</ele><time>2026-04-11T12:32:21.972Z</time></trkpt><trkpt lat="43.9979726" lon="11.8738134"><ele>638.0</ele><time>2026-04-11T12:32:29.972Z</time></trkpt><trkpt lat="43.9979253" lon="11.8737221"><ele>638.0</ele><time>2026-04-11T12:32:33.973Z</time></trkpt><trkpt lat="43.997874" lon="11.8736536"><ele>638.0</ele><time>2026-04-11T12:32:35.973Z</time></trkpt><trkpt lat="43.9978184" lon="11.8735718"><ele>638.0</ele><time>2026-04-11T12:32:37.974Z</time></trkpt><trkpt lat="43.9977813" lon="11.8734982"><ele>638.0</ele><time>2026-04-11T12:32:39.973Z</time></trkpt><trkpt lat="43.9977453" lon="11.8734257"><ele>638.0</ele><time>2026-04-11T12:32:41.974Z</time></trkpt><trkpt lat="43.9977204" lon="11.8732973"><ele>636.1666666666666</ele><time>2026-04-11T12:32:44.973Z</time></trkpt><trkpt lat="43.9977082" lon="11.8731855"><ele>634.3333333333333</ele><time>2026-04-11T12:32:46.972Z</time></trkpt><trkpt lat="43.9976602" lon="11.8731143"><ele>632.5</ele><time>2026-04-11T12:32:48.973Z</time></trkpt><trkpt lat="43.9976031" lon="11.8730581"><ele>630.6666666666666</ele><time>2026-04-11T12:32:50.973Z</time></trkpt><trkpt lat="43.9975412" lon="11.8729524"><ele>628.8333333333334</ele><time>2026-04-11T12:32:53.972Z</time></trkpt><trkpt lat="43.9974811" lon="11.8729077"><ele>627.0</ele><time>2026-04-11T12:32:55.972Z</time></trkpt><trkpt lat="43.9974072" lon="11.8728785"><ele>631.6666666666666</ele><time>2026-04-11T12:32:57.973Z</time></trkpt><trkpt lat="43.9973471" lon="11.8728454"><ele>636.3333333333334</ele><time>2026-04-11T12:32:59.972Z</time></trkpt><trkpt lat="43.9972801" lon="11.872797"><ele>641.0</ele><time>2026-04-11T12:33:01.974Z</time></trkpt><trkpt lat="43.9972046" lon="11.8727373"><ele>645.6666666666667</ele><time>2026-04-11T12:33:03.973Z</time></trkpt><trkpt lat="43.9971414" lon="11.8726902"><ele>650.3333333333334</ele><time>2026-04-11T12:33:05.972Z</time></trkpt><trkpt lat="43.9970778" lon="11.8726215"><ele>655.0</ele><time>2026-04-11T12:33:07.972Z</time></trkpt><trkpt lat="43.9970048" lon="11.8725826"><ele>655.0</ele><time>2026-04-11T12:33:09.972Z</time></trkpt><trkpt lat="43.9969305" lon="11.8725413"><ele>655.0</ele><time>2026-04-11T12:33:11.973Z</time></trkpt><trkpt lat="43.9968632" lon="11.8724826"><ele>655.0</ele><time>2026-04-11T12:33:13.973Z</time></trkpt><trkpt lat="43.9967856" lon="11.8724094"><ele>655.0</ele><time>2026-04-11T12:33:15.974Z</time></trkpt><trkpt lat="43.9967204" lon="11.8723617"><ele>655.0</ele><time>2026-04-11T12:33:17.974Z</time></trkpt><trkpt lat="43.9966425" lon="11.8722905"><ele>655.0</ele><time>2026-04-11T12:33:20.972Z</time></trkpt><trkpt lat="43.996583" lon="11.8722606"><ele>655.3333333333334</ele><time>2026-04-11T12:36:26.972Z</time></trkpt><trkpt lat="43.9965191" lon="11.8722213"><ele>655.6666666666667</ele><time>2026-04-11T12:36:35.972Z</time></trkpt><trkpt lat="43.996437" lon="11.8721277"><ele>656.0</ele><time>2026-04-11T12:36:37.971Z</time></trkpt><trkpt lat="43.9963419" lon="11.8720276"><ele>656.3333333333334</ele><time>2026-04-11T12:36:39.972Z</time></trkpt><trkpt lat="43.9962819" lon="11.8719844"><ele>656.6666666666666</ele><time>2026-04-11T12:36:40.972Z</time></trkpt><trkpt lat="43.9962233" lon="11.8719399"><ele>657.0</ele><time>2026-04-11T12:36:41.973Z</time></trkpt><trkpt lat="43.99611" lon="11.8718707"><ele>657.0</ele><time>2026-04-11T12:36:43.971Z</time></trkpt><trkpt lat="43.996044" lon="11.8718461"><ele>657.0</ele><time>2026-04-11T12:36:44.971Z</time></trkpt><trkpt lat="43.9959345" lon="11.8718084"><ele>657.0</ele><time>2026-04-11T12:36:46.972Z</time></trkpt><trkpt lat="43.9958446" lon="11.8717545"><ele>657.0</ele><time>2026-04-11T12:36:48.971Z</time></trkpt><trkpt lat="43.9957576" lon="11.8717131"><ele>657.0</ele><time>2026-04-11T12:36:50.971Z</time></trkpt><trkpt lat="43.9956528" lon="11.8716451"><ele>657.0</ele><time>2026-04-11T12:36:52.972Z</time></trkpt><trkpt lat="43.9955707" lon="11.8715791"><ele>657.0</ele><time>2026-04-11T12:36:54.971Z</time></trkpt><trkpt lat="43.995504" lon="11.8715124"><ele>657.0</ele><time>2026-04-11T12:36:56.972Z</time></trkpt><trkpt lat="43.9954105" lon="11.8714879"><ele>657.0</ele><time>2026-04-11T12:36:59.972Z</time></trkpt><trkpt lat="43.9953313" lon="11.8714661"><ele>657.0</ele><time>2026-04-11T12:37:01.971Z</time></trkpt><trkpt lat="43.9952461" lon="11.8714124"><ele>657.0</ele><time>2026-04-11T12:37:03.973Z</time></trkpt><trkpt lat="43.9951849" lon="11.8713599"><ele>657.0</ele><time>2026-04-11T12:37:05.972Z</time></trkpt><trkpt lat="43.9951247" lon="11.8713121"><ele>657.0</ele><time>2026-04-11T12:37:07.971Z</time></trkpt><trkpt lat="43.9950603" lon="11.8712568"><ele>657.0</ele><time>2026-04-11T12:37:09.971Z</time></trkpt><trkpt lat="43.9950021" lon="11.8712067"><ele>657.0</ele><time>2026-04-11T12:37:11.972Z</time></trkpt><trkpt lat="43.9949429" lon="11.8711699"><ele>657.0</ele><time>2026-04-11T12:37:13.971Z</time></trkpt><trkpt lat="43.9948601" lon="11.8711224"><ele>657.0</ele><time>2026-04-11T12:37:16.971Z</time></trkpt><trkpt lat="43.9947795" lon="11.8710801"><ele>655.0</ele><time>2026-04-11T12:37:18.971Z</time></trkpt><trkpt lat="43.9946962" lon="11.8710415"><ele>653.0</ele><time>2026-04-11T12:37:20.972Z</time></trkpt><trkpt lat="43.9946091" lon="11.8710125"><ele>651.0</ele><time>2026-04-11T12:37:22.971Z</time></trkpt><trkpt lat="43.9945363" lon="11.8709677"><ele>649.0</ele><time>2026-04-11T12:37:24.971Z</time></trkpt><trkpt lat="43.9944286" lon="11.8709219"><ele>647.0</ele><time>2026-04-11T12:37:26.971Z</time></trkpt><trkpt lat="43.994367" lon="11.8708988"><ele>645.0</ele><time>2026-04-11T12:37:27.972Z</time></trkpt><trkpt lat="43.9943022" lon="11.8708649"><ele>645.0</ele><time>2026-04-11T12:37:28.971Z</time></trkpt><trkpt lat="43.9942325" lon="11.8708491"><ele>645.0</ele><time>2026-04-11T12:37:29.972Z</time></trkpt><trkpt lat="43.9941643" lon="11.870835"><ele>645.0</ele><time>2026-04-11T12:37:30.972Z</time></trkpt><trkpt lat="43.9940628" lon="11.8708124"><ele>645.0</ele><time>2026-04-11T12:37:32.971Z</time></trkpt><trkpt lat="43.9939806" lon="11.8708115"><ele>645.0</ele><time>2026-04-11T12:37:34.972Z</time></trkpt><trkpt lat="43.9939131" lon="11.8707544"><ele>645.0</ele><time>2026-04-11T12:37:36.973Z</time></trkpt><trkpt lat="43.9938293" lon="11.8707345"><ele>648.3333333333334</ele><time>2026-04-11T12:37:38.971Z</time></trkpt><trkpt lat="43.9937433" lon="11.8707524"><ele>651.6666666666666</ele><time>2026-04-11T12:37:40.971Z</time></trkpt><trkpt lat="43.9936705" lon="11.8707334"><ele>655.0</ele><time>2026-04-11T12:37:42.971Z</time></trkpt><trkpt lat="43.9936127" lon="11.8706956"><ele>658.3333333333333</ele><time>2026-04-11T12:37:44.972Z</time></trkpt><trkpt lat="43.9935409" lon="11.8707305"><ele>661.6666666666666</ele><time>2026-04-11T12:37:47.972Z</time></trkpt><trkpt lat="43.9934674" lon="11.8707261"><ele>665.0</ele><time>2026-04-11T12:37:50.971Z</time></trkpt><trkpt lat="43.9933941" lon="11.8706858"><ele>665.0</ele><time>2026-04-11T12:37:59.972Z</time></trkpt><trkpt lat="43.9933411" lon="11.8706004"><ele>665.0</ele><time>2026-04-11T12:38:03.971Z</time></trkpt><trkpt lat="43.9932869" lon="11.8704864"><ele>665.0</ele><time>2026-04-11T12:38:06.972Z</time></trkpt><trkpt lat="43.9932393" lon="11.8704026"><ele>665.0</ele><time>2026-04-11T12:48:45.969Z</time></trkpt><trkpt lat="43.993204" lon="11.8703253"><ele>665.0</ele><time>2026-04-11T12:48:49.969Z</time></trkpt><trkpt lat="43.9931285" lon="11.8702582"><ele>665.0</ele><time>2026-04-11T12:48:53.969Z</time></trkpt><trkpt lat="43.9930672" lon="11.8702285"><ele>668.8333333333333</ele><time>2026-04-11T12:48:56.969Z</time></trkpt><trkpt lat="43.9929931" lon="11.8701679"><ele>672.6666666666666</ele><time>2026-04-11T12:48:59.971Z</time></trkpt><trkpt lat="43.9929112" lon="11.870136"><ele>676.5</ele><time>2026-04-11T12:49:02.969Z</time></trkpt><trkpt lat="43.9928389" lon="11.8701378"><ele>680.3333333333334</ele><time>2026-04-11T12:49:04.97Z</time></trkpt><trkpt lat="43.9927695" lon="11.8701107"><ele>684.1666666666667</ele><time>2026-04-11T12:49:06.969Z</time></trkpt><trkpt lat="43.9927049" lon="11.8700873"><ele>688.0</ele><time>2026-04-11T12:49:08.97Z</time></trkpt><trkpt lat="43.9926289" lon="11.8700749"><ele>690.3333333333334</ele><time>2026-04-11T12:49:10.969Z</time></trkpt><trkpt lat="43.9925675" lon="11.8700329"><ele>692.6666666666667</ele><time>2026-04-11T12:49:13.97Z</time></trkpt><trkpt lat="43.992501" lon="11.8699796"><ele>695.0</ele><time>2026-04-11T12:49:16.97Z</time></trkpt><trkpt lat="43.9924246" lon="11.8699339"><ele>697.3333333333334</ele><time>2026-04-11T12:49:18.97Z</time></trkpt><trkpt lat="43.9923508" lon="11.8698522"><ele>699.6666666666666</ele><time>2026-04-11T12:49:20.97Z</time></trkpt><trkpt lat="43.9922624" lon="11.8698342"><ele>702.0</ele><time>2026-04-11T12:49:22.97Z</time></trkpt><trkpt lat="43.9921619" lon="11.8698068"><ele>703.0</ele><time>2026-04-11T12:49:24.969Z</time></trkpt><trkpt lat="43.9920912" lon="11.8697742"><ele>704.0</ele><time>2026-04-11T12:49:25.97Z</time></trkpt><trkpt lat="43.9920082" lon="11.8697194"><ele>705.0</ele><time>2026-04-11T12:49:27.969Z</time></trkpt><trkpt lat="43.9919068" lon="11.8696458"><ele>706.0</ele><time>2026-04-11T12:49:29.969Z</time></trkpt><trkpt lat="43.9918201" lon="11.8695772"><ele>707.0</ele><time>2026-04-11T12:49:31.969Z</time></trkpt><trkpt lat="43.9917879" lon="11.8694935"><ele>708.0</ele><time>2026-04-11T12:49:33.969Z</time></trkpt><trkpt lat="43.9917367" lon="11.8694134"><ele>706.6666666666666</ele><time>2026-04-11T12:49:36.97Z</time></trkpt><trkpt lat="43.9916633" lon="11.8693879"><ele>705.3333333333334</ele><time>2026-04-11T12:49:39.97Z</time></trkpt><trkpt lat="43.9915995" lon="11.8693692"><ele>704.0</ele><time>2026-04-11T12:49:43.969Z</time></trkpt><trkpt lat="43.9915322" lon="11.8693828"><ele>702.6666666666667</ele><time>2026-04-11T12:49:51.971Z</time></trkpt><trkpt lat="43.99147" lon="11.8693359"><ele>701.3333333333334</ele><time>2026-04-11T12:50:01.969Z</time></trkpt><trkpt lat="43.9915095" lon="11.8692164"><ele>700.0</ele><time>2026-04-11T12:50:05.969Z</time></trkpt><trkpt lat="43.9915701" lon="11.8691383"><ele>700.0</ele><time>2026-04-11T12:50:07.97Z</time></trkpt><trkpt lat="43.9916412" lon="11.8690543"><ele>700.0</ele><time>2026-04-11T12:50:09.97Z</time></trkpt><trkpt lat="43.9917169" lon="11.8689522"><ele>700.0</ele><time>2026-04-11T12:50:11.969Z</time></trkpt><trkpt lat="43.9917987" lon="11.8688644"><ele>700.0</ele><time>2026-04-11T12:50:13.97Z</time></trkpt><trkpt lat="43.9918719" lon="11.8687838"><ele>700.0</ele><time>2026-04-11T12:50:15.97Z</time></trkpt><trkpt lat="43.9919587" lon="11.8687307"><ele>701.8333333333334</ele><time>2026-04-11T12:50:17.97Z</time></trkpt><trkpt lat="43.9920175" lon="11.8686764"><ele>703.6666666666667</ele><time>2026-04-11T12:50:19.969Z</time></trkpt><trkpt lat="43.9920744" lon="11.8686216"><ele>705.5</ele><time>2026-04-11T12:50:21.969Z</time></trkpt><trkpt lat="43.9921172" lon="11.8685462"><ele>707.3333333333334</ele><time>2026-04-11T12:50:30.969Z</time></trkpt><trkpt lat="43.9920567" lon="11.8686285"><ele>709.1666666666666</ele><time>2026-04-11T12:50:51.969Z</time></trkpt><trkpt lat="43.9919891" lon="11.86869"><ele>711.0</ele><time>2026-04-11T12:50:54.969Z</time></trkpt><trkpt lat="43.9919215" lon="11.8687482"><ele>711.0</ele><time>2026-04-11T12:50:58.968Z</time></trkpt><trkpt lat="43.9918564" lon="11.8687915"><ele>711.0</ele><time>2026-04-11T12:51:46.969Z</time></trkpt><trkpt lat="43.9917939" lon="11.8688488"><ele>711.0</ele><time>2026-04-11T12:51:47.968Z</time></trkpt><trkpt lat="43.991691" lon="11.8689806"><ele>711.0</ele><time>2026-04-11T12:51:49.968Z</time></trkpt><trkpt lat="43.9916167" lon="11.8690748"><ele>711.0</ele><time>2026-04-11T12:51:50.968Z</time></trkpt><trkpt lat="43.9915638" lon="11.8691325"><ele>709.4285714285714</ele><time>2026-04-11T12:51:51.968Z</time></trkpt><trkpt lat="43.9915204" lon="11.8692009"><ele>707.8571428571429</ele><time>2026-04-11T12:51:52.969Z</time></trkpt><trkpt lat="43.9914718" lon="11.8693123"><ele>706.2857142857142</ele><time>2026-04-11T12:51:54.969Z</time></trkpt><trkpt lat="43.9914591" lon="11.8694123"><ele>704.7142857142858</ele><time>2026-04-11T12:51:57.969Z</time></trkpt><trkpt lat="43.9913977" lon="11.8693727"><ele>703.1428571428571</ele><time>2026-04-11T12:56:35.967Z</time></trkpt><trkpt lat="43.9913871" lon="11.8692736"><ele>701.5714285714286</ele><time>2026-04-11T12:56:40.968Z</time></trkpt><trkpt lat="43.9913399" lon="11.8692043"><ele>700.0</ele><time>2026-04-11T12:56:43.967Z</time></trkpt><trkpt lat="43.9912765" lon="11.8691587"><ele>700.0</ele><time>2026-04-11T12:56:46.968Z</time></trkpt><trkpt lat="43.9912122" lon="11.8690876"><ele>700.0</ele><time>2026-04-11T12:56:49.969Z</time></trkpt><trkpt lat="43.9911485" lon="11.8690061"><ele>700.0</ele><time>2026-04-11T12:56:52.967Z</time></trkpt><trkpt lat="43.9911062" lon="11.8689321"><ele>700.0</ele><time>2026-04-11T12:56:54.967Z</time></trkpt><trkpt lat="43.9910603" lon="11.8688644"><ele>700.0</ele><time>2026-04-11T12:56:56.968Z</time></trkpt><trkpt lat="43.9910043" lon="11.8687784"><ele>700.0</ele><time>2026-04-11T12:56:58.967Z</time></trkpt><trkpt lat="43.990951" lon="11.8687156"><ele>700.0</ele><time>2026-04-11T12:57:00.967Z</time></trkpt><trkpt lat="43.9909123" lon="11.8686451"><ele>700.0</ele><time>2026-04-11T12:57:02.967Z</time></trkpt><trkpt lat="43.9908678" lon="11.8685654"><ele>700.0</ele><time>2026-04-11T12:57:04.968Z</time></trkpt><trkpt lat="43.9908343" lon="11.8684733"><ele>700.0</ele><time>2026-04-11T12:57:06.968Z</time></trkpt><trkpt lat="43.9908062" lon="11.8683791"><ele>700.0</ele><time>2026-04-11T12:57:08.968Z</time></trkpt><trkpt lat="43.9907926" lon="11.8682921"><ele>700.0</ele><time>2026-04-11T12:57:10.969Z</time></trkpt><trkpt lat="43.9907787" lon="11.8681943"><ele>700.0</ele><time>2026-04-11T12:57:12.967Z</time></trkpt><trkpt lat="43.9907666" lon="11.8680923"><ele>699.5</ele><time>2026-04-11T12:57:14.967Z</time></trkpt><trkpt lat="43.9907565" lon="11.8679962"><ele>699.0</ele><time>2026-04-11T12:57:16.968Z</time></trkpt><trkpt lat="43.9907392" lon="11.8679028"><ele>698.5</ele><time>2026-04-11T12:57:19.967Z</time></trkpt><trkpt lat="43.9907394" lon="11.8678152"><ele>698.0</ele><time>2026-04-11T12:58:53.967Z</time></trkpt><trkpt lat="43.9907525" lon="11.8676928"><ele>697.5</ele><time>2026-04-11T12:58:56.967Z</time></trkpt><trkpt lat="43.9907795" lon="11.8675737"><ele>697.0</ele><time>2026-04-11T12:58:59.967Z</time></trkpt><trkpt lat="43.9907955" lon="11.8674499"><ele>695.1428571428571</ele><time>2026-04-11T12:59:03.967Z</time></trkpt><trkpt lat="43.9908164" lon="11.8673416"><ele>693.2857142857142</ele><time>2026-04-11T12:59:06.966Z</time></trkpt><trkpt lat="43.9908127" lon="11.8672436"><ele>691.4285714285713</ele><time>2026-04-11T12:59:10.967Z</time></trkpt><trkpt lat="43.9908145" lon="11.8671527"><ele>689.5714285714286</ele><time>2026-04-11T12:59:13.967Z</time></trkpt><trkpt lat="43.9908161" lon="11.8670476"><ele>687.7142857142857</ele><time>2026-04-11T12:59:17.967Z</time></trkpt><trkpt lat="43.9908191" lon="11.8669463"><ele>685.8571428571428</ele><time>2026-04-11T12:59:20.966Z</time></trkpt><trkpt lat="43.9908048" lon="11.8668575"><ele>684.0</ele><time>2026-04-11T12:59:23.966Z</time></trkpt><trkpt lat="43.9907876" lon="11.86676"><ele>681.8571428571428</ele><time>2026-04-11T12:59:27.968Z</time></trkpt><trkpt lat="43.9907735" lon="11.8666728"><ele>679.7142857142857</ele><time>2026-04-11T12:59:30.968Z</time></trkpt><trkpt lat="43.9907307" lon="11.8665843"><ele>677.5714285714286</ele><time>2026-04-11T12:59:34.967Z</time></trkpt><trkpt lat="43.9907039" lon="11.8664912"><ele>675.4285714285713</ele><time>2026-04-11T12:59:37.967Z</time></trkpt><trkpt lat="43.9906405" lon="11.8665063"><ele>673.2857142857142</ele><time>2026-04-11T12:59:40.967Z</time></trkpt><trkpt lat="43.9905839" lon="11.8664513"><ele>671.1428571428571</ele><time>2026-04-11T12:59:43.966Z</time></trkpt><trkpt lat="43.9905666" lon="11.8663662"><ele>669.0</ele><time>2026-04-11T12:59:52.967Z</time></trkpt><trkpt lat="43.9905082" lon="11.8663284"><ele>669.0</ele><time>2026-04-11T12:59:56.967Z</time></trkpt><trkpt lat="43.9904452" lon="11.8663477"><ele>669.0</ele><time>2026-04-11T13:00:00.966Z</time></trkpt><trkpt lat="43.9903819" lon="11.8664038"><ele>669.0</ele><time>2026-04-11T13:00:04.967Z</time></trkpt><trkpt lat="43.9903436" lon="11.8664955"><ele>669.0</ele><time>2026-04-11T13:00:07.967Z</time></trkpt><trkpt lat="43.9903099" lon="11.8665934"><ele>669.0</ele><time>2026-04-11T13:00:10.967Z</time></trkpt><trkpt lat="43.9902922" lon="11.8666992"><ele>669.0</ele><time>2026-04-11T13:00:13.966Z</time></trkpt><trkpt lat="43.9902691" lon="11.8668277"><ele>671.5</ele><time>2026-04-11T13:00:16.966Z</time></trkpt><trkpt lat="43.9902395" lon="11.8669106"><ele>674.0</ele><time>2026-04-11T13:00:18.968Z</time></trkpt><trkpt lat="43.990202" lon="11.8670256"><ele>676.5</ele><time>2026-04-11T13:00:21.967Z</time></trkpt><trkpt lat="43.9901602" lon="11.8671225"><ele>679.0</ele><time>2026-04-11T13:00:24.966Z</time></trkpt><trkpt lat="43.9900962" lon="11.8671591"><ele>681.5</ele><time>2026-04-11T13:00:29.967Z</time></trkpt><trkpt lat="43.9900377" lon="11.8671126"><ele>684.0</ele><time>2026-04-11T13:00:34.966Z</time></trkpt><trkpt lat="43.9899493" lon="11.8670805"><ele>684.0</ele><time>2026-04-11T13:00:38.967Z</time></trkpt><trkpt lat="43.9898656" lon="11.8670848"><ele>684.0</ele><time>2026-04-11T13:00:41.967Z</time></trkpt><trkpt lat="43.9898003" lon="11.8670094"><ele>684.0</ele><time>2026-04-11T13:00:44.967Z</time></trkpt><trkpt lat="43.989779" lon="11.8669068"><ele>684.0</ele><time>2026-04-11T13:00:51.967Z</time></trkpt><trkpt lat="43.9897515" lon="11.8668098"><ele>684.0</ele><time>2026-04-11T13:01:14.967Z</time></trkpt><trkpt lat="43.9896895" lon="11.866755"><ele>684.0</ele><time>2026-04-11T13:01:17.967Z</time></trkpt><trkpt lat="43.989646" lon="11.8666882"><ele>681.2857142857142</ele><time>2026-04-11T13:01:23.966Z</time></trkpt><trkpt lat="43.9896155" lon="11.8666095"><ele>678.5714285714286</ele><time>2026-04-11T13:05:48.966Z</time></trkpt><trkpt lat="43.9895914" lon="11.8665185"><ele>675.8571428571429</ele><time>2026-04-11T13:05:56.966Z</time></trkpt><trkpt lat="43.98955" lon="11.8664452"><ele>673.1428571428571</ele><time>2026-04-11T13:05:59.966Z</time></trkpt><trkpt lat="43.9895325" lon="11.8663364"><ele>670.4285714285714</ele><time>2026-04-11T13:07:00.966Z</time></trkpt><trkpt lat="43.98949" lon="11.866263"><ele>667.7142857142857</ele><time>2026-04-11T13:07:02.966Z</time></trkpt><trkpt lat="43.9894187" lon="11.8662201"><ele>665.0</ele><time>2026-04-11T13:07:04.966Z</time></trkpt><trkpt lat="43.9893548" lon="11.8662261"><ele>665.0</ele><time>2026-04-11T13:07:05.966Z</time></trkpt><trkpt lat="43.9892997" lon="11.8661447"><ele>665.0</ele><time>2026-04-11T13:07:08.965Z</time></trkpt><trkpt lat="43.9893108" lon="11.8660432"><ele>665.0</ele><time>2026-04-11T13:07:10.965Z</time></trkpt><trkpt lat="43.9893077" lon="11.8659441"><ele>665.0</ele><time>2026-04-11T13:07:12.965Z</time></trkpt><trkpt lat="43.989235" lon="11.8658582"><ele>665.0</ele><time>2026-04-11T13:07:15.967Z</time></trkpt><trkpt lat="43.9891649" lon="11.8658037"><ele>665.0</ele><time>2026-04-11T13:07:17.965Z</time></trkpt><trkpt lat="43.98909" lon="11.8657743"><ele>661.5</ele><time>2026-04-11T13:07:19.965Z</time></trkpt><trkpt lat="43.9890103" lon="11.8657655"><ele>658.0</ele><time>2026-04-11T13:07:22.966Z</time></trkpt><trkpt lat="43.9890009" lon="11.8656509"><ele>654.5</ele><time>2026-04-11T13:07:26.966Z</time></trkpt><trkpt lat="43.9889976" lon="11.865553"><ele>651.0</ele><time>2026-04-11T13:07:30.966Z</time></trkpt><trkpt lat="43.9889238" lon="11.8654633"><ele>647.5</ele><time>2026-04-11T13:07:33.964Z</time></trkpt><trkpt lat="43.9888602" lon="11.8654374"><ele>644.0</ele><time>2026-04-11T13:07:35.965Z</time></trkpt><trkpt lat="43.9888092" lon="11.8653744"><ele>644.0</ele><time>2026-04-11T13:07:45.965Z</time></trkpt><trkpt lat="43.9888199" lon="11.8652811"><ele>644.0</ele><time>2026-04-11T13:07:57.965Z</time></trkpt><trkpt lat="43.9888681" lon="11.8652217"><ele>644.0</ele><time>2026-04-11T13:08:02.964Z</time></trkpt><trkpt lat="43.9889437" lon="11.8651958"><ele>644.0</ele><time>2026-04-11T13:08:52.965Z</time></trkpt><trkpt lat="43.9890072" lon="11.8652224"><ele>644.0</ele><time>2026-04-11T13:08:54.964Z</time></trkpt><trkpt lat="43.9889533" lon="11.8651731"><ele>644.0</ele><time>2026-04-11T13:10:15.965Z</time></trkpt><trkpt lat="43.9889034" lon="11.8651192"><ele>644.0</ele><time>2026-04-11T13:11:49.965Z</time></trkpt><trkpt lat="43.9888339" lon="11.8651151"><ele>642.6666666666666</ele><time>2026-04-11T13:12:13.963Z</time></trkpt><trkpt lat="43.9888707" lon="11.8650418"><ele>641.3333333333333</ele><time>2026-04-11T13:13:22.963Z</time></trkpt><trkpt lat="43.9889" lon="11.8649432"><ele>640.0</ele><time>2026-04-11T13:13:31.964Z</time></trkpt><trkpt lat="43.9889733" lon="11.8649136"><ele>638.6666666666666</ele><time>2026-04-11T13:45:02.958Z</time></trkpt><trkpt lat="43.9890574" lon="11.8648687"><ele>637.3333333333334</ele><time>2026-04-11T13:45:05.959Z</time></trkpt><trkpt lat="43.9891372" lon="11.8648241"><ele>636.0</ele><time>2026-04-11T13:45:07.958Z</time></trkpt><trkpt lat="43.9892023" lon="11.8647504"><ele>634.7142857142857</ele><time>2026-04-11T13:45:09.958Z</time></trkpt><trkpt lat="43.989253" lon="11.8646897"><ele>633.4285714285714</ele><time>2026-04-11T13:45:11.957Z</time></trkpt><trkpt lat="43.9892925" lon="11.8646183"><ele>632.1428571428571</ele><time>2026-04-11T13:45:13.958Z</time></trkpt><trkpt lat="43.9893498" lon="11.8645545"><ele>630.8571428571429</ele><time>2026-04-11T13:45:15.957Z</time></trkpt><trkpt lat="43.9894192" lon="11.8645031"><ele>629.5714285714286</ele><time>2026-04-11T13:45:18.957Z</time></trkpt><trkpt lat="43.989501" lon="11.8644765"><ele>628.2857142857143</ele><time>2026-04-11T13:45:21.959Z</time></trkpt><trkpt lat="43.9895779" lon="11.8644685"><ele>627.0</ele><time>2026-04-11T13:45:24.957Z</time></trkpt><trkpt lat="43.9896484" lon="11.8644284"><ele>627.0</ele><time>2026-04-11T13:45:27.958Z</time></trkpt><trkpt lat="43.9897143" lon="11.8644015"><ele>627.0</ele><time>2026-04-11T13:45:29.958Z</time></trkpt><trkpt lat="43.9897773" lon="11.8643481"><ele>627.0</ele><time>2026-04-11T13:45:31.957Z</time></trkpt><trkpt lat="43.9898323" lon="11.8642826"><ele>627.0</ele><time>2026-04-11T13:45:33.957Z</time></trkpt><trkpt lat="43.9899312" lon="11.8642271"><ele>627.0</ele><time>2026-04-11T13:45:35.959Z</time></trkpt><trkpt lat="43.9900231" lon="11.8641819"><ele>627.0</ele><time>2026-04-11T13:45:37.957Z</time></trkpt><trkpt lat="43.9901127" lon="11.8641315"><ele>626.1666666666666</ele><time>2026-04-11T13:45:39.958Z</time></trkpt><trkpt lat="43.9901798" lon="11.8640681"><ele>625.3333333333334</ele><time>2026-04-11T13:45:41.958Z</time></trkpt><trkpt lat="43.9902463" lon="11.8639931"><ele>624.5</ele><time>2026-04-11T13:45:44.958Z</time></trkpt><trkpt lat="43.990317" lon="11.8639229"><ele>623.6666666666667</ele><time>2026-04-11T13:45:48.957Z</time></trkpt><trkpt lat="43.990384" lon="11.8638355"><ele>622.8333333333334</ele><time>2026-04-11T13:45:51.958Z</time></trkpt><trkpt lat="43.9904103" lon="11.8637494"><ele>622.0</ele><time>2026-04-11T13:45:53.957Z</time></trkpt><trkpt lat="43.990461" lon="11.8636611"><ele>622.0</ele><time>2026-04-11T13:45:56.958Z</time></trkpt><trkpt lat="43.9905391" lon="11.8635692"><ele>622.0</ele><time>2026-04-11T13:45:59.958Z</time></trkpt><trkpt lat="43.9905997" lon="11.8634621"><ele>622.0</ele><time>2026-04-11T13:46:01.959Z</time></trkpt><trkpt lat="43.9906553" lon="11.8633443"><ele>622.0</ele><time>2026-04-11T13:46:03.958Z</time></trkpt><trkpt lat="43.9906946" lon="11.8632571"><ele>622.0</ele><time>2026-04-11T13:46:04.957Z</time></trkpt><trkpt lat="43.9907466" lon="11.8631134"><ele>623.5</ele><time>2026-04-11T13:46:06.957Z</time></trkpt><trkpt lat="43.9907769" lon="11.862992"><ele>625.0</ele><time>2026-04-11T13:46:08.958Z</time></trkpt><trkpt lat="43.9907921" lon="11.8628735"><ele>626.5</ele><time>2026-04-11T13:46:10.958Z</time></trkpt><trkpt lat="43.9907552" lon="11.862722"><ele>628.0</ele><time>2026-04-11T13:46:12.957Z</time></trkpt><trkpt lat="43.9907284" lon="11.8626369"><ele>629.5</ele><time>2026-04-11T13:46:13.958Z</time></trkpt><trkpt lat="43.990701" lon="11.862546"><ele>631.0</ele><time>2026-04-11T13:46:14.958Z</time></trkpt><trkpt lat="43.9906584" lon="11.8623942"><ele>631.8</ele><time>2026-04-11T13:46:16.958Z</time></trkpt><trkpt lat="43.9906489" lon="11.8622634"><ele>632.6</ele><time>2026-04-11T13:46:18.958Z</time></trkpt><trkpt lat="43.9906327" lon="11.8621567"><ele>633.4</ele><time>2026-04-11T13:46:20.958Z</time></trkpt><trkpt lat="43.9906046" lon="11.8620417"><ele>634.2</ele><time>2026-04-11T13:46:22.958Z</time></trkpt><trkpt lat="43.9905543" lon="11.8619281"><ele>635.0</ele><time>2026-04-11T13:46:24.958Z</time></trkpt><trkpt lat="43.9904763" lon="11.8618337"><ele>633.0</ele><time>2026-04-11T13:46:26.958Z</time></trkpt><trkpt lat="43.9904226" lon="11.8617729"><ele>631.0</ele><time>2026-04-11T13:46:27.957Z</time></trkpt><trkpt lat="43.9903302" lon="11.8616593"><ele>629.0</ele><time>2026-04-11T13:46:29.957Z</time></trkpt><trkpt lat="43.9902808" lon="11.8615967"><ele>627.0</ele><time>2026-04-11T13:46:30.957Z</time></trkpt><trkpt lat="43.9902214" lon="11.8615281"><ele>625.0</ele><time>2026-04-11T13:46:31.957Z</time></trkpt><trkpt lat="43.9901686" lon="11.8614799"><ele>623.0</ele><time>2026-04-11T13:46:32.958Z</time></trkpt><trkpt lat="43.9901134" lon="11.8614328"><ele>623.0</ele><time>2026-04-11T13:46:33.958Z</time></trkpt><trkpt lat="43.9900113" lon="11.8613204"><ele>623.0</ele><time>2026-04-11T13:46:35.957Z</time></trkpt><trkpt lat="43.9899696" lon="11.8612494"><ele>623.0</ele><time>2026-04-11T13:46:36.957Z</time></trkpt><trkpt lat="43.9899265" lon="11.8611757"><ele>623.0</ele><time>2026-04-11T13:46:37.958Z</time></trkpt><trkpt lat="43.9898855" lon="11.8610961"><ele>623.0</ele><time>2026-04-11T13:46:38.958Z</time></trkpt><trkpt lat="43.9898372" lon="11.8610189"><ele>623.0</ele><time>2026-04-11T13:46:39.958Z</time></trkpt><trkpt lat="43.9898001" lon="11.8609479"><ele>623.0</ele><time>2026-04-11T13:46:40.958Z</time></trkpt><trkpt lat="43.9897165" lon="11.8608204"><ele>623.0</ele><time>2026-04-11T13:46:42.958Z</time></trkpt><trkpt lat="43.9896434" lon="11.860732"><ele>623.0</ele><time>2026-04-11T13:46:43.957Z</time></trkpt><trkpt lat="43.9896003" lon="11.860665"><ele>623.0</ele><time>2026-04-11T13:46:44.957Z</time></trkpt><trkpt lat="43.9895434" lon="11.8606015"><ele>623.0</ele><time>2026-04-11T13:46:45.957Z</time></trkpt><trkpt lat="43.9894859" lon="11.8605341"><ele>623.0</ele><time>2026-04-11T13:46:46.957Z</time></trkpt><trkpt lat="43.9894354" lon="11.860473"><ele>623.0</ele><time>2026-04-11T13:46:47.957Z</time></trkpt><trkpt lat="43.9893851" lon="11.8604183"><ele>623.0</ele><time>2026-04-11T13:46:48.957Z</time></trkpt><trkpt lat="43.9892914" lon="11.8603395"><ele>623.0</ele><time>2026-04-11T13:46:50.958Z</time></trkpt><trkpt lat="43.9892321" lon="11.8602895"><ele>623.0</ele><time>2026-04-11T13:46:51.957Z</time></trkpt><trkpt lat="43.9891175" lon="11.8603006"><ele>623.0</ele><time>2026-04-11T13:46:53.958Z</time></trkpt><trkpt lat="43.9890205" lon="11.8603158"><ele>626.4</ele><time>2026-04-11T13:46:55.958Z</time></trkpt><trkpt lat="43.988905" lon="11.8603369"><ele>629.8</ele><time>2026-04-11T13:46:57.958Z</time></trkpt><trkpt lat="43.9887962" lon="11.8603628"><ele>633.2</ele><time>2026-04-11T13:46:59.957Z</time></trkpt><trkpt lat="43.9886993" lon="11.8603095"><ele>636.6</ele><time>2026-04-11T13:47:01.958Z</time></trkpt><trkpt lat="43.988641" lon="11.8602587"><ele>640.0</ele><time>2026-04-11T13:47:02.959Z</time></trkpt><trkpt lat="43.9885931" lon="11.8601959"><ele>640.0</ele><time>2026-04-11T13:47:03.958Z</time></trkpt><trkpt lat="43.9885498" lon="11.8601237"><ele>640.0</ele><time>2026-04-11T13:47:04.958Z</time></trkpt><trkpt lat="43.9885005" lon="11.8600474"><ele>640.0</ele><time>2026-04-11T13:47:05.957Z</time></trkpt><trkpt lat="43.9884487" lon="11.8599611"><ele>640.0</ele><time>2026-04-11T13:47:06.958Z</time></trkpt><trkpt lat="43.9883961" lon="11.8598785"><ele>640.0</ele><time>2026-04-11T13:47:07.957Z</time></trkpt><trkpt lat="43.988346" lon="11.8598134"><ele>640.0</ele><time>2026-04-11T13:47:08.958Z</time></trkpt><trkpt lat="43.9882926" lon="11.8597513"><ele>640.0</ele><time>2026-04-11T13:47:09.958Z</time></trkpt><trkpt lat="43.9882286" lon="11.8597134"><ele>636.3333333333334</ele><time>2026-04-11T13:47:10.958Z</time></trkpt><trkpt lat="43.9881123" lon="11.8596421"><ele>632.6666666666667</ele><time>2026-04-11T13:47:12.957Z</time></trkpt><trkpt lat="43.9880493" lon="11.8596108"><ele>629.0</ele><time>2026-04-11T13:47:13.958Z</time></trkpt><trkpt lat="43.9879914" lon="11.8594994"><ele>625.3333333333334</ele><time>2026-04-11T13:47:15.957Z</time></trkpt><trkpt lat="43.9879442" lon="11.8594352"><ele>621.6666666666666</ele><time>2026-04-11T13:47:17.957Z</time></trkpt><trkpt lat="43.987883" lon="11.8593621"><ele>618.0</ele><time>2026-04-11T13:47:19.958Z</time></trkpt><trkpt lat="43.9878191" lon="11.8592597"><ele>615.1666666666666</ele><time>2026-04-11T13:47:22.958Z</time></trkpt><trkpt lat="43.9877711" lon="11.8591573"><ele>612.3333333333334</ele><time>2026-04-11T13:47:24.958Z</time></trkpt><trkpt lat="43.9877549" lon="11.8590484"><ele>609.5</ele><time>2026-04-11T13:47:27.957Z</time></trkpt><trkpt lat="43.9878107" lon="11.8589577"><ele>606.6666666666667</ele><time>2026-04-11T13:47:30.958Z</time></trkpt><trkpt lat="43.987875" lon="11.8589388"><ele>603.8333333333334</ele><time>2026-04-11T13:47:32.957Z</time></trkpt><trkpt lat="43.9879813" lon="11.8589436"><ele>601.0</ele><time>2026-04-11T13:47:34.958Z</time></trkpt><trkpt lat="43.9880576" lon="11.858862"><ele>601.0</ele><time>2026-04-11T13:47:36.957Z</time></trkpt><trkpt lat="43.9881099" lon="11.8588108"><ele>601.0</ele><time>2026-04-11T13:47:37.958Z</time></trkpt><trkpt lat="43.9881605" lon="11.8587341"><ele>601.0</ele><time>2026-04-11T13:47:39.958Z</time></trkpt><trkpt lat="43.9882477" lon="11.8586731"><ele>601.0</ele><time>2026-04-11T13:47:41.957Z</time></trkpt><trkpt lat="43.9883232" lon="11.8586564"><ele>601.0</ele><time>2026-04-11T13:47:42.957Z</time></trkpt><trkpt lat="43.9883987" lon="11.8586577"><ele>601.0</ele><time>2026-04-11T13:47:43.957Z</time></trkpt><trkpt lat="43.9884654" lon="11.8586594"><ele>600.0</ele><time>2026-04-11T13:47:44.958Z</time></trkpt><trkpt lat="43.9885299" lon="11.8586551"><ele>599.0</ele><time>2026-04-11T13:47:45.958Z</time></trkpt><trkpt lat="43.9886349" lon="11.8586493"><ele>598.0</ele><time>2026-04-11T13:47:47.958Z</time></trkpt><trkpt lat="43.9886869" lon="11.8585991"><ele>597.0</ele><time>2026-04-11T13:47:48.958Z</time></trkpt><trkpt lat="43.9887712" lon="11.8585322"><ele>596.0</ele><time>2026-04-11T13:47:50.959Z</time></trkpt><trkpt lat="43.9888415" lon="11.8584765"><ele>595.0</ele><time>2026-04-11T13:47:52.957Z</time></trkpt><trkpt lat="43.9889414" lon="11.8584056"><ele>597.4</ele><time>2026-04-11T13:47:54.957Z</time></trkpt><trkpt lat="43.9890459" lon="11.8583927"><ele>599.8</ele><time>2026-04-11T13:47:56.958Z</time></trkpt><trkpt lat="43.9891652" lon="11.8583927"><ele>602.2</ele><time>2026-04-11T13:47:58.957Z</time></trkpt><trkpt lat="43.9892764" lon="11.8583782"><ele>604.6</ele><time>2026-04-11T13:48:00.957Z</time></trkpt><trkpt lat="43.9893548" lon="11.8583272"><ele>607.0</ele><time>2026-04-11T13:48:02.959Z</time></trkpt><trkpt lat="43.9894211" lon="11.8582815"><ele>607.3333333333334</ele><time>2026-04-11T13:48:04.958Z</time></trkpt><trkpt lat="43.9894773" lon="11.8582268"><ele>607.6666666666667</ele><time>2026-04-11T13:48:11.957Z</time></trkpt><trkpt lat="43.9895487" lon="11.8582286"><ele>608.0</ele><time>2026-04-11T13:48:12.957Z</time></trkpt><trkpt lat="43.9896386" lon="11.8582028"><ele>608.3333333333334</ele><time>2026-04-11T13:48:14.958Z</time></trkpt><trkpt lat="43.9897215" lon="11.8581968"><ele>608.6666666666666</ele><time>2026-04-11T13:48:16.957Z</time></trkpt><trkpt lat="43.9898101" lon="11.8582146"><ele>609.0</ele><time>2026-04-11T13:48:18.958Z</time></trkpt><trkpt lat="43.989872" lon="11.8582334"><ele>609.0</ele><time>2026-04-11T13:48:20.957Z</time></trkpt><trkpt lat="43.9899587" lon="11.8582678"><ele>609.0</ele><time>2026-04-11T13:48:22.957Z</time></trkpt><trkpt lat="43.9900464" lon="11.8582952"><ele>609.0</ele><time>2026-04-11T13:48:24.957Z</time></trkpt><trkpt lat="43.9901431" lon="11.8583523"><ele>609.0</ele><time>2026-04-11T13:48:26.958Z</time></trkpt><trkpt lat="43.9902111" lon="11.8584167"><ele>609.0</ele><time>2026-04-11T13:48:28.957Z</time></trkpt><trkpt lat="43.9902785" lon="11.8584274"><ele>609.0</ele><time>2026-04-11T13:48:29.958Z</time></trkpt><trkpt lat="43.9903574" lon="11.8584323"><ele>606.6666666666666</ele><time>2026-04-11T13:48:30.958Z</time></trkpt><trkpt lat="43.9904245" lon="11.8584664"><ele>604.3333333333334</ele><time>2026-04-11T13:48:31.958Z</time></trkpt><trkpt lat="43.9904946" lon="11.8585062"><ele>602.0</ele><time>2026-04-11T13:48:32.957Z</time></trkpt><trkpt lat="43.9905558" lon="11.8585611"><ele>599.6666666666667</ele><time>2026-04-11T13:48:33.957Z</time></trkpt><trkpt lat="43.9906038" lon="11.8586206"><ele>597.3333333333334</ele><time>2026-04-11T13:48:34.958Z</time></trkpt><trkpt lat="43.9907103" lon="11.8586894"><ele>595.0</ele><time>2026-04-11T13:48:36.957Z</time></trkpt><trkpt lat="43.990772" lon="11.8587316"><ele>595.0</ele><time>2026-04-11T13:48:37.958Z</time></trkpt><trkpt lat="43.9908265" lon="11.8587819"><ele>595.0</ele><time>2026-04-11T13:48:38.957Z</time></trkpt><trkpt lat="43.9909121" lon="11.8588744"><ele>595.0</ele><time>2026-04-11T13:48:40.958Z</time></trkpt><trkpt lat="43.9909928" lon="11.8589353"><ele>595.0</ele><time>2026-04-11T13:48:42.958Z</time></trkpt><trkpt lat="43.9910512" lon="11.8588904"><ele>595.0</ele><time>2026-04-11T13:48:44.957Z</time></trkpt><trkpt lat="43.991128" lon="11.8588315"><ele>595.0</ele><time>2026-04-11T13:48:46.957Z</time></trkpt><trkpt lat="43.9912225" lon="11.8587851"><ele>591.8</ele><time>2026-04-11T13:48:48.958Z</time></trkpt><trkpt lat="43.9912887" lon="11.8587519"><ele>588.6</ele><time>2026-04-11T13:48:51.958Z</time></trkpt><trkpt lat="43.9913684" lon="11.858743"><ele>585.4</ele><time>2026-04-11T13:48:54.958Z</time></trkpt><trkpt lat="43.9914654" lon="11.8587083"><ele>582.2</ele><time>2026-04-11T13:48:56.958Z</time></trkpt><trkpt lat="43.9915459" lon="11.8586577"><ele>579.0</ele><time>2026-04-11T13:48:58.957Z</time></trkpt><trkpt lat="43.9916209" lon="11.8585327"><ele>579.0</ele><time>2026-04-11T13:49:00.957Z</time></trkpt><trkpt lat="43.9916654" lon="11.8584616"><ele>579.0</ele><time>2026-04-11T13:49:01.958Z</time></trkpt><trkpt lat="43.9917091" lon="11.8583779"><ele>579.0</ele><time>2026-04-11T13:49:02.957Z</time></trkpt><trkpt lat="43.9917399" lon="11.858267"><ele>579.0</ele><time>2026-04-11T13:49:03.958Z</time></trkpt><trkpt lat="43.9917893" lon="11.8581898"><ele>579.0</ele><time>2026-04-11T13:49:04.957Z</time></trkpt><trkpt lat="43.991848" lon="11.8581063"><ele>579.0</ele><time>2026-04-11T13:49:05.958Z</time></trkpt><trkpt lat="43.9919123" lon="11.8580275"><ele>576.2</ele><time>2026-04-11T13:49:06.957Z</time></trkpt><trkpt lat="43.9919877" lon="11.8578584"><ele>573.4</ele><time>2026-04-11T13:49:08.958Z</time></trkpt><trkpt lat="43.9920357" lon="11.8577642"><ele>570.6</ele><time>2026-04-11T13:49:09.957Z</time></trkpt><trkpt lat="43.9920726" lon="11.857654"><ele>567.8</ele><time>2026-04-11T13:49:10.958Z</time></trkpt><trkpt lat="43.9921166" lon="11.8575423"><ele>565.0</ele><time>2026-04-11T13:49:11.958Z</time></trkpt><trkpt lat="43.9921539" lon="11.8574227"><ele>565.0</ele><time>2026-04-11T13:49:12.957Z</time></trkpt><trkpt lat="43.9921881" lon="11.8573178"><ele>565.0</ele><time>2026-04-11T13:49:13.957Z</time></trkpt><trkpt lat="43.9922259" lon="11.8572107"><ele>565.0</ele><time>2026-04-11T13:49:14.957Z</time></trkpt><trkpt lat="43.9922696" lon="11.8571026"><ele>565.0</ele><time>2026-04-11T13:49:15.958Z</time></trkpt><trkpt lat="43.9923102" lon="11.8570073"><ele>565.0</ele><time>2026-04-11T13:49:16.957Z</time></trkpt><trkpt lat="43.9923264" lon="11.8569167"><ele>565.0</ele><time>2026-04-11T13:49:17.958Z</time></trkpt><trkpt lat="43.9923339" lon="11.8567952"><ele>566.3333333333334</ele><time>2026-04-11T13:49:18.958Z</time></trkpt><trkpt lat="43.9923352" lon="11.8566925"><ele>567.6666666666667</ele><time>2026-04-11T13:49:19.957Z</time></trkpt><trkpt lat="43.9923279" lon="11.8565796"><ele>569.0</ele><time>2026-04-11T13:49:20.958Z</time></trkpt><trkpt lat="43.9923326" lon="11.8564792"><ele>570.3333333333334</ele><time>2026-04-11T13:49:21.957Z</time></trkpt><trkpt lat="43.9923418" lon="11.8563728"><ele>571.6666666666666</ele><time>2026-04-11T13:49:22.957Z</time></trkpt><trkpt lat="43.9924026" lon="11.8562908"><ele>573.0</ele><time>2026-04-11T13:49:23.958Z</time></trkpt><trkpt lat="43.9924341" lon="11.8561764"><ele>573.0</ele><time>2026-04-11T13:49:24.958Z</time></trkpt><trkpt lat="43.9924669" lon="11.8560826"><ele>573.0</ele><time>2026-04-11T13:49:25.957Z</time></trkpt><trkpt lat="43.9924953" lon="11.8560003"><ele>573.0</ele><time>2026-04-11T13:49:26.958Z</time></trkpt><trkpt lat="43.9925176" lon="11.8559088"><ele>573.0</ele><time>2026-04-11T13:49:27.957Z</time></trkpt><trkpt lat="43.992536" lon="11.855805"><ele>573.0</ele><time>2026-04-11T13:49:28.957Z</time></trkpt><trkpt lat="43.9925518" lon="11.8557008"><ele>573.0</ele><time>2026-04-11T13:49:29.957Z</time></trkpt><trkpt lat="43.9925658" lon="11.855601"><ele>573.0</ele><time>2026-04-11T13:49:30.958Z</time></trkpt><trkpt lat="43.9925797" lon="11.8555116"><ele>572.8333333333334</ele><time>2026-04-11T13:49:31.957Z</time></trkpt><trkpt lat="43.9926003" lon="11.8554211"><ele>572.6666666666666</ele><time>2026-04-11T13:49:32.959Z</time></trkpt><trkpt lat="43.992616" lon="11.8553315"><ele>572.5</ele><time>2026-04-11T13:49:33.957Z</time></trkpt><trkpt lat="43.9926672" lon="11.8551789"><ele>572.3333333333333</ele><time>2026-04-11T13:49:35.958Z</time></trkpt><trkpt lat="43.9926946" lon="11.8550708"><ele>572.1666666666666</ele><time>2026-04-11T13:49:37.957Z</time></trkpt><trkpt lat="43.9927342" lon="11.8549813"><ele>572.0</ele><time>2026-04-11T13:49:43.958Z</time></trkpt><trkpt lat="43.9927554" lon="11.8548815"><ele>572.0</ele><time>2026-04-11T13:49:45.958Z</time></trkpt><trkpt lat="43.9927916" lon="11.8547687"><ele>572.0</ele><time>2026-04-11T13:49:48.958Z</time></trkpt><trkpt lat="43.9928326" lon="11.8546913"><ele>572.0</ele><time>2026-04-11T13:49:50.958Z</time></trkpt><trkpt lat="43.9928847" lon="11.8546303"><ele>572.0</ele><time>2026-04-11T13:49:52.957Z</time></trkpt><trkpt lat="43.992973" lon="11.8546188"><ele>572.0</ele><time>2026-04-11T13:49:55.959Z</time></trkpt><trkpt lat="43.9930617" lon="11.8546289"><ele>572.0</ele><time>2026-04-11T13:49:58.958Z</time></trkpt><trkpt lat="43.9931526" lon="11.8546042"><ele>572.0</ele><time>2026-04-11T13:50:01.957Z</time></trkpt><trkpt lat="43.9931992" lon="11.854519"><ele>572.0</ele><time>2026-04-11T13:50:03.958Z</time></trkpt><trkpt lat="43.9932364" lon="11.8544202"><ele>572.0</ele><time>2026-04-11T13:50:05.957Z</time></trkpt><trkpt lat="43.9932812" lon="11.8543384"><ele>572.0</ele><time>2026-04-11T13:50:07.959Z</time></trkpt><trkpt lat="43.9933299" lon="11.8542576"><ele>572.0</ele><time>2026-04-11T13:50:10.957Z</time></trkpt><trkpt lat="43.9933879" lon="11.8541802"><ele>572.0</ele><time>2026-04-11T13:50:13.958Z</time></trkpt><trkpt lat="43.9934184" lon="11.8540638"><ele>568.6</ele><time>2026-04-11T13:50:16.957Z</time></trkpt><trkpt lat="43.9934237" lon="11.8539412"><ele>565.2</ele><time>2026-04-11T13:50:18.958Z</time></trkpt><trkpt lat="43.9934123" lon="11.8537843"><ele>561.8</ele><time>2026-04-11T13:50:20.957Z</time></trkpt><trkpt lat="43.9933871" lon="11.8536571"><ele>558.4</ele><time>2026-04-11T13:50:22.957Z</time></trkpt><trkpt lat="43.9933674" lon="11.8535053"><ele>555.0</ele><time>2026-04-11T13:50:24.957Z</time></trkpt><trkpt lat="43.9933469" lon="11.8533779"><ele>552.8333333333334</ele><time>2026-04-11T13:50:26.957Z</time></trkpt><trkpt lat="43.993373" lon="11.853287"><ele>550.6666666666666</ele><time>2026-04-11T13:50:28.958Z</time></trkpt><trkpt lat="43.9934123" lon="11.8531687"><ele>548.5</ele><time>2026-04-11T13:50:31.958Z</time></trkpt><trkpt lat="43.9934567" lon="11.8530578"><ele>546.3333333333333</ele><time>2026-04-11T13:50:34.958Z</time></trkpt><trkpt lat="43.9934859" lon="11.8529671"><ele>544.1666666666666</ele><time>2026-04-11T13:50:36.958Z</time></trkpt><trkpt lat="43.9934956" lon="11.8528571"><ele>542.0</ele><time>2026-04-11T13:50:38.957Z</time></trkpt><trkpt lat="43.9934694" lon="11.8527389"><ele>539.1666666666666</ele><time>2026-04-11T13:50:40.957Z</time></trkpt><trkpt lat="43.993433" lon="11.8526166"><ele>536.3333333333333</ele><time>2026-04-11T13:50:42.957Z</time></trkpt><trkpt lat="43.9933853" lon="11.8525146"><ele>533.5</ele><time>2026-04-11T13:50:44.957Z</time></trkpt><trkpt lat="43.993337" lon="11.8524519"><ele>530.6666666666666</ele><time>2026-04-11T13:50:46.959Z</time></trkpt><trkpt lat="43.9932823" lon="11.8523423"><ele>527.8333333333334</ele><time>2026-04-11T13:50:49.957Z</time></trkpt><trkpt lat="43.9932304" lon="11.8522314"><ele>525.0</ele><time>2026-04-11T13:50:51.958Z</time></trkpt><trkpt lat="43.9931815" lon="11.8521384"><ele>531.1666666666666</ele><time>2026-04-11T13:50:53.959Z</time></trkpt><trkpt lat="43.9931268" lon="11.8520295"><ele>537.3333333333334</ele><time>2026-04-11T13:50:55.957Z</time></trkpt><trkpt lat="43.9930895" lon="11.8519337"><ele>543.5</ele><time>2026-04-11T13:50:56.958Z</time></trkpt><trkpt lat="43.9930596" lon="11.8518141"><ele>549.6666666666667</ele><time>2026-04-11T13:50:58.957Z</time></trkpt><trkpt lat="43.9930185" lon="11.8517041"><ele>555.8333333333334</ele><time>2026-04-11T13:51:00.957Z</time></trkpt><trkpt lat="43.9930142" lon="11.8515904"><ele>562.0</ele><time>2026-04-11T13:51:09.958Z</time></trkpt><trkpt lat="43.99304" lon="11.851477"><ele>562.0</ele><time>2026-04-11T13:51:12.959Z</time></trkpt><trkpt lat="43.9930891" lon="11.8513713"><ele>562.0</ele><time>2026-04-11T13:51:14.957Z</time></trkpt><trkpt lat="43.9931358" lon="11.8513124"><ele>562.0</ele><time>2026-04-11T13:51:15.958Z</time></trkpt><trkpt lat="43.9932131" lon="11.8511849"><ele>562.0</ele><time>2026-04-11T13:51:17.958Z</time></trkpt><trkpt lat="43.9932869" lon="11.8509868"><ele>562.0</ele><time>2026-04-11T13:51:19.957Z</time></trkpt><trkpt lat="43.9933343" lon="11.850843"><ele>560.6666666666667</ele><time>2026-04-11T13:51:21.957Z</time></trkpt><trkpt lat="43.9933281" lon="11.8507253"><ele>559.3333333333334</ele><time>2026-04-11T13:51:23.958Z</time></trkpt><trkpt lat="43.9932999" lon="11.8506127"><ele>558.0</ele><time>2026-04-11T13:51:25.958Z</time></trkpt><trkpt lat="43.9933314" lon="11.850508"><ele>556.6666666666666</ele><time>2026-04-11T13:51:29.957Z</time></trkpt><trkpt lat="43.9933424" lon="11.8504078"><ele>555.3333333333333</ele><time>2026-04-11T13:51:34.957Z</time></trkpt><trkpt lat="43.9933166" lon="11.850305"><ele>554.0</ele><time>2026-04-11T13:51:39.956Z</time></trkpt><trkpt lat="43.9932892" lon="11.8502117"><ele>551.5</ele><time>2026-04-11T13:51:42.956Z</time></trkpt><trkpt lat="43.9932533" lon="11.8501185"><ele>549.0</ele><time>2026-04-11T13:51:45.956Z</time></trkpt><trkpt lat="43.993219" lon="11.8500012"><ele>546.5</ele><time>2026-04-11T13:51:48.956Z</time></trkpt><trkpt lat="43.9932122" lon="11.849898"><ele>544.0</ele><time>2026-04-11T13:51:50.956Z</time></trkpt><trkpt lat="43.9932109" lon="11.8498045"><ele>541.5</ele><time>2026-04-11T13:51:52.956Z</time></trkpt><trkpt lat="43.9932054" lon="11.8497002"><ele>539.0</ele><time>2026-04-11T13:51:55.956Z</time></trkpt><trkpt lat="43.9932279" lon="11.8495964"><ele>539.0</ele><time>2026-04-11T13:52:05.956Z</time></trkpt><trkpt lat="43.9932447" lon="11.8494844"><ele>539.0</ele><time>2026-04-11T13:52:59.957Z</time></trkpt><trkpt lat="43.993239" lon="11.84938"><ele>539.0</ele><time>2026-04-11T13:53:02.956Z</time></trkpt><trkpt lat="43.9932435" lon="11.8492809"><ele>539.0</ele><time>2026-04-11T13:53:05.958Z</time></trkpt><trkpt lat="43.9932673" lon="11.8491909"><ele>539.0</ele><time>2026-04-11T13:53:08.956Z</time></trkpt><trkpt lat="43.9932303" lon="11.8490865"><ele>539.0</ele><time>2026-04-11T13:54:07.956Z</time></trkpt><trkpt lat="43.9932393" lon="11.8489595"><ele>536.2857142857143</ele><time>2026-04-11T13:54:10.956Z</time></trkpt><trkpt lat="43.9932392" lon="11.8488623"><ele>533.5714285714286</ele><time>2026-04-11T13:54:15.957Z</time></trkpt><trkpt lat="43.993292" lon="11.8487749"><ele>530.8571428571429</ele><time>2026-04-11T13:54:31.956Z</time></trkpt><trkpt lat="43.9933498" lon="11.8487322"><ele>528.1428571428571</ele><time>2026-04-11T13:54:39.957Z</time></trkpt><trkpt lat="43.9934119" lon="11.8486808"><ele>525.4285714285714</ele><time>2026-04-11T13:54:54.957Z</time></trkpt><trkpt lat="43.9934744" lon="11.8486508"><ele>522.7142857142858</ele><time>2026-04-11T13:55:00.957Z</time></trkpt><trkpt lat="43.9935368" lon="11.8486067"><ele>520.0</ele><time>2026-04-11T13:55:04.956Z</time></trkpt><trkpt lat="43.9935999" lon="11.8485962"><ele>516.0</ele><time>2026-04-11T13:55:07.958Z</time></trkpt><trkpt lat="43.993679" lon="11.8486197"><ele>512.0</ele><time>2026-04-11T13:55:11.956Z</time></trkpt><trkpt lat="43.9937418" lon="11.848596"><ele>508.0</ele><time>2026-04-11T13:55:14.956Z</time></trkpt><trkpt lat="43.993836" lon="11.8485573"><ele>504.0</ele><time>2026-04-11T13:55:17.956Z</time></trkpt><trkpt lat="43.9939007" lon="11.8485635"><ele>500.00000000000006</ele><time>2026-04-11T13:55:19.957Z</time></trkpt><trkpt lat="43.9939721" lon="11.8486109"><ele>496.0</ele><time>2026-04-11T13:55:22.957Z</time></trkpt><trkpt lat="43.9940666" lon="11.8486245"><ele>496.00000000000006</ele><time>2026-04-11T13:55:25.958Z</time></trkpt><trkpt lat="43.994149" lon="11.84866"><ele>496.0</ele><time>2026-04-11T13:55:27.956Z</time></trkpt><trkpt lat="43.994226" lon="11.8486831"><ele>496.0</ele><time>2026-04-11T13:55:29.957Z</time></trkpt><trkpt lat="43.994298" lon="11.848667"><ele>496.0</ele><time>2026-04-11T13:55:31.956Z</time></trkpt><trkpt lat="43.9943849" lon="11.8486396"><ele>496.00000000000006</ele><time>2026-04-11T13:55:34.956Z</time></trkpt><trkpt lat="43.9944677" lon="11.8486072"><ele>496.0</ele><time>2026-04-11T13:55:37.956Z</time></trkpt><trkpt lat="43.9945107" lon="11.8485317"><ele>492.42857142857144</ele><time>2026-04-11T13:55:40.956Z</time></trkpt><trkpt lat="43.9945632" lon="11.848469"><ele>488.8571428571429</ele><time>2026-04-11T13:55:43.956Z</time></trkpt><trkpt lat="43.9946086" lon="11.8483927"><ele>485.28571428571433</ele><time>2026-04-11T13:55:47.956Z</time></trkpt><trkpt lat="43.9946521" lon="11.848322"><ele>481.7142857142858</ele><time>2026-04-11T13:55:51.957Z</time></trkpt><trkpt lat="43.9947164" lon="11.84826"><ele>478.14285714285717</ele><time>2026-04-11T13:55:55.956Z</time></trkpt><trkpt lat="43.9947822" lon="11.8481979"><ele>474.57142857142867</ele><time>2026-04-11T13:55:58.957Z</time></trkpt><trkpt lat="43.9948444" lon="11.8481628"><ele>471.00000000000006</ele><time>2026-04-11T13:56:01.957Z</time></trkpt><trkpt lat="43.9949174" lon="11.8481074"><ele>471.0</ele><time>2026-04-11T13:56:04.957Z</time></trkpt><trkpt lat="43.9949807" lon="11.8480765"><ele>471.0</ele><time>2026-04-11T13:56:06.956Z</time></trkpt><trkpt lat="43.9950372" lon="11.8479995"><ele>471.0</ele><time>2026-04-11T13:56:10.956Z</time></trkpt><trkpt lat="43.9950464" lon="11.8478874"><ele>471.0</ele><time>2026-04-11T13:56:13.956Z</time></trkpt><trkpt lat="43.9950828" lon="11.8477687"><ele>471.0</ele><time>2026-04-11T13:56:16.957Z</time></trkpt><trkpt lat="43.9951218" lon="11.847676"><ele>471.0</ele><time>2026-04-11T13:56:18.957Z</time></trkpt><trkpt lat="43.9951481" lon="11.8475699"><ele>468.6666666666667</ele><time>2026-04-11T13:56:20.956Z</time></trkpt><trkpt lat="43.9951693" lon="11.8474546"><ele>466.33333333333337</ele><time>2026-04-11T13:56:22.956Z</time></trkpt><trkpt lat="43.995161" lon="11.8473493"><ele>464.0</ele><time>2026-04-11T13:56:24.956Z</time></trkpt><trkpt lat="43.9951153" lon="11.8472422"><ele>461.6666666666667</ele><time>2026-04-11T13:56:27.956Z</time></trkpt><trkpt lat="43.9950594" lon="11.8471627"><ele>459.33333333333337</ele><time>2026-04-11T13:56:30.956Z</time></trkpt><trkpt lat="43.9949936" lon="11.8471122"><ele>457.0</ele><time>2026-04-11T13:56:34.956Z</time></trkpt><trkpt lat="43.994919" lon="11.8471343"><ele>457.00000000000006</ele><time>2026-04-11T13:56:38.956Z</time></trkpt><trkpt lat="43.9948411" lon="11.8471961"><ele>457.0</ele><time>2026-04-11T13:56:41.957Z</time></trkpt><trkpt lat="43.9947857" lon="11.8472417"><ele>457.00000000000006</ele><time>2026-04-11T13:56:44.957Z</time></trkpt><trkpt lat="43.9947971" lon="11.8471447"><ele>457.00000000000006</ele><time>2026-04-11T13:56:49.957Z</time></trkpt><trkpt lat="43.9948295" lon="11.8470535"><ele>457.0</ele><time>2026-04-11T13:56:55.956Z</time></trkpt><trkpt lat="43.9948495" lon="11.8469642"><ele>457.00000000000006</ele><time>2026-04-11T13:57:00.958Z</time></trkpt><trkpt lat="43.9948949" lon="11.8469019"><ele>457.00000000000006</ele><time>2026-04-11T13:57:10.957Z</time></trkpt><trkpt lat="43.9949274" lon="11.8468203"><ele>452.50000000000006</ele><time>2026-04-11T13:57:16.956Z</time></trkpt><trkpt lat="43.9949688" lon="11.8467433"><ele>448.0</ele><time>2026-04-11T13:57:21.957Z</time></trkpt><trkpt lat="43.9950444" lon="11.8467144"><ele>443.5</ele><time>2026-04-11T13:57:25.956Z</time></trkpt><trkpt lat="43.9951171" lon="11.8466726"><ele>439.0</ele><time>2026-04-11T13:57:30.957Z</time></trkpt><trkpt lat="43.9952287" lon="11.8465987"><ele>434.50000000000006</ele><time>2026-04-11T13:57:33.957Z</time></trkpt><trkpt lat="43.9953118" lon="11.8465816"><ele>430.0</ele><time>2026-04-11T13:57:42.957Z</time></trkpt><trkpt lat="43.9953783" lon="11.8465332"><ele>428.1428571428571</ele><time>2026-04-11T13:57:45.956Z</time></trkpt><trkpt lat="43.9954459" lon="11.8464679"><ele>426.28571428571433</ele><time>2026-04-11T13:57:49.956Z</time></trkpt><trkpt lat="43.99542" lon="11.8463859"><ele>424.42857142857144</ele><time>2026-04-11T14:00:03.956Z</time></trkpt><trkpt lat="43.9953603" lon="11.8463377"><ele>422.57142857142856</ele><time>2026-04-11T14:00:11.956Z</time></trkpt><trkpt lat="43.9952943" lon="11.8463374"><ele>420.71428571428567</ele><time>2026-04-11T14:00:15.956Z</time></trkpt><trkpt lat="43.9952263" lon="11.8463267"><ele>418.8571428571429</ele><time>2026-04-11T14:00:19.955Z</time></trkpt><trkpt lat="43.9951341" lon="11.8463313"><ele>417.0</ele><time>2026-04-11T14:02:26.956Z</time></trkpt><trkpt lat="43.9950195" lon="11.8463222"><ele>419.6</ele><time>2026-04-11T14:02:28.956Z</time></trkpt><trkpt lat="43.994901" lon="11.8463121"><ele>422.20000000000005</ele><time>2026-04-11T14:02:29.955Z</time></trkpt><trkpt lat="43.9948318" lon="11.846309"><ele>424.8</ele><time>2026-04-11T14:02:30.956Z</time></trkpt><trkpt lat="43.9947439" lon="11.84637"><ele>427.4</ele><time>2026-04-11T14:02:32.956Z</time></trkpt><trkpt lat="43.9946859" lon="11.8464651"><ele>430.0</ele><time>2026-04-11T14:02:34.955Z</time></trkpt><trkpt lat="43.9946238" lon="11.8465856"><ele>430.0</ele><time>2026-04-11T14:02:36.956Z</time></trkpt><trkpt lat="43.9945448" lon="11.846679"><ele>430.0</ele><time>2026-04-11T14:02:38.956Z</time></trkpt><trkpt lat="43.9944581" lon="11.8467793"><ele>430.0</ele><time>2026-04-11T14:02:40.956Z</time></trkpt><trkpt lat="43.9943883" lon="11.8468575"><ele>430.0</ele><time>2026-04-11T14:02:42.955Z</time></trkpt><trkpt lat="43.9943224" lon="11.8469269"><ele>430.0</ele><time>2026-04-11T14:02:44.955Z</time></trkpt><trkpt lat="43.9942799" lon="11.8469952"><ele>433.6</ele><time>2026-04-11T14:02:46.957Z</time></trkpt><trkpt lat="43.9942301" lon="11.8470904"><ele>437.2</ele><time>2026-04-11T14:02:49.956Z</time></trkpt><trkpt lat="43.9941562" lon="11.8471553"><ele>440.79999999999995</ele><time>2026-04-11T14:02:53.956Z</time></trkpt><trkpt lat="43.9940871" lon="11.8472058"><ele>444.4</ele><time>2026-04-11T14:02:55.956Z</time></trkpt><trkpt lat="43.9939716" lon="11.8472126"><ele>448.0</ele><time>2026-04-11T14:02:57.955Z</time></trkpt><trkpt lat="43.993867" lon="11.8472251"><ele>448.00000000000006</ele><time>2026-04-11T14:02:59.955Z</time></trkpt><trkpt lat="43.9937988" lon="11.8472663"><ele>448.0</ele><time>2026-04-11T14:03:00.956Z</time></trkpt><trkpt lat="43.993725" lon="11.8473267"><ele>448.0</ele><time>2026-04-11T14:03:02.956Z</time></trkpt><trkpt lat="43.9936527" lon="11.8473588"><ele>448.0</ele><time>2026-04-11T14:03:04.956Z</time></trkpt><trkpt lat="43.9935756" lon="11.8473864"><ele>448.00000000000006</ele><time>2026-04-11T14:03:06.957Z</time></trkpt><trkpt lat="43.9934721" lon="11.8473772"><ele>448.0</ele><time>2026-04-11T14:03:08.955Z</time></trkpt><trkpt lat="43.9934193" lon="11.8472953"><ele>448.00000000000006</ele><time>2026-04-11T14:03:11.955Z</time></trkpt><trkpt lat="43.993342" lon="11.8472553"><ele>448.0</ele><time>2026-04-11T14:03:13.956Z</time></trkpt><trkpt lat="43.9932754" lon="11.8472165"><ele>448.0</ele><time>2026-04-11T14:03:15.955Z</time></trkpt><trkpt lat="43.99323" lon="11.8471236"><ele>448.0</ele><time>2026-04-11T14:03:17.955Z</time></trkpt><trkpt lat="43.9931218" lon="11.8470806"><ele>448.00000000000006</ele><time>2026-04-11T14:03:19.956Z</time></trkpt><trkpt lat="43.9930511" lon="11.8470708"><ele>448.0</ele><time>2026-04-11T14:03:21.956Z</time></trkpt><trkpt lat="43.9929633" lon="11.8470548"><ele>449.00000000000006</ele><time>2026-04-11T14:03:23.955Z</time></trkpt><trkpt lat="43.9929068" lon="11.8469997"><ele>450.0</ele><time>2026-04-11T14:03:25.955Z</time></trkpt><trkpt lat="43.9928286" lon="11.8469532"><ele>451.0</ele><time>2026-04-11T14:04:06.955Z</time></trkpt><trkpt lat="43.9928068" lon="11.8468692"><ele>452.0</ele><time>2026-04-11T14:04:13.956Z</time></trkpt><trkpt lat="43.9927915" lon="11.8467559"><ele>453.00000000000006</ele><time>2026-04-11T14:04:16.954Z</time></trkpt><trkpt lat="43.9927629" lon="11.8466737"><ele>454.0</ele><time>2026-04-11T14:04:19.955Z</time></trkpt><trkpt lat="43.9926895" lon="11.8465686"><ele>455.00000000000006</ele><time>2026-04-11T14:16:49.952Z</time></trkpt><trkpt lat="43.9926" lon="11.8464943"><ele>456.0</ele><time>2026-04-11T14:16:51.954Z</time></trkpt><trkpt lat="43.9925289" lon="11.8464435"><ele>457.0</ele><time>2026-04-11T14:16:53.953Z</time></trkpt><trkpt lat="43.9924695" lon="11.8463426"><ele>458.0</ele><time>2026-04-11T14:16:55.953Z</time></trkpt><trkpt lat="43.9924392" lon="11.8462447"><ele>459.00000000000006</ele><time>2026-04-11T14:16:57.952Z</time></trkpt><trkpt lat="43.9923948" lon="11.8461296"><ele>460.0</ele><time>2026-04-11T14:16:59.953Z</time></trkpt><trkpt lat="43.9922825" lon="11.8460065"><ele>456.2857142857142</ele><time>2026-04-11T14:17:01.953Z</time></trkpt><trkpt lat="43.9922359" lon="11.8459451"><ele>452.57142857142856</ele><time>2026-04-11T14:17:03.952Z</time></trkpt><trkpt lat="43.9921789" lon="11.8458895"><ele>448.85714285714283</ele><time>2026-04-11T14:17:08.952Z</time></trkpt><trkpt lat="43.9921248" lon="11.8458442"><ele>445.1428571428571</ele><time>2026-04-11T14:17:19.953Z</time></trkpt><trkpt lat="43.9920616" lon="11.8458137"><ele>441.42857142857144</ele><time>2026-04-11T14:17:21.953Z</time></trkpt><trkpt lat="43.9919816" lon="11.8458"><ele>437.7142857142857</ele><time>2026-04-11T14:17:24.953Z</time></trkpt><trkpt lat="43.9919074" lon="11.8458154"><ele>434.0</ele><time>2026-04-11T14:17:26.954Z</time></trkpt><trkpt lat="43.9918203" lon="11.8458206"><ele>433.99999999999994</ele><time>2026-04-11T14:17:29.953Z</time></trkpt><trkpt lat="43.9917512" lon="11.8458187"><ele>434.0</ele><time>2026-04-11T14:19:15.951Z</time></trkpt><trkpt lat="43.9916605" lon="11.8458084"><ele>434.0</ele><time>2026-04-11T14:19:17.952Z</time></trkpt><trkpt lat="43.9915607" lon="11.8457665"><ele>434.0</ele><time>2026-04-11T14:19:19.952Z</time></trkpt><trkpt lat="43.9914965" lon="11.8456889"><ele>433.99999999999994</ele><time>2026-04-11T14:19:22.952Z</time></trkpt><trkpt lat="43.9914566" lon="11.8455774"><ele>434.0</ele><time>2026-04-11T14:19:24.951Z</time></trkpt><trkpt lat="43.9914202" lon="11.8455028"><ele>436.25</ele><time>2026-04-11T14:19:25.952Z</time></trkpt><trkpt lat="43.9913658" lon="11.845332"><ele>438.5</ele><time>2026-04-11T14:19:27.952Z</time></trkpt><trkpt lat="43.9913299" lon="11.845174"><ele>440.75</ele><time>2026-04-11T14:19:29.951Z</time></trkpt><trkpt lat="43.9912962" lon="11.845012"><ele>443.0</ele><time>2026-04-11T14:19:31.953Z</time></trkpt><trkpt lat="43.9912609" lon="11.8449063"><ele>442.99999999999994</ele><time>2026-04-11T14:19:33.951Z</time></trkpt><trkpt lat="43.9912034" lon="11.8448233"><ele>443.0</ele><time>2026-04-11T14:19:35.951Z</time></trkpt><trkpt lat="43.9911142" lon="11.8447571"><ele>443.0</ele><time>2026-04-11T14:19:39.951Z</time></trkpt><trkpt lat="43.9910421" lon="11.8446999"><ele>443.0</ele><time>2026-04-11T14:19:41.952Z</time></trkpt><trkpt lat="43.990967" lon="11.8446463"><ele>442.99999999999994</ele><time>2026-04-11T14:19:43.951Z</time></trkpt><trkpt lat="43.9908827" lon="11.8446028"><ele>443.0</ele><time>2026-04-11T14:19:45.951Z</time></trkpt><trkpt lat="43.9908148" lon="11.8445596"><ele>445.16666666666663</ele><time>2026-04-11T14:19:47.951Z</time></trkpt><trkpt lat="43.9907576" lon="11.8445221"><ele>447.3333333333333</ele><time>2026-04-11T14:19:49.951Z</time></trkpt><trkpt lat="43.9906808" lon="11.8444525"><ele>449.5</ele><time>2026-04-11T14:19:51.952Z</time></trkpt><trkpt lat="43.9906057" lon="11.8443883"><ele>451.66666666666663</ele><time>2026-04-11T14:19:53.951Z</time></trkpt><trkpt lat="43.9905397" lon="11.8443187"><ele>453.8333333333333</ele><time>2026-04-11T14:19:55.951Z</time></trkpt><trkpt lat="43.9904877" lon="11.8442457"><ele>456.0</ele><time>2026-04-11T14:19:58.952Z</time></trkpt><trkpt lat="43.9904375" lon="11.8441817"><ele>456.0</ele><time>2026-04-11T14:20:02.952Z</time></trkpt><trkpt lat="43.9903742" lon="11.8441138"><ele>455.99999999999994</ele><time>2026-04-11T14:20:22.952Z</time></trkpt><trkpt lat="43.9903225" lon="11.8440575"><ele>456.0</ele><time>2026-04-11T14:20:27.952Z</time></trkpt><trkpt lat="43.9902698" lon="11.8440081"><ele>456.0</ele><time>2026-04-11T14:20:31.951Z</time></trkpt><trkpt lat="43.9902208" lon="11.8439472"><ele>455.99999999999994</ele><time>2026-04-11T14:21:09.952Z</time></trkpt><trkpt lat="43.9901547" lon="11.8438808"><ele>456.0</ele><time>2026-04-11T14:21:12.951Z</time></trkpt><trkpt lat="43.9900904" lon="11.8438167"><ele>456.0</ele><time>2026-04-11T14:21:15.951Z</time></trkpt><trkpt lat="43.9900173" lon="11.8438246"><ele>457.6666666666667</ele><time>2026-04-11T14:21:18.952Z</time></trkpt><trkpt lat="43.9899479" lon="11.8438567"><ele>459.33333333333337</ele><time>2026-04-11T14:21:20.951Z</time></trkpt><trkpt lat="43.9898634" lon="11.843864"><ele>461.0</ele><time>2026-04-11T14:21:23.952Z</time></trkpt><trkpt lat="43.989805" lon="11.8439247"><ele>462.6666666666667</ele><time>2026-04-11T14:21:26.952Z</time></trkpt><trkpt lat="43.9897345" lon="11.8440203"><ele>464.33333333333337</ele><time>2026-04-11T14:21:29.951Z</time></trkpt><trkpt lat="43.989663" lon="11.8441195"><ele>466.0</ele><time>2026-04-11T14:21:31.951Z</time></trkpt><trkpt lat="43.9895818" lon="11.8441992"><ele>466.00000000000006</ele><time>2026-04-11T14:21:33.952Z</time></trkpt><trkpt lat="43.9895007" lon="11.8442583"><ele>466.0</ele><time>2026-04-11T14:21:35.952Z</time></trkpt><trkpt lat="43.9894429" lon="11.8441695"><ele>466.0</ele><time>2026-04-11T14:21:47.952Z</time></trkpt><trkpt lat="43.9894029" lon="11.8440826"><ele>466.0</ele><time>2026-04-11T14:21:49.952Z</time></trkpt><trkpt lat="43.989417" lon="11.8439775"><ele>466.00000000000006</ele><time>2026-04-11T14:21:51.953Z</time></trkpt><trkpt lat="43.9894613" lon="11.8438956"><ele>466.0</ele><time>2026-04-11T14:21:53.952Z</time></trkpt><trkpt lat="43.9894663" lon="11.843791"><ele>466.00000000000006</ele><time>2026-04-11T14:21:55.951Z</time></trkpt><trkpt lat="43.9894311" lon="11.8436979"><ele>466.0</ele><time>2026-04-11T14:21:57.951Z</time></trkpt><trkpt lat="43.9893704" lon="11.8436334"><ele>466.0</ele><time>2026-04-11T14:21:59.951Z</time></trkpt><trkpt lat="43.989283" lon="11.8435744"><ele>466.0</ele><time>2026-04-11T14:22:01.952Z</time></trkpt><trkpt lat="43.9892005" lon="11.8435366"><ele>466.00000000000006</ele><time>2026-04-11T14:22:03.952Z</time></trkpt><trkpt lat="43.9891664" lon="11.8434453"><ele>466.0</ele><time>2026-04-11T14:22:05.951Z</time></trkpt><trkpt lat="43.9891328" lon="11.8433611"><ele>463.50000000000006</ele><time>2026-04-11T14:22:07.952Z</time></trkpt><trkpt lat="43.9890857" lon="11.8432839"><ele>461.0</ele><time>2026-04-11T14:22:09.951Z</time></trkpt><trkpt lat="43.9890258" lon="11.8431974"><ele>458.5</ele><time>2026-04-11T14:22:11.952Z</time></trkpt><trkpt lat="43.9889727" lon="11.843147"><ele>456.0</ele><time>2026-04-11T14:22:12.951Z</time></trkpt><trkpt lat="43.9889019" lon="11.8430657"><ele>453.50000000000006</ele><time>2026-04-11T14:22:14.951Z</time></trkpt><trkpt lat="43.9887958" lon="11.8429745"><ele>451.0</ele><time>2026-04-11T14:22:16.952Z</time></trkpt><trkpt lat="43.9887285" lon="11.8429155"><ele>451.0</ele><time>2026-04-11T14:22:18.952Z</time></trkpt><trkpt lat="43.9886773" lon="11.8428414"><ele>451.0</ele><time>2026-04-11T14:22:20.952Z</time></trkpt><trkpt lat="43.9885996" lon="11.8427279"><ele>451.0</ele><time>2026-04-11T14:22:22.952Z</time></trkpt><trkpt lat="43.9885133" lon="11.8426487"><ele>451.0</ele><time>2026-04-11T14:22:24.951Z</time></trkpt><trkpt lat="43.9884089" lon="11.8425712"><ele>451.0</ele><time>2026-04-11T14:22:26.952Z</time></trkpt><trkpt lat="43.9883441" lon="11.8425395"><ele>449.83333333333337</ele><time>2026-04-11T14:22:29.952Z</time></trkpt><trkpt lat="43.9883042" lon="11.8424595"><ele>448.6666666666667</ele><time>2026-04-11T14:22:32.951Z</time></trkpt><trkpt lat="43.9882825" lon="11.8423362"><ele>447.5</ele><time>2026-04-11T14:22:35.952Z</time></trkpt><trkpt lat="43.988305" lon="11.8422365"><ele>446.33333333333337</ele><time>2026-04-11T14:22:38.951Z</time></trkpt><trkpt lat="43.9883713" lon="11.8421746"><ele>445.1666666666667</ele><time>2026-04-11T14:22:41.951Z</time></trkpt><trkpt lat="43.9884372" lon="11.8421128"><ele>444.0</ele><time>2026-04-11T14:22:45.951Z</time></trkpt><trkpt lat="43.9885012" lon="11.8420863"><ele>442.0</ele><time>2026-04-11T14:22:49.951Z</time></trkpt><trkpt lat="43.9885736" lon="11.8420397"><ele>440.0</ele><time>2026-04-11T14:22:53.951Z</time></trkpt><trkpt lat="43.9886545" lon="11.841978"><ele>438.0</ele><time>2026-04-11T14:22:56.952Z</time></trkpt><trkpt lat="43.9887187" lon="11.8419731"><ele>436.0</ele><time>2026-04-11T14:22:58.952Z</time></trkpt><trkpt lat="43.9887959" lon="11.8420024"><ele>434.0</ele><time>2026-04-11T14:23:01.951Z</time></trkpt><trkpt lat="43.9888555" lon="11.8420553"><ele>432.0</ele><time>2026-04-11T14:23:03.952Z</time></trkpt><trkpt lat="43.9889308" lon="11.8421163"><ele>432.0</ele><time>2026-04-11T14:23:05.951Z</time></trkpt><trkpt lat="43.9890227" lon="11.8421308"><ele>432.0</ele><time>2026-04-11T14:23:07.951Z</time></trkpt><trkpt lat="43.9891122" lon="11.8421071"><ele>432.0</ele><time>2026-04-11T14:23:09.952Z</time></trkpt><trkpt lat="43.9891753" lon="11.8420915"><ele>432.0</ele><time>2026-04-11T14:23:11.951Z</time></trkpt><trkpt lat="43.9892447" lon="11.8420784"><ele>432.0</ele><time>2026-04-11T14:23:14.951Z</time></trkpt><trkpt lat="43.9892447" lon="11.8419761"><ele>432.0</ele><time>2026-04-11T14:23:40.951Z</time></trkpt><trkpt lat="43.9891831" lon="11.8418858"><ele>432.57142857142856</ele><time>2026-04-11T14:23:43.951Z</time></trkpt><trkpt lat="43.9891647" lon="11.8417918"><ele>433.1428571428571</ele><time>2026-04-11T14:23:46.95Z</time></trkpt><trkpt lat="43.9891663" lon="11.8416906"><ele>433.7142857142857</ele><time>2026-04-11T14:23:49.95Z</time></trkpt><trkpt lat="43.9891996" lon="11.8416132"><ele>434.2857142857143</ele><time>2026-04-11T14:23:54.951Z</time></trkpt><trkpt lat="43.9892251" lon="11.8415306"><ele>434.8571428571429</ele><time>2026-04-11T14:23:58.951Z</time></trkpt><trkpt lat="43.9892593" lon="11.8414555"><ele>435.42857142857144</ele><time>2026-04-11T14:25:26.951Z</time></trkpt><trkpt lat="43.9893439" lon="11.8413914"><ele>436.0</ele><time>2026-04-11T14:25:31.951Z</time></trkpt><trkpt lat="43.9893993" lon="11.8412906"><ele>434.8571428571429</ele><time>2026-04-11T14:25:34.95Z</time></trkpt><trkpt lat="43.9894354" lon="11.8412154"><ele>433.7142857142857</ele><time>2026-04-11T14:25:37.95Z</time></trkpt><trkpt lat="43.9894968" lon="11.8411403"><ele>432.57142857142856</ele><time>2026-04-11T14:25:41.951Z</time></trkpt><trkpt lat="43.9895304" lon="11.8410655"><ele>431.42857142857144</ele><time>2026-04-11T14:25:44.952Z</time></trkpt><trkpt lat="43.9895644" lon="11.8409651"><ele>430.2857142857143</ele><time>2026-04-11T14:25:50.951Z</time></trkpt><trkpt lat="43.9895818" lon="11.8408759"><ele>429.14285714285717</ele><time>2026-04-11T14:25:58.95Z</time></trkpt><trkpt lat="43.9895741" lon="11.8407876"><ele>428.0</ele><time>2026-04-11T14:27:12.95Z</time></trkpt><trkpt lat="43.9895107" lon="11.8407545"><ele>431.0</ele><time>2026-04-11T14:27:21.951Z</time></trkpt><trkpt lat="43.9894654" lon="11.8406922"><ele>434.0</ele><time>2026-04-11T14:27:31.951Z</time></trkpt><trkpt lat="43.9893834" lon="11.8406709"><ele>437.0</ele><time>2026-04-11T14:27:44.95Z</time></trkpt><trkpt lat="43.9893168" lon="11.8406355"><ele>440.0</ele><time>2026-04-11T14:27:48.951Z</time></trkpt><trkpt lat="43.9892476" lon="11.8406035"><ele>442.99999999999994</ele><time>2026-04-11T14:27:53.95Z</time></trkpt><trkpt lat="43.9891766" lon="11.8405814"><ele>446.0</ele><time>2026-04-11T14:27:58.95Z</time></trkpt><trkpt lat="43.9891167" lon="11.8405393"><ele>449.0</ele><time>2026-04-11T14:28:05.951Z</time></trkpt><trkpt lat="43.989075" lon="11.8404707"><ele>451.16666666666663</ele><time>2026-04-11T14:28:18.95Z</time></trkpt><trkpt lat="43.9890423" lon="11.8403871"><ele>453.3333333333333</ele><time>2026-04-11T14:28:22.95Z</time></trkpt><trkpt lat="43.9890031" lon="11.8402947"><ele>455.5</ele><time>2026-04-11T14:28:27.949Z</time></trkpt><trkpt lat="43.989023" lon="11.8402065"><ele>457.66666666666663</ele><time>2026-04-11T14:28:31.949Z</time></trkpt><trkpt lat="43.9891076" lon="11.8401949"><ele>459.8333333333333</ele><time>2026-04-11T14:28:34.95Z</time></trkpt><trkpt lat="43.9891691" lon="11.8401323"><ele>462.0</ele><time>2026-04-11T14:28:37.949Z</time></trkpt><trkpt lat="43.9892346" lon="11.8400656"><ele>465.0</ele><time>2026-04-11T14:28:40.949Z</time></trkpt><trkpt lat="43.9892973" lon="11.8399666"><ele>468.0</ele><time>2026-04-11T14:28:43.949Z</time></trkpt><trkpt lat="43.9893571" lon="11.8398767"><ele>471.0</ele><time>2026-04-11T14:28:46.949Z</time></trkpt><trkpt lat="43.9893718" lon="11.8397649"><ele>474.0</ele><time>2026-04-11T14:28:49.95Z</time></trkpt><trkpt lat="43.9894291" lon="11.8396605"><ele>477.0</ele><time>2026-04-11T14:28:52.949Z</time></trkpt><trkpt lat="43.9894301" lon="11.8395614"><ele>480.0</ele><time>2026-04-11T14:28:56.95Z</time></trkpt><trkpt lat="43.9893571" lon="11.8395716"><ele>480.0</ele><time>2026-04-11T14:56:56.944Z</time></trkpt><trkpt lat="43.9892659" lon="11.8395978"><ele>480.0</ele><time>2026-04-11T14:56:59.944Z</time></trkpt><trkpt lat="43.9891853" lon="11.8396265"><ele>480.0</ele><time>2026-04-11T14:57:02.945Z</time></trkpt><trkpt lat="43.9890946" lon="11.8396082"><ele>480.0</ele><time>2026-04-11T14:57:04.944Z</time></trkpt><trkpt lat="43.9890027" lon="11.8395421"><ele>480.0</ele><time>2026-04-11T14:57:06.944Z</time></trkpt><trkpt lat="43.9889179" lon="11.8394247"><ele>480.8333333333333</ele><time>2026-04-11T14:57:08.944Z</time></trkpt><trkpt lat="43.988871" lon="11.839351"><ele>481.66666666666663</ele><time>2026-04-11T14:57:09.944Z</time></trkpt><trkpt lat="43.9888165" lon="11.8392715"><ele>482.5</ele><time>2026-04-11T14:57:10.944Z</time></trkpt><trkpt lat="43.9887652" lon="11.8391866"><ele>483.3333333333333</ele><time>2026-04-11T14:57:11.945Z</time></trkpt><trkpt lat="43.9887041" lon="11.8391071"><ele>484.16666666666663</ele><time>2026-04-11T14:57:12.944Z</time></trkpt><trkpt lat="43.9886392" lon="11.8390245"><ele>485.0</ele><time>2026-04-11T14:57:13.944Z</time></trkpt><trkpt lat="43.9885695" lon="11.8389448"><ele>485.3333333333333</ele><time>2026-04-11T14:57:14.945Z</time></trkpt><trkpt lat="43.9884958" lon="11.8388681"><ele>485.66666666666663</ele><time>2026-04-11T14:57:15.945Z</time></trkpt><trkpt lat="43.988421" lon="11.8387982"><ele>486.0</ele><time>2026-04-11T14:57:16.944Z</time></trkpt><trkpt lat="43.9883452" lon="11.8387375"><ele>486.33333333333337</ele><time>2026-04-11T14:57:17.944Z</time></trkpt><trkpt lat="43.9882702" lon="11.8386837"><ele>486.6666666666667</ele><time>2026-04-11T14:57:18.945Z</time></trkpt><trkpt lat="43.9881972" lon="11.8386246"><ele>487.0</ele><time>2026-04-11T14:57:19.944Z</time></trkpt><trkpt lat="43.9881367" lon="11.8385548"><ele>487.00000000000006</ele><time>2026-04-11T14:57:20.944Z</time></trkpt><trkpt lat="43.9880838" lon="11.8384751"><ele>487.0</ele><time>2026-04-11T14:57:21.944Z</time></trkpt><trkpt lat="43.9880318" lon="11.8383945"><ele>487.0</ele><time>2026-04-11T14:57:22.944Z</time></trkpt><trkpt lat="43.9879635" lon="11.8383365"><ele>487.0</ele><time>2026-04-11T14:57:23.945Z</time></trkpt><trkpt lat="43.9878915" lon="11.8382938"><ele>487.00000000000006</ele><time>2026-04-11T14:57:24.944Z</time></trkpt><trkpt lat="43.9878088" lon="11.8382663"><ele>487.0</ele><time>2026-04-11T14:57:25.945Z</time></trkpt><trkpt lat="43.9877257" lon="11.8382367"><ele>488.1666666666667</ele><time>2026-04-11T14:57:26.945Z</time></trkpt><trkpt lat="43.9876439" lon="11.8381942"><ele>489.33333333333337</ele><time>2026-04-11T14:57:27.946Z</time></trkpt><trkpt lat="43.9875618" lon="11.8381474"><ele>490.5</ele><time>2026-04-11T14:57:28.946Z</time></trkpt><trkpt lat="43.9874829" lon="11.8381053"><ele>491.66666666666663</ele><time>2026-04-11T14:57:29.944Z</time></trkpt><trkpt lat="43.9874061" lon="11.8380859"><ele>492.8333333333333</ele><time>2026-04-11T14:57:30.945Z</time></trkpt><trkpt lat="43.987333" lon="11.8380766"><ele>494.0</ele><time>2026-04-11T14:57:31.946Z</time></trkpt><trkpt lat="43.9872628" lon="11.8380641"><ele>493.99999999999994</ele><time>2026-04-11T14:57:32.944Z</time></trkpt><trkpt lat="43.9871969" lon="11.8380342"><ele>494.0</ele><time>2026-04-11T14:57:33.944Z</time></trkpt><trkpt lat="43.9871398" lon="11.8379955"><ele>494.0</ele><time>2026-04-11T14:57:34.945Z</time></trkpt><trkpt lat="43.9870987" lon="11.8378647"><ele>494.0</ele><time>2026-04-11T14:57:36.944Z</time></trkpt><trkpt lat="43.9871564" lon="11.8377132"><ele>493.99999999999994</ele><time>2026-04-11T14:57:38.944Z</time></trkpt><trkpt lat="43.9871949" lon="11.8376365"><ele>494.0</ele><time>2026-04-11T14:57:39.943Z</time></trkpt><trkpt lat="43.9872228" lon="11.8375507"><ele>497.2</ele><time>2026-04-11T14:57:40.945Z</time></trkpt><trkpt lat="43.9872205" lon="11.8373907"><ele>500.4</ele><time>2026-04-11T14:57:42.945Z</time></trkpt><trkpt lat="43.987129" lon="11.8372721"><ele>503.6</ele><time>2026-04-11T14:57:44.945Z</time></trkpt><trkpt lat="43.9870606" lon="11.8372294"><ele>506.8</ele><time>2026-04-11T14:57:45.946Z</time></trkpt><trkpt lat="43.9869876" lon="11.8371784"><ele>510.0</ele><time>2026-04-11T14:57:46.945Z</time></trkpt><trkpt lat="43.9869188" lon="11.8371116"><ele>510.0</ele><time>2026-04-11T14:57:47.945Z</time></trkpt><trkpt lat="43.9868535" lon="11.8370421"><ele>510.0</ele><time>2026-04-11T14:57:48.944Z</time></trkpt><trkpt lat="43.9867888" lon="11.8369574"><ele>510.0</ele><time>2026-04-11T14:57:49.945Z</time></trkpt><trkpt lat="43.9867366" lon="11.8368592"><ele>510.0</ele><time>2026-04-11T14:57:50.944Z</time></trkpt><trkpt lat="43.9866867" lon="11.8367487"><ele>510.0</ele><time>2026-04-11T14:57:51.945Z</time></trkpt><trkpt lat="43.986632" lon="11.8366399"><ele>510.0</ele><time>2026-04-11T14:57:52.945Z</time></trkpt><trkpt lat="43.9865665" lon="11.8365366"><ele>507.2</ele><time>2026-04-11T14:57:53.944Z</time></trkpt><trkpt lat="43.9864954" lon="11.8364421"><ele>504.4</ele><time>2026-04-11T14:57:54.945Z</time></trkpt><trkpt lat="43.9864229" lon="11.8363507"><ele>501.6</ele><time>2026-04-11T14:57:55.944Z</time></trkpt><trkpt lat="43.9863529" lon="11.836258"><ele>498.8</ele><time>2026-04-11T14:57:56.944Z</time></trkpt><trkpt lat="43.9862897" lon="11.8361483"><ele>496.0</ele><time>2026-04-11T14:57:57.944Z</time></trkpt><trkpt lat="43.9862247" lon="11.8360439"><ele>499.20000000000005</ele><time>2026-04-11T14:57:58.945Z</time></trkpt><trkpt lat="43.9861619" lon="11.8359303"><ele>502.40000000000003</ele><time>2026-04-11T14:57:59.945Z</time></trkpt><trkpt lat="43.9861013" lon="11.8358185"><ele>505.6</ele><time>2026-04-11T14:58:00.944Z</time></trkpt><trkpt lat="43.9860406" lon="11.8357113"><ele>508.8</ele><time>2026-04-11T14:58:01.944Z</time></trkpt><trkpt lat="43.9859857" lon="11.8356044"><ele>512.0</ele><time>2026-04-11T14:58:02.944Z</time></trkpt><trkpt lat="43.9859299" lon="11.8354985"><ele>511.99999999999994</ele><time>2026-04-11T14:58:03.945Z</time></trkpt><trkpt lat="43.9858706" lon="11.8354018"><ele>512.0</ele><time>2026-04-11T14:58:04.945Z</time></trkpt><trkpt lat="43.9858075" lon="11.835327"><ele>512.0</ele><time>2026-04-11T14:58:05.944Z</time></trkpt><trkpt lat="43.9857337" lon="11.8352836"><ele>512.0</ele><time>2026-04-11T14:58:06.944Z</time></trkpt><trkpt lat="43.9856575" lon="11.8352739"><ele>511.99999999999994</ele><time>2026-04-11T14:58:07.944Z</time></trkpt><trkpt lat="43.9855861" lon="11.8353067"><ele>512.0</ele><time>2026-04-11T14:58:08.944Z</time></trkpt><trkpt lat="43.9855204" lon="11.8353798"><ele>505.0</ele><time>2026-04-11T14:58:09.944Z</time></trkpt><trkpt lat="43.9854578" lon="11.8354762"><ele>498.0</ele><time>2026-04-11T14:58:10.945Z</time></trkpt><trkpt lat="43.9854054" lon="11.8356052"><ele>491.0</ele><time>2026-04-11T14:58:11.945Z</time></trkpt><trkpt lat="43.9853875" lon="11.835768"><ele>484.0</ele><time>2026-04-11T14:58:12.945Z</time></trkpt><trkpt lat="43.9853784" lon="11.8359649"><ele>482.5</ele><time>2026-04-11T14:58:13.944Z</time></trkpt><trkpt lat="43.9853872" lon="11.8361767"><ele>481.0</ele><time>2026-04-11T14:58:14.945Z</time></trkpt><trkpt lat="43.9854071" lon="11.8363525"><ele>479.5</ele><time>2026-04-11T14:58:15.944Z</time></trkpt><trkpt lat="43.9854209" lon="11.8364981"><ele>478.0</ele><time>2026-04-11T14:58:16.944Z</time></trkpt><trkpt lat="43.9854103" lon="11.8366245"><ele>478.0</ele><time>2026-04-11T14:58:17.945Z</time></trkpt><trkpt lat="43.9853792" lon="11.8367437"><ele>477.99999999999994</ele><time>2026-04-11T14:58:18.944Z</time></trkpt><trkpt lat="43.9853273" lon="11.836842"><ele>477.99999999999994</ele><time>2026-04-11T14:58:19.944Z</time></trkpt><trkpt lat="43.9852296" lon="11.8369465"><ele>478.0</ele><time>2026-04-11T14:58:20.944Z</time></trkpt><trkpt lat="43.9851425" lon="11.8370189"><ele>478.0</ele><time>2026-04-11T14:58:21.945Z</time></trkpt><trkpt lat="43.9850595" lon="11.8370838"><ele>478.79999999999995</ele><time>2026-04-11T14:58:22.944Z</time></trkpt><trkpt lat="43.9849793" lon="11.8371535"><ele>479.59999999999997</ele><time>2026-04-11T14:58:23.944Z</time></trkpt><trkpt lat="43.984884" lon="11.837219"><ele>480.40000000000003</ele><time>2026-04-11T14:58:24.945Z</time></trkpt><trkpt lat="43.984781" lon="11.8372913"><ele>481.20000000000005</ele><time>2026-04-11T14:58:25.944Z</time></trkpt><trkpt lat="43.9846865" lon="11.8373767"><ele>482.0</ele><time>2026-04-11T14:58:26.944Z</time></trkpt><trkpt lat="43.9846042" lon="11.8374495"><ele>481.99999999999994</ele><time>2026-04-11T14:58:27.945Z</time></trkpt><trkpt lat="43.9845311" lon="11.8375073"><ele>482.0</ele><time>2026-04-11T14:58:28.945Z</time></trkpt><trkpt lat="43.9844666" lon="11.8375488"><ele>482.0</ele><time>2026-04-11T14:58:29.945Z</time></trkpt><trkpt lat="43.984392" lon="11.8375555"><ele>482.0</ele><time>2026-04-11T14:58:30.945Z</time></trkpt><trkpt lat="43.9843065" lon="11.8375281"><ele>481.99999999999994</ele><time>2026-04-11T14:58:31.944Z</time></trkpt><trkpt lat="43.9842205" lon="11.8374849"><ele>482.0</ele><time>2026-04-11T14:58:32.945Z</time></trkpt><trkpt lat="43.9841597" lon="11.8373948"><ele>484.8</ele><time>2026-04-11T14:58:33.944Z</time></trkpt><trkpt lat="43.9841014" lon="11.8373162"><ele>487.6</ele><time>2026-04-11T14:58:34.944Z</time></trkpt><trkpt lat="43.9840464" lon="11.8371951"><ele>490.40000000000003</ele><time>2026-04-11T14:58:35.944Z</time></trkpt><trkpt lat="43.9840054" lon="11.8370512"><ele>493.20000000000005</ele><time>2026-04-11T14:58:36.945Z</time></trkpt><trkpt lat="43.9839685" lon="11.8368763"><ele>496.0</ele><time>2026-04-11T14:58:37.944Z</time></trkpt><trkpt lat="43.9839221" lon="11.836676"><ele>502.0</ele><time>2026-04-11T14:58:38.944Z</time></trkpt><trkpt lat="43.9838725" lon="11.8364555"><ele>508.0</ele><time>2026-04-11T14:58:39.944Z</time></trkpt><trkpt lat="43.9838191" lon="11.8362102"><ele>514.0</ele><time>2026-04-11T14:58:40.944Z</time></trkpt><trkpt lat="43.9837576" lon="11.8359513"><ele>517.0</ele><time>2026-04-11T14:58:41.944Z</time></trkpt><trkpt lat="43.9837019" lon="11.8357005"><ele>520.0</ele><time>2026-04-11T14:58:42.944Z</time></trkpt><trkpt lat="43.983647" lon="11.835467"><ele>523.0</ele><time>2026-04-11T14:58:43.945Z</time></trkpt><trkpt lat="43.9835847" lon="11.8352267"><ele>526.3333333333334</ele><time>2026-04-11T14:58:44.945Z</time></trkpt><trkpt lat="43.9835105" lon="11.8349642"><ele>529.6666666666666</ele><time>2026-04-11T14:58:45.944Z</time></trkpt><trkpt lat="43.9834401" lon="11.8347497"><ele>533.0</ele><time>2026-04-11T14:58:46.944Z</time></trkpt><trkpt lat="43.9833724" lon="11.8345544"><ele>533.25</ele><time>2026-04-11T14:58:47.944Z</time></trkpt><trkpt lat="43.9833069" lon="11.8343857"><ele>533.5</ele><time>2026-04-11T14:58:48.945Z</time></trkpt><trkpt lat="43.9832329" lon="11.8342409"><ele>533.75</ele><time>2026-04-11T14:58:49.944Z</time></trkpt><trkpt lat="43.9831517" lon="11.8341427"><ele>534.0</ele><time>2026-04-11T14:58:50.945Z</time></trkpt><trkpt lat="43.983064" lon="11.8340626"><ele>534.0</ele><time>2026-04-11T14:58:51.944Z</time></trkpt><trkpt lat="43.9829809" lon="11.8339826"><ele>534.0</ele><time>2026-04-11T14:58:52.944Z</time></trkpt><trkpt lat="43.9829303" lon="11.8339083"><ele>534.0</ele><time>2026-04-11T14:58:53.944Z</time></trkpt><trkpt lat="43.9829365" lon="11.8337657"><ele>534.0</ele><time>2026-04-11T14:58:55.945Z</time></trkpt><trkpt lat="43.9830517" lon="11.8337355"><ele>534.0</ele><time>2026-04-11T14:58:57.945Z</time></trkpt><trkpt lat="43.9831282" lon="11.8337723"><ele>534.0</ele><time>2026-04-11T14:58:58.944Z</time></trkpt><trkpt lat="43.9832203" lon="11.8338089"><ele>534.0</ele><time>2026-04-11T14:58:59.945Z</time></trkpt><trkpt lat="43.9833382" lon="11.8338504"><ele>534.0</ele><time>2026-04-11T14:59:00.946Z</time></trkpt><trkpt lat="43.9834852" lon="11.8339008"><ele>534.0</ele><time>2026-04-11T14:59:01.946Z</time></trkpt><trkpt lat="43.9836411" lon="11.8339497"><ele>536.5</ele><time>2026-04-11T14:59:02.945Z</time></trkpt><trkpt lat="43.9837688" lon="11.8339735"><ele>539.0</ele><time>2026-04-11T14:59:03.945Z</time></trkpt><trkpt lat="43.9838959" lon="11.8339871"><ele>541.5</ele><time>2026-04-11T14:59:04.946Z</time></trkpt><trkpt lat="43.984026" lon="11.833981"><ele>544.0</ele><time>2026-04-11T14:59:05.946Z</time></trkpt><trkpt lat="43.9841545" lon="11.8339458"><ele>541.6666666666667</ele><time>2026-04-11T14:59:06.945Z</time></trkpt><trkpt lat="43.9842874" lon="11.8338776"><ele>539.3333333333334</ele><time>2026-04-11T14:59:07.944Z</time></trkpt><trkpt lat="43.9844194" lon="11.8337673"><ele>537.0</ele><time>2026-04-11T14:59:08.944Z</time></trkpt><trkpt lat="43.9845539" lon="11.833641"><ele>537.0</ele><time>2026-04-11T14:59:09.944Z</time></trkpt><trkpt lat="43.984663" lon="11.8335487"><ele>537.0</ele><time>2026-04-11T14:59:10.945Z</time></trkpt><trkpt lat="43.984755" lon="11.8334741"><ele>537.0</ele><time>2026-04-11T14:59:11.945Z</time></trkpt><trkpt lat="43.9848308" lon="11.8333843"><ele>537.0</ele><time>2026-04-11T14:59:12.944Z</time></trkpt><trkpt lat="43.98488" lon="11.8332878"><ele>537.0</ele><time>2026-04-11T14:59:13.945Z</time></trkpt><trkpt lat="43.9848977" lon="11.8331962"><ele>540.0</ele><time>2026-04-11T14:59:14.945Z</time></trkpt><trkpt lat="43.9848856" lon="11.8330998"><ele>543.0</ele><time>2026-04-11T14:59:15.945Z</time></trkpt><trkpt lat="43.9847799" lon="11.8330093"><ele>546.0</ele><time>2026-04-11T14:59:17.944Z</time></trkpt><trkpt lat="43.9847009" lon="11.8330148"><ele>549.0</ele><time>2026-04-11T14:59:18.944Z</time></trkpt><trkpt lat="43.984603" lon="11.8330561"><ele>552.0</ele><time>2026-04-11T14:59:19.945Z</time></trkpt><trkpt lat="43.9844803" lon="11.8331134"><ele>552.0</ele><time>2026-04-11T14:59:20.945Z</time></trkpt><trkpt lat="43.9843405" lon="11.8331765"><ele>552.0</ele><time>2026-04-11T14:59:21.945Z</time></trkpt><trkpt lat="43.9842225" lon="11.8332299"><ele>552.0</ele><time>2026-04-11T14:59:22.945Z</time></trkpt><trkpt lat="43.9841175" lon="11.8332683"><ele>552.0</ele><time>2026-04-11T14:59:23.944Z</time></trkpt><trkpt lat="43.9840261" lon="11.8332734"><ele>554.25</ele><time>2026-04-11T14:59:24.944Z</time></trkpt><trkpt lat="43.9839266" lon="11.8332438"><ele>556.5</ele><time>2026-04-11T14:59:25.944Z</time></trkpt><trkpt lat="43.9838237" lon="11.8331725"><ele>558.75</ele><time>2026-04-11T14:59:26.945Z</time></trkpt><trkpt lat="43.983707" lon="11.8330663"><ele>561.0</ele><time>2026-04-11T14:59:27.945Z</time></trkpt><trkpt lat="43.9835722" lon="11.8329362"><ele>561.0</ele><time>2026-04-11T14:59:28.944Z</time></trkpt><trkpt lat="43.9834448" lon="11.83281"><ele>561.0</ele><time>2026-04-11T14:59:29.944Z</time></trkpt><trkpt lat="43.9833319" lon="11.8327054"><ele>561.0</ele><time>2026-04-11T14:59:30.944Z</time></trkpt><trkpt lat="43.9832316" lon="11.8326078"><ele>561.0</ele><time>2026-04-11T14:59:31.944Z</time></trkpt><trkpt lat="43.9831432" lon="11.8324876"><ele>563.4</ele><time>2026-04-11T14:59:32.944Z</time></trkpt><trkpt lat="43.9830625" lon="11.8323617"><ele>565.8</ele><time>2026-04-11T14:59:33.945Z</time></trkpt><trkpt lat="43.9829914" lon="11.8322458"><ele>568.1999999999999</ele><time>2026-04-11T14:59:34.946Z</time></trkpt><trkpt lat="43.9829262" lon="11.8321401"><ele>570.6</ele><time>2026-04-11T14:59:35.944Z</time></trkpt><trkpt lat="43.982862" lon="11.8320544"><ele>573.0</ele><time>2026-04-11T14:59:36.944Z</time></trkpt><trkpt lat="43.9828015" lon="11.8319851"><ele>573.0</ele><time>2026-04-11T14:59:37.945Z</time></trkpt><trkpt lat="43.9827319" lon="11.8319324"><ele>573.0</ele><time>2026-04-11T14:59:38.944Z</time></trkpt><trkpt lat="43.9826597" lon="11.8319022"><ele>573.0</ele><time>2026-04-11T14:59:39.944Z</time></trkpt><trkpt lat="43.9825784" lon="11.8318542"><ele>573.0</ele><time>2026-04-11T14:59:41.944Z</time></trkpt><trkpt lat="43.9825151" lon="11.8318291"><ele>573.0</ele><time>2026-04-11T14:59:59.944Z</time></trkpt><trkpt lat="43.9824485" lon="11.8318423"><ele>573.0</ele><time>2026-04-11T15:00:00.945Z</time></trkpt><trkpt lat="43.9823739" lon="11.8318508"><ele>571.6</ele><time>2026-04-11T15:00:01.944Z</time></trkpt><trkpt lat="43.9822828" lon="11.8318602"><ele>570.1999999999999</ele><time>2026-04-11T15:00:02.945Z</time></trkpt><trkpt lat="43.9821914" lon="11.8318747"><ele>568.8</ele><time>2026-04-11T15:00:03.944Z</time></trkpt><trkpt lat="43.9820996" lon="11.8319027"><ele>567.4</ele><time>2026-04-11T15:00:04.944Z</time></trkpt><trkpt lat="43.9820069" lon="11.8319452"><ele>566.0</ele><time>2026-04-11T15:00:05.944Z</time></trkpt><trkpt lat="43.9819084" lon="11.832001"><ele>566.0</ele><time>2026-04-11T15:00:06.944Z</time></trkpt><trkpt lat="43.9818142" lon="11.8320573"><ele>566.0</ele><time>2026-04-11T15:00:07.944Z</time></trkpt><trkpt lat="43.9817131" lon="11.8320824"><ele>566.0</ele><time>2026-04-11T15:00:08.944Z</time></trkpt><trkpt lat="43.9816089" lon="11.8320942"><ele>566.0</ele><time>2026-04-11T15:00:09.944Z</time></trkpt><trkpt lat="43.9815028" lon="11.8320992"><ele>566.0</ele><time>2026-04-11T15:00:10.944Z</time></trkpt><trkpt lat="43.9814077" lon="11.8320952"><ele>566.3333333333333</ele><time>2026-04-11T15:00:11.944Z</time></trkpt><trkpt lat="43.981323" lon="11.8320677"><ele>566.6666666666666</ele><time>2026-04-11T15:00:12.944Z</time></trkpt><trkpt lat="43.9812437" lon="11.8320096"><ele>567.0</ele><time>2026-04-11T15:00:13.944Z</time></trkpt><trkpt lat="43.9811853" lon="11.8319203"><ele>567.3333333333334</ele><time>2026-04-11T15:00:14.944Z</time></trkpt><trkpt lat="43.981139" lon="11.8318056"><ele>567.6666666666667</ele><time>2026-04-11T15:00:15.944Z</time></trkpt><trkpt lat="43.9811165" lon="11.8316935"><ele>568.0</ele><time>2026-04-11T15:00:16.945Z</time></trkpt><trkpt lat="43.9811027" lon="11.831572"><ele>572.8333333333334</ele><time>2026-04-11T15:00:17.945Z</time></trkpt><trkpt lat="43.9810937" lon="11.8314475"><ele>577.6666666666667</ele><time>2026-04-11T15:00:18.945Z</time></trkpt><trkpt lat="43.9810823" lon="11.8313275"><ele>582.5</ele><time>2026-04-11T15:00:19.945Z</time></trkpt><trkpt lat="43.9810656" lon="11.8312087"><ele>587.3333333333334</ele><time>2026-04-11T15:00:20.944Z</time></trkpt><trkpt lat="43.9810326" lon="11.8311076"><ele>592.1666666666666</ele><time>2026-04-11T15:00:21.945Z</time></trkpt><trkpt lat="43.9809787" lon="11.8310228"><ele>597.0</ele><time>2026-04-11T15:00:22.945Z</time></trkpt><trkpt lat="43.9808933" lon="11.8309737"><ele>598.5</ele><time>2026-04-11T15:00:23.945Z</time></trkpt><trkpt lat="43.9807821" lon="11.8309495"><ele>600.0</ele><time>2026-04-11T15:00:24.944Z</time></trkpt><trkpt lat="43.9806541" lon="11.830901"><ele>601.5</ele><time>2026-04-11T15:00:25.945Z</time></trkpt><trkpt lat="43.9805424" lon="11.8308268"><ele>603.0</ele><time>2026-04-11T15:00:26.945Z</time></trkpt><trkpt lat="43.9804189" lon="11.8307724"><ele>603.0</ele><time>2026-04-11T15:00:27.944Z</time></trkpt><trkpt lat="43.9802955" lon="11.8307543"><ele>603.0</ele><time>2026-04-11T15:00:28.945Z</time></trkpt><trkpt lat="43.9801789" lon="11.8307602"><ele>603.0</ele><time>2026-04-11T15:00:29.944Z</time></trkpt><trkpt lat="43.9800763" lon="11.8307859"><ele>603.0</ele><time>2026-04-11T15:00:30.945Z</time></trkpt><trkpt lat="43.9799831" lon="11.8308039"><ele>603.0</ele><time>2026-04-11T15:00:31.944Z</time></trkpt><trkpt lat="43.9798877" lon="11.8307818"><ele>599.25</ele><time>2026-04-11T15:00:32.944Z</time></trkpt><trkpt lat="43.9797776" lon="11.8307269"><ele>595.5</ele><time>2026-04-11T15:00:33.944Z</time></trkpt><trkpt lat="43.9796522" lon="11.8306392"><ele>591.75</ele><time>2026-04-11T15:00:34.944Z</time></trkpt><trkpt lat="43.9795202" lon="11.8305329"><ele>588.0</ele><time>2026-04-11T15:00:35.945Z</time></trkpt><trkpt lat="43.9793999" lon="11.8304636"><ele>588.0</ele><time>2026-04-11T15:00:36.945Z</time></trkpt><trkpt lat="43.9792734" lon="11.8304195"><ele>588.0</ele><time>2026-04-11T15:00:37.944Z</time></trkpt><trkpt lat="43.9791526" lon="11.8303783"><ele>588.0</ele><time>2026-04-11T15:00:38.945Z</time></trkpt><trkpt lat="43.9790523" lon="11.830334"><ele>588.0</ele><time>2026-04-11T15:00:39.945Z</time></trkpt><trkpt lat="43.9789707" lon="11.8302703"><ele>589.25</ele><time>2026-04-11T15:00:40.945Z</time></trkpt><trkpt lat="43.9789004" lon="11.8301689"><ele>590.5</ele><time>2026-04-11T15:00:41.944Z</time></trkpt><trkpt lat="43.978827" lon="11.8300394"><ele>591.75</ele><time>2026-04-11T15:00:42.945Z</time></trkpt><trkpt lat="43.9787525" lon="11.8298701"><ele>593.0</ele><time>2026-04-11T15:00:43.944Z</time></trkpt><trkpt lat="43.9786731" lon="11.8296806"><ele>593.0</ele><time>2026-04-11T15:00:44.945Z</time></trkpt><trkpt lat="43.9785799" lon="11.8294613"><ele>593.0</ele><time>2026-04-11T15:00:45.945Z</time></trkpt><trkpt lat="43.9784837" lon="11.8292415"><ele>593.0</ele><time>2026-04-11T15:00:46.944Z</time></trkpt><trkpt lat="43.9783853" lon="11.8290204"><ele>591.25</ele><time>2026-04-11T15:00:47.945Z</time></trkpt><trkpt lat="43.9782968" lon="11.8288296"><ele>589.5</ele><time>2026-04-11T15:00:48.945Z</time></trkpt><trkpt lat="43.9782152" lon="11.8286556"><ele>587.75</ele><time>2026-04-11T15:00:49.944Z</time></trkpt><trkpt lat="43.9781551" lon="11.8284908"><ele>586.0</ele><time>2026-04-11T15:00:50.944Z</time></trkpt><trkpt lat="43.9781156" lon="11.8283302"><ele>586.0</ele><time>2026-04-11T15:00:51.944Z</time></trkpt><trkpt lat="43.9781055" lon="11.8281578"><ele>586.0</ele><time>2026-04-11T15:00:52.945Z</time></trkpt><trkpt lat="43.9781164" lon="11.8279883"><ele>586.0</ele><time>2026-04-11T15:00:53.944Z</time></trkpt><trkpt lat="43.9781462" lon="11.827829"><ele>586.0</ele><time>2026-04-11T15:00:54.944Z</time></trkpt><trkpt lat="43.9781732" lon="11.8276783"><ele>586.1666666666667</ele><time>2026-04-11T15:00:55.944Z</time></trkpt><trkpt lat="43.9781985" lon="11.8275458"><ele>586.3333333333334</ele><time>2026-04-11T15:00:56.944Z</time></trkpt><trkpt lat="43.9782164" lon="11.8274199"><ele>586.5</ele><time>2026-04-11T15:00:57.945Z</time></trkpt><trkpt lat="43.9782118" lon="11.8272976"><ele>586.6666666666666</ele><time>2026-04-11T15:00:58.944Z</time></trkpt><trkpt lat="43.9781776" lon="11.8271945"><ele>586.8333333333333</ele><time>2026-04-11T15:00:59.944Z</time></trkpt><trkpt lat="43.9781265" lon="11.8271161"><ele>587.0</ele><time>2026-04-11T15:01:00.945Z</time></trkpt><trkpt lat="43.9780511" lon="11.8270721"><ele>587.0</ele><time>2026-04-11T15:01:01.945Z</time></trkpt><trkpt lat="43.9779724" lon="11.8270504"><ele>587.0</ele><time>2026-04-11T15:01:02.946Z</time></trkpt><trkpt lat="43.9778947" lon="11.8270285"><ele>587.0</ele><time>2026-04-11T15:01:03.944Z</time></trkpt><trkpt lat="43.977811" lon="11.827006"><ele>587.0</ele><time>2026-04-11T15:01:04.945Z</time></trkpt><trkpt lat="43.9777248" lon="11.8269605"><ele>587.0</ele><time>2026-04-11T15:01:05.945Z</time></trkpt><trkpt lat="43.9776537" lon="11.8268879"><ele>587.0</ele><time>2026-04-11T15:01:06.945Z</time></trkpt><trkpt lat="43.9776101" lon="11.8267935"><ele>586.2</ele><time>2026-04-11T15:01:07.945Z</time></trkpt><trkpt lat="43.9775955" lon="11.8266796"><ele>585.4000000000001</ele><time>2026-04-11T15:01:08.945Z</time></trkpt><trkpt lat="43.9775903" lon="11.8265685"><ele>584.5999999999999</ele><time>2026-04-11T15:01:09.946Z</time></trkpt><trkpt lat="43.9775586" lon="11.8264845"><ele>583.8</ele><time>2026-04-11T15:01:10.944Z</time></trkpt><trkpt lat="43.9774661" lon="11.826379"><ele>583.0</ele><time>2026-04-11T15:01:12.945Z</time></trkpt><trkpt lat="43.9772948" lon="11.8264977"><ele>583.0</ele><time>2026-04-11T15:01:14.946Z</time></trkpt><trkpt lat="43.9771548" lon="11.826596"><ele>583.0</ele><time>2026-04-11T15:01:15.944Z</time></trkpt><trkpt lat="43.977069" lon="11.8266476"><ele>583.0</ele><time>2026-04-11T15:01:16.944Z</time></trkpt><trkpt lat="43.9769286" lon="11.826657"><ele>583.0</ele><time>2026-04-11T15:01:17.945Z</time></trkpt><trkpt lat="43.9767983" lon="11.8266089"><ele>583.0</ele><time>2026-04-11T15:01:18.945Z</time></trkpt><trkpt lat="43.9766818" lon="11.8266335"><ele>583.0</ele><time>2026-04-11T15:01:19.944Z</time></trkpt><trkpt lat="43.9765596" lon="11.8267009"><ele>583.0</ele><time>2026-04-11T15:01:20.945Z</time></trkpt><trkpt lat="43.9764445" lon="11.8267443"><ele>583.0</ele><time>2026-04-11T15:01:21.945Z</time></trkpt><trkpt lat="43.9763362" lon="11.8267485"><ele>583.0</ele><time>2026-04-11T15:01:22.945Z</time></trkpt><trkpt lat="43.9762024" lon="11.8267159"><ele>583.0</ele><time>2026-04-11T15:01:23.945Z</time></trkpt><trkpt lat="43.9760475" lon="11.8266462"><ele>583.0</ele><time>2026-04-11T15:01:24.944Z</time></trkpt><trkpt lat="43.9758917" lon="11.8265722"><ele>581.25</ele><time>2026-04-11T15:01:25.945Z</time></trkpt><trkpt lat="43.9757602" lon="11.8265016"><ele>579.5</ele><time>2026-04-11T15:01:26.944Z</time></trkpt><trkpt lat="43.9756359" lon="11.8264439"><ele>577.75</ele><time>2026-04-11T15:01:27.944Z</time></trkpt><trkpt lat="43.9754956" lon="11.8264243"><ele>576.0</ele><time>2026-04-11T15:01:28.945Z</time></trkpt><trkpt lat="43.9753447" lon="11.826448"><ele>576.0</ele><time>2026-04-11T15:01:29.944Z</time></trkpt><trkpt lat="43.9751745" lon="11.8265029"><ele>576.0</ele><time>2026-04-11T15:01:30.945Z</time></trkpt><trkpt lat="43.9749826" lon="11.8265772"><ele>576.0</ele><time>2026-04-11T15:01:31.945Z</time></trkpt><trkpt lat="43.9747775" lon="11.8266604"><ele>575.6666666666666</ele><time>2026-04-11T15:01:32.945Z</time></trkpt><trkpt lat="43.9746061" lon="11.8267355"><ele>575.3333333333333</ele><time>2026-04-11T15:01:33.945Z</time></trkpt><trkpt lat="43.9744552" lon="11.8268055"><ele>575.0</ele><time>2026-04-11T15:01:34.945Z</time></trkpt><trkpt lat="43.9743282" lon="11.8268667"><ele>577.2</ele><time>2026-04-11T15:01:35.944Z</time></trkpt><trkpt lat="43.9742214" lon="11.8269167"><ele>579.4</ele><time>2026-04-11T15:01:36.944Z</time></trkpt><trkpt lat="43.9741271" lon="11.8269372"><ele>581.6</ele><time>2026-04-11T15:01:37.945Z</time></trkpt><trkpt lat="43.9740177" lon="11.8269154"><ele>583.8</ele><time>2026-04-11T15:01:38.944Z</time></trkpt><trkpt lat="43.9738949" lon="11.8268594"><ele>586.0</ele><time>2026-04-11T15:01:39.943Z</time></trkpt><trkpt lat="43.9737602" lon="11.8267723"><ele>586.0</ele><time>2026-04-11T15:01:40.944Z</time></trkpt><trkpt lat="43.9736435" lon="11.826683"><ele>586.0</ele><time>2026-04-11T15:01:41.943Z</time></trkpt><trkpt lat="43.9735375" lon="11.8265646"><ele>586.0</ele><time>2026-04-11T15:01:42.943Z</time></trkpt><trkpt lat="43.9734453" lon="11.8264281"><ele>586.0</ele><time>2026-04-11T15:01:43.944Z</time></trkpt><trkpt lat="43.9733625" lon="11.8262924"><ele>586.0</ele><time>2026-04-11T15:01:44.944Z</time></trkpt><trkpt lat="43.973281" lon="11.8261678"><ele>586.0</ele><time>2026-04-11T15:01:45.943Z</time></trkpt><trkpt lat="43.9732079" lon="11.8260572"><ele>586.0</ele><time>2026-04-11T15:01:46.943Z</time></trkpt><trkpt lat="43.9731494" lon="11.8259538"><ele>586.0</ele><time>2026-04-11T15:01:47.944Z</time></trkpt><trkpt lat="43.9731019" lon="11.8258473"><ele>586.0</ele><time>2026-04-11T15:01:48.944Z</time></trkpt><trkpt lat="43.9730615" lon="11.8257333"><ele>586.0</ele><time>2026-04-11T15:01:49.944Z</time></trkpt><trkpt lat="43.9730381" lon="11.8256183"><ele>586.0</ele><time>2026-04-11T15:01:50.944Z</time></trkpt><trkpt lat="43.9730165" lon="11.825512"><ele>586.0</ele><time>2026-04-11T15:01:51.944Z</time></trkpt><trkpt lat="43.9729944" lon="11.8254178"><ele>586.0</ele><time>2026-04-11T15:01:52.944Z</time></trkpt><trkpt lat="43.9729727" lon="11.8252976"><ele>586.0</ele><time>2026-04-11T15:01:54.943Z</time></trkpt><trkpt lat="43.9729262" lon="11.8251958"><ele>586.0</ele><time>2026-04-11T15:03:28.943Z</time></trkpt><trkpt lat="43.9728469" lon="11.8251164"><ele>586.6666666666667</ele><time>2026-04-11T15:03:30.943Z</time></trkpt><trkpt lat="43.9727476" lon="11.825009"><ele>587.3333333333334</ele><time>2026-04-11T15:03:32.944Z</time></trkpt><trkpt lat="43.9727021" lon="11.8249376"><ele>588.0</ele><time>2026-04-11T15:03:33.943Z</time></trkpt><trkpt lat="43.9726635" lon="11.8248528"><ele>588.6666666666666</ele><time>2026-04-11T15:03:34.944Z</time></trkpt><trkpt lat="43.9726357" lon="11.8247546"><ele>589.3333333333333</ele><time>2026-04-11T15:03:35.944Z</time></trkpt><trkpt lat="43.9726154" lon="11.8246511"><ele>590.0</ele><time>2026-04-11T15:03:36.944Z</time></trkpt><trkpt lat="43.9725974" lon="11.8245597"><ele>590.0</ele><time>2026-04-11T15:03:37.943Z</time></trkpt><trkpt lat="43.9725735" lon="11.8244755"><ele>590.0</ele><time>2026-04-11T15:03:38.944Z</time></trkpt><trkpt lat="43.9724772" lon="11.8243988"><ele>590.0</ele><time>2026-04-11T15:03:40.943Z</time></trkpt><trkpt lat="43.972383" lon="11.8245066"><ele>590.0</ele><time>2026-04-11T15:03:42.945Z</time></trkpt><trkpt lat="43.9723481" lon="11.8246091"><ele>590.0</ele><time>2026-04-11T15:03:43.943Z</time></trkpt><trkpt lat="43.9723198" lon="11.8247241"><ele>585.8</ele><time>2026-04-11T15:03:44.943Z</time></trkpt><trkpt lat="43.9723063" lon="11.8248514"><ele>581.6</ele><time>2026-04-11T15:03:45.942Z</time></trkpt><trkpt lat="43.9723026" lon="11.8249868"><ele>577.4</ele><time>2026-04-11T15:03:46.943Z</time></trkpt><trkpt lat="43.9723018" lon="11.8251247"><ele>573.2</ele><time>2026-04-11T15:03:47.943Z</time></trkpt><trkpt lat="43.972304" lon="11.8252658"><ele>569.0</ele><time>2026-04-11T15:03:48.943Z</time></trkpt><trkpt lat="43.9723153" lon="11.8254095"><ele>568.2</ele><time>2026-04-11T15:03:49.944Z</time></trkpt><trkpt lat="43.9723262" lon="11.8255522"><ele>567.4</ele><time>2026-04-11T15:03:50.945Z</time></trkpt><trkpt lat="43.9723365" lon="11.825692"><ele>566.6</ele><time>2026-04-11T15:03:51.945Z</time></trkpt><trkpt lat="43.9723457" lon="11.8258216"><ele>565.8</ele><time>2026-04-11T15:03:52.943Z</time></trkpt><trkpt lat="43.9723555" lon="11.8259343"><ele>565.0</ele><time>2026-04-11T15:03:53.944Z</time></trkpt><trkpt lat="43.9723553" lon="11.8260354"><ele>562.6666666666667</ele><time>2026-04-11T15:03:54.945Z</time></trkpt><trkpt lat="43.9723273" lon="11.826121"><ele>560.3333333333334</ele><time>2026-04-11T15:03:55.943Z</time></trkpt><trkpt lat="43.9722757" lon="11.8261716"><ele>558.0</ele><time>2026-04-11T15:03:56.943Z</time></trkpt><trkpt lat="43.9722043" lon="11.8261771"><ele>555.6666666666666</ele><time>2026-04-11T15:03:57.943Z</time></trkpt><trkpt lat="43.9721198" lon="11.8261518"><ele>553.3333333333333</ele><time>2026-04-11T15:03:58.944Z</time></trkpt><trkpt lat="43.9720243" lon="11.8261153"><ele>551.0</ele><time>2026-04-11T15:03:59.943Z</time></trkpt><trkpt lat="43.9719191" lon="11.8260854"><ele>551.0</ele><time>2026-04-11T15:04:00.944Z</time></trkpt><trkpt lat="43.971817" lon="11.8260483"><ele>551.0</ele><time>2026-04-11T15:04:01.944Z</time></trkpt><trkpt lat="43.9717251" lon="11.8260169"><ele>551.0</ele><time>2026-04-11T15:04:02.943Z</time></trkpt><trkpt lat="43.9716402" lon="11.8260165"><ele>551.0</ele><time>2026-04-11T15:04:03.943Z</time></trkpt><trkpt lat="43.9715576" lon="11.8260592"><ele>551.0</ele><time>2026-04-11T15:04:04.944Z</time></trkpt><trkpt lat="43.9714939" lon="11.8261417"><ele>548.4</ele><time>2026-04-11T15:04:05.944Z</time></trkpt><trkpt lat="43.971438" lon="11.8262519"><ele>545.8</ele><time>2026-04-11T15:04:06.943Z</time></trkpt><trkpt lat="43.9713836" lon="11.8263735"><ele>543.1999999999999</ele><time>2026-04-11T15:04:07.944Z</time></trkpt><trkpt lat="43.9713215" lon="11.8264914"><ele>540.6</ele><time>2026-04-11T15:04:08.944Z</time></trkpt><trkpt lat="43.971258" lon="11.8266146"><ele>538.0</ele><time>2026-04-11T15:04:09.943Z</time></trkpt><trkpt lat="43.9712023" lon="11.8267371"><ele>538.0</ele><time>2026-04-11T15:04:10.944Z</time></trkpt><trkpt lat="43.97115" lon="11.8268389"><ele>538.0</ele><time>2026-04-11T15:04:11.943Z</time></trkpt><trkpt lat="43.9711135" lon="11.8269303"><ele>538.0</ele><time>2026-04-11T15:04:12.943Z</time></trkpt><trkpt lat="43.9710186" lon="11.8270105"><ele>538.0</ele><time>2026-04-11T15:04:14.944Z</time></trkpt><trkpt lat="43.970927" lon="11.8269032"><ele>538.0</ele><time>2026-04-11T15:04:16.943Z</time></trkpt><trkpt lat="43.9709032" lon="11.826807"><ele>536.1666666666667</ele><time>2026-04-11T15:04:17.943Z</time></trkpt><trkpt lat="43.9708524" lon="11.8267092"><ele>534.3333333333334</ele><time>2026-04-11T15:04:18.943Z</time></trkpt><trkpt lat="43.9707753" lon="11.8266542"><ele>532.5</ele><time>2026-04-11T15:04:19.943Z</time></trkpt><trkpt lat="43.9706895" lon="11.8266329"><ele>530.6666666666666</ele><time>2026-04-11T15:04:20.943Z</time></trkpt><trkpt lat="43.9706032" lon="11.8266203"><ele>528.8333333333333</ele><time>2026-04-11T15:04:21.944Z</time></trkpt><trkpt lat="43.9705267" lon="11.8266076"><ele>527.0</ele><time>2026-04-11T15:04:22.944Z</time></trkpt><trkpt lat="43.9704642" lon="11.8266261"><ele>527.0</ele><time>2026-04-11T15:04:23.944Z</time></trkpt><trkpt lat="43.9704002" lon="11.8267688"><ele>527.0</ele><time>2026-04-11T15:04:25.944Z</time></trkpt><trkpt lat="43.9704252" lon="11.8268597"><ele>527.0</ele><time>2026-04-11T15:04:26.943Z</time></trkpt><trkpt lat="43.9704575" lon="11.8269553"><ele>527.0</ele><time>2026-04-11T15:04:27.943Z</time></trkpt><trkpt lat="43.9704801" lon="11.8270591"><ele>527.0</ele><time>2026-04-11T15:04:28.944Z</time></trkpt><trkpt lat="43.9704934" lon="11.8271464"><ele>527.0</ele><time>2026-04-11T15:04:29.944Z</time></trkpt><trkpt lat="43.9704316" lon="11.827286"><ele>525.0</ele><time>2026-04-11T15:04:31.944Z</time></trkpt><trkpt lat="43.9703606" lon="11.8273013"><ele>523.0</ele><time>2026-04-11T15:04:32.943Z</time></trkpt><trkpt lat="43.9702841" lon="11.8273105"><ele>521.0</ele><time>2026-04-11T15:04:33.943Z</time></trkpt><trkpt lat="43.9702072" lon="11.8273638"><ele>519.0</ele><time>2026-04-11T15:04:34.943Z</time></trkpt><trkpt lat="43.9701328" lon="11.8274423"><ele>517.0</ele><time>2026-04-11T15:04:35.943Z</time></trkpt><trkpt lat="43.9700516" lon="11.8275266"><ele>515.0</ele><time>2026-04-11T15:04:36.943Z</time></trkpt><trkpt lat="43.9699687" lon="11.8276104"><ele>515.4</ele><time>2026-04-11T15:04:37.944Z</time></trkpt><trkpt lat="43.9698837" lon="11.8276904"><ele>515.8</ele><time>2026-04-11T15:04:38.943Z</time></trkpt><trkpt lat="43.9698007" lon="11.8277694"><ele>516.2</ele><time>2026-04-11T15:04:39.944Z</time></trkpt><trkpt lat="43.9697208" lon="11.8278451"><ele>516.6</ele><time>2026-04-11T15:04:40.944Z</time></trkpt><trkpt lat="43.9696428" lon="11.8279267"><ele>517.0</ele><time>2026-04-11T15:04:41.943Z</time></trkpt><trkpt lat="43.9695642" lon="11.828008"><ele>517.0</ele><time>2026-04-11T15:04:42.944Z</time></trkpt><trkpt lat="43.9694864" lon="11.8280892"><ele>517.0</ele><time>2026-04-11T15:04:43.944Z</time></trkpt><trkpt lat="43.9694085" lon="11.8281746"><ele>517.0</ele><time>2026-04-11T15:04:44.944Z</time></trkpt><trkpt lat="43.9693278" lon="11.8282498"><ele>517.0</ele><time>2026-04-11T15:04:45.943Z</time></trkpt><trkpt lat="43.9692432" lon="11.8283296"><ele>517.0</ele><time>2026-04-11T15:04:46.944Z</time></trkpt><trkpt lat="43.9691533" lon="11.8283991"><ele>517.6</ele><time>2026-04-11T15:04:47.943Z</time></trkpt><trkpt lat="43.9690617" lon="11.8284555"><ele>518.2</ele><time>2026-04-11T15:04:48.945Z</time></trkpt><trkpt lat="43.9689651" lon="11.8285134"><ele>518.8</ele><time>2026-04-11T15:04:49.943Z</time></trkpt><trkpt lat="43.9688688" lon="11.8285736"><ele>519.4</ele><time>2026-04-11T15:04:50.943Z</time></trkpt><trkpt lat="43.9687741" lon="11.8286342"><ele>520.0</ele><time>2026-04-11T15:04:51.944Z</time></trkpt><trkpt lat="43.9686862" lon="11.8286945"><ele>520.0</ele><time>2026-04-11T15:04:52.945Z</time></trkpt><trkpt lat="43.9685961" lon="11.8287534"><ele>520.0</ele><time>2026-04-11T15:04:53.945Z</time></trkpt><trkpt lat="43.9685017" lon="11.8288165"><ele>520.0</ele><time>2026-04-11T15:04:54.944Z</time></trkpt><trkpt lat="43.9684093" lon="11.8288841"><ele>520.0</ele><time>2026-04-11T15:04:55.943Z</time></trkpt><trkpt lat="43.9683174" lon="11.8289544"><ele>520.0</ele><time>2026-04-11T15:04:56.943Z</time></trkpt><trkpt lat="43.9682342" lon="11.8290291"><ele>520.3333333333334</ele><time>2026-04-11T15:04:57.943Z</time></trkpt><trkpt lat="43.9681623" lon="11.8290873"><ele>520.6666666666667</ele><time>2026-04-11T15:04:58.944Z</time></trkpt><trkpt lat="43.9680887" lon="11.82913"><ele>521.0</ele><time>2026-04-11T15:04:59.944Z</time></trkpt><trkpt lat="43.9680058" lon="11.8291643"><ele>521.3333333333334</ele><time>2026-04-11T15:05:00.943Z</time></trkpt><trkpt lat="43.9679126" lon="11.8291942"><ele>521.6666666666666</ele><time>2026-04-11T15:05:01.944Z</time></trkpt><trkpt lat="43.9678215" lon="11.8292279"><ele>522.0</ele><time>2026-04-11T15:05:02.943Z</time></trkpt><trkpt lat="43.9677361" lon="11.8292591"><ele>522.0</ele><time>2026-04-11T15:05:03.945Z</time></trkpt><trkpt lat="43.9676529" lon="11.8292963"><ele>522.0</ele><time>2026-04-11T15:05:04.944Z</time></trkpt><trkpt lat="43.9675551" lon="11.8293254"><ele>522.0</ele><time>2026-04-11T15:05:05.943Z</time></trkpt><trkpt lat="43.967457" lon="11.8293391"><ele>522.0</ele><time>2026-04-11T15:05:06.943Z</time></trkpt><trkpt lat="43.9673533" lon="11.8293491"><ele>522.0</ele><time>2026-04-11T15:05:07.943Z</time></trkpt><trkpt lat="43.9672428" lon="11.8293595"><ele>525.0</ele><time>2026-04-11T15:05:08.945Z</time></trkpt><trkpt lat="43.9671389" lon="11.8293632"><ele>528.0</ele><time>2026-04-11T15:05:09.944Z</time></trkpt><trkpt lat="43.9670386" lon="11.8293599"><ele>531.0</ele><time>2026-04-11T15:05:10.943Z</time></trkpt><trkpt lat="43.9669435" lon="11.8293501"><ele>534.0</ele><time>2026-04-11T15:05:11.944Z</time></trkpt><trkpt lat="43.9668498" lon="11.8293376"><ele>537.0</ele><time>2026-04-11T15:05:12.944Z</time></trkpt><trkpt lat="43.9667644" lon="11.8293289"><ele>538.6666666666666</ele><time>2026-04-11T15:05:13.943Z</time></trkpt><trkpt lat="43.9666816" lon="11.8293229"><ele>540.3333333333334</ele><time>2026-04-11T15:05:14.944Z</time></trkpt><trkpt lat="43.9666061" lon="11.8293195"><ele>542.0</ele><time>2026-04-11T15:05:15.943Z</time></trkpt><trkpt lat="43.9665374" lon="11.8293259"><ele>543.6666666666667</ele><time>2026-04-11T15:05:16.944Z</time></trkpt><trkpt lat="43.9664715" lon="11.8293384"><ele>545.3333333333334</ele><time>2026-04-11T15:05:17.944Z</time></trkpt><trkpt lat="43.9664094" lon="11.8294352"><ele>547.0</ele><time>2026-04-11T15:05:19.944Z</time></trkpt><trkpt lat="43.9664112" lon="11.8295305"><ele>547.0</ele><time>2026-04-11T15:05:20.943Z</time></trkpt><trkpt lat="43.9663821" lon="11.8296284"><ele>547.0</ele><time>2026-04-11T15:05:22.944Z</time></trkpt><trkpt lat="43.9662967" lon="11.8296083"><ele>547.0</ele><time>2026-04-11T15:06:41.943Z</time></trkpt><trkpt lat="43.9661877" lon="11.8295648"><ele>547.0</ele><time>2026-04-11T15:06:43.943Z</time></trkpt><trkpt lat="43.9661292" lon="11.8295307"><ele>547.0</ele><time>2026-04-11T15:06:44.944Z</time></trkpt><trkpt lat="43.9660588" lon="11.8294934"><ele>547.0</ele><time>2026-04-11T15:06:45.944Z</time></trkpt><trkpt lat="43.9659912" lon="11.8294658"><ele>547.0</ele><time>2026-04-11T15:06:46.944Z</time></trkpt><trkpt lat="43.9659109" lon="11.8294361"><ele>547.0</ele><time>2026-04-11T15:06:47.943Z</time></trkpt><trkpt lat="43.9658254" lon="11.8294401"><ele>547.0</ele><time>2026-04-11T15:06:48.944Z</time></trkpt><trkpt lat="43.9657374" lon="11.8294461"><ele>547.0</ele><time>2026-04-11T15:06:49.944Z</time></trkpt><trkpt lat="43.9656462" lon="11.8294562"><ele>547.0</ele><time>2026-04-11T15:06:50.944Z</time></trkpt><trkpt lat="43.9655578" lon="11.8294692"><ele>547.0</ele><time>2026-04-11T15:06:51.944Z</time></trkpt><trkpt lat="43.9654712" lon="11.8294776"><ele>549.4</ele><time>2026-04-11T15:06:52.943Z</time></trkpt><trkpt lat="43.9653819" lon="11.8294742"><ele>551.8000000000001</ele><time>2026-04-11T15:06:53.943Z</time></trkpt><trkpt lat="43.9652948" lon="11.8294746"><ele>554.2</ele><time>2026-04-11T15:06:54.944Z</time></trkpt><trkpt lat="43.9652017" lon="11.8294552"><ele>556.6</ele><time>2026-04-11T15:06:55.943Z</time></trkpt><trkpt lat="43.9651085" lon="11.8294438"><ele>559.0</ele><time>2026-04-11T15:06:56.944Z</time></trkpt><trkpt lat="43.9650066" lon="11.8294386"><ele>559.8</ele><time>2026-04-11T15:06:57.944Z</time></trkpt><trkpt lat="43.9648984" lon="11.829435"><ele>560.5999999999999</ele><time>2026-04-11T15:06:58.943Z</time></trkpt><trkpt lat="43.9647866" lon="11.8294293"><ele>561.4</ele><time>2026-04-11T15:06:59.944Z</time></trkpt><trkpt lat="43.9646834" lon="11.8294334"><ele>562.1999999999999</ele><time>2026-04-11T15:07:00.943Z</time></trkpt><trkpt lat="43.9645817" lon="11.8294284"><ele>563.0</ele><time>2026-04-11T15:07:01.943Z</time></trkpt><trkpt lat="43.9644873" lon="11.8294288"><ele>563.0</ele><time>2026-04-11T15:07:02.944Z</time></trkpt><trkpt lat="43.9643977" lon="11.8294464"><ele>563.0</ele><time>2026-04-11T15:07:03.943Z</time></trkpt><trkpt lat="43.9643205" lon="11.8294639"><ele>563.0</ele><time>2026-04-11T15:07:04.944Z</time></trkpt><trkpt lat="43.9642522" lon="11.8294896"><ele>563.0</ele><time>2026-04-11T15:07:05.943Z</time></trkpt><trkpt lat="43.9641844" lon="11.8295299"><ele>563.0</ele><time>2026-04-11T15:07:06.944Z</time></trkpt><trkpt lat="43.9641361" lon="11.8295886"><ele>563.0</ele><time>2026-04-11T15:07:07.944Z</time></trkpt><trkpt lat="43.9641371" lon="11.8296986"><ele>562.4</ele><time>2026-04-11T15:07:08.945Z</time></trkpt><trkpt lat="43.96414" lon="11.8298199"><ele>561.8</ele><time>2026-04-11T15:07:09.944Z</time></trkpt><trkpt lat="43.9641431" lon="11.8299523"><ele>561.2</ele><time>2026-04-11T15:07:10.943Z</time></trkpt><trkpt lat="43.9641249" lon="11.8300914"><ele>560.6</ele><time>2026-04-11T15:07:11.944Z</time></trkpt><trkpt lat="43.9640863" lon="11.8302303"><ele>560.0</ele><time>2026-04-11T15:07:12.943Z</time></trkpt><trkpt lat="43.9640355" lon="11.8303696"><ele>561.6</ele><time>2026-04-11T15:07:13.943Z</time></trkpt><trkpt lat="43.9639835" lon="11.8304967"><ele>563.2</ele><time>2026-04-11T15:07:14.943Z</time></trkpt><trkpt lat="43.9639382" lon="11.8306182"><ele>564.8</ele><time>2026-04-11T15:07:15.944Z</time></trkpt><trkpt lat="43.9639096" lon="11.8307226"><ele>566.4</ele><time>2026-04-11T15:07:16.943Z</time></trkpt><trkpt lat="43.9639037" lon="11.8308372"><ele>568.0</ele><time>2026-04-11T15:07:17.943Z</time></trkpt><trkpt lat="43.9639175" lon="11.8309721"><ele>570.0</ele><time>2026-04-11T15:07:18.943Z</time></trkpt><trkpt lat="43.9639507" lon="11.8311105"><ele>572.0</ele><time>2026-04-11T15:07:19.944Z</time></trkpt><trkpt lat="43.963984" lon="11.8312488"><ele>574.0</ele><time>2026-04-11T15:07:20.943Z</time></trkpt><trkpt lat="43.9640094" lon="11.8313779"><ele>576.0</ele><time>2026-04-11T15:07:21.943Z</time></trkpt><trkpt lat="43.9640262" lon="11.831498"><ele>578.0</ele><time>2026-04-11T15:07:22.943Z</time></trkpt><trkpt lat="43.9640406" lon="11.8316123"><ele>578.0</ele><time>2026-04-11T15:07:23.944Z</time></trkpt><trkpt lat="43.9640617" lon="11.8317241"><ele>578.0</ele><time>2026-04-11T15:07:24.943Z</time></trkpt><trkpt lat="43.9640918" lon="11.8318402"><ele>578.0</ele><time>2026-04-11T15:07:25.943Z</time></trkpt><trkpt lat="43.9641283" lon="11.8319588"><ele>578.0</ele><time>2026-04-11T15:07:26.944Z</time></trkpt><trkpt lat="43.9641624" lon="11.8320793"><ele>578.0</ele><time>2026-04-11T15:07:27.943Z</time></trkpt><trkpt lat="43.964193" lon="11.8321835"><ele>578.0</ele><time>2026-04-11T15:07:28.944Z</time></trkpt><trkpt lat="43.9642048" lon="11.8322772"><ele>579.8</ele><time>2026-04-11T15:07:29.943Z</time></trkpt><trkpt lat="43.9641524" lon="11.8324423"><ele>581.5999999999999</ele><time>2026-04-11T15:07:31.945Z</time></trkpt><trkpt lat="43.9640541" lon="11.8324713"><ele>583.4000000000001</ele><time>2026-04-11T15:07:32.943Z</time></trkpt><trkpt lat="43.9639635" lon="11.8325205"><ele>585.2</ele><time>2026-04-11T15:07:33.943Z</time></trkpt><trkpt lat="43.9638685" lon="11.8325841"><ele>587.0</ele><time>2026-04-11T15:07:34.944Z</time></trkpt><trkpt lat="43.9637698" lon="11.8326537"><ele>588.2</ele><time>2026-04-11T15:07:35.943Z</time></trkpt><trkpt lat="43.9636719" lon="11.8327179"><ele>589.4000000000001</ele><time>2026-04-11T15:07:36.945Z</time></trkpt><trkpt lat="43.9635781" lon="11.8327812"><ele>590.5999999999999</ele><time>2026-04-11T15:07:37.944Z</time></trkpt><trkpt lat="43.9634869" lon="11.8328442"><ele>591.8</ele><time>2026-04-11T15:07:38.943Z</time></trkpt><trkpt lat="43.9634017" lon="11.8328995"><ele>593.0</ele><time>2026-04-11T15:07:39.944Z</time></trkpt><trkpt lat="43.9633228" lon="11.832967"><ele>593.0</ele><time>2026-04-11T15:07:40.943Z</time></trkpt><trkpt lat="43.9632574" lon="11.8330588"><ele>593.0</ele><time>2026-04-11T15:07:41.945Z</time></trkpt><trkpt lat="43.9631984" lon="11.8331719"><ele>593.0</ele><time>2026-04-11T15:07:42.943Z</time></trkpt><trkpt lat="43.9631426" lon="11.8332946"><ele>593.0</ele><time>2026-04-11T15:07:43.944Z</time></trkpt><trkpt lat="43.9630914" lon="11.8334084"><ele>593.0</ele><time>2026-04-11T15:07:44.943Z</time></trkpt><trkpt lat="43.9630489" lon="11.8335267"><ele>595.0</ele><time>2026-04-11T15:07:45.943Z</time></trkpt><trkpt lat="43.9630219" lon="11.8336655"><ele>597.0</ele><time>2026-04-11T15:07:46.942Z</time></trkpt><trkpt lat="43.9630033" lon="11.8338209"><ele>599.0</ele><time>2026-04-11T15:07:47.943Z</time></trkpt><trkpt lat="43.9629936" lon="11.8339804"><ele>601.0</ele><time>2026-04-11T15:07:48.944Z</time></trkpt><trkpt lat="43.9629883" lon="11.8341363"><ele>603.0</ele><time>2026-04-11T15:07:49.943Z</time></trkpt><trkpt lat="43.9629766" lon="11.8342798"><ele>605.0</ele><time>2026-04-11T15:07:50.942Z</time></trkpt><trkpt lat="43.9629513" lon="11.8344069"><ele>607.0</ele><time>2026-04-11T15:07:51.943Z</time></trkpt><trkpt lat="43.9629105" lon="11.8345254"><ele>609.0</ele><time>2026-04-11T15:07:52.942Z</time></trkpt><trkpt lat="43.962877" lon="11.834658"><ele>611.0</ele><time>2026-04-11T15:07:53.942Z</time></trkpt><trkpt lat="43.962857" lon="11.8348002"><ele>613.0</ele><time>2026-04-11T15:07:54.942Z</time></trkpt><trkpt lat="43.9628393" lon="11.8349427"><ele>613.0</ele><time>2026-04-11T15:07:55.942Z</time></trkpt><trkpt lat="43.962826" lon="11.8350876"><ele>613.0</ele><time>2026-04-11T15:07:56.942Z</time></trkpt><trkpt lat="43.96281" lon="11.8352376"><ele>613.0</ele><time>2026-04-11T15:07:57.943Z</time></trkpt><trkpt lat="43.9627953" lon="11.8353882"><ele>613.0</ele><time>2026-04-11T15:07:58.943Z</time></trkpt><trkpt lat="43.9627774" lon="11.8355384"><ele>613.0</ele><time>2026-04-11T15:07:59.942Z</time></trkpt><trkpt lat="43.9627623" lon="11.8356941"><ele>616.25</ele><time>2026-04-11T15:08:00.942Z</time></trkpt><trkpt lat="43.9627483" lon="11.8358494"><ele>619.5</ele><time>2026-04-11T15:08:01.942Z</time></trkpt><trkpt lat="43.9627312" lon="11.8360063"><ele>622.75</ele><time>2026-04-11T15:08:02.942Z</time></trkpt><trkpt lat="43.9627107" lon="11.8361619"><ele>626.0</ele><time>2026-04-11T15:08:03.943Z</time></trkpt><trkpt lat="43.9626938" lon="11.836324"><ele>629.0</ele><time>2026-04-11T15:08:04.943Z</time></trkpt><trkpt lat="43.9626777" lon="11.8364959"><ele>632.0</ele><time>2026-04-11T15:08:05.942Z</time></trkpt><trkpt lat="43.9626623" lon="11.8366509"><ele>635.0</ele><time>2026-04-11T15:08:06.942Z</time></trkpt><trkpt lat="43.9626463" lon="11.8367888"><ele>638.0</ele><time>2026-04-11T15:08:07.942Z</time></trkpt><trkpt lat="43.9626233" lon="11.8369201"><ele>641.0</ele><time>2026-04-11T15:08:08.942Z</time></trkpt><trkpt lat="43.9626108" lon="11.8370419"><ele>642.3333333333333</ele><time>2026-04-11T15:08:09.944Z</time></trkpt><trkpt lat="43.9626031" lon="11.8371399"><ele>643.6666666666666</ele><time>2026-04-11T15:08:10.944Z</time></trkpt><trkpt lat="43.9626496" lon="11.8372545"><ele>645.0</ele><time>2026-04-11T15:08:12.942Z</time></trkpt><trkpt lat="43.9627208" lon="11.8372191"><ele>646.3333333333334</ele><time>2026-04-11T15:08:14.943Z</time></trkpt><trkpt lat="43.9627595" lon="11.8371475"><ele>647.6666666666667</ele><time>2026-04-11T15:08:15.943Z</time></trkpt><trkpt lat="43.9628083" lon="11.8370507"><ele>649.0</ele><time>2026-04-11T15:08:16.943Z</time></trkpt><trkpt lat="43.9628636" lon="11.8369754"><ele>649.0</ele><time>2026-04-11T15:08:17.943Z</time></trkpt><trkpt lat="43.9629467" lon="11.8368813"><ele>649.0</ele><time>2026-04-11T15:08:18.942Z</time></trkpt><trkpt lat="43.9630121" lon="11.8367782"><ele>649.0</ele><time>2026-04-11T15:08:19.943Z</time></trkpt><trkpt lat="43.963082" lon="11.8366744"><ele>649.0</ele><time>2026-04-11T15:08:20.942Z</time></trkpt><trkpt lat="43.9631486" lon="11.8365762"><ele>649.0</ele><time>2026-04-11T15:08:21.942Z</time></trkpt><trkpt lat="43.9632158" lon="11.836468"><ele>647.4000000000001</ele><time>2026-04-11T15:08:22.943Z</time></trkpt><trkpt lat="43.963279" lon="11.8363623"><ele>645.8</ele><time>2026-04-11T15:08:23.942Z</time></trkpt><trkpt lat="43.9633362" lon="11.8362745"><ele>644.2</ele><time>2026-04-11T15:08:24.943Z</time></trkpt><trkpt lat="43.9634012" lon="11.836189"><ele>642.5999999999999</ele><time>2026-04-11T15:08:25.943Z</time></trkpt><trkpt lat="43.9634884" lon="11.8361413"><ele>641.0</ele><time>2026-04-11T15:08:26.943Z</time></trkpt><trkpt lat="43.9635715" lon="11.8360846"><ele>640.8333333333333</ele><time>2026-04-11T15:08:27.944Z</time></trkpt><trkpt lat="43.96366" lon="11.8360302"><ele>640.6666666666666</ele><time>2026-04-11T15:08:28.943Z</time></trkpt><trkpt lat="43.9637495" lon="11.8359777"><ele>640.5</ele><time>2026-04-11T15:08:29.943Z</time></trkpt><trkpt lat="43.9638206" lon="11.8359352"><ele>640.3333333333334</ele><time>2026-04-11T15:08:30.943Z</time></trkpt><trkpt lat="43.9638835" lon="11.8359279"><ele>640.1666666666667</ele><time>2026-04-11T15:08:31.942Z</time></trkpt><trkpt lat="43.9639251" lon="11.8359959"><ele>640.0</ele><time>2026-04-11T15:08:33.942Z</time></trkpt><trkpt lat="43.9638758" lon="11.836055"><ele>644.0</ele><time>2026-04-11T15:08:34.942Z</time></trkpt><trkpt lat="43.9637669" lon="11.8361715"><ele>648.0</ele><time>2026-04-11T15:08:36.944Z</time></trkpt><trkpt lat="43.963729" lon="11.8362743"><ele>652.0</ele><time>2026-04-11T15:08:37.942Z</time></trkpt><trkpt lat="43.9637022" lon="11.8364021"><ele>656.0</ele><time>2026-04-11T15:08:38.942Z</time></trkpt><trkpt lat="43.9636805" lon="11.8365385"><ele>660.0</ele><time>2026-04-11T15:08:39.942Z</time></trkpt><trkpt lat="43.9636678" lon="11.8366837"><ele>664.5</ele><time>2026-04-11T15:08:40.942Z</time></trkpt><trkpt lat="43.9636446" lon="11.8368417"><ele>669.0</ele><time>2026-04-11T15:08:41.943Z</time></trkpt><trkpt lat="43.9636182" lon="11.8370125"><ele>673.5</ele><time>2026-04-11T15:08:42.943Z</time></trkpt><trkpt lat="43.9635974" lon="11.8371792"><ele>678.0</ele><time>2026-04-11T15:08:43.943Z</time></trkpt><trkpt lat="43.963573" lon="11.8373244"><ele>678.0</ele><time>2026-04-11T15:08:44.943Z</time></trkpt><trkpt lat="43.9635575" lon="11.8374572"><ele>678.0</ele><time>2026-04-11T15:08:45.943Z</time></trkpt><trkpt lat="43.9635512" lon="11.8375742"><ele>678.0</ele><time>2026-04-11T15:08:46.943Z</time></trkpt><trkpt lat="43.9635573" lon="11.8376878"><ele>678.0</ele><time>2026-04-11T15:08:47.942Z</time></trkpt><trkpt lat="43.9635688" lon="11.8377784"><ele>678.0</ele><time>2026-04-11T15:08:48.944Z</time></trkpt><trkpt lat="43.9635913" lon="11.837883"><ele>678.0</ele><time>2026-04-11T15:08:50.942Z</time></trkpt><trkpt lat="43.9635532" lon="11.837781"><ele>678.0</ele><time>2026-04-11T15:10:23.943Z</time></trkpt><trkpt lat="43.9635641" lon="11.837622"><ele>678.0</ele><time>2026-04-11T15:10:25.943Z</time></trkpt><trkpt lat="43.9635612" lon="11.837529"><ele>678.0</ele><time>2026-04-11T15:10:26.943Z</time></trkpt><trkpt lat="43.9635841" lon="11.837381"><ele>678.0</ele><time>2026-04-11T15:10:28.942Z</time></trkpt><trkpt lat="43.9636014" lon="11.837249"><ele>678.0</ele><time>2026-04-11T15:10:30.942Z</time></trkpt><trkpt lat="43.9636167" lon="11.8371463"><ele>678.0</ele><time>2026-04-11T15:10:32.943Z</time></trkpt><trkpt lat="43.9636371" lon="11.8370348"><ele>678.0</ele><time>2026-04-11T15:10:34.942Z</time></trkpt><trkpt lat="43.9636558" lon="11.8369064"><ele>678.0</ele><time>2026-04-11T15:10:36.944Z</time></trkpt><trkpt lat="43.9636672" lon="11.8367594"><ele>678.0</ele><time>2026-04-11T15:10:38.942Z</time></trkpt><trkpt lat="43.9636734" lon="11.8366337"><ele>678.0</ele><time>2026-04-11T15:10:40.942Z</time></trkpt><trkpt lat="43.9636784" lon="11.8364944"><ele>674.4</ele><time>2026-04-11T15:10:42.944Z</time></trkpt><trkpt lat="43.963706" lon="11.8363294"><ele>670.8</ele><time>2026-04-11T15:10:44.942Z</time></trkpt><trkpt lat="43.963759" lon="11.8361936"><ele>667.2</ele><time>2026-04-11T15:10:46.943Z</time></trkpt><trkpt lat="43.9638351" lon="11.8361069"><ele>663.6</ele><time>2026-04-11T15:10:48.942Z</time></trkpt><trkpt lat="43.963906" lon="11.8360357"><ele>660.0</ele><time>2026-04-11T15:10:50.944Z</time></trkpt><trkpt lat="43.9638978" lon="11.8359429"><ele>660.0</ele><time>2026-04-11T15:10:52.944Z</time></trkpt><trkpt lat="43.9638249" lon="11.8359347"><ele>660.0</ele><time>2026-04-11T15:10:54.944Z</time></trkpt><trkpt lat="43.9637308" lon="11.835998"><ele>660.0</ele><time>2026-04-11T15:10:55.943Z</time></trkpt><trkpt lat="43.9636487" lon="11.8360315"><ele>660.0</ele><time>2026-04-11T15:10:56.943Z</time></trkpt><trkpt lat="43.9635609" lon="11.8360872"><ele>660.0</ele><time>2026-04-11T15:10:57.942Z</time></trkpt><trkpt lat="43.9634761" lon="11.836141"><ele>660.0</ele><time>2026-04-11T15:10:58.942Z</time></trkpt><trkpt lat="43.963407" lon="11.8361874"><ele>660.0</ele><time>2026-04-11T15:10:59.943Z</time></trkpt><trkpt lat="43.963343" lon="11.8362558"><ele>660.0</ele><time>2026-04-11T15:11:00.942Z</time></trkpt><trkpt lat="43.9632955" lon="11.8363415"><ele>660.0</ele><time>2026-04-11T15:11:01.943Z</time></trkpt><trkpt lat="43.9632555" lon="11.8364108"><ele>660.0</ele><time>2026-04-11T15:11:02.942Z</time></trkpt><trkpt lat="43.9632143" lon="11.8364819"><ele>660.0</ele><time>2026-04-11T15:11:04.943Z</time></trkpt><trkpt lat="43.9631463" lon="11.8365798"><ele>658.1666666666666</ele><time>2026-04-11T15:11:08.944Z</time></trkpt><trkpt lat="43.9630999" lon="11.8366535"><ele>656.3333333333334</ele><time>2026-04-11T15:11:09.942Z</time></trkpt><trkpt lat="43.9630529" lon="11.8367329"><ele>654.5</ele><time>2026-04-11T15:11:10.942Z</time></trkpt><trkpt lat="43.963003" lon="11.8368105"><ele>652.6666666666667</ele><time>2026-04-11T15:11:11.942Z</time></trkpt><trkpt lat="43.9629502" lon="11.8368956"><ele>650.8333333333334</ele><time>2026-04-11T15:11:12.943Z</time></trkpt><trkpt lat="43.9628652" lon="11.8369745"><ele>649.0</ele><time>2026-04-11T15:11:13.943Z</time></trkpt><trkpt lat="43.9628135" lon="11.8370545"><ele>649.0</ele><time>2026-04-11T15:11:14.943Z</time></trkpt><trkpt lat="43.9627627" lon="11.8371297"><ele>649.0</ele><time>2026-04-11T15:11:15.943Z</time></trkpt><trkpt lat="43.9627273" lon="11.8372023"><ele>649.0</ele><time>2026-04-11T15:11:16.944Z</time></trkpt><trkpt lat="43.9627022" lon="11.8372829"><ele>649.0</ele><time>2026-04-11T15:11:17.942Z</time></trkpt><trkpt lat="43.9627374" lon="11.8374186"><ele>649.0</ele><time>2026-04-11T15:11:19.942Z</time></trkpt><trkpt lat="43.9627901" lon="11.8375856"><ele>649.0</ele><time>2026-04-11T15:11:21.943Z</time></trkpt><trkpt lat="43.9628318" lon="11.837714"><ele>649.3333333333334</ele><time>2026-04-11T15:11:23.942Z</time></trkpt><trkpt lat="43.962849" lon="11.8378634"><ele>649.6666666666667</ele><time>2026-04-11T15:11:25.942Z</time></trkpt><trkpt lat="43.9628579" lon="11.8379614"><ele>650.0</ele><time>2026-04-11T15:11:26.942Z</time></trkpt><trkpt lat="43.9628664" lon="11.8380522"><ele>650.3333333333334</ele><time>2026-04-11T15:11:27.942Z</time></trkpt><trkpt lat="43.9628608" lon="11.8382253"><ele>650.6666666666666</ele><time>2026-04-11T15:11:29.942Z</time></trkpt><trkpt lat="43.9628514" lon="11.8383211"><ele>651.0</ele><time>2026-04-11T15:11:30.942Z</time></trkpt><trkpt lat="43.962842" lon="11.8384098"><ele>650.8</ele><time>2026-04-11T15:11:31.942Z</time></trkpt><trkpt lat="43.9628523" lon="11.8385702"><ele>650.5999999999999</ele><time>2026-04-11T15:11:33.942Z</time></trkpt><trkpt lat="43.9628991" lon="11.8387117"><ele>650.4</ele><time>2026-04-11T15:11:35.943Z</time></trkpt><trkpt lat="43.9629208" lon="11.8388612"><ele>650.2</ele><time>2026-04-11T15:11:37.944Z</time></trkpt><trkpt lat="43.9628927" lon="11.8390029"><ele>650.0</ele><time>2026-04-11T15:11:39.942Z</time></trkpt><trkpt lat="43.9628427" lon="11.8391565"><ele>650.0</ele><time>2026-04-11T15:11:41.942Z</time></trkpt><trkpt lat="43.9628175" lon="11.8392381"><ele>650.0</ele><time>2026-04-11T15:11:42.943Z</time></trkpt><trkpt lat="43.9628069" lon="11.8393772"><ele>650.0</ele><time>2026-04-11T15:11:44.943Z</time></trkpt><trkpt lat="43.9628015" lon="11.8395219"><ele>650.0</ele><time>2026-04-11T15:11:46.943Z</time></trkpt><trkpt lat="43.9627887" lon="11.8396768"><ele>650.0</ele><time>2026-04-11T15:11:48.942Z</time></trkpt><trkpt lat="43.9627521" lon="11.8398076"><ele>650.1666666666666</ele><time>2026-04-11T15:11:50.943Z</time></trkpt><trkpt lat="43.9626807" lon="11.8399371"><ele>650.3333333333333</ele><time>2026-04-11T15:11:52.943Z</time></trkpt><trkpt lat="43.9626433" lon="11.8400116"><ele>650.5</ele><time>2026-04-11T15:11:53.942Z</time></trkpt><trkpt lat="43.9626149" lon="11.840159"><ele>650.6666666666666</ele><time>2026-04-11T15:11:55.942Z</time></trkpt><trkpt lat="43.9626126" lon="11.8402504"><ele>650.8333333333334</ele><time>2026-04-11T15:11:57.944Z</time></trkpt><trkpt lat="43.9626679" lon="11.8403507"><ele>651.0</ele><time>2026-04-11T15:11:59.943Z</time></trkpt><trkpt lat="43.9627245" lon="11.840447"><ele>651.0</ele><time>2026-04-11T15:12:01.942Z</time></trkpt><trkpt lat="43.9626647" lon="11.8403494"><ele>651.0</ele><time>2026-04-11T15:12:31.942Z</time></trkpt><trkpt lat="43.9626321" lon="11.8402715"><ele>651.0</ele><time>2026-04-11T15:12:33.942Z</time></trkpt><trkpt lat="43.9626288" lon="11.8401836"><ele>651.0</ele><time>2026-04-11T15:13:18.943Z</time></trkpt><trkpt lat="43.9626586" lon="11.8400432"><ele>651.0</ele><time>2026-04-11T15:13:20.942Z</time></trkpt><trkpt lat="43.9627079" lon="11.8399055"><ele>651.0</ele><time>2026-04-11T15:13:22.941Z</time></trkpt><trkpt lat="43.9627707" lon="11.8397699"><ele>650.8</ele><time>2026-04-11T15:13:24.941Z</time></trkpt><trkpt lat="43.9627967" lon="11.8396064"><ele>650.5999999999999</ele><time>2026-04-11T15:13:26.942Z</time></trkpt><trkpt lat="43.9628158" lon="11.8394492"><ele>650.4</ele><time>2026-04-11T15:13:28.941Z</time></trkpt><trkpt lat="43.9628117" lon="11.8393375"><ele>650.2</ele><time>2026-04-11T15:13:30.942Z</time></trkpt><trkpt lat="43.9628269" lon="11.8392379"><ele>650.0</ele><time>2026-04-11T15:13:32.942Z</time></trkpt><trkpt lat="43.9628506" lon="11.8391509"><ele>650.0</ele><time>2026-04-11T15:13:34.941Z</time></trkpt><trkpt lat="43.9628929" lon="11.8390535"><ele>650.0</ele><time>2026-04-11T15:13:37.942Z</time></trkpt><trkpt lat="43.9629259" lon="11.8389525"><ele>650.0</ele><time>2026-04-11T15:13:39.943Z</time></trkpt><trkpt lat="43.9629307" lon="11.8388107"><ele>650.0</ele><time>2026-04-11T15:13:41.941Z</time></trkpt><trkpt lat="43.9628849" lon="11.838649"><ele>650.0</ele><time>2026-04-11T15:13:43.941Z</time></trkpt><trkpt lat="43.9628487" lon="11.8384886"><ele>650.2</ele><time>2026-04-11T15:13:45.941Z</time></trkpt><trkpt lat="43.962863" lon="11.8383319"><ele>650.4</ele><time>2026-04-11T15:13:47.942Z</time></trkpt><trkpt lat="43.9628692" lon="11.8381633"><ele>650.5999999999999</ele><time>2026-04-11T15:13:49.942Z</time></trkpt><trkpt lat="43.9628603" lon="11.8380046"><ele>650.8</ele><time>2026-04-11T15:13:51.941Z</time></trkpt><trkpt lat="43.9628542" lon="11.8378712"><ele>651.0</ele><time>2026-04-11T15:13:54.942Z</time></trkpt><trkpt lat="43.9628548" lon="11.8377739"><ele>651.0</ele><time>2026-04-11T15:13:56.941Z</time></trkpt><trkpt lat="43.9628647" lon="11.8376874"><ele>651.0</ele><time>2026-04-11T15:13:58.942Z</time></trkpt><trkpt lat="43.9628764" lon="11.837596"><ele>651.0</ele><time>2026-04-11T15:14:00.942Z</time></trkpt><trkpt lat="43.9629029" lon="11.8375159"><ele>651.0</ele><time>2026-04-11T15:14:04.941Z</time></trkpt><trkpt lat="43.9629145" lon="11.8376028"><ele>651.0</ele><time>2026-04-11T15:14:17.942Z</time></trkpt><trkpt lat="43.9629693" lon="11.8376852"><ele>651.0</ele><time>2026-04-11T15:14:19.942Z</time></trkpt><trkpt lat="43.963033" lon="11.837813"><ele>651.0</ele><time>2026-04-11T15:14:21.942Z</time></trkpt><trkpt lat="43.9630834" lon="11.837955"><ele>651.0</ele><time>2026-04-11T15:14:23.942Z</time></trkpt><trkpt lat="43.9631198" lon="11.8380871"><ele>651.0</ele><time>2026-04-11T15:14:25.942Z</time></trkpt><trkpt lat="43.9631433" lon="11.838216"><ele>651.0</ele><time>2026-04-11T15:14:27.941Z</time></trkpt><trkpt lat="43.9631944" lon="11.8383161"><ele>651.0</ele><time>2026-04-11T15:14:29.942Z</time></trkpt><trkpt lat="43.963297" lon="11.8383364"><ele>657.1999999999999</ele><time>2026-04-11T15:14:31.941Z</time></trkpt><trkpt lat="43.9633908" lon="11.8383852"><ele>663.4</ele><time>2026-04-11T15:14:33.942Z</time></trkpt><trkpt lat="43.9634672" lon="11.8384919"><ele>669.6</ele><time>2026-04-11T15:14:35.941Z</time></trkpt><trkpt lat="43.9635328" lon="11.8386173"><ele>675.8</ele><time>2026-04-11T15:14:37.941Z</time></trkpt><trkpt lat="43.9635881" lon="11.8387531"><ele>682.0</ele><time>2026-04-11T15:14:39.941Z</time></trkpt><trkpt lat="43.963625" lon="11.8388279"><ele>682.0</ele><time>2026-04-11T15:14:40.942Z</time></trkpt><trkpt lat="43.9636638" lon="11.8389048"><ele>682.0</ele><time>2026-04-11T15:14:41.942Z</time></trkpt><trkpt lat="43.9637384" lon="11.839022"><ele>682.0</ele><time>2026-04-11T15:14:43.941Z</time></trkpt><trkpt lat="43.9637801" lon="11.839088"><ele>682.0</ele><time>2026-04-11T15:14:44.941Z</time></trkpt><trkpt lat="43.9638532" lon="11.8391909"><ele>682.0</ele><time>2026-04-11T15:14:46.941Z</time></trkpt><trkpt lat="43.9638983" lon="11.83926"><ele>682.0</ele><time>2026-04-11T15:14:47.941Z</time></trkpt><trkpt lat="43.9639362" lon="11.8393359"><ele>681.6</ele><time>2026-04-11T15:14:48.942Z</time></trkpt><trkpt lat="43.9639874" lon="11.8394594"><ele>681.2</ele><time>2026-04-11T15:14:50.942Z</time></trkpt><trkpt lat="43.9640351" lon="11.8395401"><ele>680.8</ele><time>2026-04-11T15:14:52.942Z</time></trkpt><trkpt lat="43.9641057" lon="11.8395734"><ele>680.4</ele><time>2026-04-11T15:14:54.942Z</time></trkpt><trkpt lat="43.9641509" lon="11.8396943"><ele>680.0</ele><time>2026-04-11T15:14:58.941Z</time></trkpt><trkpt lat="43.964163" lon="11.8398672"><ele>680.0</ele><time>2026-04-11T15:15:00.942Z</time></trkpt><trkpt lat="43.9641686" lon="11.8399566"><ele>680.0</ele><time>2026-04-11T15:15:01.942Z</time></trkpt><trkpt lat="43.964177" lon="11.8400569"><ele>680.0</ele><time>2026-04-11T15:15:02.942Z</time></trkpt><trkpt lat="43.9641855" lon="11.8401689"><ele>680.0</ele><time>2026-04-11T15:15:03.942Z</time></trkpt><trkpt lat="43.9641922" lon="11.8402807"><ele>680.0</ele><time>2026-04-11T15:15:04.942Z</time></trkpt><trkpt lat="43.9641994" lon="11.8403973"><ele>680.0</ele><time>2026-04-11T15:15:05.941Z</time></trkpt><trkpt lat="43.9642058" lon="11.8405144"><ele>683.3333333333333</ele><time>2026-04-11T15:15:06.941Z</time></trkpt><trkpt lat="43.9642143" lon="11.8406291"><ele>686.6666666666666</ele><time>2026-04-11T15:15:07.941Z</time></trkpt><trkpt lat="43.9642242" lon="11.8407402"><ele>690.0</ele><time>2026-04-11T15:15:08.942Z</time></trkpt><trkpt lat="43.9642393" lon="11.8408463"><ele>693.3333333333334</ele><time>2026-04-11T15:15:09.941Z</time></trkpt><trkpt lat="43.9642671" lon="11.8409478"><ele>696.6666666666667</ele><time>2026-04-11T15:15:10.942Z</time></trkpt><trkpt lat="43.9643097" lon="11.8410437"><ele>700.0</ele><time>2026-04-11T15:15:11.941Z</time></trkpt><trkpt lat="43.9643628" lon="11.8411389"><ele>700.0</ele><time>2026-04-11T15:15:12.942Z</time></trkpt><trkpt lat="43.9644193" lon="11.8412317"><ele>700.0</ele><time>2026-04-11T15:15:13.942Z</time></trkpt><trkpt lat="43.9644825" lon="11.8413235"><ele>700.0</ele><time>2026-04-11T15:15:14.941Z</time></trkpt><trkpt lat="43.9645423" lon="11.8414142"><ele>700.0</ele><time>2026-04-11T15:15:15.942Z</time></trkpt><trkpt lat="43.9645943" lon="11.8415106"><ele>700.0</ele><time>2026-04-11T15:15:16.942Z</time></trkpt><trkpt lat="43.9646438" lon="11.8416071"><ele>700.0</ele><time>2026-04-11T15:15:17.941Z</time></trkpt><trkpt lat="43.9646923" lon="11.8416926"><ele>700.0</ele><time>2026-04-11T15:15:18.941Z</time></trkpt><trkpt lat="43.9647393" lon="11.8417789"><ele>700.0</ele><time>2026-04-11T15:15:19.941Z</time></trkpt><trkpt lat="43.9647852" lon="11.8418585"><ele>700.0</ele><time>2026-04-11T15:15:20.941Z</time></trkpt><trkpt lat="43.9648329" lon="11.8419445"><ele>700.0</ele><time>2026-04-11T15:15:21.941Z</time></trkpt><trkpt lat="43.9648922" lon="11.8420286"><ele>700.0</ele><time>2026-04-11T15:15:22.942Z</time></trkpt><trkpt lat="43.9649665" lon="11.8421023"><ele>700.0</ele><time>2026-04-11T15:15:23.943Z</time></trkpt><trkpt lat="43.965056" lon="11.8421675"><ele>702.2</ele><time>2026-04-11T15:15:24.941Z</time></trkpt><trkpt lat="43.9651481" lon="11.8422335"><ele>704.4</ele><time>2026-04-11T15:15:25.941Z</time></trkpt><trkpt lat="43.965235" lon="11.8423165"><ele>706.5999999999999</ele><time>2026-04-11T15:15:26.941Z</time></trkpt><trkpt lat="43.965313" lon="11.8424196"><ele>708.8</ele><time>2026-04-11T15:15:27.942Z</time></trkpt><trkpt lat="43.9653928" lon="11.8425204"><ele>711.0</ele><time>2026-04-11T15:15:28.942Z</time></trkpt><trkpt lat="43.9654814" lon="11.8426095"><ele>707.1999999999999</ele><time>2026-04-11T15:15:29.941Z</time></trkpt><trkpt lat="43.9655716" lon="11.8426945"><ele>703.4</ele><time>2026-04-11T15:15:30.941Z</time></trkpt><trkpt lat="43.9656551" lon="11.8427746"><ele>699.6</ele><time>2026-04-11T15:15:31.942Z</time></trkpt><trkpt lat="43.9657331" lon="11.8428404"><ele>695.8</ele><time>2026-04-11T15:15:32.941Z</time></trkpt><trkpt lat="43.9658232" lon="11.8428733"><ele>692.0</ele><time>2026-04-11T15:15:33.941Z</time></trkpt><trkpt lat="43.9659216" lon="11.8428859"><ele>692.0</ele><time>2026-04-11T15:15:34.941Z</time></trkpt><trkpt lat="43.9660245" lon="11.8428906"><ele>692.0</ele><time>2026-04-11T15:15:35.941Z</time></trkpt><trkpt lat="43.9661347" lon="11.842903"><ele>692.0</ele><time>2026-04-11T15:15:36.941Z</time></trkpt><trkpt lat="43.9662511" lon="11.8429159"><ele>692.0</ele><time>2026-04-11T15:15:37.942Z</time></trkpt><trkpt lat="43.9663701" lon="11.8429263"><ele>692.0</ele><time>2026-04-11T15:15:38.941Z</time></trkpt><trkpt lat="43.9664948" lon="11.8429297"><ele>692.0</ele><time>2026-04-11T15:15:39.942Z</time></trkpt><trkpt lat="43.966619" lon="11.8429473"><ele>692.0</ele><time>2026-04-11T15:15:40.943Z</time></trkpt><trkpt lat="43.9667394" lon="11.842986"><ele>692.0</ele><time>2026-04-11T15:15:41.941Z</time></trkpt><trkpt lat="43.9668559" lon="11.8430168"><ele>695.2</ele><time>2026-04-11T15:15:42.941Z</time></trkpt><trkpt lat="43.966972" lon="11.8430393"><ele>698.4000000000001</ele><time>2026-04-11T15:15:43.941Z</time></trkpt><trkpt lat="43.9670844" lon="11.8430576"><ele>701.5999999999999</ele><time>2026-04-11T15:15:44.942Z</time></trkpt><trkpt lat="43.9671939" lon="11.8430739"><ele>704.8</ele><time>2026-04-11T15:15:45.942Z</time></trkpt><trkpt lat="43.9672995" lon="11.8430905"><ele>708.0</ele><time>2026-04-11T15:15:46.942Z</time></trkpt><trkpt lat="43.967393" lon="11.8431084"><ele>708.0</ele><time>2026-04-11T15:15:47.941Z</time></trkpt><trkpt lat="43.967477" lon="11.8431516"><ele>708.0</ele><time>2026-04-11T15:15:48.942Z</time></trkpt><trkpt lat="43.967547" lon="11.8432352"><ele>708.0</ele><time>2026-04-11T15:15:49.942Z</time></trkpt><trkpt lat="43.9676092" lon="11.8433462"><ele>708.0</ele><time>2026-04-11T15:15:50.942Z</time></trkpt><trkpt lat="43.9676739" lon="11.8434565"><ele>708.0</ele><time>2026-04-11T15:15:51.942Z</time></trkpt><trkpt lat="43.9677347" lon="11.8435293"><ele>709.8</ele><time>2026-04-11T15:15:52.942Z</time></trkpt><trkpt lat="43.9678116" lon="11.8435808"><ele>711.5999999999999</ele><time>2026-04-11T15:15:53.942Z</time></trkpt><trkpt lat="43.9679012" lon="11.8436095"><ele>713.4000000000001</ele><time>2026-04-11T15:15:54.942Z</time></trkpt><trkpt lat="43.9679927" lon="11.8436485"><ele>715.2</ele><time>2026-04-11T15:15:55.943Z</time></trkpt><trkpt lat="43.9680754" lon="11.8437262"><ele>717.0</ele><time>2026-04-11T15:15:56.942Z</time></trkpt><trkpt lat="43.9681619" lon="11.8437941"><ele>717.0</ele><time>2026-04-11T15:15:57.942Z</time></trkpt><trkpt lat="43.9682456" lon="11.8438411"><ele>717.0</ele><time>2026-04-11T15:15:58.941Z</time></trkpt><trkpt lat="43.9683181" lon="11.8438584"><ele>717.0</ele><time>2026-04-11T15:15:59.942Z</time></trkpt><trkpt lat="43.9683798" lon="11.843791"><ele>717.0</ele><time>2026-04-11T15:16:01.942Z</time></trkpt><trkpt lat="43.968329" lon="11.843667"><ele>717.0</ele><time>2026-04-11T15:16:03.941Z</time></trkpt><trkpt lat="43.9682785" lon="11.8435416"><ele>717.0</ele><time>2026-04-11T15:16:05.942Z</time></trkpt><trkpt lat="43.9683142" lon="11.8434381"><ele>721.0</ele><time>2026-04-11T15:16:07.941Z</time></trkpt><trkpt lat="43.9684235" lon="11.8434611"><ele>725.0</ele><time>2026-04-11T15:16:09.942Z</time></trkpt><trkpt lat="43.9684928" lon="11.8435279"><ele>729.0</ele><time>2026-04-11T15:16:10.942Z</time></trkpt><trkpt lat="43.968557" lon="11.8436071"><ele>733.0</ele><time>2026-04-11T15:16:11.941Z</time></trkpt><trkpt lat="43.9686175" lon="11.8436999"><ele>737.0</ele><time>2026-04-11T15:16:12.942Z</time></trkpt><trkpt lat="43.9686519" lon="11.8438109"><ele>737.0</ele><time>2026-04-11T15:16:13.941Z</time></trkpt><trkpt lat="43.9686658" lon="11.8439392"><ele>737.0</ele><time>2026-04-11T15:16:14.942Z</time></trkpt><trkpt lat="43.9686654" lon="11.8440746"><ele>737.0</ele><time>2026-04-11T15:16:15.942Z</time></trkpt><trkpt lat="43.9686854" lon="11.844197"><ele>737.0</ele><time>2026-04-11T15:16:16.942Z</time></trkpt><trkpt lat="43.9687304" lon="11.8443086"><ele>737.0</ele><time>2026-04-11T15:16:17.941Z</time></trkpt><trkpt lat="43.9687956" lon="11.8444173"><ele>736.5</ele><time>2026-04-11T15:16:18.941Z</time></trkpt><trkpt lat="43.9688822" lon="11.8445068"><ele>736.0</ele><time>2026-04-11T15:16:19.942Z</time></trkpt><trkpt lat="43.9689802" lon="11.8445951"><ele>735.5</ele><time>2026-04-11T15:16:20.942Z</time></trkpt><trkpt lat="43.9690756" lon="11.8446922"><ele>735.0</ele><time>2026-04-11T15:16:21.942Z</time></trkpt><trkpt lat="43.9691644" lon="11.8447966"><ele>738.0</ele><time>2026-04-11T15:16:22.942Z</time></trkpt><trkpt lat="43.9692472" lon="11.8449084"><ele>741.0</ele><time>2026-04-11T15:16:23.941Z</time></trkpt><trkpt lat="43.9693272" lon="11.8450238"><ele>744.0</ele><time>2026-04-11T15:16:24.941Z</time></trkpt><trkpt lat="43.969405" lon="11.8451366"><ele>747.0</ele><time>2026-04-11T15:16:25.942Z</time></trkpt><trkpt lat="43.9694695" lon="11.8452365"><ele>750.0</ele><time>2026-04-11T15:16:26.942Z</time></trkpt><trkpt lat="43.969509" lon="11.8453229"><ele>750.2</ele><time>2026-04-11T15:16:27.941Z</time></trkpt><trkpt lat="43.9694827" lon="11.8454834"><ele>750.4</ele><time>2026-04-11T15:16:29.942Z</time></trkpt><trkpt lat="43.969419" lon="11.8455588"><ele>750.5999999999999</ele><time>2026-04-11T15:16:30.943Z</time></trkpt><trkpt lat="43.9693259" lon="11.8456389"><ele>750.8</ele><time>2026-04-11T15:16:31.942Z</time></trkpt><trkpt lat="43.9692063" lon="11.8457319"><ele>751.0</ele><time>2026-04-11T15:16:32.942Z</time></trkpt><trkpt lat="43.9690728" lon="11.8458527"><ele>755.0</ele><time>2026-04-11T15:16:33.941Z</time></trkpt><trkpt lat="43.9689169" lon="11.8459997"><ele>759.0</ele><time>2026-04-11T15:16:34.941Z</time></trkpt><trkpt lat="43.9687675" lon="11.8461403"><ele>763.0</ele><time>2026-04-11T15:16:35.941Z</time></trkpt><trkpt lat="43.9686412" lon="11.8462657"><ele>763.0</ele><time>2026-04-11T15:16:36.942Z</time></trkpt><trkpt lat="43.9685283" lon="11.8463836"><ele>763.0</ele><time>2026-04-11T15:16:37.942Z</time></trkpt><trkpt lat="43.9684314" lon="11.8464982"><ele>763.0</ele><time>2026-04-11T15:16:38.941Z</time></trkpt><trkpt lat="43.9683452" lon="11.846612"><ele>763.0</ele><time>2026-04-11T15:16:39.942Z</time></trkpt><trkpt lat="43.9682711" lon="11.8467243"><ele>765.2</ele><time>2026-04-11T15:16:40.941Z</time></trkpt><trkpt lat="43.9681957" lon="11.8468343"><ele>767.4</ele><time>2026-04-11T15:16:41.941Z</time></trkpt><trkpt lat="43.9681229" lon="11.8469441"><ele>769.6</ele><time>2026-04-11T15:16:42.942Z</time></trkpt><trkpt lat="43.968057" lon="11.8470578"><ele>771.8000000000001</ele><time>2026-04-11T15:16:43.941Z</time></trkpt><trkpt lat="43.9679981" lon="11.8471844"><ele>774.0</ele><time>2026-04-11T15:16:44.942Z</time></trkpt><trkpt lat="43.9679409" lon="11.8473186"><ele>774.0</ele><time>2026-04-11T15:16:45.942Z</time></trkpt><trkpt lat="43.967887" lon="11.8474621"><ele>774.0</ele><time>2026-04-11T15:16:46.941Z</time></trkpt><trkpt lat="43.9678376" lon="11.8476118"><ele>774.0</ele><time>2026-04-11T15:16:47.942Z</time></trkpt><trkpt lat="43.9677929" lon="11.8477595"><ele>774.0</ele><time>2026-04-11T15:16:48.941Z</time></trkpt><trkpt lat="43.9677543" lon="11.8478932"><ele>772.2</ele><time>2026-04-11T15:16:49.941Z</time></trkpt><trkpt lat="43.9677033" lon="11.8479974"><ele>770.4000000000001</ele><time>2026-04-11T15:16:50.941Z</time></trkpt><trkpt lat="43.9676245" lon="11.8480583"><ele>768.6</ele><time>2026-04-11T15:16:51.942Z</time></trkpt><trkpt lat="43.9675342" lon="11.8481362"><ele>766.8</ele><time>2026-04-11T15:16:52.941Z</time></trkpt><trkpt lat="43.967423" lon="11.8482129"><ele>765.0</ele><time>2026-04-11T15:16:53.942Z</time></trkpt><trkpt lat="43.9673251" lon="11.8483204"><ele>765.0</ele><time>2026-04-11T15:16:54.941Z</time></trkpt><trkpt lat="43.9672397" lon="11.8484105"><ele>765.0</ele><time>2026-04-11T15:16:55.941Z</time></trkpt><trkpt lat="43.9671393" lon="11.8484549"><ele>765.0</ele><time>2026-04-11T15:16:56.942Z</time></trkpt><trkpt lat="43.9670233" lon="11.8484495"><ele>765.0</ele><time>2026-04-11T15:16:57.941Z</time></trkpt><trkpt lat="43.9668951" lon="11.8484145"><ele>765.0</ele><time>2026-04-11T15:16:58.942Z</time></trkpt><trkpt lat="43.966759" lon="11.8483598"><ele>765.0</ele><time>2026-04-11T15:16:59.941Z</time></trkpt><trkpt lat="43.9666363" lon="11.8482866"><ele>765.0</ele><time>2026-04-11T15:17:00.942Z</time></trkpt><trkpt lat="43.9665098" lon="11.8482024"><ele>765.0</ele><time>2026-04-11T15:17:01.943Z</time></trkpt><trkpt lat="43.966426" lon="11.8480739"><ele>765.0</ele><time>2026-04-11T15:17:02.941Z</time></trkpt><trkpt lat="43.9663227" lon="11.8479567"><ele>765.0</ele><time>2026-04-11T15:17:03.942Z</time></trkpt><trkpt lat="43.9662344" lon="11.847827"><ele>765.0</ele><time>2026-04-11T15:17:04.941Z</time></trkpt><trkpt lat="43.966161" lon="11.8476895"><ele>765.0</ele><time>2026-04-11T15:17:05.942Z</time></trkpt><trkpt lat="43.9661242" lon="11.8476014"><ele>764.1666666666666</ele><time>2026-04-11T15:17:06.941Z</time></trkpt><trkpt lat="43.9660597" lon="11.8475385"><ele>763.3333333333334</ele><time>2026-04-11T15:17:07.941Z</time></trkpt><trkpt lat="43.9659673" lon="11.8475039"><ele>762.5</ele><time>2026-04-11T15:17:08.942Z</time></trkpt><trkpt lat="43.9658626" lon="11.8475045"><ele>761.6666666666667</ele><time>2026-04-11T15:17:09.942Z</time></trkpt><trkpt lat="43.9657797" lon="11.8475318"><ele>760.8333333333334</ele><time>2026-04-11T15:17:10.942Z</time></trkpt><trkpt lat="43.9657139" lon="11.8475894"><ele>760.0</ele><time>2026-04-11T15:17:11.942Z</time></trkpt><trkpt lat="43.9656668" lon="11.847671"><ele>760.0</ele><time>2026-04-11T15:17:12.941Z</time></trkpt><trkpt lat="43.9656515" lon="11.8477802"><ele>760.0</ele><time>2026-04-11T15:17:13.943Z</time></trkpt><trkpt lat="43.9656635" lon="11.8479165"><ele>760.0</ele><time>2026-04-11T15:17:14.942Z</time></trkpt><trkpt lat="43.9656926" lon="11.848058"><ele>760.0</ele><time>2026-04-11T15:17:15.941Z</time></trkpt><trkpt lat="43.9657199" lon="11.8482127"><ele>760.0</ele><time>2026-04-11T15:17:16.942Z</time></trkpt><trkpt lat="43.9657265" lon="11.8483725"><ele>761.2</ele><time>2026-04-11T15:17:17.941Z</time></trkpt><trkpt lat="43.9657032" lon="11.8485262"><ele>762.4</ele><time>2026-04-11T15:17:18.941Z</time></trkpt><trkpt lat="43.965653" lon="11.8486562"><ele>763.5999999999999</ele><time>2026-04-11T15:17:19.943Z</time></trkpt><trkpt lat="43.9655822" lon="11.8487361"><ele>764.8</ele><time>2026-04-11T15:17:20.942Z</time></trkpt><trkpt lat="43.9654826" lon="11.8487974"><ele>766.0</ele><time>2026-04-11T15:17:21.941Z</time></trkpt><trkpt lat="43.9653588" lon="11.8488544"><ele>766.0</ele><time>2026-04-11T15:17:22.941Z</time></trkpt><trkpt lat="43.9652269" lon="11.8489534"><ele>766.0</ele><time>2026-04-11T15:17:23.942Z</time></trkpt><trkpt lat="43.9650721" lon="11.8490522"><ele>766.0</ele><time>2026-04-11T15:17:24.941Z</time></trkpt><trkpt lat="43.9649279" lon="11.8491259"><ele>762.75</ele><time>2026-04-11T15:17:25.941Z</time></trkpt><trkpt lat="43.9647926" lon="11.8491947"><ele>759.5</ele><time>2026-04-11T15:17:26.941Z</time></trkpt><trkpt lat="43.9646741" lon="11.8492631"><ele>756.25</ele><time>2026-04-11T15:17:27.941Z</time></trkpt><trkpt lat="43.9645867" lon="11.8493437"><ele>753.0</ele><time>2026-04-11T15:17:28.942Z</time></trkpt><trkpt lat="43.9645107" lon="11.849458"><ele>753.0</ele><time>2026-04-11T15:17:29.941Z</time></trkpt><trkpt lat="43.9644436" lon="11.8495853"><ele>753.0</ele><time>2026-04-11T15:17:30.942Z</time></trkpt><trkpt lat="43.9643598" lon="11.8497039"><ele>753.0</ele><time>2026-04-11T15:17:31.942Z</time></trkpt><trkpt lat="43.9642692" lon="11.8498085"><ele>753.0</ele><time>2026-04-11T15:17:32.943Z</time></trkpt><trkpt lat="43.9641778" lon="11.8499001"><ele>750.8333333333334</ele><time>2026-04-11T15:17:33.942Z</time></trkpt><trkpt lat="43.9640852" lon="11.8499699"><ele>748.6666666666666</ele><time>2026-04-11T15:17:34.941Z</time></trkpt><trkpt lat="43.9640031" lon="11.8500211"><ele>746.5</ele><time>2026-04-11T15:17:35.942Z</time></trkpt><trkpt lat="43.9639219" lon="11.8500365"><ele>744.3333333333333</ele><time>2026-04-11T15:17:36.941Z</time></trkpt><trkpt lat="43.9638462" lon="11.8500321"><ele>742.1666666666666</ele><time>2026-04-11T15:17:37.941Z</time></trkpt><trkpt lat="43.9637811" lon="11.8500375"><ele>740.0</ele><time>2026-04-11T15:17:38.942Z</time></trkpt><trkpt lat="43.9637277" lon="11.8501303"><ele>736.1666666666666</ele><time>2026-04-11T15:17:40.941Z</time></trkpt><trkpt lat="43.9638005" lon="11.8502081"><ele>732.3333333333333</ele><time>2026-04-11T15:17:42.942Z</time></trkpt><trkpt lat="43.9638667" lon="11.8502334"><ele>728.5</ele><time>2026-04-11T15:17:43.941Z</time></trkpt><trkpt lat="43.9639373" lon="11.8502613"><ele>724.6666666666666</ele><time>2026-04-11T15:17:44.941Z</time></trkpt><trkpt lat="43.9640151" lon="11.8503102"><ele>720.8333333333334</ele><time>2026-04-11T15:17:45.941Z</time></trkpt><trkpt lat="43.964092" lon="11.8503775"><ele>717.0</ele><time>2026-04-11T15:17:46.941Z</time></trkpt><trkpt lat="43.9641613" lon="11.8504483"><ele>718.5</ele><time>2026-04-11T15:17:47.942Z</time></trkpt><trkpt lat="43.9642306" lon="11.8505221"><ele>720.0</ele><time>2026-04-11T15:17:48.942Z</time></trkpt><trkpt lat="43.9643017" lon="11.8505906"><ele>721.5</ele><time>2026-04-11T15:17:49.942Z</time></trkpt><trkpt lat="43.9643753" lon="11.8506566"><ele>723.0</ele><time>2026-04-11T15:17:50.941Z</time></trkpt><trkpt lat="43.9644562" lon="11.8507142"><ele>724.5</ele><time>2026-04-11T15:17:51.942Z</time></trkpt><trkpt lat="43.9645335" lon="11.8507785"><ele>726.0</ele><time>2026-04-11T15:17:52.942Z</time></trkpt><trkpt lat="43.964608" lon="11.8508417"><ele>725.9999999999999</ele><time>2026-04-11T15:17:53.942Z</time></trkpt><trkpt lat="43.9646758" lon="11.8508863"><ele>726.0</ele><time>2026-04-11T15:17:54.941Z</time></trkpt><trkpt lat="43.9647524" lon="11.8509073"><ele>726.0</ele><time>2026-04-11T15:17:55.942Z</time></trkpt><trkpt lat="43.9648189" lon="11.8509239"><ele>726.0</ele><time>2026-04-11T15:17:56.943Z</time></trkpt><trkpt lat="43.9648905" lon="11.8509314"><ele>726.0</ele><time>2026-04-11T15:17:57.943Z</time></trkpt><trkpt lat="43.9649761" lon="11.8509262"><ele>725.9999999999999</ele><time>2026-04-11T15:17:58.943Z</time></trkpt><trkpt lat="43.9650464" lon="11.8509315"><ele>726.0</ele><time>2026-04-11T15:17:59.941Z</time></trkpt><trkpt lat="43.9651093" lon="11.8509645"><ele>727.6666666666666</ele><time>2026-04-11T15:18:00.942Z</time></trkpt><trkpt lat="43.9651665" lon="11.8510012"><ele>729.3333333333334</ele><time>2026-04-11T15:18:01.941Z</time></trkpt><trkpt lat="43.9652422" lon="11.851141"><ele>731.0</ele><time>2026-04-11T15:18:03.941Z</time></trkpt><trkpt lat="43.9652515" lon="11.8512368"><ele>732.6666666666667</ele><time>2026-04-11T15:18:04.941Z</time></trkpt><trkpt lat="43.9652448" lon="11.8513347"><ele>734.3333333333334</ele><time>2026-04-11T15:18:05.941Z</time></trkpt><trkpt lat="43.965221" lon="11.8514311"><ele>736.0</ele><time>2026-04-11T15:18:06.941Z</time></trkpt><trkpt lat="43.965181" lon="11.8515223"><ele>736.0</ele><time>2026-04-11T15:18:07.943Z</time></trkpt><trkpt lat="43.9651372" lon="11.8516205"><ele>736.0</ele><time>2026-04-11T15:18:08.942Z</time></trkpt><trkpt lat="43.9650975" lon="11.851724"><ele>736.0</ele><time>2026-04-11T15:18:09.941Z</time></trkpt><trkpt lat="43.9650595" lon="11.8518372"><ele>736.0</ele><time>2026-04-11T15:18:10.943Z</time></trkpt><trkpt lat="43.9650156" lon="11.8519482"><ele>736.0</ele><time>2026-04-11T15:18:11.942Z</time></trkpt><trkpt lat="43.9649592" lon="11.8520542"><ele>736.0</ele><time>2026-04-11T15:18:12.941Z</time></trkpt><trkpt lat="43.9648965" lon="11.8521554"><ele>730.0</ele><time>2026-04-11T15:18:13.941Z</time></trkpt><trkpt lat="43.9648327" lon="11.8522586"><ele>724.0</ele><time>2026-04-11T15:18:14.942Z</time></trkpt><trkpt lat="43.9647669" lon="11.8523595"><ele>718.0</ele><time>2026-04-11T15:18:15.942Z</time></trkpt><trkpt lat="43.9647158" lon="11.8524786"><ele>712.0</ele><time>2026-04-11T15:18:16.941Z</time></trkpt><trkpt lat="43.9646688" lon="11.8526032"><ele>706.0</ele><time>2026-04-11T15:18:17.942Z</time></trkpt><trkpt lat="43.9646301" lon="11.8527293"><ele>704.8</ele><time>2026-04-11T15:18:18.941Z</time></trkpt><trkpt lat="43.9646017" lon="11.8528468"><ele>703.5999999999999</ele><time>2026-04-11T15:18:19.942Z</time></trkpt><trkpt lat="43.9645863" lon="11.8529718"><ele>702.4</ele><time>2026-04-11T15:18:20.942Z</time></trkpt><trkpt lat="43.9645926" lon="11.8530964"><ele>701.2</ele><time>2026-04-11T15:18:21.942Z</time></trkpt><trkpt lat="43.9646139" lon="11.8532247"><ele>700.0</ele><time>2026-04-11T15:18:22.941Z</time></trkpt><trkpt lat="43.964643" lon="11.8533531"><ele>700.0</ele><time>2026-04-11T15:18:23.942Z</time></trkpt><trkpt lat="43.9646526" lon="11.8534819"><ele>700.0</ele><time>2026-04-11T15:18:24.941Z</time></trkpt><trkpt lat="43.9646554" lon="11.8536067"><ele>700.0</ele><time>2026-04-11T15:18:25.942Z</time></trkpt><trkpt lat="43.9646626" lon="11.8537288"><ele>700.0</ele><time>2026-04-11T15:18:26.941Z</time></trkpt><trkpt lat="43.9646746" lon="11.8538458"><ele>700.0</ele><time>2026-04-11T15:18:27.941Z</time></trkpt><trkpt lat="43.9646812" lon="11.8539427"><ele>700.0</ele><time>2026-04-11T15:18:28.941Z</time></trkpt><trkpt lat="43.9646713" lon="11.8540317"><ele>700.0</ele><time>2026-04-11T15:18:29.941Z</time></trkpt><trkpt lat="43.9645789" lon="11.8541177"><ele>700.0</ele><time>2026-04-11T15:18:31.943Z</time></trkpt><trkpt lat="43.9645116" lon="11.8541222"><ele>700.0</ele><time>2026-04-11T15:18:32.941Z</time></trkpt><trkpt lat="43.9644364" lon="11.854107"><ele>700.0</ele><time>2026-04-11T15:18:33.942Z</time></trkpt><trkpt lat="43.9643609" lon="11.8540905"><ele>700.0</ele><time>2026-04-11T15:18:34.941Z</time></trkpt><trkpt lat="43.9642841" lon="11.854083"><ele>700.0</ele><time>2026-04-11T15:18:35.942Z</time></trkpt><trkpt lat="43.9642077" lon="11.8540815"><ele>697.6666666666667</ele><time>2026-04-11T15:18:36.942Z</time></trkpt><trkpt lat="43.9641299" lon="11.8540863"><ele>695.3333333333334</ele><time>2026-04-11T15:18:37.942Z</time></trkpt><trkpt lat="43.9640482" lon="11.8541012"><ele>693.0</ele><time>2026-04-11T15:18:38.941Z</time></trkpt><trkpt lat="43.9639677" lon="11.8541329"><ele>690.6666666666666</ele><time>2026-04-11T15:18:39.942Z</time></trkpt><trkpt lat="43.9638879" lon="11.854182"><ele>688.3333333333333</ele><time>2026-04-11T15:18:40.941Z</time></trkpt><trkpt lat="43.9638131" lon="11.8542444"><ele>686.0</ele><time>2026-04-11T15:18:41.942Z</time></trkpt><trkpt lat="43.9637449" lon="11.8543253"><ele>686.0</ele><time>2026-04-11T15:18:42.941Z</time></trkpt><trkpt lat="43.9636854" lon="11.8543936"><ele>686.0</ele><time>2026-04-11T15:18:43.942Z</time></trkpt><trkpt lat="43.9636152" lon="11.8544494"><ele>686.0</ele><time>2026-04-11T15:18:44.942Z</time></trkpt><trkpt lat="43.963543" lon="11.8544758"><ele>686.0</ele><time>2026-04-11T15:18:45.942Z</time></trkpt><trkpt lat="43.9634658" lon="11.8544797"><ele>686.0</ele><time>2026-04-11T15:18:46.941Z</time></trkpt><trkpt lat="43.9633849" lon="11.8544828"><ele>686.0</ele><time>2026-04-11T15:18:47.94Z</time></trkpt><trkpt lat="43.9633114" lon="11.854509"><ele>682.0</ele><time>2026-04-11T15:18:48.941Z</time></trkpt><trkpt lat="43.9632379" lon="11.8545453"><ele>678.0</ele><time>2026-04-11T15:18:49.941Z</time></trkpt><trkpt lat="43.9631731" lon="11.854606"><ele>674.0</ele><time>2026-04-11T15:18:50.941Z</time></trkpt><trkpt lat="43.9631204" lon="11.8546879"><ele>670.0</ele><time>2026-04-11T15:18:51.941Z</time></trkpt><trkpt lat="43.9630759" lon="11.8547823"><ele>666.0</ele><time>2026-04-11T15:18:52.94Z</time></trkpt><trkpt lat="43.9630432" lon="11.8548797"><ele>662.0</ele><time>2026-04-11T15:18:53.941Z</time></trkpt><trkpt lat="43.9630338" lon="11.8549712"><ele>662.0</ele><time>2026-04-11T15:18:54.94Z</time></trkpt><trkpt lat="43.9630386" lon="11.8550725"><ele>662.0</ele><time>2026-04-11T15:18:55.94Z</time></trkpt><trkpt lat="43.9630506" lon="11.8551726"><ele>662.0</ele><time>2026-04-11T15:18:56.941Z</time></trkpt><trkpt lat="43.9630002" lon="11.8553262"><ele>662.0</ele><time>2026-04-11T15:18:58.941Z</time></trkpt><trkpt lat="43.9629364" lon="11.8553603"><ele>662.0</ele><time>2026-04-11T15:18:59.94Z</time></trkpt><trkpt lat="43.9628633" lon="11.8553754"><ele>662.0</ele><time>2026-04-11T15:19:00.941Z</time></trkpt><trkpt lat="43.9627885" lon="11.8553888"><ele>663.5</ele><time>2026-04-11T15:19:01.941Z</time></trkpt><trkpt lat="43.9627111" lon="11.8554053"><ele>665.0</ele><time>2026-04-11T15:19:02.94Z</time></trkpt><trkpt lat="43.9626332" lon="11.8554336"><ele>666.5</ele><time>2026-04-11T15:19:03.941Z</time></trkpt><trkpt lat="43.9625523" lon="11.8554679"><ele>668.0</ele><time>2026-04-11T15:19:04.941Z</time></trkpt><trkpt lat="43.9624777" lon="11.855533"><ele>669.5</ele><time>2026-04-11T15:19:05.941Z</time></trkpt><trkpt lat="43.9624" lon="11.8555962"><ele>671.0</ele><time>2026-04-11T15:19:06.94Z</time></trkpt><trkpt lat="43.9623246" lon="11.8556867"><ele>668.4</ele><time>2026-04-11T15:19:07.941Z</time></trkpt><trkpt lat="43.9622419" lon="11.8557696"><ele>665.8</ele><time>2026-04-11T15:19:08.941Z</time></trkpt><trkpt lat="43.9621594" lon="11.8558585"><ele>663.1999999999999</ele><time>2026-04-11T15:19:09.94Z</time></trkpt><trkpt lat="43.9620728" lon="11.8559524"><ele>660.5999999999999</ele><time>2026-04-11T15:19:10.941Z</time></trkpt><trkpt lat="43.961982" lon="11.8560372"><ele>658.0</ele><time>2026-04-11T15:19:11.941Z</time></trkpt><trkpt lat="43.9618903" lon="11.8561234"><ele>658.0</ele><time>2026-04-11T15:19:12.94Z</time></trkpt><trkpt lat="43.9618017" lon="11.8562248"><ele>658.0</ele><time>2026-04-11T15:19:13.94Z</time></trkpt><trkpt lat="43.9617196" lon="11.8563303"><ele>658.0</ele><time>2026-04-11T15:19:14.941Z</time></trkpt><trkpt lat="43.9616452" lon="11.8564485"><ele>658.0</ele><time>2026-04-11T15:19:15.941Z</time></trkpt><trkpt lat="43.9615717" lon="11.856571"><ele>654.0</ele><time>2026-04-11T15:19:16.941Z</time></trkpt><trkpt lat="43.9614985" lon="11.8566859"><ele>650.0</ele><time>2026-04-11T15:19:17.941Z</time></trkpt><trkpt lat="43.9614286" lon="11.8567938"><ele>646.0</ele><time>2026-04-11T15:19:18.94Z</time></trkpt><trkpt lat="43.9613544" lon="11.8568936"><ele>642.0</ele><time>2026-04-11T15:19:19.941Z</time></trkpt><trkpt lat="43.9612805" lon="11.8569883"><ele>638.0</ele><time>2026-04-11T15:19:20.941Z</time></trkpt><trkpt lat="43.9612074" lon="11.8570814"><ele>638.0</ele><time>2026-04-11T15:19:21.941Z</time></trkpt><trkpt lat="43.9611471" lon="11.8571878"><ele>638.0</ele><time>2026-04-11T15:19:22.94Z</time></trkpt><trkpt lat="43.9610904" lon="11.857303"><ele>638.0</ele><time>2026-04-11T15:19:23.94Z</time></trkpt><trkpt lat="43.961032" lon="11.8574255"><ele>638.0</ele><time>2026-04-11T15:19:24.941Z</time></trkpt><trkpt lat="43.9609697" lon="11.8575472"><ele>638.0</ele><time>2026-04-11T15:19:25.941Z</time></trkpt><trkpt lat="43.9609058" lon="11.8576712"><ele>633.1999999999999</ele><time>2026-04-11T15:19:26.94Z</time></trkpt><trkpt lat="43.9608356" lon="11.8577859"><ele>628.4</ele><time>2026-04-11T15:19:27.94Z</time></trkpt><trkpt lat="43.9607564" lon="11.8578944"><ele>623.5999999999999</ele><time>2026-04-11T15:19:28.94Z</time></trkpt><trkpt lat="43.9606725" lon="11.8579923"><ele>618.8</ele><time>2026-04-11T15:19:29.941Z</time></trkpt><trkpt lat="43.960589" lon="11.8580892"><ele>614.0</ele><time>2026-04-11T15:19:30.941Z</time></trkpt><trkpt lat="43.9605102" lon="11.85819"><ele>614.0</ele><time>2026-04-11T15:19:31.942Z</time></trkpt><trkpt lat="43.9604431" lon="11.858285"><ele>614.0</ele><time>2026-04-11T15:19:32.94Z</time></trkpt><trkpt lat="43.9603853" lon="11.8583723"><ele>614.0</ele><time>2026-04-11T15:19:33.94Z</time></trkpt><trkpt lat="43.9603415" lon="11.8584497"><ele>614.0</ele><time>2026-04-11T15:19:34.94Z</time></trkpt><trkpt lat="43.9602575" lon="11.858495"><ele>614.0</ele><time>2026-04-11T15:19:36.94Z</time></trkpt><trkpt lat="43.9602125" lon="11.8583911"><ele>614.0</ele><time>2026-04-11T15:19:38.94Z</time></trkpt><trkpt lat="43.9602271" lon="11.8583009"><ele>614.0</ele><time>2026-04-11T15:19:39.941Z</time></trkpt><trkpt lat="43.9602503" lon="11.8581922"><ele>614.0</ele><time>2026-04-11T15:19:40.94Z</time></trkpt><trkpt lat="43.9602654" lon="11.8580734"><ele>614.0</ele><time>2026-04-11T15:19:41.94Z</time></trkpt><trkpt lat="43.9602792" lon="11.8579491"><ele>614.0</ele><time>2026-04-11T15:19:42.941Z</time></trkpt><trkpt lat="43.960284" lon="11.857824"><ele>614.0</ele><time>2026-04-11T15:19:43.941Z</time></trkpt><trkpt lat="43.9602865" lon="11.8576961"><ele>614.0</ele><time>2026-04-11T15:19:44.94Z</time></trkpt><trkpt lat="43.9603006" lon="11.8575699"><ele>613.6</ele><time>2026-04-11T15:19:45.941Z</time></trkpt><trkpt lat="43.9603296" lon="11.8574509"><ele>613.2</ele><time>2026-04-11T15:19:46.941Z</time></trkpt><trkpt lat="43.9603746" lon="11.8573494"><ele>612.8000000000001</ele><time>2026-04-11T15:19:47.94Z</time></trkpt><trkpt lat="43.9604393" lon="11.8572606"><ele>612.4</ele><time>2026-04-11T15:19:48.941Z</time></trkpt><trkpt lat="43.9604948" lon="11.8571572"><ele>612.0</ele><time>2026-04-11T15:19:49.941Z</time></trkpt><trkpt lat="43.960524" lon="11.8570355"><ele>612.0</ele><time>2026-04-11T15:19:50.941Z</time></trkpt><trkpt lat="43.9605318" lon="11.8569009"><ele>612.0</ele><time>2026-04-11T15:19:51.94Z</time></trkpt><trkpt lat="43.9605277" lon="11.8567689"><ele>612.0</ele><time>2026-04-11T15:19:52.94Z</time></trkpt><trkpt lat="43.9605215" lon="11.8566352"><ele>612.0</ele><time>2026-04-11T15:19:53.94Z</time></trkpt><trkpt lat="43.9605049" lon="11.8565071"><ele>612.0</ele><time>2026-04-11T15:19:54.941Z</time></trkpt><trkpt lat="43.9604832" lon="11.8563945"><ele>610.8333333333334</ele><time>2026-04-11T15:19:55.94Z</time></trkpt><trkpt lat="43.9604467" lon="11.8563029"><ele>609.6666666666666</ele><time>2026-04-11T15:19:56.941Z</time></trkpt><trkpt lat="43.9603893" lon="11.8562368"><ele>608.5</ele><time>2026-04-11T15:19:57.941Z</time></trkpt><trkpt lat="43.9603221" lon="11.8562046"><ele>607.3333333333333</ele><time>2026-04-11T15:19:58.941Z</time></trkpt><trkpt lat="43.9602511" lon="11.856208"><ele>606.1666666666666</ele><time>2026-04-11T15:19:59.94Z</time></trkpt><trkpt lat="43.960157" lon="11.856249"><ele>605.0</ele><time>2026-04-11T15:20:00.94Z</time></trkpt><trkpt lat="43.9600707" lon="11.8563151"><ele>598.75</ele><time>2026-04-11T15:20:01.94Z</time></trkpt><trkpt lat="43.9599761" lon="11.856389"><ele>592.5</ele><time>2026-04-11T15:20:02.941Z</time></trkpt><trkpt lat="43.9598755" lon="11.856469"><ele>586.25</ele><time>2026-04-11T15:20:03.941Z</time></trkpt><trkpt lat="43.9597675" lon="11.8565437"><ele>580.0</ele><time>2026-04-11T15:20:04.942Z</time></trkpt><trkpt lat="43.9596581" lon="11.8566221"><ele>580.0</ele><time>2026-04-11T15:20:05.94Z</time></trkpt><trkpt lat="43.959549" lon="11.8567061"><ele>580.0</ele><time>2026-04-11T15:20:06.94Z</time></trkpt><trkpt lat="43.9594354" lon="11.8567961"><ele>580.0</ele><time>2026-04-11T15:20:07.941Z</time></trkpt><trkpt lat="43.9593192" lon="11.8568794"><ele>580.0</ele><time>2026-04-11T15:20:08.941Z</time></trkpt><trkpt lat="43.9592015" lon="11.8569546"><ele>576.5</ele><time>2026-04-11T15:20:09.941Z</time></trkpt><trkpt lat="43.959085" lon="11.8570235"><ele>573.0</ele><time>2026-04-11T15:20:10.941Z</time></trkpt><trkpt lat="43.9589661" lon="11.8570851"><ele>569.5</ele><time>2026-04-11T15:20:11.941Z</time></trkpt><trkpt lat="43.9588428" lon="11.8571262"><ele>566.0</ele><time>2026-04-11T15:20:12.941Z</time></trkpt><trkpt lat="43.9587177" lon="11.857151"><ele>566.0</ele><time>2026-04-11T15:20:13.942Z</time></trkpt><trkpt lat="43.9586034" lon="11.8571537"><ele>566.0</ele><time>2026-04-11T15:20:14.94Z</time></trkpt><trkpt lat="43.9584936" lon="11.85713"><ele>566.0</ele><time>2026-04-11T15:20:15.94Z</time></trkpt><trkpt lat="43.9583972" lon="11.8570898"><ele>566.0</ele><time>2026-04-11T15:20:16.941Z</time></trkpt><trkpt lat="43.9583116" lon="11.8570545"><ele>566.0</ele><time>2026-04-11T15:20:17.94Z</time></trkpt><trkpt lat="43.9582345" lon="11.8570334"><ele>563.2</ele><time>2026-04-11T15:20:18.941Z</time></trkpt><trkpt lat="43.9581597" lon="11.8570435"><ele>560.4000000000001</ele><time>2026-04-11T15:20:19.94Z</time></trkpt><trkpt lat="43.9580839" lon="11.857088"><ele>557.6</ele><time>2026-04-11T15:20:20.941Z</time></trkpt><trkpt lat="43.9580181" lon="11.8571739"><ele>554.8000000000001</ele><time>2026-04-11T15:20:21.941Z</time></trkpt><trkpt lat="43.9579573" lon="11.8572847"><ele>552.0</ele><time>2026-04-11T15:20:22.94Z</time></trkpt><trkpt lat="43.9578952" lon="11.8574104"><ele>552.0</ele><time>2026-04-11T15:20:23.941Z</time></trkpt><trkpt lat="43.957829" lon="11.8575346"><ele>552.0</ele><time>2026-04-11T15:20:24.94Z</time></trkpt><trkpt lat="43.9577624" lon="11.8576717"><ele>552.0</ele><time>2026-04-11T15:20:25.94Z</time></trkpt><trkpt lat="43.957704" lon="11.8577987"><ele>552.0</ele><time>2026-04-11T15:20:26.94Z</time></trkpt><trkpt lat="43.957604" lon="11.8578943"><ele>550.75</ele><time>2026-04-11T15:20:27.94Z</time></trkpt><trkpt lat="43.9575146" lon="11.8579849"><ele>549.5</ele><time>2026-04-11T15:20:28.94Z</time></trkpt><trkpt lat="43.9574161" lon="11.8580661"><ele>548.25</ele><time>2026-04-11T15:20:29.94Z</time></trkpt><trkpt lat="43.9573093" lon="11.8581624"><ele>547.0</ele><time>2026-04-11T15:20:30.941Z</time></trkpt><trkpt lat="43.9572242" lon="11.8582686"><ele>547.0</ele><time>2026-04-11T15:20:31.942Z</time></trkpt><trkpt lat="43.9571518" lon="11.8583818"><ele>547.0</ele><time>2026-04-11T15:20:32.94Z</time></trkpt><trkpt lat="43.9570863" lon="11.8585062"><ele>547.0</ele><time>2026-04-11T15:20:33.94Z</time></trkpt><trkpt lat="43.9570336" lon="11.8586363"><ele>547.0</ele><time>2026-04-11T15:20:34.94Z</time></trkpt><trkpt lat="43.9569954" lon="11.8587763"><ele>547.0</ele><time>2026-04-11T15:20:35.94Z</time></trkpt><trkpt lat="43.956954" lon="11.8589185"><ele>542.5</ele><time>2026-04-11T15:20:36.94Z</time></trkpt><trkpt lat="43.9569011" lon="11.8590556"><ele>538.0</ele><time>2026-04-11T15:20:37.941Z</time></trkpt><trkpt lat="43.956849" lon="11.8591979"><ele>533.5</ele><time>2026-04-11T15:20:38.94Z</time></trkpt><trkpt lat="43.9568046" lon="11.8593459"><ele>529.0</ele><time>2026-04-11T15:20:39.942Z</time></trkpt><trkpt lat="43.9567768" lon="11.8594942"><ele>527.1666666666667</ele><time>2026-04-11T15:20:40.94Z</time></trkpt><trkpt lat="43.9567527" lon="11.8596364"><ele>525.3333333333334</ele><time>2026-04-11T15:20:41.941Z</time></trkpt><trkpt lat="43.956728" lon="11.8597699"><ele>523.5</ele><time>2026-04-11T15:20:42.941Z</time></trkpt><trkpt lat="43.9566967" lon="11.8598777"><ele>521.6666666666666</ele><time>2026-04-11T15:20:43.941Z</time></trkpt><trkpt lat="43.956655" lon="11.8599677"><ele>519.8333333333333</ele><time>2026-04-11T15:20:44.94Z</time></trkpt><trkpt lat="43.9565894" lon="11.8600339"><ele>518.0</ele><time>2026-04-11T15:20:45.94Z</time></trkpt><trkpt lat="43.9565111" lon="11.8600762"><ele>522.0</ele><time>2026-04-11T15:20:46.941Z</time></trkpt><trkpt lat="43.9564206" lon="11.8600955"><ele>526.0</ele><time>2026-04-11T15:20:47.94Z</time></trkpt><trkpt lat="43.9563322" lon="11.8601276"><ele>530.0</ele><time>2026-04-11T15:20:48.941Z</time></trkpt><trkpt lat="43.9562518" lon="11.8601787"><ele>534.0</ele><time>2026-04-11T15:20:49.94Z</time></trkpt><trkpt lat="43.9561887" lon="11.8602224"><ele>538.0</ele><time>2026-04-11T15:20:50.94Z</time></trkpt><trkpt lat="43.9561702" lon="11.8603976"><ele>538.0</ele><time>2026-04-11T15:20:52.941Z</time></trkpt><trkpt lat="43.9562023" lon="11.8604942"><ele>538.0</ele><time>2026-04-11T15:20:53.941Z</time></trkpt><trkpt lat="43.9562377" lon="11.8606032"><ele>538.0</ele><time>2026-04-11T15:20:54.941Z</time></trkpt><trkpt lat="43.9562595" lon="11.8607254"><ele>538.0</ele><time>2026-04-11T15:20:55.941Z</time></trkpt><trkpt lat="43.9562546" lon="11.8608588"><ele>538.0</ele><time>2026-04-11T15:20:56.941Z</time></trkpt><trkpt lat="43.9562214" lon="11.860988"><ele>538.0</ele><time>2026-04-11T15:20:57.941Z</time></trkpt><trkpt lat="43.9561639" lon="11.8611054"><ele>535.0</ele><time>2026-04-11T15:20:58.941Z</time></trkpt><trkpt lat="43.9560973" lon="11.8612169"><ele>532.0</ele><time>2026-04-11T15:20:59.941Z</time></trkpt><trkpt lat="43.9560281" lon="11.861333"><ele>529.0</ele><time>2026-04-11T15:21:00.94Z</time></trkpt><trkpt lat="43.9559588" lon="11.8614514"><ele>526.0</ele><time>2026-04-11T15:21:01.941Z</time></trkpt><trkpt lat="43.9558929" lon="11.8615554"><ele>523.0</ele><time>2026-04-11T15:21:02.94Z</time></trkpt><trkpt lat="43.955822" lon="11.8616475"><ele>522.1999999999999</ele><time>2026-04-11T15:21:03.941Z</time></trkpt><trkpt lat="43.9557407" lon="11.8617297"><ele>521.4</ele><time>2026-04-11T15:21:04.94Z</time></trkpt><trkpt lat="43.9556461" lon="11.8618014"><ele>520.5999999999999</ele><time>2026-04-11T15:21:05.941Z</time></trkpt><trkpt lat="43.9555454" lon="11.8618728"><ele>519.8</ele><time>2026-04-11T15:21:06.94Z</time></trkpt><trkpt lat="43.9554393" lon="11.8619517"><ele>519.0</ele><time>2026-04-11T15:21:07.941Z</time></trkpt><trkpt lat="43.9553362" lon="11.8620344"><ele>512.75</ele><time>2026-04-11T15:21:08.94Z</time></trkpt><trkpt lat="43.9552387" lon="11.8621233"><ele>506.5</ele><time>2026-04-11T15:21:09.941Z</time></trkpt><trkpt lat="43.95514" lon="11.8622274"><ele>500.25</ele><time>2026-04-11T15:21:10.94Z</time></trkpt><trkpt lat="43.9550501" lon="11.8623576"><ele>494.0</ele><time>2026-04-11T15:21:11.941Z</time></trkpt><trkpt lat="43.9549581" lon="11.8624915"><ele>488.25</ele><time>2026-04-11T15:21:12.941Z</time></trkpt><trkpt lat="43.9548679" lon="11.8626332"><ele>482.5</ele><time>2026-04-11T15:21:13.94Z</time></trkpt><trkpt lat="43.9547767" lon="11.862782"><ele>476.75</ele><time>2026-04-11T15:21:14.941Z</time></trkpt><trkpt lat="43.9546901" lon="11.8629309"><ele>471.0</ele><time>2026-04-11T15:21:15.941Z</time></trkpt><trkpt lat="43.9546103" lon="11.8630799"><ele>471.0</ele><time>2026-04-11T15:21:16.942Z</time></trkpt><trkpt lat="43.9545381" lon="11.8632311"><ele>471.0</ele><time>2026-04-11T15:21:17.941Z</time></trkpt><trkpt lat="43.9544719" lon="11.8633714"><ele>471.0</ele><time>2026-04-11T15:21:18.941Z</time></trkpt><trkpt lat="43.9544122" lon="11.8635058"><ele>471.0</ele><time>2026-04-11T15:21:19.941Z</time></trkpt><trkpt lat="43.9543634" lon="11.8636283"><ele>470.6666666666667</ele><time>2026-04-11T15:21:20.941Z</time></trkpt><trkpt lat="43.9543217" lon="11.8637296"><ele>470.33333333333337</ele><time>2026-04-11T15:21:21.94Z</time></trkpt><trkpt lat="43.9542765" lon="11.8637964"><ele>470.0</ele><time>2026-04-11T15:21:22.94Z</time></trkpt><trkpt lat="43.9541538" lon="11.8637951"><ele>469.6666666666667</ele><time>2026-04-11T15:21:24.941Z</time></trkpt><trkpt lat="43.9540849" lon="11.8637489"><ele>469.33333333333337</ele><time>2026-04-11T15:21:25.94Z</time></trkpt><trkpt lat="43.9540087" lon="11.8636924"><ele>469.0</ele><time>2026-04-11T15:21:26.941Z</time></trkpt><trkpt lat="43.95393" lon="11.863625"><ele>469.00000000000006</ele><time>2026-04-11T15:21:27.94Z</time></trkpt><trkpt lat="43.9538474" lon="11.8635623"><ele>469.0</ele><time>2026-04-11T15:21:28.942Z</time></trkpt><trkpt lat="43.9537636" lon="11.8634917"><ele>469.0</ele><time>2026-04-11T15:21:29.94Z</time></trkpt><trkpt lat="43.9536819" lon="11.863433"><ele>469.0</ele><time>2026-04-11T15:21:30.941Z</time></trkpt><trkpt lat="43.9536095" lon="11.8634016"><ele>469.00000000000006</ele><time>2026-04-11T15:21:31.941Z</time></trkpt><trkpt lat="43.9535398" lon="11.8633964"><ele>469.0</ele><time>2026-04-11T15:21:32.94Z</time></trkpt><trkpt lat="43.953474" lon="11.86343"><ele>469.00000000000006</ele><time>2026-04-11T15:21:33.941Z</time></trkpt><trkpt lat="43.9534158" lon="11.8635056"><ele>469.0</ele><time>2026-04-11T15:21:34.94Z</time></trkpt><trkpt lat="43.9533688" lon="11.8636051"><ele>469.0</ele><time>2026-04-11T15:21:35.94Z</time></trkpt><trkpt lat="43.9533312" lon="11.8637184"><ele>469.0</ele><time>2026-04-11T15:21:36.941Z</time></trkpt><trkpt lat="43.9533098" lon="11.8638347"><ele>469.00000000000006</ele><time>2026-04-11T15:21:37.94Z</time></trkpt><trkpt lat="43.9533086" lon="11.8639596"><ele>469.0</ele><time>2026-04-11T15:21:38.94Z</time></trkpt><trkpt lat="43.9533238" lon="11.8640904"><ele>467.33333333333337</ele><time>2026-04-11T15:21:39.941Z</time></trkpt><trkpt lat="43.9533406" lon="11.8642216"><ele>465.6666666666667</ele><time>2026-04-11T15:21:40.941Z</time></trkpt><trkpt lat="43.9533571" lon="11.8643549"><ele>464.0</ele><time>2026-04-11T15:21:41.941Z</time></trkpt><trkpt lat="43.9533725" lon="11.8644838"><ele>462.33333333333337</ele><time>2026-04-11T15:21:42.94Z</time></trkpt><trkpt lat="43.9533869" lon="11.8645946"><ele>460.6666666666667</ele><time>2026-04-11T15:21:43.941Z</time></trkpt><trkpt lat="43.9533998" lon="11.8646929"><ele>459.0</ele><time>2026-04-11T15:21:44.94Z</time></trkpt><trkpt lat="43.9534527" lon="11.8648414"><ele>457.6666666666667</ele><time>2026-04-11T15:21:46.941Z</time></trkpt><trkpt lat="43.953504" lon="11.864896"><ele>456.33333333333337</ele><time>2026-04-11T15:21:47.94Z</time></trkpt><trkpt lat="43.9535617" lon="11.8649418"><ele>455.0</ele><time>2026-04-11T15:21:48.941Z</time></trkpt><trkpt lat="43.9536231" lon="11.8649774"><ele>453.6666666666667</ele><time>2026-04-11T15:21:49.941Z</time></trkpt><trkpt lat="43.9537111" lon="11.8649897"><ele>452.33333333333337</ele><time>2026-04-11T15:21:50.941Z</time></trkpt><trkpt lat="43.9537915" lon="11.8650336"><ele>451.0</ele><time>2026-04-11T15:21:51.94Z</time></trkpt><trkpt lat="43.9538753" lon="11.865082"><ele>451.00000000000006</ele><time>2026-04-11T15:21:52.94Z</time></trkpt><trkpt lat="43.953953" lon="11.86511"><ele>451.0</ele><time>2026-04-11T15:21:53.941Z</time></trkpt><trkpt lat="43.9540207" lon="11.8651308"><ele>451.0</ele><time>2026-04-11T15:21:54.94Z</time></trkpt><trkpt lat="43.9540811" lon="11.8651594"><ele>451.0</ele><time>2026-04-11T15:21:55.94Z</time></trkpt><trkpt lat="43.9541379" lon="11.865272"><ele>451.00000000000006</ele><time>2026-04-11T15:21:57.941Z</time></trkpt><trkpt lat="43.9540855" lon="11.8653941"><ele>451.0</ele><time>2026-04-11T15:21:59.94Z</time></trkpt><trkpt lat="43.9540375" lon="11.8654546"><ele>448.33333333333337</ele><time>2026-04-11T15:22:00.942Z</time></trkpt><trkpt lat="43.9539858" lon="11.8655231"><ele>445.6666666666667</ele><time>2026-04-11T15:22:01.94Z</time></trkpt><trkpt lat="43.9539262" lon="11.8655866"><ele>443.0</ele><time>2026-04-11T15:22:02.94Z</time></trkpt><trkpt lat="43.9538675" lon="11.8656618"><ele>440.33333333333337</ele><time>2026-04-11T15:22:03.94Z</time></trkpt><trkpt lat="43.9538221" lon="11.8657545"><ele>437.6666666666667</ele><time>2026-04-11T15:22:04.94Z</time></trkpt><trkpt lat="43.9538039" lon="11.865856"><ele>435.0</ele><time>2026-04-11T15:22:05.942Z</time></trkpt><trkpt lat="43.9538145" lon="11.8659645"><ele>434.5</ele><time>2026-04-11T15:22:06.941Z</time></trkpt><trkpt lat="43.9538532" lon="11.86605"><ele>434.0</ele><time>2026-04-11T15:22:07.941Z</time></trkpt><trkpt lat="43.9539134" lon="11.8661107"><ele>433.5</ele><time>2026-04-11T15:22:08.94Z</time></trkpt><trkpt lat="43.9539892" lon="11.8661479"><ele>433.0</ele><time>2026-04-11T15:22:09.941Z</time></trkpt><trkpt lat="43.9540689" lon="11.8661668"><ele>432.5</ele><time>2026-04-11T15:22:10.941Z</time></trkpt><trkpt lat="43.9541429" lon="11.8661601"><ele>432.0</ele><time>2026-04-11T15:22:11.94Z</time></trkpt><trkpt lat="43.95424" lon="11.8660664"><ele>432.0</ele><time>2026-04-11T15:22:13.94Z</time></trkpt><trkpt lat="43.9542607" lon="11.8659772"><ele>432.0</ele><time>2026-04-11T15:22:14.941Z</time></trkpt><trkpt lat="43.9542754" lon="11.8658888"><ele>432.0</ele><time>2026-04-11T15:22:15.94Z</time></trkpt><trkpt lat="43.9542882" lon="11.8657875"><ele>432.0</ele><time>2026-04-11T15:22:16.94Z</time></trkpt><trkpt lat="43.9543062" lon="11.8656883"><ele>432.0</ele><time>2026-04-11T15:22:17.942Z</time></trkpt><trkpt lat="43.9543511" lon="11.8655745"><ele>432.0</ele><time>2026-04-11T15:22:18.94Z</time></trkpt><trkpt lat="43.9543868" lon="11.8654906"><ele>432.0</ele><time>2026-04-11T15:22:19.941Z</time></trkpt><trkpt lat="43.9544386" lon="11.8653788"><ele>432.0</ele><time>2026-04-11T15:22:21.94Z</time></trkpt><trkpt lat="43.9544585" lon="11.8654928"><ele>432.00000000000006</ele><time>2026-04-11T15:22:23.94Z</time></trkpt><trkpt lat="43.9544696" lon="11.8655927"><ele>432.00000000000006</ele><time>2026-04-11T15:22:24.941Z</time></trkpt><trkpt lat="43.9544932" lon="11.8658218"><ele>432.0</ele><time>2026-04-11T15:22:26.941Z</time></trkpt><trkpt lat="43.954493" lon="11.8659321"><ele>432.0</ele><time>2026-04-11T15:22:27.941Z</time></trkpt><trkpt lat="43.9545285" lon="11.8660837"><ele>432.0</ele><time>2026-04-11T15:22:28.941Z</time></trkpt><trkpt lat="43.9545198" lon="11.8662309"><ele>432.00000000000006</ele><time>2026-04-11T15:22:29.94Z</time></trkpt><trkpt lat="43.9544917" lon="11.8663639"><ele>432.00000000000006</ele><time>2026-04-11T15:22:30.942Z</time></trkpt><trkpt lat="43.954459" lon="11.866485"><ele>432.0</ele><time>2026-04-11T15:22:31.941Z</time></trkpt><trkpt lat="43.9544063" lon="11.8665955"><ele>432.0</ele><time>2026-04-11T15:22:32.94Z</time></trkpt><trkpt lat="43.9543657" lon="11.8667048"><ele>432.40000000000003</ele><time>2026-04-11T15:22:33.94Z</time></trkpt><trkpt lat="43.9542871" lon="11.8667923"><ele>432.80000000000007</ele><time>2026-04-11T15:22:34.941Z</time></trkpt><trkpt lat="43.9542298" lon="11.8668937"><ele>433.2</ele><time>2026-04-11T15:22:35.94Z</time></trkpt><trkpt lat="43.9541705" lon="11.8669884"><ele>433.6</ele><time>2026-04-11T15:22:36.941Z</time></trkpt><trkpt lat="43.9541191" lon="11.8670872"><ele>434.0</ele><time>2026-04-11T15:22:37.941Z</time></trkpt><trkpt lat="43.9540609" lon="11.8671895"><ele>434.0</ele><time>2026-04-11T15:22:38.942Z</time></trkpt><trkpt lat="43.9540135" lon="11.8673029"><ele>434.0</ele><time>2026-04-11T15:22:39.94Z</time></trkpt><trkpt lat="43.9539608" lon="11.8674314"><ele>434.0</ele><time>2026-04-11T15:22:40.94Z</time></trkpt><trkpt lat="43.953895" lon="11.8675969"><ele>434.0</ele><time>2026-04-11T15:22:41.941Z</time></trkpt><trkpt lat="43.9538324" lon="11.8677625"><ele>439.0</ele><time>2026-04-11T15:22:42.941Z</time></trkpt><trkpt lat="43.95376" lon="11.8679438"><ele>444.0</ele><time>2026-04-11T15:22:43.941Z</time></trkpt><trkpt lat="43.9536725" lon="11.8681367"><ele>449.0</ele><time>2026-04-11T15:22:44.941Z</time></trkpt><trkpt lat="43.9535903" lon="11.8682782"><ele>454.0</ele><time>2026-04-11T15:22:45.942Z</time></trkpt><trkpt lat="43.9535053" lon="11.8684013"><ele>453.50000000000006</ele><time>2026-04-11T15:22:46.94Z</time></trkpt><trkpt lat="43.9534207" lon="11.8684531"><ele>453.0</ele><time>2026-04-11T15:22:48.94Z</time></trkpt><trkpt lat="43.9533092" lon="11.8684988"><ele>452.5</ele><time>2026-04-11T15:22:50.94Z</time></trkpt><trkpt lat="43.9532549" lon="11.868546"><ele>452.0</ele><time>2026-04-11T15:22:51.941Z</time></trkpt><trkpt lat="43.9532134" lon="11.8686611"><ele>451.50000000000006</ele><time>2026-04-11T15:22:53.94Z</time></trkpt><trkpt lat="43.9532436" lon="11.868751"><ele>451.0</ele><time>2026-04-11T15:22:55.94Z</time></trkpt><trkpt lat="43.9533515" lon="11.8687106"><ele>454.1666666666667</ele><time>2026-04-11T15:22:56.941Z</time></trkpt><trkpt lat="43.9534424" lon="11.8687162"><ele>457.33333333333337</ele><time>2026-04-11T15:22:57.94Z</time></trkpt><trkpt lat="43.9535275" lon="11.8687197"><ele>460.5</ele><time>2026-04-11T15:22:58.94Z</time></trkpt><trkpt lat="43.953606" lon="11.8687275"><ele>463.66666666666663</ele><time>2026-04-11T15:22:59.942Z</time></trkpt><trkpt lat="43.9536749" lon="11.8687486"><ele>466.8333333333333</ele><time>2026-04-11T15:23:00.942Z</time></trkpt><trkpt lat="43.9537379" lon="11.8687765"><ele>470.0</ele><time>2026-04-11T15:23:01.941Z</time></trkpt><trkpt lat="43.9537193" lon="11.8688925"><ele>470.0</ele><time>2026-04-11T15:23:02.941Z</time></trkpt><trkpt lat="43.9536781" lon="11.8689779"><ele>470.0</ele><time>2026-04-11T15:23:03.94Z</time></trkpt><trkpt lat="43.9536094" lon="11.8690645"><ele>470.0</ele><time>2026-04-11T15:23:04.941Z</time></trkpt><trkpt lat="43.9535147" lon="11.8691453"><ele>470.0</ele><time>2026-04-11T15:23:05.94Z</time></trkpt><trkpt lat="43.9533909" lon="11.8692435"><ele>470.0</ele><time>2026-04-11T15:23:06.941Z</time></trkpt><trkpt lat="43.9532448" lon="11.8693625"><ele>470.0</ele><time>2026-04-11T15:23:07.94Z</time></trkpt><trkpt lat="43.95313" lon="11.8694679"><ele>470.0</ele><time>2026-04-11T15:23:08.941Z</time></trkpt><trkpt lat="43.9530489" lon="11.8695772"><ele>470.0</ele><time>2026-04-11T15:23:09.941Z</time></trkpt><trkpt lat="43.9529948" lon="11.8697059"><ele>470.0</ele><time>2026-04-11T15:23:10.941Z</time></trkpt><trkpt lat="43.9529567" lon="11.8698705"><ele>470.0</ele><time>2026-04-11T15:23:11.94Z</time></trkpt><trkpt lat="43.9529363" lon="11.8700322"><ele>470.0</ele><time>2026-04-11T15:23:12.941Z</time></trkpt><trkpt lat="43.9529239" lon="11.8701963"><ele>470.0</ele><time>2026-04-11T15:23:13.941Z</time></trkpt><trkpt lat="43.9529049" lon="11.8703558"><ele>470.0</ele><time>2026-04-11T15:23:14.94Z</time></trkpt><trkpt lat="43.9528822" lon="11.8705225"><ele>472.0</ele><time>2026-04-11T15:23:15.942Z</time></trkpt><trkpt lat="43.9528511" lon="11.8706958"><ele>474.0</ele><time>2026-04-11T15:23:16.942Z</time></trkpt><trkpt lat="43.9528105" lon="11.8708665"><ele>476.0</ele><time>2026-04-11T15:23:17.94Z</time></trkpt><trkpt lat="43.9527625" lon="11.8710431"><ele>478.0</ele><time>2026-04-11T15:23:18.941Z</time></trkpt><trkpt lat="43.9527127" lon="11.8712163"><ele>476.5</ele><time>2026-04-11T15:23:19.94Z</time></trkpt><trkpt lat="43.9526604" lon="11.8713921"><ele>475.0</ele><time>2026-04-11T15:23:20.942Z</time></trkpt><trkpt lat="43.9525992" lon="11.8715613"><ele>473.5</ele><time>2026-04-11T15:23:21.94Z</time></trkpt><trkpt lat="43.9525298" lon="11.8717294"><ele>472.0</ele><time>2026-04-11T15:23:22.941Z</time></trkpt><trkpt lat="43.9524607" lon="11.8718952"><ele>472.0</ele><time>2026-04-11T15:23:23.94Z</time></trkpt><trkpt lat="43.9523943" lon="11.8720535"><ele>472.00000000000006</ele><time>2026-04-11T15:23:24.941Z</time></trkpt><trkpt lat="43.9523383" lon="11.8721919"><ele>472.00000000000006</ele><time>2026-04-11T15:23:25.94Z</time></trkpt><trkpt lat="43.9522926" lon="11.8723134"><ele>472.0</ele><time>2026-04-11T15:23:26.942Z</time></trkpt><trkpt lat="43.9522647" lon="11.8724257"><ele>472.0</ele><time>2026-04-11T15:23:27.94Z</time></trkpt><trkpt lat="43.9522583" lon="11.8725335"><ele>473.6</ele><time>2026-04-11T15:23:28.941Z</time></trkpt><trkpt lat="43.9522811" lon="11.8726489"><ele>475.20000000000005</ele><time>2026-04-11T15:23:29.941Z</time></trkpt><trkpt lat="43.952317" lon="11.8727624"><ele>476.8</ele><time>2026-04-11T15:23:30.94Z</time></trkpt><trkpt lat="43.9524023" lon="11.8728814"><ele>478.4</ele><time>2026-04-11T15:23:31.94Z</time></trkpt><trkpt lat="43.9524469" lon="11.872995"><ele>480.0</ele><time>2026-04-11T15:23:32.941Z</time></trkpt><trkpt lat="43.9524994" lon="11.8731229"><ele>480.0</ele><time>2026-04-11T15:23:33.941Z</time></trkpt><trkpt lat="43.9525363" lon="11.8732465"><ele>480.0</ele><time>2026-04-11T15:23:34.941Z</time></trkpt><trkpt lat="43.9525085" lon="11.8733939"><ele>480.0</ele><time>2026-04-11T15:23:35.942Z</time></trkpt><trkpt lat="43.9524978" lon="11.8735071"><ele>480.0</ele><time>2026-04-11T15:23:36.94Z</time></trkpt><trkpt lat="43.9524648" lon="11.8736234"><ele>480.0</ele><time>2026-04-11T15:23:37.941Z</time></trkpt><trkpt lat="43.952405" lon="11.8737133"><ele>481.2</ele><time>2026-04-11T15:23:38.94Z</time></trkpt><trkpt lat="43.9523336" lon="11.8737878"><ele>482.4</ele><time>2026-04-11T15:23:39.941Z</time></trkpt><trkpt lat="43.9522686" lon="11.8738561"><ele>483.6</ele><time>2026-04-11T15:23:40.941Z</time></trkpt><trkpt lat="43.9522184" lon="11.8739161"><ele>484.8</ele><time>2026-04-11T15:23:41.94Z</time></trkpt><trkpt lat="43.9521327" lon="11.8740338"><ele>486.0</ele><time>2026-04-11T15:23:43.941Z</time></trkpt><trkpt lat="43.9520735" lon="11.8742"><ele>486.8</ele><time>2026-04-11T15:23:45.942Z</time></trkpt><trkpt lat="43.9520342" lon="11.8742996"><ele>487.6</ele><time>2026-04-11T15:23:46.941Z</time></trkpt><trkpt lat="43.9519975" lon="11.8744112"><ele>488.4</ele><time>2026-04-11T15:23:47.941Z</time></trkpt><trkpt lat="43.9519588" lon="11.8745265"><ele>489.2</ele><time>2026-04-11T15:23:48.941Z</time></trkpt><trkpt lat="43.9519214" lon="11.8746494"><ele>490.0</ele><time>2026-04-11T15:23:49.941Z</time></trkpt><trkpt lat="43.9518799" lon="11.8747735"><ele>490.0</ele><time>2026-04-11T15:23:50.94Z</time></trkpt><trkpt lat="43.9518381" lon="11.8749016"><ele>490.0</ele><time>2026-04-11T15:23:51.941Z</time></trkpt><trkpt lat="43.9517972" lon="11.8750315"><ele>490.0</ele><time>2026-04-11T15:23:52.941Z</time></trkpt><trkpt lat="43.9517541" lon="11.8751667"><ele>490.0</ele><time>2026-04-11T15:23:53.941Z</time></trkpt><trkpt lat="43.9517124" lon="11.8753029"><ele>490.0</ele><time>2026-04-11T15:23:54.941Z</time></trkpt><trkpt lat="43.9516681" lon="11.8754379"><ele>488.6</ele><time>2026-04-11T15:23:55.94Z</time></trkpt><trkpt lat="43.9516231" lon="11.8755724"><ele>487.2</ele><time>2026-04-11T15:23:56.94Z</time></trkpt><trkpt lat="43.9515791" lon="11.8757114"><ele>485.79999999999995</ele><time>2026-04-11T15:23:57.942Z</time></trkpt><trkpt lat="43.9515363" lon="11.8758514"><ele>484.4</ele><time>2026-04-11T15:23:58.941Z</time></trkpt><trkpt lat="43.9514902" lon="11.87599"><ele>483.0</ele><time>2026-04-11T15:23:59.94Z</time></trkpt><trkpt lat="43.9514458" lon="11.8761296"><ele>483.0</ele><time>2026-04-11T15:24:00.94Z</time></trkpt><trkpt lat="43.9514003" lon="11.8762713"><ele>482.99999999999994</ele><time>2026-04-11T15:24:01.942Z</time></trkpt><trkpt lat="43.9513519" lon="11.8764098"><ele>482.99999999999994</ele><time>2026-04-11T15:24:02.942Z</time></trkpt><trkpt lat="43.9513026" lon="11.8765503"><ele>483.0</ele><time>2026-04-11T15:24:03.94Z</time></trkpt><trkpt lat="43.9512575" lon="11.8766909"><ele>483.0</ele><time>2026-04-11T15:24:04.94Z</time></trkpt><trkpt lat="43.9512161" lon="11.8768303"><ele>483.79999999999995</ele><time>2026-04-11T15:24:05.941Z</time></trkpt><trkpt lat="43.9511725" lon="11.8769635"><ele>484.59999999999997</ele><time>2026-04-11T15:24:06.941Z</time></trkpt><trkpt lat="43.9511299" lon="11.8770899"><ele>485.40000000000003</ele><time>2026-04-11T15:24:07.94Z</time></trkpt><trkpt lat="43.9510908" lon="11.8772127"><ele>486.20000000000005</ele><time>2026-04-11T15:24:08.941Z</time></trkpt><trkpt lat="43.9510551" lon="11.8773201"><ele>487.0</ele><time>2026-04-11T15:24:09.942Z</time></trkpt><trkpt lat="43.9510182" lon="11.8774042"><ele>487.00000000000006</ele><time>2026-04-11T15:24:10.94Z</time></trkpt><trkpt lat="43.9509698" lon="11.8774999"><ele>487.0</ele><time>2026-04-11T15:24:12.94Z</time></trkpt><trkpt lat="43.9509403" lon="11.8775919"><ele>487.0</ele><time>2026-04-11T15:25:12.94Z</time></trkpt><trkpt lat="43.9508663" lon="11.8777306"><ele>487.0</ele><time>2026-04-11T15:25:14.941Z</time></trkpt><trkpt lat="43.9508231" lon="11.8778029"><ele>487.00000000000006</ele><time>2026-04-11T15:25:15.941Z</time></trkpt><trkpt lat="43.9507595" lon="11.8779115"><ele>487.0</ele><time>2026-04-11T15:25:16.94Z</time></trkpt><trkpt lat="43.9506984" lon="11.8780125"><ele>484.6</ele><time>2026-04-11T15:25:17.941Z</time></trkpt><trkpt lat="43.950638" lon="11.8781178"><ele>482.20000000000005</ele><time>2026-04-11T15:25:18.941Z</time></trkpt><trkpt lat="43.9505776" lon="11.8782291"><ele>479.8</ele><time>2026-04-11T15:25:19.941Z</time></trkpt><trkpt lat="43.950514" lon="11.8783467"><ele>477.4</ele><time>2026-04-11T15:25:20.94Z</time></trkpt><trkpt lat="43.9504431" lon="11.8784658"><ele>475.0</ele><time>2026-04-11T15:25:21.941Z</time></trkpt><trkpt lat="43.9503693" lon="11.8785902"><ele>474.8</ele><time>2026-04-11T15:25:22.94Z</time></trkpt><trkpt lat="43.9502941" lon="11.8787149"><ele>474.6</ele><time>2026-04-11T15:25:23.942Z</time></trkpt><trkpt lat="43.9502212" lon="11.878835"><ele>474.4</ele><time>2026-04-11T15:25:24.94Z</time></trkpt><trkpt lat="43.9501468" lon="11.8789498"><ele>474.2</ele><time>2026-04-11T15:25:25.941Z</time></trkpt><trkpt lat="43.9500805" lon="11.8790628"><ele>474.0</ele><time>2026-04-11T15:25:26.942Z</time></trkpt><trkpt lat="43.9500216" lon="11.8791634"><ele>472.0</ele><time>2026-04-11T15:25:27.94Z</time></trkpt><trkpt lat="43.9499839" lon="11.8792619"><ele>470.0</ele><time>2026-04-11T15:25:28.941Z</time></trkpt><trkpt lat="43.9499792" lon="11.8793581"><ele>468.0</ele><time>2026-04-11T15:25:29.94Z</time></trkpt><trkpt lat="43.9500084" lon="11.8794474"><ele>466.0</ele><time>2026-04-11T15:25:30.941Z</time></trkpt><trkpt lat="43.9500443" lon="11.8795312"><ele>464.0</ele><time>2026-04-11T15:25:31.94Z</time></trkpt><trkpt lat="43.9501296" lon="11.8795653"><ele>462.0</ele><time>2026-04-11T15:25:32.942Z</time></trkpt><trkpt lat="43.9502215" lon="11.8795988"><ele>462.0</ele><time>2026-04-11T15:25:33.94Z</time></trkpt><trkpt lat="43.950313" lon="11.8796506"><ele>462.00000000000006</ele><time>2026-04-11T15:25:34.941Z</time></trkpt><trkpt lat="43.9504033" lon="11.8797227"><ele>462.00000000000006</ele><time>2026-04-11T15:25:35.94Z</time></trkpt><trkpt lat="43.9504763" lon="11.8798147"><ele>462.0</ele><time>2026-04-11T15:25:36.94Z</time></trkpt><trkpt lat="43.9505295" lon="11.8799414"><ele>462.0</ele><time>2026-04-11T15:25:37.94Z</time></trkpt><trkpt lat="43.9505654" lon="11.8800814"><ele>459.5</ele><time>2026-04-11T15:25:38.941Z</time></trkpt><trkpt lat="43.9505957" lon="11.8802314"><ele>457.0</ele><time>2026-04-11T15:25:39.94Z</time></trkpt><trkpt lat="43.9505996" lon="11.8803925"><ele>454.5</ele><time>2026-04-11T15:25:40.941Z</time></trkpt><trkpt lat="43.9505854" lon="11.8805608"><ele>452.0</ele><time>2026-04-11T15:25:41.94Z</time></trkpt><trkpt lat="43.9505657" lon="11.8807384"><ele>452.0</ele><time>2026-04-11T15:25:42.94Z</time></trkpt><trkpt lat="43.9505404" lon="11.8809189"><ele>452.0</ele><time>2026-04-11T15:25:43.941Z</time></trkpt><trkpt lat="43.9505107" lon="11.8811005"><ele>452.0</ele><time>2026-04-11T15:25:44.941Z</time></trkpt><trkpt lat="43.9504662" lon="11.8812726"><ele>452.0</ele><time>2026-04-11T15:25:45.941Z</time></trkpt><trkpt lat="43.9504076" lon="11.8814351"><ele>451.8</ele><time>2026-04-11T15:25:46.94Z</time></trkpt><trkpt lat="43.9503536" lon="11.8815975"><ele>451.6</ele><time>2026-04-11T15:25:47.941Z</time></trkpt><trkpt lat="43.9503025" lon="11.8817456"><ele>451.40000000000003</ele><time>2026-04-11T15:25:48.94Z</time></trkpt><trkpt lat="43.9502692" lon="11.8818788"><ele>451.20000000000005</ele><time>2026-04-11T15:25:49.94Z</time></trkpt><trkpt lat="43.9502624" lon="11.8820018"><ele>451.0</ele><time>2026-04-11T15:25:50.94Z</time></trkpt><trkpt lat="43.9502876" lon="11.8821283"><ele>448.75</ele><time>2026-04-11T15:25:51.94Z</time></trkpt><trkpt lat="43.9503404" lon="11.8822471"><ele>446.5</ele><time>2026-04-11T15:25:52.942Z</time></trkpt><trkpt lat="43.9504191" lon="11.882366"><ele>444.25</ele><time>2026-04-11T15:25:53.94Z</time></trkpt><trkpt lat="43.9505066" lon="11.8824802"><ele>442.0</ele><time>2026-04-11T15:25:54.941Z</time></trkpt><trkpt lat="43.9506047" lon="11.8825914"><ele>439.8</ele><time>2026-04-11T15:25:55.941Z</time></trkpt><trkpt lat="43.9507012" lon="11.8826949"><ele>437.6</ele><time>2026-04-11T15:25:56.941Z</time></trkpt><trkpt lat="43.950788" lon="11.8827817"><ele>435.40000000000003</ele><time>2026-04-11T15:25:57.94Z</time></trkpt><trkpt lat="43.9508592" lon="11.8828692"><ele>433.20000000000005</ele><time>2026-04-11T15:25:58.941Z</time></trkpt><trkpt lat="43.9509003" lon="11.8829657"><ele>431.0</ele><time>2026-04-11T15:25:59.94Z</time></trkpt><trkpt lat="43.9509117" lon="11.8830844"><ele>431.0</ele><time>2026-04-11T15:26:00.94Z</time></trkpt><trkpt lat="43.9508885" lon="11.8831953"><ele>431.0</ele><time>2026-04-11T15:26:01.941Z</time></trkpt><trkpt lat="43.9508341" lon="11.8833058"><ele>431.0</ele><time>2026-04-11T15:26:02.941Z</time></trkpt><trkpt lat="43.9507571" lon="11.8834116"><ele>431.0</ele><time>2026-04-11T15:26:03.941Z</time></trkpt><trkpt lat="43.9506657" lon="11.8835113"><ele>431.0</ele><time>2026-04-11T15:26:04.941Z</time></trkpt><trkpt lat="43.9505642" lon="11.8835953"><ele>431.5</ele><time>2026-04-11T15:26:05.94Z</time></trkpt><trkpt lat="43.950463" lon="11.8836684"><ele>432.0</ele><time>2026-04-11T15:26:06.94Z</time></trkpt><trkpt lat="43.9503777" lon="11.8837737"><ele>432.5</ele><time>2026-04-11T15:26:07.941Z</time></trkpt><trkpt lat="43.9503097" lon="11.8838978"><ele>433.0</ele><time>2026-04-11T15:26:08.941Z</time></trkpt><trkpt lat="43.9502522" lon="11.8840498"><ele>433.0</ele><time>2026-04-11T15:26:09.94Z</time></trkpt><trkpt lat="43.9501985" lon="11.8842071"><ele>433.0</ele><time>2026-04-11T15:26:10.94Z</time></trkpt><trkpt lat="43.9501461" lon="11.8843745"><ele>433.0</ele><time>2026-04-11T15:26:11.941Z</time></trkpt><trkpt lat="43.9500929" lon="11.8845426"><ele>433.0</ele><time>2026-04-11T15:26:12.941Z</time></trkpt><trkpt lat="43.9500417" lon="11.8847168"><ele>429.25</ele><time>2026-04-11T15:26:13.941Z</time></trkpt><trkpt lat="43.9499901" lon="11.8848922"><ele>425.5</ele><time>2026-04-11T15:26:14.94Z</time></trkpt><trkpt lat="43.9499358" lon="11.8850698"><ele>421.75</ele><time>2026-04-11T15:26:15.94Z</time></trkpt><trkpt lat="43.9498818" lon="11.8852448"><ele>418.0</ele><time>2026-04-11T15:26:16.941Z</time></trkpt><trkpt lat="43.949834" lon="11.8854163"><ele>417.4</ele><time>2026-04-11T15:26:17.941Z</time></trkpt><trkpt lat="43.949792" lon="11.8855687"><ele>416.79999999999995</ele><time>2026-04-11T15:26:18.94Z</time></trkpt><trkpt lat="43.9497578" lon="11.8857021"><ele>416.2</ele><time>2026-04-11T15:26:19.94Z</time></trkpt><trkpt lat="43.949725" lon="11.8858149"><ele>415.6</ele><time>2026-04-11T15:26:20.941Z</time></trkpt><trkpt lat="43.9496802" lon="11.8858877"><ele>415.0</ele><time>2026-04-11T15:26:21.94Z</time></trkpt><trkpt lat="43.9495635" lon="11.8858833"><ele>415.0</ele><time>2026-04-11T15:26:23.941Z</time></trkpt><trkpt lat="43.9495312" lon="11.8857084"><ele>415.0</ele><time>2026-04-11T15:26:25.94Z</time></trkpt><trkpt lat="43.9495529" lon="11.8855782"><ele>415.0</ele><time>2026-04-11T15:26:26.941Z</time></trkpt><trkpt lat="43.9495918" lon="11.8854172"><ele>415.0</ele><time>2026-04-11T15:26:27.94Z</time></trkpt><trkpt lat="43.949628" lon="11.8852466"><ele>415.0</ele><time>2026-04-11T15:26:28.94Z</time></trkpt><trkpt lat="43.9496624" lon="11.8851174"><ele>415.0</ele><time>2026-04-11T15:26:29.94Z</time></trkpt><trkpt lat="43.9496773" lon="11.8850059"><ele>415.0</ele><time>2026-04-11T15:26:30.941Z</time></trkpt><trkpt lat="43.9496087" lon="11.8848847"><ele>415.0</ele><time>2026-04-11T15:26:32.94Z</time></trkpt><trkpt lat="43.9494903" lon="11.8849679"><ele>415.0</ele><time>2026-04-11T15:26:34.94Z</time></trkpt><trkpt lat="43.9494275" lon="11.8851008"><ele>415.0</ele><time>2026-04-11T15:26:35.941Z</time></trkpt><trkpt lat="43.9493638" lon="11.8852819"><ele>415.0</ele><time>2026-04-11T15:26:36.941Z</time></trkpt><trkpt lat="43.9492887" lon="11.8855001"><ele>415.0</ele><time>2026-04-11T15:26:37.94Z</time></trkpt><trkpt lat="43.9492288" lon="11.8856991"><ele>410.75</ele><time>2026-04-11T15:26:38.94Z</time></trkpt><trkpt lat="43.9491817" lon="11.8858743"><ele>406.5</ele><time>2026-04-11T15:26:39.941Z</time></trkpt><trkpt lat="43.9491469" lon="11.8860338"><ele>402.25</ele><time>2026-04-11T15:26:40.94Z</time></trkpt><trkpt lat="43.9491372" lon="11.8861779"><ele>398.0</ele><time>2026-04-11T15:26:41.942Z</time></trkpt><trkpt lat="43.9491554" lon="11.8863228"><ele>397.25</ele><time>2026-04-11T15:26:42.941Z</time></trkpt><trkpt lat="43.9492061" lon="11.8864636"><ele>396.5</ele><time>2026-04-11T15:26:43.94Z</time></trkpt><trkpt lat="43.9492818" lon="11.8866068"><ele>395.75</ele><time>2026-04-11T15:26:44.94Z</time></trkpt><trkpt lat="43.9493668" lon="11.8867463"><ele>395.0</ele><time>2026-04-11T15:26:45.94Z</time></trkpt><trkpt lat="43.9494401" lon="11.8868697"><ele>395.0</ele><time>2026-04-11T15:26:46.94Z</time></trkpt><trkpt lat="43.9495026" lon="11.8869855"><ele>395.0</ele><time>2026-04-11T15:26:47.941Z</time></trkpt><trkpt lat="43.9495534" lon="11.887101"><ele>395.0</ele><time>2026-04-11T15:26:48.942Z</time></trkpt><trkpt lat="43.9495755" lon="11.887222"><ele>395.0</ele><time>2026-04-11T15:26:49.941Z</time></trkpt><trkpt lat="43.9495697" lon="11.88734"><ele>395.0</ele><time>2026-04-11T15:26:50.94Z</time></trkpt><trkpt lat="43.949529" lon="11.887444"><ele>395.0</ele><time>2026-04-11T15:26:51.94Z</time></trkpt><trkpt lat="43.9494623" lon="11.8875096"><ele>395.0</ele><time>2026-04-11T15:26:52.94Z</time></trkpt><trkpt lat="43.9493844" lon="11.8875197"><ele>395.0</ele><time>2026-04-11T15:26:53.941Z</time></trkpt><trkpt lat="43.9493065" lon="11.8874862"><ele>395.0</ele><time>2026-04-11T15:26:54.942Z</time></trkpt><trkpt lat="43.949218" lon="11.8874187"><ele>395.0</ele><time>2026-04-11T15:26:55.94Z</time></trkpt><trkpt lat="43.9491204" lon="11.8873251"><ele>392.5</ele><time>2026-04-11T15:26:56.941Z</time></trkpt><trkpt lat="43.9490091" lon="11.8872144"><ele>390.0</ele><time>2026-04-11T15:26:57.94Z</time></trkpt><trkpt lat="43.9488903" lon="11.8870923"><ele>387.5</ele><time>2026-04-11T15:26:58.942Z</time></trkpt><trkpt lat="43.9487654" lon="11.8869672"><ele>385.0</ele><time>2026-04-11T15:26:59.941Z</time></trkpt><trkpt lat="43.9486438" lon="11.8868464"><ele>383.6</ele><time>2026-04-11T15:27:00.94Z</time></trkpt><trkpt lat="43.9485405" lon="11.8867494"><ele>382.2</ele><time>2026-04-11T15:27:01.94Z</time></trkpt><trkpt lat="43.9484529" lon="11.8866717"><ele>380.79999999999995</ele><time>2026-04-11T15:27:02.94Z</time></trkpt><trkpt lat="43.9483732" lon="11.8866287"><ele>379.4</ele><time>2026-04-11T15:27:03.941Z</time></trkpt><trkpt lat="43.9482912" lon="11.8866325"><ele>378.0</ele><time>2026-04-11T15:27:04.941Z</time></trkpt><trkpt lat="43.9482157" lon="11.8866809"><ele>377.0</ele><time>2026-04-11T15:27:05.94Z</time></trkpt><trkpt lat="43.9481504" lon="11.8867615"><ele>376.0</ele><time>2026-04-11T15:27:06.941Z</time></trkpt><trkpt lat="43.9481078" lon="11.8868667"><ele>375.0</ele><time>2026-04-11T15:27:07.942Z</time></trkpt><trkpt lat="43.9481019" lon="11.8869889"><ele>374.0</ele><time>2026-04-11T15:27:08.94Z</time></trkpt><trkpt lat="43.9481226" lon="11.8871234"><ele>373.0</ele><time>2026-04-11T15:27:09.939Z</time></trkpt><trkpt lat="43.9481825" lon="11.8872904"><ele>373.0</ele><time>2026-04-11T15:27:10.94Z</time></trkpt><trkpt lat="43.9482674" lon="11.8874786"><ele>373.0</ele><time>2026-04-11T15:27:11.941Z</time></trkpt><trkpt lat="43.9483505" lon="11.8876573"><ele>373.0</ele><time>2026-04-11T15:27:12.939Z</time></trkpt><trkpt lat="43.9484295" lon="11.8878132"><ele>372.5</ele><time>2026-04-11T15:27:13.939Z</time></trkpt><trkpt lat="43.9484972" lon="11.8879524"><ele>372.0</ele><time>2026-04-11T15:27:14.939Z</time></trkpt><trkpt lat="43.9485629" lon="11.8880705"><ele>371.5</ele><time>2026-04-11T15:27:15.94Z</time></trkpt><trkpt lat="43.9486432" lon="11.8881617"><ele>371.0</ele><time>2026-04-11T15:27:16.939Z</time></trkpt><trkpt lat="43.9487534" lon="11.8882286"><ele>371.0</ele><time>2026-04-11T15:27:17.94Z</time></trkpt><trkpt lat="43.9488784" lon="11.8882806"><ele>371.0</ele><time>2026-04-11T15:27:18.939Z</time></trkpt><trkpt lat="43.9490123" lon="11.8883255"><ele>371.0</ele><time>2026-04-11T15:27:19.941Z</time></trkpt><trkpt lat="43.9491278" lon="11.8883676"><ele>371.0</ele><time>2026-04-11T15:27:20.94Z</time></trkpt><trkpt lat="43.9492328" lon="11.888434"><ele>375.4</ele><time>2026-04-11T15:27:21.939Z</time></trkpt><trkpt lat="43.9493197" lon="11.888524"><ele>379.8</ele><time>2026-04-11T15:27:22.939Z</time></trkpt><trkpt lat="43.9493804" lon="11.8886125"><ele>384.2</ele><time>2026-04-11T15:27:23.939Z</time></trkpt><trkpt lat="43.949409" lon="11.8887082"><ele>388.59999999999997</ele><time>2026-04-11T15:27:24.939Z</time></trkpt><trkpt lat="43.949403" lon="11.8888273"><ele>393.0</ele><time>2026-04-11T15:27:25.94Z</time></trkpt><trkpt lat="43.9493743" lon="11.8889699"><ele>393.0</ele><time>2026-04-11T15:27:26.939Z</time></trkpt><trkpt lat="43.9492893" lon="11.8891058"><ele>393.0</ele><time>2026-04-11T15:27:27.939Z</time></trkpt><trkpt lat="43.9492044" lon="11.8892295"><ele>393.0</ele><time>2026-04-11T15:27:28.94Z</time></trkpt><trkpt lat="43.9490971" lon="11.8893422"><ele>393.0</ele><time>2026-04-11T15:27:29.939Z</time></trkpt><trkpt lat="43.9489911" lon="11.8894537"><ele>387.25</ele><time>2026-04-11T15:27:30.939Z</time></trkpt><trkpt lat="43.9489047" lon="11.8895732"><ele>381.5</ele><time>2026-04-11T15:27:31.94Z</time></trkpt><trkpt lat="43.9488341" lon="11.8897085"><ele>375.75</ele><time>2026-04-11T15:27:32.939Z</time></trkpt><trkpt lat="43.9487763" lon="11.8898592"><ele>370.0</ele><time>2026-04-11T15:27:33.94Z</time></trkpt><trkpt lat="43.948734" lon="11.8900513"><ele>367.25</ele><time>2026-04-11T15:27:34.939Z</time></trkpt><trkpt lat="43.9486936" lon="11.8902329"><ele>364.5</ele><time>2026-04-11T15:27:35.94Z</time></trkpt><trkpt lat="43.9486465" lon="11.8904077"><ele>361.75</ele><time>2026-04-11T15:27:36.94Z</time></trkpt><trkpt lat="43.948599" lon="11.8905732"><ele>359.0</ele><time>2026-04-11T15:27:37.941Z</time></trkpt><trkpt lat="43.9485633" lon="11.8907434"><ele>359.0</ele><time>2026-04-11T15:27:38.939Z</time></trkpt><trkpt lat="43.9485415" lon="11.8909239"><ele>359.0</ele><time>2026-04-11T15:27:39.939Z</time></trkpt><trkpt lat="43.9485201" lon="11.8911075"><ele>359.0</ele><time>2026-04-11T15:27:40.939Z</time></trkpt><trkpt lat="43.948549" lon="11.8912995"><ele>359.0</ele><time>2026-04-11T15:27:41.939Z</time></trkpt><trkpt lat="43.9485521" lon="11.8914887"><ele>361.5</ele><time>2026-04-11T15:27:42.939Z</time></trkpt><trkpt lat="43.9485507" lon="11.8916738"><ele>364.0</ele><time>2026-04-11T15:27:43.94Z</time></trkpt><trkpt lat="43.9485458" lon="11.8918538"><ele>366.5</ele><time>2026-04-11T15:27:44.94Z</time></trkpt><trkpt lat="43.9485236" lon="11.8920334"><ele>369.0</ele><time>2026-04-11T15:27:45.939Z</time></trkpt><trkpt lat="43.9484957" lon="11.8922145"><ele>371.0</ele><time>2026-04-11T15:27:46.941Z</time></trkpt><trkpt lat="43.9484641" lon="11.8923987"><ele>373.0</ele><time>2026-04-11T15:27:47.94Z</time></trkpt><trkpt lat="43.948429" lon="11.8925779"><ele>375.0</ele><time>2026-04-11T15:27:48.94Z</time></trkpt><trkpt lat="43.9483878" lon="11.8927415"><ele>377.0</ele><time>2026-04-11T15:27:49.939Z</time></trkpt><trkpt lat="43.9483355" lon="11.8928714"><ele>372.40000000000003</ele><time>2026-04-11T15:27:50.939Z</time></trkpt><trkpt lat="43.9482671" lon="11.8929836"><ele>367.8</ele><time>2026-04-11T15:27:51.939Z</time></trkpt><trkpt lat="43.9481588" lon="11.8930585"><ele>363.2</ele><time>2026-04-11T15:27:52.94Z</time></trkpt><trkpt lat="43.948067" lon="11.8931337"><ele>358.6</ele><time>2026-04-11T15:27:53.94Z</time></trkpt><trkpt lat="43.9479697" lon="11.8931976"><ele>354.0</ele><time>2026-04-11T15:27:54.939Z</time></trkpt><trkpt lat="43.9478992" lon="11.8932675"><ele>354.0</ele><time>2026-04-11T15:27:55.94Z</time></trkpt><trkpt lat="43.9478623" lon="11.8933622"><ele>354.0</ele><time>2026-04-11T15:27:56.94Z</time></trkpt><trkpt lat="43.9478482" lon="11.8934791"><ele>354.0</ele><time>2026-04-11T15:27:57.94Z</time></trkpt><trkpt lat="43.9478554" lon="11.8936237"><ele>354.0</ele><time>2026-04-11T15:27:58.939Z</time></trkpt><trkpt lat="43.9478734" lon="11.893791"><ele>354.0</ele><time>2026-04-11T15:27:59.939Z</time></trkpt><trkpt lat="43.9478768" lon="11.8939741"><ele>354.25</ele><time>2026-04-11T15:28:00.94Z</time></trkpt><trkpt lat="43.9478698" lon="11.8941632"><ele>354.5</ele><time>2026-04-11T15:28:01.939Z</time></trkpt><trkpt lat="43.9478544" lon="11.8943576"><ele>354.75</ele><time>2026-04-11T15:28:02.939Z</time></trkpt><trkpt lat="43.9478228" lon="11.8945504"><ele>355.0</ele><time>2026-04-11T15:28:03.94Z</time></trkpt><trkpt lat="43.9477739" lon="11.8947333"><ele>356.0</ele><time>2026-04-11T15:28:04.939Z</time></trkpt><trkpt lat="43.9477314" lon="11.8949188"><ele>357.0</ele><time>2026-04-11T15:28:05.939Z</time></trkpt><trkpt lat="43.9476872" lon="11.8951041"><ele>358.0</ele><time>2026-04-11T15:28:06.939Z</time></trkpt><trkpt lat="43.947641" lon="11.8952825"><ele>359.0</ele><time>2026-04-11T15:28:07.94Z</time></trkpt><trkpt lat="43.9475876" lon="11.8954437"><ele>354.4</ele><time>2026-04-11T15:28:08.94Z</time></trkpt><trkpt lat="43.9475207" lon="11.8955821"><ele>349.79999999999995</ele><time>2026-04-11T15:28:09.94Z</time></trkpt><trkpt lat="43.9474346" lon="11.8956883"><ele>345.20000000000005</ele><time>2026-04-11T15:28:10.94Z</time></trkpt><trkpt lat="43.9473485" lon="11.895777"><ele>340.6</ele><time>2026-04-11T15:28:11.939Z</time></trkpt><trkpt lat="43.9472843" lon="11.8958563"><ele>336.0</ele><time>2026-04-11T15:28:12.939Z</time></trkpt><trkpt lat="43.9472415" lon="11.8959722"><ele>336.0</ele><time>2026-04-11T15:28:13.939Z</time></trkpt><trkpt lat="43.9472122" lon="11.8961095"><ele>336.0</ele><time>2026-04-11T15:28:14.94Z</time></trkpt><trkpt lat="43.9472142" lon="11.8962798"><ele>336.0</ele><time>2026-04-11T15:28:15.94Z</time></trkpt><trkpt lat="43.9472019" lon="11.8964576"><ele>336.0</ele><time>2026-04-11T15:28:16.94Z</time></trkpt><trkpt lat="43.9471928" lon="11.8966419"><ele>334.0</ele><time>2026-04-11T15:28:17.939Z</time></trkpt><trkpt lat="43.9471924" lon="11.8968353"><ele>332.0</ele><time>2026-04-11T15:28:18.94Z</time></trkpt><trkpt lat="43.9471998" lon="11.8970319"><ele>330.0</ele><time>2026-04-11T15:28:19.939Z</time></trkpt><trkpt lat="43.9472296" lon="11.8972282"><ele>328.0</ele><time>2026-04-11T15:28:20.94Z</time></trkpt><trkpt lat="43.9472675" lon="11.897398"><ele>328.0</ele><time>2026-04-11T15:28:21.94Z</time></trkpt><trkpt lat="43.9473062" lon="11.8975554"><ele>328.0</ele><time>2026-04-11T15:28:22.941Z</time></trkpt><trkpt lat="43.9473448" lon="11.8977081"><ele>328.0</ele><time>2026-04-11T15:28:23.941Z</time></trkpt><trkpt lat="43.9473753" lon="11.897849"><ele>328.0</ele><time>2026-04-11T15:28:24.94Z</time></trkpt><trkpt lat="43.9474055" lon="11.8979804"><ele>328.0</ele><time>2026-04-11T15:28:25.94Z</time></trkpt><trkpt lat="43.9474394" lon="11.8981041"><ele>328.0</ele><time>2026-04-11T15:28:26.939Z</time></trkpt><trkpt lat="43.9474693" lon="11.8982231"><ele>328.0</ele><time>2026-04-11T15:28:27.939Z</time></trkpt><trkpt lat="43.9474955" lon="11.8983345"><ele>328.0</ele><time>2026-04-11T15:28:28.939Z</time></trkpt><trkpt lat="43.9475245" lon="11.898442"><ele>328.0</ele><time>2026-04-11T15:28:29.94Z</time></trkpt><trkpt lat="43.9475291" lon="11.8985437"><ele>328.0</ele><time>2026-04-11T15:28:30.941Z</time></trkpt><trkpt lat="43.9475048" lon="11.8986348"><ele>328.0</ele><time>2026-04-11T15:28:31.94Z</time></trkpt><trkpt lat="43.9474353" lon="11.8987195"><ele>328.0</ele><time>2026-04-11T15:28:32.939Z</time></trkpt><trkpt lat="43.9473412" lon="11.8987935"><ele>328.0</ele><time>2026-04-11T15:28:33.94Z</time></trkpt><trkpt lat="43.947266" lon="11.8988783"><ele>328.0</ele><time>2026-04-11T15:28:34.939Z</time></trkpt><trkpt lat="43.9472058" lon="11.8990002"><ele>328.0</ele><time>2026-04-11T15:28:35.94Z</time></trkpt><trkpt lat="43.9471495" lon="11.8991272"><ele>328.0</ele><time>2026-04-11T15:28:36.94Z</time></trkpt><trkpt lat="43.9470885" lon="11.8992515"><ele>330.5</ele><time>2026-04-11T15:28:37.94Z</time></trkpt><trkpt lat="43.9470125" lon="11.8993613"><ele>333.0</ele><time>2026-04-11T15:28:38.94Z</time></trkpt><trkpt lat="43.9469362" lon="11.8994697"><ele>335.5</ele><time>2026-04-11T15:28:39.94Z</time></trkpt><trkpt lat="43.9468295" lon="11.8995611"><ele>338.0</ele><time>2026-04-11T15:28:40.939Z</time></trkpt><trkpt lat="43.946745" lon="11.8996571"><ele>333.25</ele><time>2026-04-11T15:28:41.939Z</time></trkpt><trkpt lat="43.9466729" lon="11.8997709"><ele>328.5</ele><time>2026-04-11T15:28:42.939Z</time></trkpt><trkpt lat="43.9466096" lon="11.8999221"><ele>323.75</ele><time>2026-04-11T15:28:43.939Z</time></trkpt><trkpt lat="43.9465606" lon="11.9000869"><ele>319.0</ele><time>2026-04-11T15:28:44.939Z</time></trkpt><trkpt lat="43.9465206" lon="11.9002575"><ele>319.0</ele><time>2026-04-11T15:28:45.94Z</time></trkpt><trkpt lat="43.946471" lon="11.9004129"><ele>319.0</ele><time>2026-04-11T15:28:46.94Z</time></trkpt><trkpt lat="43.9464208" lon="11.9005575"><ele>319.0</ele><time>2026-04-11T15:28:47.941Z</time></trkpt><trkpt lat="43.946331" lon="11.9006915"><ele>319.0</ele><time>2026-04-11T15:28:48.941Z</time></trkpt><trkpt lat="43.9462632" lon="11.9008352"><ele>321.2</ele><time>2026-04-11T15:28:49.939Z</time></trkpt><trkpt lat="43.9461996" lon="11.9009664"><ele>323.4</ele><time>2026-04-11T15:28:50.939Z</time></trkpt><trkpt lat="43.9461597" lon="11.9011052"><ele>325.6</ele><time>2026-04-11T15:28:51.94Z</time></trkpt><trkpt lat="43.946148" lon="11.9012618"><ele>327.8</ele><time>2026-04-11T15:28:52.94Z</time></trkpt><trkpt lat="43.9461303" lon="11.9014173"><ele>330.0</ele><time>2026-04-11T15:28:53.939Z</time></trkpt><trkpt lat="43.9461105" lon="11.9015748"><ele>331.75</ele><time>2026-04-11T15:28:54.939Z</time></trkpt><trkpt lat="43.9460599" lon="11.9017691"><ele>333.5</ele><time>2026-04-11T15:28:55.94Z</time></trkpt><trkpt lat="43.94596" lon="11.9019226"><ele>335.25</ele><time>2026-04-11T15:28:56.939Z</time></trkpt><trkpt lat="43.9458973" lon="11.9020974"><ele>337.0</ele><time>2026-04-11T15:28:57.939Z</time></trkpt><trkpt lat="43.9458322" lon="11.9022516"><ele>330.5</ele><time>2026-04-11T15:28:58.939Z</time></trkpt><trkpt lat="43.9457521" lon="11.9023814"><ele>324.0</ele><time>2026-04-11T15:28:59.94Z</time></trkpt><trkpt lat="43.9456654" lon="11.9025062"><ele>317.5</ele><time>2026-04-11T15:29:00.94Z</time></trkpt><trkpt lat="43.9455704" lon="11.9026148"><ele>311.0</ele><time>2026-04-11T15:29:01.941Z</time></trkpt><trkpt lat="43.9454915" lon="11.9027047"><ele>311.0</ele><time>2026-04-11T15:29:02.939Z</time></trkpt><trkpt lat="43.9454216" lon="11.9028369"><ele>311.0</ele><time>2026-04-11T15:29:03.939Z</time></trkpt><trkpt lat="43.9453775" lon="11.9029733"><ele>311.0</ele><time>2026-04-11T15:29:04.939Z</time></trkpt><trkpt lat="43.9453543" lon="11.9031174"><ele>311.0</ele><time>2026-04-11T15:29:05.939Z</time></trkpt><trkpt lat="43.9453338" lon="11.9032577"><ele>311.0</ele><time>2026-04-11T15:29:06.939Z</time></trkpt><trkpt lat="43.9453118" lon="11.903399"><ele>310.6666666666667</ele><time>2026-04-11T15:29:07.94Z</time></trkpt><trkpt lat="43.9452946" lon="11.9035404"><ele>310.33333333333337</ele><time>2026-04-11T15:29:08.94Z</time></trkpt><trkpt lat="43.9452773" lon="11.9036757"><ele>310.0</ele><time>2026-04-11T15:29:09.94Z</time></trkpt><trkpt lat="43.9452583" lon="11.9038008"><ele>309.6666666666667</ele><time>2026-04-11T15:29:10.939Z</time></trkpt><trkpt lat="43.9452374" lon="11.9039127"><ele>309.3333333333333</ele><time>2026-04-11T15:29:11.94Z</time></trkpt><trkpt lat="43.945221" lon="11.9040015"><ele>309.0</ele><time>2026-04-11T15:29:12.939Z</time></trkpt><trkpt lat="43.9451378" lon="11.9040997"><ele>302.8</ele><time>2026-04-11T15:29:14.939Z</time></trkpt><trkpt lat="43.9450377" lon="11.904024"><ele>296.59999999999997</ele><time>2026-04-11T15:29:16.94Z</time></trkpt><trkpt lat="43.9450173" lon="11.9039211"><ele>290.4</ele><time>2026-04-11T15:29:17.94Z</time></trkpt><trkpt lat="43.9449934" lon="11.9038019"><ele>284.2</ele><time>2026-04-11T15:29:18.94Z</time></trkpt><trkpt lat="43.9449711" lon="11.9036681"><ele>278.0</ele><time>2026-04-11T15:29:19.939Z</time></trkpt><trkpt lat="43.9449608" lon="11.9035228"><ele>279.0</ele><time>2026-04-11T15:29:20.94Z</time></trkpt><trkpt lat="43.9449517" lon="11.9033704"><ele>280.0</ele><time>2026-04-11T15:29:21.94Z</time></trkpt><trkpt lat="43.9449403" lon="11.9032138"><ele>281.0</ele><time>2026-04-11T15:29:22.94Z</time></trkpt><trkpt lat="43.9449248" lon="11.9030524"><ele>282.0</ele><time>2026-04-11T15:29:23.939Z</time></trkpt><trkpt lat="43.9449137" lon="11.9028899"><ele>282.0</ele><time>2026-04-11T15:29:24.939Z</time></trkpt><trkpt lat="43.9449037" lon="11.9027636"><ele>282.0</ele><time>2026-04-11T15:29:25.94Z</time></trkpt><trkpt lat="43.9448827" lon="11.9026718"><ele>282.0</ele><time>2026-04-11T15:29:26.94Z</time></trkpt><trkpt lat="43.94478" lon="11.9026156"><ele>282.0</ele><time>2026-04-11T15:29:28.94Z</time></trkpt><trkpt lat="43.944726" lon="11.9027509"><ele>282.0</ele><time>2026-04-11T15:29:30.941Z</time></trkpt><trkpt lat="43.9447172" lon="11.9028687"><ele>282.0</ele><time>2026-04-11T15:29:31.94Z</time></trkpt><trkpt lat="43.9447255" lon="11.9030145"><ele>282.0</ele><time>2026-04-11T15:29:32.94Z</time></trkpt><trkpt lat="43.9447391" lon="11.9031641"><ele>282.0</ele><time>2026-04-11T15:29:33.94Z</time></trkpt><trkpt lat="43.9447501" lon="11.9033123"><ele>282.0</ele><time>2026-04-11T15:29:34.941Z</time></trkpt><trkpt lat="43.9447598" lon="11.9034586"><ele>282.0</ele><time>2026-04-11T15:29:35.94Z</time></trkpt><trkpt lat="43.9447582" lon="11.9035981"><ele>281.2</ele><time>2026-04-11T15:29:36.94Z</time></trkpt><trkpt lat="43.9447332" lon="11.9037343"><ele>280.4</ele><time>2026-04-11T15:29:37.939Z</time></trkpt><trkpt lat="43.9447057" lon="11.9038672"><ele>279.6</ele><time>2026-04-11T15:29:38.94Z</time></trkpt><trkpt lat="43.9446741" lon="11.903998"><ele>278.8</ele><time>2026-04-11T15:29:39.941Z</time></trkpt><trkpt lat="43.9446507" lon="11.9041277"><ele>278.0</ele><time>2026-04-11T15:29:40.939Z</time></trkpt><trkpt lat="43.9446477" lon="11.9042582"><ele>276.0</ele><time>2026-04-11T15:29:41.94Z</time></trkpt><trkpt lat="43.9446647" lon="11.9043888"><ele>274.0</ele><time>2026-04-11T15:29:42.94Z</time></trkpt><trkpt lat="43.9447017" lon="11.9045215"><ele>272.0</ele><time>2026-04-11T15:29:43.939Z</time></trkpt><trkpt lat="43.9447435" lon="11.9046537"><ele>270.0</ele><time>2026-04-11T15:29:44.94Z</time></trkpt><trkpt lat="43.9447854" lon="11.9047877"><ele>268.0</ele><time>2026-04-11T15:29:45.94Z</time></trkpt><trkpt lat="43.9448305" lon="11.9049184"><ele>268.0</ele><time>2026-04-11T15:29:46.939Z</time></trkpt><trkpt lat="43.9448718" lon="11.9050398"><ele>268.0</ele><time>2026-04-11T15:29:47.94Z</time></trkpt><trkpt lat="43.9449001" lon="11.9051479"><ele>268.0</ele><time>2026-04-11T15:29:48.94Z</time></trkpt><trkpt lat="43.9449179" lon="11.9052462"><ele>268.0</ele><time>2026-04-11T15:29:49.94Z</time></trkpt><trkpt lat="43.9449042" lon="11.9053351"><ele>268.0</ele><time>2026-04-11T15:29:50.939Z</time></trkpt><trkpt lat="43.9448793" lon="11.9054238"><ele>268.0</ele><time>2026-04-11T15:29:51.94Z</time></trkpt><trkpt lat="43.9448399" lon="11.9055069"><ele>266.8333333333333</ele><time>2026-04-11T15:29:52.94Z</time></trkpt><trkpt lat="43.9447962" lon="11.9055977"><ele>265.66666666666663</ele><time>2026-04-11T15:29:53.94Z</time></trkpt><trkpt lat="43.9447507" lon="11.9056914"><ele>264.5</ele><time>2026-04-11T15:29:54.94Z</time></trkpt><trkpt lat="43.9447048" lon="11.9057813"><ele>263.3333333333333</ele><time>2026-04-11T15:29:55.939Z</time></trkpt><trkpt lat="43.9446632" lon="11.9058742"><ele>262.1666666666667</ele><time>2026-04-11T15:29:56.939Z</time></trkpt><trkpt lat="43.9446212" lon="11.9059602"><ele>261.0</ele><time>2026-04-11T15:29:57.939Z</time></trkpt><trkpt lat="43.9445607" lon="11.9060825"><ele>260.6666666666667</ele><time>2026-04-11T15:29:59.941Z</time></trkpt><trkpt lat="43.9445185" lon="11.9061596"><ele>260.3333333333333</ele><time>2026-04-11T15:30:02.939Z</time></trkpt><trkpt lat="43.944423" lon="11.9061348"><ele>260.0</ele><time>2026-04-11T15:30:06.94Z</time></trkpt><trkpt lat="43.944303" lon="11.9060674"><ele>259.66666666666663</ele><time>2026-04-11T15:30:08.939Z</time></trkpt><trkpt lat="43.9442343" lon="11.9060209"><ele>259.3333333333333</ele><time>2026-04-11T15:30:09.94Z</time></trkpt><trkpt lat="43.9441635" lon="11.9059799"><ele>259.0</ele><time>2026-04-11T15:30:10.94Z</time></trkpt><trkpt lat="43.9440942" lon="11.9059335"><ele>259.16666666666663</ele><time>2026-04-11T15:30:11.939Z</time></trkpt><trkpt lat="43.9440245" lon="11.9058995"><ele>259.3333333333333</ele><time>2026-04-11T15:30:12.94Z</time></trkpt><trkpt lat="43.9439615" lon="11.9058902"><ele>259.5</ele><time>2026-04-11T15:30:13.939Z</time></trkpt><trkpt lat="43.9438853" lon="11.9059117"><ele>259.6666666666667</ele><time>2026-04-11T15:30:15.94Z</time></trkpt><trkpt lat="43.9438382" lon="11.9060376"><ele>259.83333333333337</ele><time>2026-04-11T15:30:17.94Z</time></trkpt><trkpt lat="43.9438271" lon="11.9061476"><ele>260.0</ele><time>2026-04-11T15:30:18.94Z</time></trkpt><trkpt lat="43.9438086" lon="11.9062769"><ele>259.8</ele><time>2026-04-11T15:30:19.94Z</time></trkpt><trkpt lat="43.9437901" lon="11.9064086"><ele>259.6</ele><time>2026-04-11T15:30:20.939Z</time></trkpt><trkpt lat="43.943771" lon="11.9065453"><ele>259.4</ele><time>2026-04-11T15:30:21.94Z</time></trkpt><trkpt lat="43.9437527" lon="11.9066784"><ele>259.2</ele><time>2026-04-11T15:30:22.941Z</time></trkpt><trkpt lat="43.9437355" lon="11.9068027"><ele>259.0</ele><time>2026-04-11T15:30:23.94Z</time></trkpt><trkpt lat="43.9437361" lon="11.906921"><ele>259.0</ele><time>2026-04-11T15:30:24.941Z</time></trkpt><trkpt lat="43.9437632" lon="11.9070212"><ele>259.0</ele><time>2026-04-11T15:30:25.939Z</time></trkpt><trkpt lat="43.9438158" lon="11.9071133"><ele>259.0</ele><time>2026-04-11T15:30:26.94Z</time></trkpt><trkpt lat="43.9438853" lon="11.9072076"><ele>259.0</ele><time>2026-04-11T15:30:27.94Z</time></trkpt><trkpt lat="43.9439598" lon="11.9073007"><ele>259.0</ele><time>2026-04-11T15:30:28.94Z</time></trkpt><trkpt lat="43.9440385" lon="11.9073938"><ele>259.0</ele><time>2026-04-11T15:30:29.939Z</time></trkpt><trkpt lat="43.9441195" lon="11.9074893"><ele>259.0</ele><time>2026-04-11T15:30:30.94Z</time></trkpt><trkpt lat="43.9442013" lon="11.9075867"><ele>259.0</ele><time>2026-04-11T15:30:31.94Z</time></trkpt><trkpt lat="43.9442838" lon="11.9076861"><ele>259.0</ele><time>2026-04-11T15:30:32.939Z</time></trkpt><trkpt lat="43.9443686" lon="11.9077854"><ele>259.0</ele><time>2026-04-11T15:30:33.939Z</time></trkpt><trkpt lat="43.9444538" lon="11.9078881"><ele>258.59999999999997</ele><time>2026-04-11T15:30:34.939Z</time></trkpt><trkpt lat="43.944538" lon="11.9079886"><ele>258.2</ele><time>2026-04-11T15:30:35.94Z</time></trkpt><trkpt lat="43.9446222" lon="11.9080859"><ele>257.79999999999995</ele><time>2026-04-11T15:30:36.94Z</time></trkpt><trkpt lat="43.9447067" lon="11.9081821"><ele>257.4</ele><time>2026-04-11T15:30:37.94Z</time></trkpt><trkpt lat="43.9447893" lon="11.9082778"><ele>257.0</ele><time>2026-04-11T15:30:38.939Z</time></trkpt><trkpt lat="43.9448698" lon="11.9083744"><ele>257.0</ele><time>2026-04-11T15:30:39.94Z</time></trkpt><trkpt lat="43.9449496" lon="11.9084678"><ele>257.0</ele><time>2026-04-11T15:30:40.939Z</time></trkpt><trkpt lat="43.9450246" lon="11.9085563"><ele>257.0</ele><time>2026-04-11T15:30:41.939Z</time></trkpt><trkpt lat="43.9450957" lon="11.9086362"><ele>257.0</ele><time>2026-04-11T15:30:42.94Z</time></trkpt><trkpt lat="43.9451638" lon="11.9087186"><ele>257.0</ele><time>2026-04-11T15:30:43.94Z</time></trkpt><trkpt lat="43.9452267" lon="11.9087974"><ele>257.0</ele><time>2026-04-11T15:30:44.939Z</time></trkpt><trkpt lat="43.9452913" lon="11.9088747"><ele>257.0</ele><time>2026-04-11T15:30:45.939Z</time></trkpt><trkpt lat="43.9453558" lon="11.9089541"><ele>257.0</ele><time>2026-04-11T15:30:46.939Z</time></trkpt><trkpt lat="43.9454246" lon="11.9090345"><ele>257.0</ele><time>2026-04-11T15:30:47.94Z</time></trkpt><trkpt lat="43.9454942" lon="11.9091101"><ele>257.0</ele><time>2026-04-11T15:30:48.939Z</time></trkpt><trkpt lat="43.9455575" lon="11.9091825"><ele>257.0</ele><time>2026-04-11T15:30:49.94Z</time></trkpt><trkpt lat="43.945619" lon="11.9092532"><ele>257.1666666666667</ele><time>2026-04-11T15:30:50.939Z</time></trkpt><trkpt lat="43.9456835" lon="11.9093276"><ele>257.33333333333337</ele><time>2026-04-11T15:30:51.939Z</time></trkpt><trkpt lat="43.9457415" lon="11.9094001"><ele>257.5</ele><time>2026-04-11T15:30:52.94Z</time></trkpt><trkpt lat="43.9457978" lon="11.9094644"><ele>257.6666666666667</ele><time>2026-04-11T15:30:53.94Z</time></trkpt><trkpt lat="43.9458506" lon="11.9095268"><ele>257.8333333333333</ele><time>2026-04-11T15:30:54.94Z</time></trkpt><trkpt lat="43.9458996" lon="11.909584"><ele>258.0</ele><time>2026-04-11T15:30:55.939Z</time></trkpt><trkpt lat="43.9459906" lon="11.9096953"><ele>258.6</ele><time>2026-04-11T15:30:57.94Z</time></trkpt><trkpt lat="43.9460772" lon="11.9097937"><ele>259.20000000000005</ele><time>2026-04-11T15:30:59.939Z</time></trkpt><trkpt lat="43.9461537" lon="11.9098867"><ele>259.8</ele><time>2026-04-11T15:31:01.94Z</time></trkpt><trkpt lat="43.9462225" lon="11.9099741"><ele>260.40000000000003</ele><time>2026-04-11T15:31:03.939Z</time></trkpt><trkpt lat="43.9462963" lon="11.9100418"><ele>261.0</ele><time>2026-04-11T15:31:05.94Z</time></trkpt><trkpt lat="43.9463799" lon="11.9100473"><ele>261.0</ele><time>2026-04-11T15:31:07.939Z</time></trkpt><trkpt lat="43.9464672" lon="11.9099864"><ele>261.0</ele><time>2026-04-11T15:31:09.939Z</time></trkpt><trkpt lat="43.9465681" lon="11.9098915"><ele>261.0</ele><time>2026-04-11T15:31:11.94Z</time></trkpt><trkpt lat="43.9466714" lon="11.9097876"><ele>261.0</ele><time>2026-04-11T15:31:13.939Z</time></trkpt><trkpt lat="43.9467591" lon="11.9096587"><ele>260.14285714285717</ele><time>2026-04-11T15:31:15.94Z</time></trkpt><trkpt lat="43.9468019" lon="11.9095882"><ele>259.2857142857143</ele><time>2026-04-11T15:31:16.94Z</time></trkpt><trkpt lat="43.9468416" lon="11.9095117"><ele>258.42857142857144</ele><time>2026-04-11T15:31:17.939Z</time></trkpt><trkpt lat="43.9468817" lon="11.9094437"><ele>257.57142857142856</ele><time>2026-04-11T15:31:18.94Z</time></trkpt><trkpt lat="43.9469213" lon="11.9093727"><ele>256.7142857142857</ele><time>2026-04-11T15:31:19.939Z</time></trkpt><trkpt lat="43.9469599" lon="11.9093005"><ele>255.85714285714286</ele><time>2026-04-11T15:31:20.94Z</time></trkpt><trkpt lat="43.9470012" lon="11.9092257"><ele>255.0</ele><time>2026-04-11T15:31:21.939Z</time></trkpt><trkpt lat="43.9470741" lon="11.9090947"><ele>254.6</ele><time>2026-04-11T15:31:23.941Z</time></trkpt><trkpt lat="43.9471419" lon="11.90897"><ele>254.2</ele><time>2026-04-11T15:31:25.939Z</time></trkpt><trkpt lat="43.9471996" lon="11.9088581"><ele>253.8</ele><time>2026-04-11T15:31:27.94Z</time></trkpt><trkpt lat="43.947255" lon="11.9087583"><ele>253.4</ele><time>2026-04-11T15:31:29.939Z</time></trkpt><trkpt lat="43.9472975" lon="11.9086835"><ele>253.0</ele><time>2026-04-11T15:31:30.94Z</time></trkpt><trkpt lat="43.9473431" lon="11.9085824"><ele>253.0</ele><time>2026-04-11T15:31:31.939Z</time></trkpt><trkpt lat="43.9473998" lon="11.9084573"><ele>253.0</ele><time>2026-04-11T15:31:32.939Z</time></trkpt><trkpt lat="43.9474457" lon="11.9083187"><ele>253.0</ele><time>2026-04-11T15:31:33.94Z</time></trkpt><trkpt lat="43.9475108" lon="11.9081543"><ele>253.0</ele><time>2026-04-11T15:31:34.94Z</time></trkpt><trkpt lat="43.9475768" lon="11.9079711"><ele>255.25</ele><time>2026-04-11T15:31:35.939Z</time></trkpt><trkpt lat="43.9476331" lon="11.9078162"><ele>257.5</ele><time>2026-04-11T15:31:36.939Z</time></trkpt><trkpt lat="43.947687" lon="11.9076699"><ele>259.75</ele><time>2026-04-11T15:31:37.939Z</time></trkpt><trkpt lat="43.9477373" lon="11.9075384"><ele>262.0</ele><time>2026-04-11T15:31:38.941Z</time></trkpt><trkpt lat="43.9477842" lon="11.9074153"><ele>263.4</ele><time>2026-04-11T15:31:39.94Z</time></trkpt><trkpt lat="43.9478319" lon="11.9073086"><ele>264.79999999999995</ele><time>2026-04-11T15:31:40.94Z</time></trkpt><trkpt lat="43.947892" lon="11.9072302"><ele>266.2</ele><time>2026-04-11T15:31:41.94Z</time></trkpt><trkpt lat="43.9479916" lon="11.9072033"><ele>267.59999999999997</ele><time>2026-04-11T15:31:42.939Z</time></trkpt><trkpt lat="43.9480832" lon="11.9071942"><ele>269.0</ele><time>2026-04-11T15:31:43.941Z</time></trkpt><trkpt lat="43.9481832" lon="11.907219"><ele>269.0</ele><time>2026-04-11T15:31:44.939Z</time></trkpt><trkpt lat="43.9482864" lon="11.90727"><ele>269.0</ele><time>2026-04-11T15:31:45.939Z</time></trkpt><trkpt lat="43.9484016" lon="11.9073506"><ele>269.0</ele><time>2026-04-11T15:31:46.94Z</time></trkpt><trkpt lat="43.9485218" lon="11.9074528"><ele>269.0</ele><time>2026-04-11T15:31:47.94Z</time></trkpt><trkpt lat="43.9486382" lon="11.9075626"><ele>271.0</ele><time>2026-04-11T15:31:48.94Z</time></trkpt><trkpt lat="43.9487525" lon="11.9076809"><ele>273.0</ele><time>2026-04-11T15:31:49.94Z</time></trkpt><trkpt lat="43.9488573" lon="11.9078061"><ele>275.0</ele><time>2026-04-11T15:31:50.94Z</time></trkpt><trkpt lat="43.9489491" lon="11.9079387"><ele>277.0</ele><time>2026-04-11T15:31:51.941Z</time></trkpt><trkpt lat="43.9490233" lon="11.9080852"><ele>277.0</ele><time>2026-04-11T15:31:52.94Z</time></trkpt><trkpt lat="43.9490854" lon="11.9082494"><ele>277.0</ele><time>2026-04-11T15:31:53.939Z</time></trkpt><trkpt lat="43.9491365" lon="11.9084262"><ele>277.0</ele><time>2026-04-11T15:31:54.94Z</time></trkpt><trkpt lat="43.9491765" lon="11.9086142"><ele>277.0</ele><time>2026-04-11T15:31:55.94Z</time></trkpt><trkpt lat="43.9492089" lon="11.9087918"><ele>277.5</ele><time>2026-04-11T15:31:56.939Z</time></trkpt><trkpt lat="43.9492527" lon="11.9089572"><ele>278.0</ele><time>2026-04-11T15:31:57.939Z</time></trkpt><trkpt lat="43.9493163" lon="11.9091108"><ele>278.5</ele><time>2026-04-11T15:31:58.939Z</time></trkpt><trkpt lat="43.9494008" lon="11.909266"><ele>279.0</ele><time>2026-04-11T15:31:59.939Z</time></trkpt><trkpt lat="43.9495008" lon="11.9094072"><ele>279.0</ele><time>2026-04-11T15:32:00.94Z</time></trkpt><trkpt lat="43.9496036" lon="11.9095247"><ele>279.0</ele><time>2026-04-11T15:32:01.941Z</time></trkpt><trkpt lat="43.9497192" lon="11.909616"><ele>279.0</ele><time>2026-04-11T15:32:02.939Z</time></trkpt><trkpt lat="43.9498424" lon="11.9096837"><ele>279.0</ele><time>2026-04-11T15:32:03.939Z</time></trkpt><trkpt lat="43.9499659" lon="11.9097298"><ele>278.75</ele><time>2026-04-11T15:32:04.939Z</time></trkpt><trkpt lat="43.9500879" lon="11.909763"><ele>278.5</ele><time>2026-04-11T15:32:05.94Z</time></trkpt><trkpt lat="43.9502088" lon="11.9097962"><ele>278.25</ele><time>2026-04-11T15:32:06.939Z</time></trkpt><trkpt lat="43.9503263" lon="11.9098315"><ele>278.0</ele><time>2026-04-11T15:32:07.939Z</time></trkpt><trkpt lat="43.9504411" lon="11.9098625"><ele>278.0</ele><time>2026-04-11T15:32:08.94Z</time></trkpt><trkpt lat="43.9505586" lon="11.9098934"><ele>278.0</ele><time>2026-04-11T15:32:09.94Z</time></trkpt><trkpt lat="43.9506754" lon="11.9099259"><ele>278.0</ele><time>2026-04-11T15:32:10.939Z</time></trkpt><trkpt lat="43.9507907" lon="11.9099531"><ele>278.0</ele><time>2026-04-11T15:32:11.939Z</time></trkpt><trkpt lat="43.9509031" lon="11.909984"><ele>277.75</ele><time>2026-04-11T15:32:12.939Z</time></trkpt><trkpt lat="43.9510117" lon="11.9100149"><ele>277.5</ele><time>2026-04-11T15:32:13.94Z</time></trkpt><trkpt lat="43.9511242" lon="11.9100401"><ele>277.25</ele><time>2026-04-11T15:32:14.939Z</time></trkpt><trkpt lat="43.9512347" lon="11.910068"><ele>277.0</ele><time>2026-04-11T15:32:15.94Z</time></trkpt><trkpt lat="43.9513459" lon="11.9101013"><ele>276.4</ele><time>2026-04-11T15:32:16.94Z</time></trkpt><trkpt lat="43.9514558" lon="11.9101314"><ele>275.79999999999995</ele><time>2026-04-11T15:32:17.939Z</time></trkpt><trkpt lat="43.9515682" lon="11.910153"><ele>275.2</ele><time>2026-04-11T15:32:18.941Z</time></trkpt><trkpt lat="43.9516756" lon="11.9101822"><ele>274.59999999999997</ele><time>2026-04-11T15:32:19.939Z</time></trkpt><trkpt lat="43.9517777" lon="11.9102118"><ele>274.0</ele><time>2026-04-11T15:32:20.939Z</time></trkpt><trkpt lat="43.9518718" lon="11.9102373"><ele>274.0</ele><time>2026-04-11T15:32:21.94Z</time></trkpt><trkpt lat="43.9519518" lon="11.9102563"><ele>274.0</ele><time>2026-04-11T15:32:22.94Z</time></trkpt><trkpt lat="43.9520302" lon="11.9102752"><ele>274.0</ele><time>2026-04-11T15:32:23.939Z</time></trkpt><trkpt lat="43.9521047" lon="11.9102956"><ele>274.0</ele><time>2026-04-11T15:32:24.941Z</time></trkpt><trkpt lat="43.9521737" lon="11.9103213"><ele>274.0</ele><time>2026-04-11T15:32:25.939Z</time></trkpt><trkpt lat="43.9522395" lon="11.9103659"><ele>274.0</ele><time>2026-04-11T15:32:26.939Z</time></trkpt><trkpt lat="43.9523081" lon="11.910407"><ele>274.0</ele><time>2026-04-11T15:32:27.939Z</time></trkpt><trkpt lat="43.952384" lon="11.910427"><ele>274.0</ele><time>2026-04-11T15:32:28.941Z</time></trkpt><trkpt lat="43.9524659" lon="11.9104328"><ele>274.0</ele><time>2026-04-11T15:32:29.939Z</time></trkpt><trkpt lat="43.952548" lon="11.9104319"><ele>274.0</ele><time>2026-04-11T15:32:30.939Z</time></trkpt><trkpt lat="43.952639" lon="11.9104478"><ele>274.0</ele><time>2026-04-11T15:32:31.939Z</time></trkpt><trkpt lat="43.9527424" lon="11.9104679"><ele>274.0</ele><time>2026-04-11T15:32:32.939Z</time></trkpt><trkpt lat="43.9528564" lon="11.9104937"><ele>274.0</ele><time>2026-04-11T15:32:33.94Z</time></trkpt><trkpt lat="43.9529718" lon="11.9105257"><ele>274.0</ele><time>2026-04-11T15:32:34.941Z</time></trkpt><trkpt lat="43.9530895" lon="11.9105561"><ele>274.0</ele><time>2026-04-11T15:32:35.94Z</time></trkpt><trkpt lat="43.9532118" lon="11.9105852"><ele>274.0</ele><time>2026-04-11T15:32:36.94Z</time></trkpt><trkpt lat="43.9533365" lon="11.9106158"><ele>273.66666666666663</ele><time>2026-04-11T15:32:37.94Z</time></trkpt><trkpt lat="43.9534686" lon="11.9106479"><ele>273.3333333333333</ele><time>2026-04-11T15:32:38.941Z</time></trkpt><trkpt lat="43.9536142" lon="11.9106831"><ele>273.0</ele><time>2026-04-11T15:32:39.939Z</time></trkpt><trkpt lat="43.9537843" lon="11.9107199"><ele>273.0</ele><time>2026-04-11T15:32:40.94Z</time></trkpt><trkpt lat="43.953981" lon="11.9107671"><ele>273.0</ele><time>2026-04-11T15:32:41.94Z</time></trkpt><trkpt lat="43.9541766" lon="11.9108233"><ele>273.0</ele><time>2026-04-11T15:32:42.941Z</time></trkpt><trkpt lat="43.9543563" lon="11.9108758"><ele>270.0</ele><time>2026-04-11T15:32:43.94Z</time></trkpt><trkpt lat="43.9545358" lon="11.9109288"><ele>267.0</ele><time>2026-04-11T15:32:44.939Z</time></trkpt><trkpt lat="43.9547126" lon="11.9109789"><ele>264.0</ele><time>2026-04-11T15:32:45.939Z</time></trkpt><trkpt lat="43.9548862" lon="11.9110282"><ele>264.3333333333333</ele><time>2026-04-11T15:32:46.94Z</time></trkpt><trkpt lat="43.9550594" lon="11.9110757"><ele>264.66666666666663</ele><time>2026-04-11T15:32:47.939Z</time></trkpt><trkpt lat="43.9552307" lon="11.9111217"><ele>265.0</ele><time>2026-04-11T15:32:48.939Z</time></trkpt><trkpt lat="43.955401" lon="11.9111647"><ele>265.0</ele><time>2026-04-11T15:32:49.939Z</time></trkpt><trkpt lat="43.9555802" lon="11.9112124"><ele>265.0</ele><time>2026-04-11T15:32:50.939Z</time></trkpt><trkpt lat="43.9557582" lon="11.9112609"><ele>265.0</ele><time>2026-04-11T15:32:51.939Z</time></trkpt><trkpt lat="43.9559248" lon="11.9113075"><ele>265.3333333333333</ele><time>2026-04-11T15:32:52.94Z</time></trkpt><trkpt lat="43.9560893" lon="11.9113506"><ele>265.6666666666667</ele><time>2026-04-11T15:32:53.939Z</time></trkpt><trkpt lat="43.9562509" lon="11.9113939"><ele>266.0</ele><time>2026-04-11T15:32:54.939Z</time></trkpt><trkpt lat="43.9564091" lon="11.9114371"><ele>266.0</ele><time>2026-04-11T15:32:55.94Z</time></trkpt><trkpt lat="43.9565658" lon="11.9114808"><ele>266.0</ele><time>2026-04-11T15:32:56.939Z</time></trkpt><trkpt lat="43.9567186" lon="11.9115247"><ele>266.0</ele><time>2026-04-11T15:32:57.939Z</time></trkpt><trkpt lat="43.9568699" lon="11.9115661"><ele>266.33333333333337</ele><time>2026-04-11T15:32:58.939Z</time></trkpt><trkpt lat="43.9570205" lon="11.9116065"><ele>266.6666666666667</ele><time>2026-04-11T15:32:59.939Z</time></trkpt><trkpt lat="43.9571733" lon="11.9116464"><ele>267.0</ele><time>2026-04-11T15:33:00.94Z</time></trkpt><trkpt lat="43.9573239" lon="11.9116788"><ele>267.0</ele><time>2026-04-11T15:33:01.939Z</time></trkpt><trkpt lat="43.9574701" lon="11.9117046"><ele>267.0</ele><time>2026-04-11T15:33:02.941Z</time></trkpt><trkpt lat="43.9576149" lon="11.9117199"><ele>267.0</ele><time>2026-04-11T15:33:03.939Z</time></trkpt><trkpt lat="43.9577558" lon="11.9117248"><ele>267.0</ele><time>2026-04-11T15:33:04.939Z</time></trkpt><trkpt lat="43.9578921" lon="11.9117094"><ele>266.75</ele><time>2026-04-11T15:33:05.939Z</time></trkpt><trkpt lat="43.9580265" lon="11.9116704"><ele>266.5</ele><time>2026-04-11T15:33:06.94Z</time></trkpt><trkpt lat="43.9581607" lon="11.9116192"><ele>266.25</ele><time>2026-04-11T15:33:07.94Z</time></trkpt><trkpt lat="43.9582933" lon="11.9115565"><ele>266.0</ele><time>2026-04-11T15:33:08.939Z</time></trkpt><trkpt lat="43.9584223" lon="11.9114926"><ele>264.75</ele><time>2026-04-11T15:33:09.939Z</time></trkpt><trkpt lat="43.9585552" lon="11.911449"><ele>263.5</ele><time>2026-04-11T15:33:10.94Z</time></trkpt><trkpt lat="43.9586958" lon="11.9114265"><ele>262.25</ele><time>2026-04-11T15:33:11.939Z</time></trkpt><trkpt lat="43.958841" lon="11.9114196"><ele>261.0</ele><time>2026-04-11T15:33:12.941Z</time></trkpt><trkpt lat="43.9589897" lon="11.9114263"><ele>261.0</ele><time>2026-04-11T15:33:13.94Z</time></trkpt><trkpt lat="43.959141" lon="11.9114424"><ele>261.0</ele><time>2026-04-11T15:33:14.94Z</time></trkpt><trkpt lat="43.9592975" lon="11.9114604"><ele>261.0</ele><time>2026-04-11T15:33:15.939Z</time></trkpt><trkpt lat="43.9594523" lon="11.9114776"><ele>260.0</ele><time>2026-04-11T15:33:16.94Z</time></trkpt><trkpt lat="43.9596064" lon="11.9114917"><ele>259.0</ele><time>2026-04-11T15:33:17.939Z</time></trkpt><trkpt lat="43.9597622" lon="11.9114888"><ele>258.0</ele><time>2026-04-11T15:33:18.939Z</time></trkpt><trkpt lat="43.9599067" lon="11.9114674"><ele>256.75</ele><time>2026-04-11T15:33:19.94Z</time></trkpt><trkpt lat="43.9600372" lon="11.9114248"><ele>255.5</ele><time>2026-04-11T15:33:20.941Z</time></trkpt><trkpt lat="43.9601593" lon="11.9113528"><ele>254.25</ele><time>2026-04-11T15:33:21.94Z</time></trkpt><trkpt lat="43.9602715" lon="11.9112585"><ele>253.0</ele><time>2026-04-11T15:33:22.939Z</time></trkpt><trkpt lat="43.9603763" lon="11.9111521"><ele>253.0</ele><time>2026-04-11T15:33:23.94Z</time></trkpt><trkpt lat="43.9604757" lon="11.9110409"><ele>253.0</ele><time>2026-04-11T15:33:24.94Z</time></trkpt><trkpt lat="43.9605709" lon="11.910926"><ele>253.0</ele><time>2026-04-11T15:33:25.941Z</time></trkpt><trkpt lat="43.9606656" lon="11.9108145"><ele>253.0</ele><time>2026-04-11T15:33:26.939Z</time></trkpt><trkpt lat="43.9607613" lon="11.9107042"><ele>252.75</ele><time>2026-04-11T15:33:27.939Z</time></trkpt><trkpt lat="43.9608568" lon="11.9105914"><ele>252.5</ele><time>2026-04-11T15:33:28.94Z</time></trkpt><trkpt lat="43.9609541" lon="11.9104733"><ele>252.25</ele><time>2026-04-11T15:33:29.94Z</time></trkpt><trkpt lat="43.9610523" lon="11.9103538"><ele>252.0</ele><time>2026-04-11T15:33:30.94Z</time></trkpt><trkpt lat="43.9611512" lon="11.9102321"><ele>252.0</ele><time>2026-04-11T15:33:31.939Z</time></trkpt><trkpt lat="43.9612504" lon="11.9101058"><ele>252.0</ele><time>2026-04-11T15:33:32.939Z</time></trkpt><trkpt lat="43.961349" lon="11.9099765"><ele>252.0</ele><time>2026-04-11T15:33:33.94Z</time></trkpt><trkpt lat="43.9614458" lon="11.909843"><ele>252.0</ele><time>2026-04-11T15:33:34.939Z</time></trkpt><trkpt lat="43.9615431" lon="11.9097131"><ele>251.25</ele><time>2026-04-11T15:33:35.94Z</time></trkpt><trkpt lat="43.9616445" lon="11.9095899"><ele>250.5</ele><time>2026-04-11T15:33:36.941Z</time></trkpt><trkpt lat="43.961748" lon="11.9094658"><ele>249.75</ele><time>2026-04-11T15:33:37.94Z</time></trkpt><trkpt lat="43.9618532" lon="11.909347"><ele>249.0</ele><time>2026-04-11T15:33:38.939Z</time></trkpt><trkpt lat="43.9619642" lon="11.9092397"><ele>253.0</ele><time>2026-04-11T15:33:39.94Z</time></trkpt><trkpt lat="43.9620778" lon="11.9091374"><ele>257.0</ele><time>2026-04-11T15:33:40.939Z</time></trkpt><trkpt lat="43.962195" lon="11.9090497"><ele>261.0</ele><time>2026-04-11T15:33:41.939Z</time></trkpt><trkpt lat="43.9623161" lon="11.9089735"><ele>265.0</ele><time>2026-04-11T15:33:42.94Z</time></trkpt><trkpt lat="43.9624414" lon="11.9089063"><ele>263.75</ele><time>2026-04-11T15:33:43.94Z</time></trkpt><trkpt lat="43.9625679" lon="11.9088487"><ele>262.5</ele><time>2026-04-11T15:33:44.939Z</time></trkpt><trkpt lat="43.9626965" lon="11.9088106"><ele>261.25</ele><time>2026-04-11T15:33:45.939Z</time></trkpt><trkpt lat="43.9628254" lon="11.9087937"><ele>260.0</ele><time>2026-04-11T15:33:46.94Z</time></trkpt><trkpt lat="43.9629536" lon="11.9088062"><ele>260.0</ele><time>2026-04-11T15:33:47.94Z</time></trkpt><trkpt lat="43.9630797" lon="11.9088447"><ele>260.0</ele><time>2026-04-11T15:33:48.941Z</time></trkpt><trkpt lat="43.9632077" lon="11.9088912"><ele>260.0</ele><time>2026-04-11T15:33:49.94Z</time></trkpt><trkpt lat="43.9633353" lon="11.908945"><ele>260.0</ele><time>2026-04-11T15:33:50.94Z</time></trkpt><trkpt lat="43.9634624" lon="11.9089923"><ele>259.5</ele><time>2026-04-11T15:33:51.94Z</time></trkpt><trkpt lat="43.9635936" lon="11.9090309"><ele>259.0</ele><time>2026-04-11T15:33:52.939Z</time></trkpt><trkpt lat="43.9637251" lon="11.9090592"><ele>258.5</ele><time>2026-04-11T15:33:53.941Z</time></trkpt><trkpt lat="43.963855" lon="11.9090737"><ele>258.0</ele><time>2026-04-11T15:33:54.94Z</time></trkpt><trkpt lat="43.9639867" lon="11.9090768"><ele>258.0</ele><time>2026-04-11T15:33:55.939Z</time></trkpt><trkpt lat="43.9641168" lon="11.9090752"><ele>258.0</ele><time>2026-04-11T15:33:56.939Z</time></trkpt><trkpt lat="43.9642453" lon="11.9090681"><ele>258.0</ele><time>2026-04-11T15:33:57.94Z</time></trkpt><trkpt lat="43.9643714" lon="11.909062"><ele>258.0</ele><time>2026-04-11T15:33:58.941Z</time></trkpt><trkpt lat="43.9644992" lon="11.9090738"><ele>258.5</ele><time>2026-04-11T15:33:59.939Z</time></trkpt><trkpt lat="43.964634" lon="11.9091004"><ele>259.0</ele><time>2026-04-11T15:34:00.94Z</time></trkpt><trkpt lat="43.9647703" lon="11.9091402"><ele>259.5</ele><time>2026-04-11T15:34:01.939Z</time></trkpt><trkpt lat="43.9649101" lon="11.9091845"><ele>260.0</ele><time>2026-04-11T15:34:02.939Z</time></trkpt><trkpt lat="43.9650492" lon="11.9092266"><ele>258.0</ele><time>2026-04-11T15:34:03.941Z</time></trkpt><trkpt lat="43.9651865" lon="11.9092651"><ele>256.0</ele><time>2026-04-11T15:34:04.941Z</time></trkpt><trkpt lat="43.9653204" lon="11.9092972"><ele>254.0</ele><time>2026-04-11T15:34:05.94Z</time></trkpt><trkpt lat="43.9654516" lon="11.9093291"><ele>252.0</ele><time>2026-04-11T15:34:06.94Z</time></trkpt><trkpt lat="43.9655747" lon="11.9093585"><ele>252.0</ele><time>2026-04-11T15:34:07.94Z</time></trkpt><trkpt lat="43.9656925" lon="11.9093851"><ele>252.0</ele><time>2026-04-11T15:34:08.939Z</time></trkpt><trkpt lat="43.9658082" lon="11.9094144"><ele>252.0</ele><time>2026-04-11T15:34:09.94Z</time></trkpt><trkpt lat="43.9659258" lon="11.9094409"><ele>252.0</ele><time>2026-04-11T15:34:10.939Z</time></trkpt><trkpt lat="43.9660443" lon="11.9094565"><ele>253.75</ele><time>2026-04-11T15:34:11.939Z</time></trkpt><trkpt lat="43.9661604" lon="11.9094467"><ele>255.5</ele><time>2026-04-11T15:34:12.94Z</time></trkpt><trkpt lat="43.9662733" lon="11.9094128"><ele>257.25</ele><time>2026-04-11T15:34:13.939Z</time></trkpt><trkpt lat="43.9663816" lon="11.9093534"><ele>259.0</ele><time>2026-04-11T15:34:14.939Z</time></trkpt><trkpt lat="43.9664886" lon="11.9092745"><ele>259.0</ele><time>2026-04-11T15:34:15.94Z</time></trkpt><trkpt lat="43.9665968" lon="11.9091895"><ele>259.0</ele><time>2026-04-11T15:34:16.94Z</time></trkpt><trkpt lat="43.9667075" lon="11.9090975"><ele>259.0</ele><time>2026-04-11T15:34:17.94Z</time></trkpt><trkpt lat="43.9668211" lon="11.9089996"><ele>259.0</ele><time>2026-04-11T15:34:18.94Z</time></trkpt><trkpt lat="43.9669376" lon="11.9089002"><ele>259.0</ele><time>2026-04-11T15:34:19.94Z</time></trkpt><trkpt lat="43.9670538" lon="11.9088"><ele>259.0</ele><time>2026-04-11T15:34:20.939Z</time></trkpt><trkpt lat="43.967165" lon="11.9087025"><ele>259.0</ele><time>2026-04-11T15:34:21.94Z</time></trkpt><trkpt lat="43.9672768" lon="11.9086056"><ele>259.0</ele><time>2026-04-11T15:34:22.94Z</time></trkpt><trkpt lat="43.9673858" lon="11.9085114"><ele>259.0</ele><time>2026-04-11T15:34:23.94Z</time></trkpt><trkpt lat="43.9674926" lon="11.9084199"><ele>259.0</ele><time>2026-04-11T15:34:24.939Z</time></trkpt><trkpt lat="43.9675943" lon="11.9083348"><ele>259.0</ele><time>2026-04-11T15:34:25.94Z</time></trkpt><trkpt lat="43.9676936" lon="11.9082616"><ele>259.0</ele><time>2026-04-11T15:34:26.941Z</time></trkpt><trkpt lat="43.9677974" lon="11.9082064"><ele>260.75</ele><time>2026-04-11T15:34:27.939Z</time></trkpt><trkpt lat="43.9679075" lon="11.9081697"><ele>262.5</ele><time>2026-04-11T15:34:28.94Z</time></trkpt><trkpt lat="43.9680202" lon="11.9081587"><ele>264.25</ele><time>2026-04-11T15:34:29.939Z</time></trkpt><trkpt lat="43.968133" lon="11.9081663"><ele>266.0</ele><time>2026-04-11T15:34:30.939Z</time></trkpt><trkpt lat="43.9682496" lon="11.9081694"><ele>264.25</ele><time>2026-04-11T15:34:31.941Z</time></trkpt><trkpt lat="43.9683686" lon="11.9081506"><ele>262.5</ele><time>2026-04-11T15:34:32.94Z</time></trkpt><trkpt lat="43.9684868" lon="11.9081159"><ele>260.75</ele><time>2026-04-11T15:34:33.94Z</time></trkpt><trkpt lat="43.9686045" lon="11.9080725"><ele>259.0</ele><time>2026-04-11T15:34:34.94Z</time></trkpt><trkpt lat="43.968723" lon="11.9080234"><ele>259.0</ele><time>2026-04-11T15:34:35.94Z</time></trkpt><trkpt lat="43.9688451" lon="11.9079769"><ele>259.0</ele><time>2026-04-11T15:34:36.939Z</time></trkpt><trkpt lat="43.9689687" lon="11.9079294"><ele>259.0</ele><time>2026-04-11T15:34:37.94Z</time></trkpt><trkpt lat="43.9690929" lon="11.9078777"><ele>259.0</ele><time>2026-04-11T15:34:38.939Z</time></trkpt><trkpt lat="43.9692177" lon="11.9078291"><ele>256.25</ele><time>2026-04-11T15:34:39.94Z</time></trkpt><trkpt lat="43.9693407" lon="11.9077811"><ele>253.5</ele><time>2026-04-11T15:34:40.94Z</time></trkpt><trkpt lat="43.9694601" lon="11.9077259"><ele>250.75</ele><time>2026-04-11T15:34:41.939Z</time></trkpt><trkpt lat="43.9695757" lon="11.9076644"><ele>248.0</ele><time>2026-04-11T15:34:42.939Z</time></trkpt><trkpt lat="43.9696869" lon="11.9075901"><ele>249.5</ele><time>2026-04-11T15:34:43.94Z</time></trkpt><trkpt lat="43.9697931" lon="11.9075102"><ele>251.0</ele><time>2026-04-11T15:34:44.94Z</time></trkpt><trkpt lat="43.9698982" lon="11.9074336"><ele>252.5</ele><time>2026-04-11T15:34:45.939Z</time></trkpt><trkpt lat="43.9700088" lon="11.9073693"><ele>254.0</ele><time>2026-04-11T15:34:46.939Z</time></trkpt><trkpt lat="43.9701264" lon="11.907319"><ele>254.0</ele><time>2026-04-11T15:34:47.94Z</time></trkpt><trkpt lat="43.9702502" lon="11.9072681"><ele>254.0</ele><time>2026-04-11T15:34:48.94Z</time></trkpt><trkpt lat="43.9703824" lon="11.9072135"><ele>254.0</ele><time>2026-04-11T15:34:49.939Z</time></trkpt><trkpt lat="43.9705151" lon="11.907171"><ele>254.0</ele><time>2026-04-11T15:34:50.939Z</time></trkpt><trkpt lat="43.97065" lon="11.9071407"><ele>254.0</ele><time>2026-04-11T15:34:51.939Z</time></trkpt><trkpt lat="43.9707869" lon="11.9071234"><ele>254.0</ele><time>2026-04-11T15:34:52.939Z</time></trkpt><trkpt lat="43.9709248" lon="11.9071135"><ele>254.0</ele><time>2026-04-11T15:34:53.939Z</time></trkpt><trkpt lat="43.9710628" lon="11.9071124"><ele>254.0</ele><time>2026-04-11T15:34:54.941Z</time></trkpt><trkpt lat="43.9712023" lon="11.907111"><ele>252.75</ele><time>2026-04-11T15:34:55.939Z</time></trkpt><trkpt lat="43.9713404" lon="11.9071157"><ele>251.5</ele><time>2026-04-11T15:34:56.939Z</time></trkpt><trkpt lat="43.9714785" lon="11.9071094"><ele>250.25</ele><time>2026-04-11T15:34:57.94Z</time></trkpt><trkpt lat="43.9716162" lon="11.9070808"><ele>249.0</ele><time>2026-04-11T15:34:58.94Z</time></trkpt><trkpt lat="43.9717512" lon="11.9070292"><ele>247.75</ele><time>2026-04-11T15:34:59.94Z</time></trkpt><trkpt lat="43.9718841" lon="11.9069547"><ele>246.5</ele><time>2026-04-11T15:35:00.94Z</time></trkpt><trkpt lat="43.9720135" lon="11.9068647"><ele>245.25</ele><time>2026-04-11T15:35:01.939Z</time></trkpt><trkpt lat="43.972134" lon="11.9067596"><ele>244.0</ele><time>2026-04-11T15:35:02.939Z</time></trkpt><trkpt lat="43.9722508" lon="11.9066478"><ele>244.25</ele><time>2026-04-11T15:35:03.941Z</time></trkpt><trkpt lat="43.9723651" lon="11.9065338"><ele>244.5</ele><time>2026-04-11T15:35:04.94Z</time></trkpt><trkpt lat="43.9724821" lon="11.9064162"><ele>244.75</ele><time>2026-04-11T15:35:05.939Z</time></trkpt><trkpt lat="43.972594" lon="11.906296"><ele>245.0</ele><time>2026-04-11T15:35:06.94Z</time></trkpt><trkpt lat="43.9727054" lon="11.9061813"><ele>245.0</ele><time>2026-04-11T15:35:07.939Z</time></trkpt><trkpt lat="43.9728176" lon="11.9060645"><ele>245.0</ele><time>2026-04-11T15:35:08.939Z</time></trkpt><trkpt lat="43.9729304" lon="11.9059502"><ele>245.0</ele><time>2026-04-11T15:35:09.939Z</time></trkpt><trkpt lat="43.9730443" lon="11.9058406"><ele>245.0</ele><time>2026-04-11T15:35:10.939Z</time></trkpt><trkpt lat="43.973162" lon="11.9057371"><ele>247.0</ele><time>2026-04-11T15:35:11.939Z</time></trkpt><trkpt lat="43.9732888" lon="11.9056437"><ele>249.0</ele><time>2026-04-11T15:35:12.94Z</time></trkpt><trkpt lat="43.9734184" lon="11.9055642"><ele>251.0</ele><time>2026-04-11T15:35:13.94Z</time></trkpt><trkpt lat="43.9735493" lon="11.9054803"><ele>253.0</ele><time>2026-04-11T15:35:14.94Z</time></trkpt><trkpt lat="43.9736807" lon="11.9053956"><ele>253.0</ele><time>2026-04-11T15:35:15.94Z</time></trkpt><trkpt lat="43.973813" lon="11.9053097"><ele>253.0</ele><time>2026-04-11T15:35:16.939Z</time></trkpt><trkpt lat="43.9739499" lon="11.9052234"><ele>253.0</ele><time>2026-04-11T15:35:17.94Z</time></trkpt><trkpt lat="43.97409" lon="11.9051388"><ele>253.0</ele><time>2026-04-11T15:35:18.94Z</time></trkpt><trkpt lat="43.9742327" lon="11.9050549"><ele>256.3333333333333</ele><time>2026-04-11T15:35:19.94Z</time></trkpt><trkpt lat="43.9743761" lon="11.9049679"><ele>259.6666666666667</ele><time>2026-04-11T15:35:20.94Z</time></trkpt><trkpt lat="43.974522" lon="11.904881"><ele>263.0</ele><time>2026-04-11T15:35:21.939Z</time></trkpt><trkpt lat="43.9746694" lon="11.9048025"><ele>263.0</ele><time>2026-04-11T15:35:22.939Z</time></trkpt><trkpt lat="43.9748221" lon="11.9047339"><ele>263.0</ele><time>2026-04-11T15:35:23.94Z</time></trkpt><trkpt lat="43.9749762" lon="11.9046706"><ele>263.0</ele><time>2026-04-11T15:35:24.939Z</time></trkpt><trkpt lat="43.9751176" lon="11.9046214"><ele>262.5</ele><time>2026-04-11T15:35:25.941Z</time></trkpt><trkpt lat="43.9752522" lon="11.9045809"><ele>262.0</ele><time>2026-04-11T15:35:26.94Z</time></trkpt><trkpt lat="43.9753825" lon="11.9045459"><ele>261.5</ele><time>2026-04-11T15:35:27.94Z</time></trkpt><trkpt lat="43.9755143" lon="11.9045081"><ele>261.0</ele><time>2026-04-11T15:35:28.939Z</time></trkpt><trkpt lat="43.9756553" lon="11.9044666"><ele>261.0</ele><time>2026-04-11T15:35:29.939Z</time></trkpt><trkpt lat="43.9757983" lon="11.9044264"><ele>261.0</ele><time>2026-04-11T15:35:30.939Z</time></trkpt><trkpt lat="43.9759401" lon="11.9043847"><ele>261.0</ele><time>2026-04-11T15:35:31.939Z</time></trkpt><trkpt lat="43.9760788" lon="11.9043456"><ele>261.0</ele><time>2026-04-11T15:35:32.939Z</time></trkpt><trkpt lat="43.9762155" lon="11.9043028"><ele>261.0</ele><time>2026-04-11T15:35:33.94Z</time></trkpt><trkpt lat="43.976355" lon="11.9042637"><ele>261.0</ele><time>2026-04-11T15:35:34.94Z</time></trkpt><trkpt lat="43.9764947" lon="11.904226"><ele>261.0</ele><time>2026-04-11T15:35:35.94Z</time></trkpt><trkpt lat="43.9766338" lon="11.9041892"><ele>261.0</ele><time>2026-04-11T15:35:36.939Z</time></trkpt><trkpt lat="43.9767759" lon="11.9041533"><ele>262.5</ele><time>2026-04-11T15:35:37.939Z</time></trkpt><trkpt lat="43.9769133" lon="11.9041146"><ele>264.0</ele><time>2026-04-11T15:35:38.939Z</time></trkpt><trkpt lat="43.977051" lon="11.9040733"><ele>265.5</ele><time>2026-04-11T15:35:39.94Z</time></trkpt><trkpt lat="43.9771897" lon="11.9040311"><ele>267.0</ele><time>2026-04-11T15:35:40.939Z</time></trkpt><trkpt lat="43.9773326" lon="11.9039899"><ele>267.0</ele><time>2026-04-11T15:35:41.939Z</time></trkpt><trkpt lat="43.9774786" lon="11.9039497"><ele>267.0</ele><time>2026-04-11T15:35:42.939Z</time></trkpt><trkpt lat="43.9776257" lon="11.9039094"><ele>267.0</ele><time>2026-04-11T15:35:43.94Z</time></trkpt><trkpt lat="43.9777722" lon="11.9038712"><ele>267.0</ele><time>2026-04-11T15:35:44.941Z</time></trkpt><trkpt lat="43.977914" lon="11.9038349"><ele>267.25</ele><time>2026-04-11T15:35:45.939Z</time></trkpt><trkpt lat="43.9780521" lon="11.9037968"><ele>267.5</ele><time>2026-04-11T15:35:46.939Z</time></trkpt><trkpt lat="43.9781862" lon="11.9037682"><ele>267.75</ele><time>2026-04-11T15:35:47.939Z</time></trkpt><trkpt lat="43.9783151" lon="11.9037588"><ele>268.0</ele><time>2026-04-11T15:35:48.94Z</time></trkpt><trkpt lat="43.9784429" lon="11.9037775"><ele>269.25</ele><time>2026-04-11T15:35:49.94Z</time></trkpt><trkpt lat="43.9785805" lon="11.9038297"><ele>270.5</ele><time>2026-04-11T15:35:50.939Z</time></trkpt><trkpt lat="43.9787111" lon="11.9039034"><ele>271.75</ele><time>2026-04-11T15:35:51.941Z</time></trkpt><trkpt lat="43.9788332" lon="11.9039843"><ele>273.0</ele><time>2026-04-11T15:35:52.94Z</time></trkpt><trkpt lat="43.978949" lon="11.9040487"><ele>273.0</ele><time>2026-04-11T15:35:53.939Z</time></trkpt><trkpt lat="43.979062" lon="11.9041176"><ele>273.0</ele><time>2026-04-11T15:35:54.939Z</time></trkpt><trkpt lat="43.9791772" lon="11.9041831"><ele>273.0</ele><time>2026-04-11T15:35:55.939Z</time></trkpt><trkpt lat="43.9792916" lon="11.9042443"><ele>273.0</ele><time>2026-04-11T15:35:56.94Z</time></trkpt><trkpt lat="43.9794107" lon="11.9042872"><ele>268.75</ele><time>2026-04-11T15:35:57.94Z</time></trkpt><trkpt lat="43.979529" lon="11.904309"><ele>264.5</ele><time>2026-04-11T15:35:58.939Z</time></trkpt><trkpt lat="43.9796468" lon="11.9043233"><ele>260.25</ele><time>2026-04-11T15:35:59.939Z</time></trkpt><trkpt lat="43.9797624" lon="11.9043415"><ele>256.0</ele><time>2026-04-11T15:36:00.939Z</time></trkpt><trkpt lat="43.9798803" lon="11.9043537"><ele>256.0</ele><time>2026-04-11T15:36:01.94Z</time></trkpt><trkpt lat="43.9800004" lon="11.9043567"><ele>256.0</ele><time>2026-04-11T15:36:02.94Z</time></trkpt><trkpt lat="43.9801202" lon="11.904346"><ele>256.0</ele><time>2026-04-11T15:36:03.939Z</time></trkpt><trkpt lat="43.9802366" lon="11.904316"><ele>256.0</ele><time>2026-04-11T15:36:04.939Z</time></trkpt><trkpt lat="43.9803439" lon="11.904257"><ele>260.0</ele><time>2026-04-11T15:36:05.94Z</time></trkpt><trkpt lat="43.9804418" lon="11.9041768"><ele>264.0</ele><time>2026-04-11T15:36:06.939Z</time></trkpt><trkpt lat="43.9805324" lon="11.9040996"><ele>268.0</ele><time>2026-04-11T15:36:07.94Z</time></trkpt><trkpt lat="43.9806242" lon="11.9040324"><ele>272.0</ele><time>2026-04-11T15:36:08.939Z</time></trkpt><trkpt lat="43.9807235" lon="11.9039669"><ele>276.0</ele><time>2026-04-11T15:36:09.939Z</time></trkpt><trkpt lat="43.9808286" lon="11.9039228"><ele>276.75</ele><time>2026-04-11T15:36:10.939Z</time></trkpt><trkpt lat="43.980942" lon="11.9039038"><ele>277.5</ele><time>2026-04-11T15:36:11.939Z</time></trkpt><trkpt lat="43.981061" lon="11.9039141"><ele>278.25</ele><time>2026-04-11T15:36:12.94Z</time></trkpt><trkpt lat="43.9811852" lon="11.9039522"><ele>279.0</ele><time>2026-04-11T15:36:13.939Z</time></trkpt><trkpt lat="43.9813126" lon="11.9040004"><ele>279.0</ele><time>2026-04-11T15:36:14.939Z</time></trkpt><trkpt lat="43.9814353" lon="11.9040432"><ele>279.0</ele><time>2026-04-11T15:36:15.939Z</time></trkpt><trkpt lat="43.9815557" lon="11.9040904"><ele>279.0</ele><time>2026-04-11T15:36:16.939Z</time></trkpt><trkpt lat="43.9816688" lon="11.9041502"><ele>279.0</ele><time>2026-04-11T15:36:17.939Z</time></trkpt><trkpt lat="43.9817771" lon="11.904221"><ele>276.5</ele><time>2026-04-11T15:36:18.939Z</time></trkpt><trkpt lat="43.9818857" lon="11.9043"><ele>274.0</ele><time>2026-04-11T15:36:19.939Z</time></trkpt><trkpt lat="43.981996" lon="11.9043844"><ele>271.5</ele><time>2026-04-11T15:36:20.94Z</time></trkpt><trkpt lat="43.982113" lon="11.9044748"><ele>269.0</ele><time>2026-04-11T15:36:21.94Z</time></trkpt><trkpt lat="43.9822323" lon="11.9045607"><ele>269.0</ele><time>2026-04-11T15:36:22.94Z</time></trkpt><trkpt lat="43.982349" lon="11.9046498"><ele>269.0</ele><time>2026-04-11T15:36:23.939Z</time></trkpt><trkpt lat="43.98247" lon="11.9047388"><ele>269.0</ele><time>2026-04-11T15:36:24.939Z</time></trkpt><trkpt lat="43.9825934" lon="11.904831"><ele>269.0</ele><time>2026-04-11T15:36:25.94Z</time></trkpt><trkpt lat="43.9827116" lon="11.9049223"><ele>266.75</ele><time>2026-04-11T15:36:26.94Z</time></trkpt><trkpt lat="43.9828258" lon="11.9050162"><ele>264.5</ele><time>2026-04-11T15:36:27.939Z</time></trkpt><trkpt lat="43.9829316" lon="11.9051082"><ele>262.25</ele><time>2026-04-11T15:36:28.939Z</time></trkpt><trkpt lat="43.9830309" lon="11.9052008"><ele>260.0</ele><time>2026-04-11T15:36:29.939Z</time></trkpt><trkpt lat="43.9831205" lon="11.9053201"><ele>260.0</ele><time>2026-04-11T15:36:30.939Z</time></trkpt><trkpt lat="43.9832137" lon="11.9054305"><ele>260.0</ele><time>2026-04-11T15:36:31.94Z</time></trkpt><trkpt lat="43.9833059" lon="11.9055396"><ele>260.0</ele><time>2026-04-11T15:36:32.939Z</time></trkpt><trkpt lat="43.9833929" lon="11.9056511"><ele>260.0</ele><time>2026-04-11T15:36:33.939Z</time></trkpt><trkpt lat="43.983479" lon="11.9057534"><ele>260.0</ele><time>2026-04-11T15:36:34.94Z</time></trkpt><trkpt lat="43.9835652" lon="11.9058511"><ele>260.0</ele><time>2026-04-11T15:36:35.939Z</time></trkpt><trkpt lat="43.9836525" lon="11.9059355"><ele>260.0</ele><time>2026-04-11T15:36:36.939Z</time></trkpt><trkpt lat="43.9837483" lon="11.9060093"><ele>260.0</ele><time>2026-04-11T15:36:37.94Z</time></trkpt><trkpt lat="43.9838505" lon="11.9060665"><ele>260.0</ele><time>2026-04-11T15:36:38.939Z</time></trkpt><trkpt lat="43.9839631" lon="11.9061118"><ele>260.0</ele><time>2026-04-11T15:36:39.941Z</time></trkpt><trkpt lat="43.9840816" lon="11.90615"><ele>260.0</ele><time>2026-04-11T15:36:40.94Z</time></trkpt><trkpt lat="43.9841966" lon="11.9061793"><ele>260.0</ele><time>2026-04-11T15:36:41.939Z</time></trkpt><trkpt lat="43.9843089" lon="11.9062031"><ele>260.0</ele><time>2026-04-11T15:36:42.939Z</time></trkpt><trkpt lat="43.984418" lon="11.9062266"><ele>260.2</ele><time>2026-04-11T15:36:43.94Z</time></trkpt><trkpt lat="43.9845234" lon="11.9062487"><ele>260.4</ele><time>2026-04-11T15:36:44.94Z</time></trkpt><trkpt lat="43.9846267" lon="11.9062681"><ele>260.6</ele><time>2026-04-11T15:36:45.94Z</time></trkpt><trkpt lat="43.9847293" lon="11.9062872"><ele>260.8</ele><time>2026-04-11T15:36:46.939Z</time></trkpt><trkpt lat="43.9848344" lon="11.9063076"><ele>261.0</ele><time>2026-04-11T15:36:47.94Z</time></trkpt><trkpt lat="43.9849401" lon="11.9063268"><ele>261.40000000000003</ele><time>2026-04-11T15:36:48.94Z</time></trkpt><trkpt lat="43.9850474" lon="11.9063439"><ele>261.8</ele><time>2026-04-11T15:36:49.94Z</time></trkpt><trkpt lat="43.9851524" lon="11.9063632"><ele>262.20000000000005</ele><time>2026-04-11T15:36:50.94Z</time></trkpt><trkpt lat="43.985261" lon="11.9063883"><ele>262.6</ele><time>2026-04-11T15:36:51.941Z</time></trkpt><trkpt lat="43.9853716" lon="11.90641"><ele>263.0</ele><time>2026-04-11T15:36:52.939Z</time></trkpt><trkpt lat="43.9854797" lon="11.90643"><ele>263.0</ele><time>2026-04-11T15:36:53.939Z</time></trkpt><trkpt lat="43.985588" lon="11.9064489"><ele>263.0</ele><time>2026-04-11T15:36:54.939Z</time></trkpt><trkpt lat="43.9856918" lon="11.9064668"><ele>263.0</ele><time>2026-04-11T15:36:55.94Z</time></trkpt><trkpt lat="43.9857944" lon="11.9064887"><ele>263.0</ele><time>2026-04-11T15:36:56.94Z</time></trkpt><trkpt lat="43.985895" lon="11.9065067"><ele>263.0</ele><time>2026-04-11T15:36:57.94Z</time></trkpt><trkpt lat="43.9859975" lon="11.9065205"><ele>262.4</ele><time>2026-04-11T15:36:58.941Z</time></trkpt><trkpt lat="43.9861022" lon="11.906535"><ele>261.8</ele><time>2026-04-11T15:36:59.94Z</time></trkpt><trkpt lat="43.9862039" lon="11.9065472"><ele>261.2</ele><time>2026-04-11T15:37:00.939Z</time></trkpt><trkpt lat="43.9862958" lon="11.9065584"><ele>260.6</ele><time>2026-04-11T15:37:01.939Z</time></trkpt><trkpt lat="43.9863843" lon="11.9065689"><ele>260.0</ele><time>2026-04-11T15:37:02.939Z</time></trkpt><trkpt lat="43.9864656" lon="11.9065814"><ele>260.0</ele><time>2026-04-11T15:37:03.939Z</time></trkpt><trkpt lat="43.9865461" lon="11.9065949"><ele>260.0</ele><time>2026-04-11T15:37:04.94Z</time></trkpt><trkpt lat="43.9866238" lon="11.9066065"><ele>260.0</ele><time>2026-04-11T15:37:05.94Z</time></trkpt><trkpt lat="43.9866965" lon="11.9066337"><ele>260.0</ele><time>2026-04-11T15:37:06.939Z</time></trkpt><trkpt lat="43.9867733" lon="11.9066746"><ele>260.0</ele><time>2026-04-11T15:37:07.94Z</time></trkpt><trkpt lat="43.9868537" lon="11.9067236"><ele>260.0</ele><time>2026-04-11T15:37:08.939Z</time></trkpt><trkpt lat="43.9869324" lon="11.9067698"><ele>259.0</ele><time>2026-04-11T15:37:09.94Z</time></trkpt><trkpt lat="43.9870062" lon="11.9068082"><ele>258.0</ele><time>2026-04-11T15:37:10.94Z</time></trkpt><trkpt lat="43.9870763" lon="11.9068485"><ele>257.0</ele><time>2026-04-11T15:37:11.941Z</time></trkpt><trkpt lat="43.9871783" lon="11.9069136"><ele>256.0</ele><time>2026-04-11T15:37:13.939Z</time></trkpt><trkpt lat="43.9872645" lon="11.9070016"><ele>255.0</ele><time>2026-04-11T15:37:15.939Z</time></trkpt><trkpt lat="43.9873743" lon="11.907053"><ele>255.0</ele><time>2026-04-11T15:37:17.94Z</time></trkpt><trkpt lat="43.9874394" lon="11.9070495"><ele>255.00000000000003</ele><time>2026-04-11T15:37:18.939Z</time></trkpt><trkpt lat="43.9875026" lon="11.9070307"><ele>255.0</ele><time>2026-04-11T15:37:19.94Z</time></trkpt><trkpt lat="43.9875617" lon="11.9069926"><ele>255.0</ele><time>2026-04-11T15:37:20.939Z</time></trkpt><trkpt lat="43.9876217" lon="11.9069445"><ele>255.00000000000003</ele><time>2026-04-11T15:37:21.939Z</time></trkpt><trkpt lat="43.9876934" lon="11.9068932"><ele>255.0</ele><time>2026-04-11T15:37:22.94Z</time></trkpt><trkpt lat="43.9877738" lon="11.9068502"><ele>255.0</ele><time>2026-04-11T15:37:23.94Z</time></trkpt><trkpt lat="43.9878626" lon="11.9068138"><ele>255.0</ele><time>2026-04-11T15:37:24.941Z</time></trkpt><trkpt lat="43.9879624" lon="11.9067835"><ele>255.0</ele><time>2026-04-11T15:37:25.939Z</time></trkpt><trkpt lat="43.988081" lon="11.9067649"><ele>255.0</ele><time>2026-04-11T15:37:26.939Z</time></trkpt><trkpt lat="43.9882293" lon="11.9067666"><ele>255.0</ele><time>2026-04-11T15:37:27.94Z</time></trkpt><trkpt lat="43.9884153" lon="11.9067815"><ele>254.0</ele><time>2026-04-11T15:37:28.94Z</time></trkpt><trkpt lat="43.9886339" lon="11.9068092"><ele>253.0</ele><time>2026-04-11T15:37:29.94Z</time></trkpt><trkpt lat="43.988877" lon="11.9068555"><ele>253.0</ele><time>2026-04-11T15:37:30.939Z</time></trkpt><trkpt lat="43.9891364" lon="11.9069017"><ele>253.0</ele><time>2026-04-11T15:37:31.939Z</time></trkpt><trkpt lat="43.9893781" lon="11.9069341"><ele>253.66666666666666</ele><time>2026-04-11T15:37:32.939Z</time></trkpt><trkpt lat="43.9896048" lon="11.9069594"><ele>254.33333333333331</ele><time>2026-04-11T15:37:33.941Z</time></trkpt><trkpt lat="43.9898176" lon="11.9069714"><ele>255.0</ele><time>2026-04-11T15:37:34.939Z</time></trkpt><trkpt lat="43.9900183" lon="11.9069726"><ele>253.66666666666669</ele><time>2026-04-11T15:37:35.939Z</time></trkpt><trkpt lat="43.9902069" lon="11.906974"><ele>252.33333333333334</ele><time>2026-04-11T15:37:36.941Z</time></trkpt><trkpt lat="43.9903861" lon="11.9069756"><ele>251.0</ele><time>2026-04-11T15:37:37.939Z</time></trkpt><trkpt lat="43.990558" lon="11.9069805"><ele>251.0</ele><time>2026-04-11T15:37:38.939Z</time></trkpt><trkpt lat="43.9907205" lon="11.9069803"><ele>251.0</ele><time>2026-04-11T15:37:39.939Z</time></trkpt><trkpt lat="43.9908807" lon="11.9069768"><ele>251.0</ele><time>2026-04-11T15:37:40.939Z</time></trkpt><trkpt lat="43.9910419" lon="11.9069786"><ele>249.0</ele><time>2026-04-11T15:37:41.94Z</time></trkpt><trkpt lat="43.9911974" lon="11.9069818"><ele>247.0</ele><time>2026-04-11T15:37:42.94Z</time></trkpt><trkpt lat="43.9913472" lon="11.9069813"><ele>245.0</ele><time>2026-04-11T15:37:43.94Z</time></trkpt><trkpt lat="43.9914971" lon="11.9069952"><ele>245.0</ele><time>2026-04-11T15:37:44.94Z</time></trkpt><trkpt lat="43.9916468" lon="11.9070247"><ele>245.0</ele><time>2026-04-11T15:37:45.939Z</time></trkpt><trkpt lat="43.9917972" lon="11.9070728"><ele>245.0</ele><time>2026-04-11T15:37:46.939Z</time></trkpt><trkpt lat="43.9919495" lon="11.9071318"><ele>246.0</ele><time>2026-04-11T15:37:47.939Z</time></trkpt><trkpt lat="43.9921007" lon="11.907197"><ele>247.0</ele><time>2026-04-11T15:37:48.939Z</time></trkpt><trkpt lat="43.9922538" lon="11.9072677"><ele>248.0</ele><time>2026-04-11T15:37:49.938Z</time></trkpt><trkpt lat="43.9924064" lon="11.9073497"><ele>248.66666666666669</ele><time>2026-04-11T15:37:50.938Z</time></trkpt><trkpt lat="43.9925584" lon="11.9074268"><ele>249.33333333333331</ele><time>2026-04-11T15:37:51.94Z</time></trkpt><trkpt lat="43.99271" lon="11.907508"><ele>250.0</ele><time>2026-04-11T15:37:52.939Z</time></trkpt><trkpt lat="43.9928584" lon="11.9075889"><ele>246.33333333333331</ele><time>2026-04-11T15:37:53.939Z</time></trkpt><trkpt lat="43.9930078" lon="11.9076666"><ele>242.66666666666669</ele><time>2026-04-11T15:37:54.938Z</time></trkpt><trkpt lat="43.9931592" lon="11.9077463"><ele>239.0</ele><time>2026-04-11T15:37:55.939Z</time></trkpt><trkpt lat="43.9933106" lon="11.9078273"><ele>240.0</ele><time>2026-04-11T15:37:56.938Z</time></trkpt><trkpt lat="43.9934637" lon="11.9079077"><ele>241.0</ele><time>2026-04-11T15:37:57.938Z</time></trkpt><trkpt lat="43.9936101" lon="11.9079867"><ele>242.0</ele><time>2026-04-11T15:37:58.938Z</time></trkpt><trkpt lat="43.9937494" lon="11.908066"><ele>242.0</ele><time>2026-04-11T15:37:59.938Z</time></trkpt><trkpt lat="43.9938874" lon="11.908144"><ele>242.0</ele><time>2026-04-11T15:38:00.939Z</time></trkpt><trkpt lat="43.9940176" lon="11.9082208"><ele>242.0</ele><time>2026-04-11T15:38:01.939Z</time></trkpt><trkpt lat="43.9941441" lon="11.9082984"><ele>242.0</ele><time>2026-04-11T15:38:02.939Z</time></trkpt><trkpt lat="43.9942672" lon="11.908383"><ele>241.25</ele><time>2026-04-11T15:38:03.938Z</time></trkpt><trkpt lat="43.9943868" lon="11.9084669"><ele>240.5</ele><time>2026-04-11T15:38:04.939Z</time></trkpt><trkpt lat="43.9945036" lon="11.9085545"><ele>239.75</ele><time>2026-04-11T15:38:05.939Z</time></trkpt><trkpt lat="43.9946159" lon="11.9086453"><ele>239.0</ele><time>2026-04-11T15:38:06.938Z</time></trkpt><trkpt lat="43.9947235" lon="11.9087356"><ele>239.0</ele><time>2026-04-11T15:38:07.938Z</time></trkpt><trkpt lat="43.9948325" lon="11.9088256"><ele>239.0</ele><time>2026-04-11T15:38:08.939Z</time></trkpt><trkpt lat="43.9949427" lon="11.9089186"><ele>239.0</ele><time>2026-04-11T15:38:09.939Z</time></trkpt><trkpt lat="43.995048" lon="11.9090208"><ele>239.0</ele><time>2026-04-11T15:38:10.938Z</time></trkpt><trkpt lat="43.9951582" lon="11.9091147"><ele>239.25</ele><time>2026-04-11T15:38:11.939Z</time></trkpt><trkpt lat="43.9952585" lon="11.9092208"><ele>239.5</ele><time>2026-04-11T15:38:12.939Z</time></trkpt><trkpt lat="43.9953628" lon="11.9093146"><ele>239.75</ele><time>2026-04-11T15:38:13.938Z</time></trkpt><trkpt lat="43.9954682" lon="11.9094079"><ele>240.0</ele><time>2026-04-11T15:38:14.938Z</time></trkpt><trkpt lat="43.9955689" lon="11.9095"><ele>239.5</ele><time>2026-04-11T15:38:15.938Z</time></trkpt><trkpt lat="43.9956713" lon="11.9095944"><ele>239.0</ele><time>2026-04-11T15:38:16.938Z</time></trkpt><trkpt lat="43.9957732" lon="11.9096887"><ele>238.5</ele><time>2026-04-11T15:38:17.938Z</time></trkpt><trkpt lat="43.9958782" lon="11.9097733"><ele>238.0</ele><time>2026-04-11T15:38:18.938Z</time></trkpt><trkpt lat="43.9959764" lon="11.9098569"><ele>238.0</ele><time>2026-04-11T15:38:19.939Z</time></trkpt><trkpt lat="43.9960781" lon="11.9099474"><ele>238.0</ele><time>2026-04-11T15:38:20.939Z</time></trkpt><trkpt lat="43.9961766" lon="11.9100282"><ele>238.0</ele><time>2026-04-11T15:38:21.939Z</time></trkpt><trkpt lat="43.9962785" lon="11.9101197"><ele>238.0</ele><time>2026-04-11T15:38:22.938Z</time></trkpt><trkpt lat="43.9963772" lon="11.9102066"><ele>237.60000000000002</ele><time>2026-04-11T15:38:23.938Z</time></trkpt><trkpt lat="43.9964698" lon="11.9102898"><ele>237.20000000000002</ele><time>2026-04-11T15:38:24.938Z</time></trkpt><trkpt lat="43.9965592" lon="11.9103674"><ele>236.8</ele><time>2026-04-11T15:38:25.938Z</time></trkpt><trkpt lat="43.9966317" lon="11.9104461"><ele>236.4</ele><time>2026-04-11T15:38:26.938Z</time></trkpt><trkpt lat="43.9966951" lon="11.9105226"><ele>236.0</ele><time>2026-04-11T15:38:27.939Z</time></trkpt><trkpt lat="43.9967379" lon="11.9106398"><ele>235.83333333333334</ele><time>2026-04-11T15:38:28.938Z</time></trkpt><trkpt lat="43.9967445" lon="11.9107411"><ele>235.66666666666669</ele><time>2026-04-11T15:38:29.938Z</time></trkpt><trkpt lat="43.9967492" lon="11.9108307"><ele>235.5</ele><time>2026-04-11T15:38:30.938Z</time></trkpt><trkpt lat="43.9967462" lon="11.9109548"><ele>235.33333333333331</ele><time>2026-04-11T15:38:32.94Z</time></trkpt><trkpt lat="43.9967417" lon="11.9110464"><ele>235.16666666666666</ele><time>2026-04-11T15:38:37.939Z</time></trkpt><trkpt lat="43.9967268" lon="11.9111338"><ele>235.0</ele><time>2026-04-11T15:38:40.939Z</time></trkpt><trkpt lat="43.9967076" lon="11.9113272"><ele>235.0</ele><time>2026-04-11T15:38:42.938Z</time></trkpt><trkpt lat="43.9966858" lon="11.9114757"><ele>235.0</ele><time>2026-04-11T15:38:43.939Z</time></trkpt><trkpt lat="43.9966635" lon="11.9116299"><ele>235.0</ele><time>2026-04-11T15:38:44.938Z</time></trkpt><trkpt lat="43.9966427" lon="11.9117831"><ele>235.0</ele><time>2026-04-11T15:38:45.939Z</time></trkpt><trkpt lat="43.996622" lon="11.9119309"><ele>235.0</ele><time>2026-04-11T15:38:46.939Z</time></trkpt><trkpt lat="43.9966023" lon="11.9120779"><ele>234.6</ele><time>2026-04-11T15:38:47.939Z</time></trkpt><trkpt lat="43.9965836" lon="11.9122256"><ele>234.2</ele><time>2026-04-11T15:38:48.939Z</time></trkpt><trkpt lat="43.9965612" lon="11.9123719"><ele>233.8</ele><time>2026-04-11T15:38:49.939Z</time></trkpt><trkpt lat="43.9965533" lon="11.9125197"><ele>233.4</ele><time>2026-04-11T15:38:50.938Z</time></trkpt><trkpt lat="43.9965453" lon="11.9126617"><ele>233.0</ele><time>2026-04-11T15:38:51.938Z</time></trkpt><trkpt lat="43.9965503" lon="11.9127958"><ele>232.16666666666669</ele><time>2026-04-11T15:38:52.939Z</time></trkpt><trkpt lat="43.9965703" lon="11.9129201"><ele>231.33333333333334</ele><time>2026-04-11T15:38:53.938Z</time></trkpt><trkpt lat="43.9966069" lon="11.9130262"><ele>230.5</ele><time>2026-04-11T15:38:54.938Z</time></trkpt><trkpt lat="43.9966582" lon="11.9131099"><ele>229.66666666666669</ele><time>2026-04-11T15:38:55.938Z</time></trkpt><trkpt lat="43.9967342" lon="11.913168"><ele>228.83333333333334</ele><time>2026-04-11T15:38:56.939Z</time></trkpt><trkpt lat="43.9968247" lon="11.9132071"><ele>228.0</ele><time>2026-04-11T15:38:57.938Z</time></trkpt><trkpt lat="43.9969249" lon="11.9132362"><ele>228.0</ele><time>2026-04-11T15:38:58.939Z</time></trkpt><trkpt lat="43.9970337" lon="11.9132605"><ele>228.0</ele><time>2026-04-11T15:38:59.938Z</time></trkpt><trkpt lat="43.9971477" lon="11.9132826"><ele>228.0</ele><time>2026-04-11T15:39:00.939Z</time></trkpt><trkpt lat="43.9972616" lon="11.9133056"><ele>228.0</ele><time>2026-04-11T15:39:01.939Z</time></trkpt><trkpt lat="43.9973813" lon="11.9133298"><ele>228.0</ele><time>2026-04-11T15:39:02.939Z</time></trkpt><trkpt lat="43.9975003" lon="11.913355"><ele>228.0</ele><time>2026-04-11T15:39:03.939Z</time></trkpt><trkpt lat="43.9976236" lon="11.9133837"><ele>228.0</ele><time>2026-04-11T15:39:04.938Z</time></trkpt><trkpt lat="43.9977512" lon="11.913415"><ele>228.0</ele><time>2026-04-11T15:39:05.939Z</time></trkpt><trkpt lat="43.9978835" lon="11.9134428"><ele>226.0</ele><time>2026-04-11T15:39:06.938Z</time></trkpt><trkpt lat="43.9980147" lon="11.9134709"><ele>224.0</ele><time>2026-04-11T15:39:07.939Z</time></trkpt><trkpt lat="43.9981448" lon="11.9135015"><ele>222.0</ele><time>2026-04-11T15:39:08.939Z</time></trkpt><trkpt lat="43.9982752" lon="11.9135312"><ele>220.0</ele><time>2026-04-11T15:39:09.939Z</time></trkpt><trkpt lat="43.9984079" lon="11.913564"><ele>219.25</ele><time>2026-04-11T15:39:10.938Z</time></trkpt><trkpt lat="43.9985426" lon="11.9135975"><ele>218.5</ele><time>2026-04-11T15:39:11.938Z</time></trkpt><trkpt lat="43.9986798" lon="11.913626"><ele>217.75</ele><time>2026-04-11T15:39:12.939Z</time></trkpt><trkpt lat="43.9988177" lon="11.9136551"><ele>217.0</ele><time>2026-04-11T15:39:13.938Z</time></trkpt><trkpt lat="43.9989593" lon="11.9136862"><ele>217.0</ele><time>2026-04-11T15:39:14.939Z</time></trkpt><trkpt lat="43.9990981" lon="11.9137192"><ele>217.0</ele><time>2026-04-11T15:39:15.938Z</time></trkpt><trkpt lat="43.9992424" lon="11.9137503"><ele>217.0</ele><time>2026-04-11T15:39:16.939Z</time></trkpt><trkpt lat="43.9993838" lon="11.9137866"><ele>217.0</ele><time>2026-04-11T15:39:17.938Z</time></trkpt><trkpt lat="43.9995284" lon="11.9138221"><ele>215.75</ele><time>2026-04-11T15:39:18.938Z</time></trkpt><trkpt lat="43.9996747" lon="11.9138537"><ele>214.5</ele><time>2026-04-11T15:39:19.938Z</time></trkpt><trkpt lat="43.99982" lon="11.9138861"><ele>213.25</ele><time>2026-04-11T15:39:20.938Z</time></trkpt><trkpt lat="43.9999647" lon="11.9139189"><ele>212.0</ele><time>2026-04-11T15:39:21.94Z</time></trkpt><trkpt lat="44.0001034" lon="11.9139478"><ele>212.0</ele><time>2026-04-11T15:39:22.939Z</time></trkpt><trkpt lat="44.0002372" lon="11.9139778"><ele>212.0</ele><time>2026-04-11T15:39:23.938Z</time></trkpt><trkpt lat="44.0003703" lon="11.9140166"><ele>212.0</ele><time>2026-04-11T15:39:24.938Z</time></trkpt><trkpt lat="44.0005065" lon="11.9140728"><ele>212.0</ele><time>2026-04-11T15:39:25.938Z</time></trkpt><trkpt lat="44.0006426" lon="11.9141689"><ele>210.66666666666669</ele><time>2026-04-11T15:39:26.939Z</time></trkpt><trkpt lat="44.0007882" lon="11.9142895"><ele>209.33333333333331</ele><time>2026-04-11T15:39:27.938Z</time></trkpt><trkpt lat="44.0009294" lon="11.9144208"><ele>208.0</ele><time>2026-04-11T15:39:28.939Z</time></trkpt><trkpt lat="44.0010753" lon="11.9145576"><ele>205.33333333333331</ele><time>2026-04-11T15:39:29.938Z</time></trkpt><trkpt lat="44.0012198" lon="11.9146989"><ele>202.66666666666669</ele><time>2026-04-11T15:39:30.938Z</time></trkpt><trkpt lat="44.0013612" lon="11.9148347"><ele>200.0</ele><time>2026-04-11T15:39:31.938Z</time></trkpt><trkpt lat="44.001494" lon="11.9149609"><ele>201.33333333333334</ele><time>2026-04-11T15:39:32.939Z</time></trkpt><trkpt lat="44.0016179" lon="11.9150949"><ele>202.66666666666669</ele><time>2026-04-11T15:39:33.938Z</time></trkpt><trkpt lat="44.0017374" lon="11.9152511"><ele>204.0</ele><time>2026-04-11T15:39:34.938Z</time></trkpt><trkpt lat="44.0018539" lon="11.9154166"><ele>205.33333333333331</ele><time>2026-04-11T15:39:35.939Z</time></trkpt><trkpt lat="44.0019683" lon="11.9155984"><ele>206.66666666666666</ele><time>2026-04-11T15:39:36.939Z</time></trkpt><trkpt lat="44.002068" lon="11.9157909"><ele>208.0</ele><time>2026-04-11T15:39:37.938Z</time></trkpt><trkpt lat="44.0021526" lon="11.9159919"><ele>210.33333333333331</ele><time>2026-04-11T15:39:38.938Z</time></trkpt><trkpt lat="44.0022275" lon="11.916198"><ele>212.66666666666669</ele><time>2026-04-11T15:39:39.939Z</time></trkpt><trkpt lat="44.0022961" lon="11.9164106"><ele>215.0</ele><time>2026-04-11T15:39:40.939Z</time></trkpt><trkpt lat="44.0023562" lon="11.9166384"><ele>215.33333333333334</ele><time>2026-04-11T15:39:41.938Z</time></trkpt><trkpt lat="44.0024161" lon="11.9168889"><ele>215.66666666666669</ele><time>2026-04-11T15:39:42.938Z</time></trkpt><trkpt lat="44.0024708" lon="11.9171182"><ele>216.0</ele><time>2026-04-11T15:39:43.939Z</time></trkpt><trkpt lat="44.0025274" lon="11.917344"><ele>217.33333333333331</ele><time>2026-04-11T15:39:44.939Z</time></trkpt><trkpt lat="44.0025855" lon="11.9175699"><ele>218.66666666666666</ele><time>2026-04-11T15:39:45.939Z</time></trkpt><trkpt lat="44.0026443" lon="11.9177904"><ele>220.0</ele><time>2026-04-11T15:39:46.938Z</time></trkpt><trkpt lat="44.002705" lon="11.9180115"><ele>220.0</ele><time>2026-04-11T15:39:47.938Z</time></trkpt><trkpt lat="44.0027701" lon="11.9182411"><ele>220.0</ele><time>2026-04-11T15:39:48.938Z</time></trkpt><trkpt lat="44.0028413" lon="11.9184667"><ele>220.0</ele><time>2026-04-11T15:39:49.939Z</time></trkpt><trkpt lat="44.0029168" lon="11.9186937"><ele>225.33333333333331</ele><time>2026-04-11T15:39:50.939Z</time></trkpt><trkpt lat="44.0029918" lon="11.9189244"><ele>230.66666666666669</ele><time>2026-04-11T15:39:51.94Z</time></trkpt><trkpt lat="44.0030662" lon="11.9191497"><ele>236.0</ele><time>2026-04-11T15:39:52.938Z</time></trkpt><trkpt lat="44.0031429" lon="11.9193767"><ele>236.33333333333334</ele><time>2026-04-11T15:39:53.938Z</time></trkpt><trkpt lat="44.0032196" lon="11.9196048"><ele>236.66666666666669</ele><time>2026-04-11T15:39:54.939Z</time></trkpt><trkpt lat="44.0032967" lon="11.9198362"><ele>237.0</ele><time>2026-04-11T15:39:55.938Z</time></trkpt><trkpt lat="44.0033737" lon="11.9200673"><ele>237.0</ele><time>2026-04-11T15:39:56.94Z</time></trkpt><trkpt lat="44.0034535" lon="11.9202975"><ele>237.0</ele><time>2026-04-11T15:39:57.938Z</time></trkpt><trkpt lat="44.003535" lon="11.9205305"><ele>237.0</ele><time>2026-04-11T15:39:58.939Z</time></trkpt><trkpt lat="44.0036204" lon="11.9207607"><ele>243.33333333333331</ele><time>2026-04-11T15:39:59.939Z</time></trkpt><trkpt lat="44.0037144" lon="11.9210017"><ele>249.66666666666666</ele><time>2026-04-11T15:40:00.939Z</time></trkpt><trkpt lat="44.0038075" lon="11.9212372"><ele>256.0</ele><time>2026-04-11T15:40:01.939Z</time></trkpt><trkpt lat="44.0039059" lon="11.9214746"><ele>256.0</ele><time>2026-04-11T15:40:02.939Z</time></trkpt><trkpt lat="44.003997" lon="11.9217058"><ele>256.0</ele><time>2026-04-11T15:40:03.938Z</time></trkpt><trkpt lat="44.0040847" lon="11.9219275"><ele>256.0</ele><time>2026-04-11T15:40:04.939Z</time></trkpt><trkpt lat="44.0041664" lon="11.9221429"><ele>249.33333333333331</ele><time>2026-04-11T15:40:05.939Z</time></trkpt><trkpt lat="44.0042446" lon="11.9223537"><ele>242.66666666666669</ele><time>2026-04-11T15:40:06.939Z</time></trkpt><trkpt lat="44.0043159" lon="11.9225603"><ele>236.0</ele><time>2026-04-11T15:40:07.939Z</time></trkpt><trkpt lat="44.00438" lon="11.9227686"><ele>236.0</ele><time>2026-04-11T15:40:08.939Z</time></trkpt><trkpt lat="44.0044352" lon="11.9229736"><ele>236.0</ele><time>2026-04-11T15:40:09.939Z</time></trkpt><trkpt lat="44.0044824" lon="11.9231843"><ele>236.0</ele><time>2026-04-11T15:40:10.939Z</time></trkpt><trkpt lat="44.0045272" lon="11.9233921"><ele>236.66666666666669</ele><time>2026-04-11T15:40:11.939Z</time></trkpt><trkpt lat="44.0045752" lon="11.9236083"><ele>237.33333333333331</ele><time>2026-04-11T15:40:12.939Z</time></trkpt><trkpt lat="44.0046247" lon="11.9238275"><ele>238.0</ele><time>2026-04-11T15:40:13.939Z</time></trkpt><trkpt lat="44.0046733" lon="11.9240443"><ele>238.66666666666666</ele><time>2026-04-11T15:40:14.938Z</time></trkpt><trkpt lat="44.0047261" lon="11.9242692"><ele>239.33333333333331</ele><time>2026-04-11T15:40:15.939Z</time></trkpt><trkpt lat="44.0047746" lon="11.9244944"><ele>240.0</ele><time>2026-04-11T15:40:16.938Z</time></trkpt><trkpt lat="44.0048214" lon="11.924719"><ele>240.0</ele><time>2026-04-11T15:40:17.938Z</time></trkpt><trkpt lat="44.0048667" lon="11.9249239"><ele>240.0</ele><time>2026-04-11T15:40:18.938Z</time></trkpt><trkpt lat="44.0049117" lon="11.925127"><ele>240.0</ele><time>2026-04-11T15:40:19.939Z</time></trkpt><trkpt lat="44.0049561" lon="11.9253393"><ele>239.33333333333331</ele><time>2026-04-11T15:40:20.938Z</time></trkpt><trkpt lat="44.005004" lon="11.9255506"><ele>238.66666666666666</ele><time>2026-04-11T15:40:21.939Z</time></trkpt><trkpt lat="44.0050543" lon="11.925766"><ele>238.0</ele><time>2026-04-11T15:40:22.939Z</time></trkpt><trkpt lat="44.0051012" lon="11.9259788"><ele>238.0</ele><time>2026-04-11T15:40:23.938Z</time></trkpt><trkpt lat="44.0051478" lon="11.9261931"><ele>238.0</ele><time>2026-04-11T15:40:24.939Z</time></trkpt><trkpt lat="44.0051953" lon="11.9264085"><ele>238.0</ele><time>2026-04-11T15:40:25.938Z</time></trkpt><trkpt lat="44.0052424" lon="11.9266244"><ele>238.33333333333331</ele><time>2026-04-11T15:40:26.939Z</time></trkpt><trkpt lat="44.005285" lon="11.9268428"><ele>238.66666666666669</ele><time>2026-04-11T15:40:27.938Z</time></trkpt><trkpt lat="44.0053205" lon="11.9270703"><ele>239.0</ele><time>2026-04-11T15:40:28.938Z</time></trkpt><trkpt lat="44.0053435" lon="11.9272929"><ele>239.0</ele><time>2026-04-11T15:40:29.939Z</time></trkpt><trkpt lat="44.0053521" lon="11.9275166"><ele>239.0</ele><time>2026-04-11T15:40:30.94Z</time></trkpt><trkpt lat="44.0053439" lon="11.9277385"><ele>239.0</ele><time>2026-04-11T15:40:31.938Z</time></trkpt><trkpt lat="44.0053288" lon="11.9279623"><ele>238.0</ele><time>2026-04-11T15:40:32.938Z</time></trkpt><trkpt lat="44.0053076" lon="11.9281889"><ele>237.0</ele><time>2026-04-11T15:40:33.939Z</time></trkpt><trkpt lat="44.0052809" lon="11.9284096"><ele>236.0</ele><time>2026-04-11T15:40:34.938Z</time></trkpt><trkpt lat="44.0052556" lon="11.9286308"><ele>235.33333333333334</ele><time>2026-04-11T15:40:35.938Z</time></trkpt><trkpt lat="44.0052323" lon="11.9288505"><ele>234.66666666666669</ele><time>2026-04-11T15:40:36.939Z</time></trkpt><trkpt lat="44.0052128" lon="11.9290654"><ele>234.0</ele><time>2026-04-11T15:40:37.939Z</time></trkpt><trkpt lat="44.0052063" lon="11.92927"><ele>233.75</ele><time>2026-04-11T15:40:38.938Z</time></trkpt><trkpt lat="44.0052098" lon="11.9294695"><ele>233.5</ele><time>2026-04-11T15:40:39.938Z</time></trkpt><trkpt lat="44.0052182" lon="11.929665"><ele>233.25</ele><time>2026-04-11T15:40:40.939Z</time></trkpt><trkpt lat="44.0052378" lon="11.9298625"><ele>233.0</ele><time>2026-04-11T15:40:41.938Z</time></trkpt><trkpt lat="44.0052685" lon="11.9300645"><ele>231.0</ele><time>2026-04-11T15:40:42.94Z</time></trkpt><trkpt lat="44.005309" lon="11.9302633"><ele>229.0</ele><time>2026-04-11T15:40:43.939Z</time></trkpt><trkpt lat="44.0053602" lon="11.9304611"><ele>227.0</ele><time>2026-04-11T15:40:44.939Z</time></trkpt><trkpt lat="44.005423" lon="11.9306582"><ele>227.0</ele><time>2026-04-11T15:40:45.939Z</time></trkpt><trkpt lat="44.0054933" lon="11.9308529"><ele>227.0</ele><time>2026-04-11T15:40:46.939Z</time></trkpt><trkpt lat="44.0055707" lon="11.9310463"><ele>227.0</ele><time>2026-04-11T15:40:47.938Z</time></trkpt><trkpt lat="44.0056511" lon="11.9312368"><ele>224.33333333333334</ele><time>2026-04-11T15:40:48.939Z</time></trkpt><trkpt lat="44.0057329" lon="11.9314236"><ele>221.66666666666669</ele><time>2026-04-11T15:40:49.939Z</time></trkpt><trkpt lat="44.0058127" lon="11.9316139"><ele>219.0</ele><time>2026-04-11T15:40:50.94Z</time></trkpt><trkpt lat="44.005891" lon="11.9318046"><ele>213.0</ele><time>2026-04-11T15:40:51.939Z</time></trkpt><trkpt lat="44.0059719" lon="11.9319932"><ele>207.0</ele><time>2026-04-11T15:40:52.938Z</time></trkpt><trkpt lat="44.0060533" lon="11.9321822"><ele>201.0</ele><time>2026-04-11T15:40:53.938Z</time></trkpt><trkpt lat="44.0061323" lon="11.9323702"><ele>205.0</ele><time>2026-04-11T15:40:54.94Z</time></trkpt><trkpt lat="44.0062126" lon="11.932557"><ele>209.0</ele><time>2026-04-11T15:40:55.939Z</time></trkpt><trkpt lat="44.0062936" lon="11.9327426"><ele>213.0</ele><time>2026-04-11T15:40:56.939Z</time></trkpt><trkpt lat="44.0063757" lon="11.9329286"><ele>213.0</ele><time>2026-04-11T15:40:57.938Z</time></trkpt><trkpt lat="44.0064566" lon="11.9331139"><ele>213.0</ele><time>2026-04-11T15:40:58.938Z</time></trkpt><trkpt lat="44.006536" lon="11.9332986"><ele>213.0</ele><time>2026-04-11T15:40:59.939Z</time></trkpt><trkpt lat="44.0066137" lon="11.9334888"><ele>215.0</ele><time>2026-04-11T15:41:00.938Z</time></trkpt><trkpt lat="44.0066857" lon="11.9336811"><ele>217.0</ele><time>2026-04-11T15:41:01.938Z</time></trkpt><trkpt lat="44.0067497" lon="11.9338774"><ele>219.0</ele><time>2026-04-11T15:41:02.939Z</time></trkpt><trkpt lat="44.0068032" lon="11.9340772"><ele>219.0</ele><time>2026-04-11T15:41:03.939Z</time></trkpt><trkpt lat="44.0068451" lon="11.9342779"><ele>219.0</ele><time>2026-04-11T15:41:04.938Z</time></trkpt><trkpt lat="44.0068784" lon="11.9344738"><ele>219.0</ele><time>2026-04-11T15:41:05.938Z</time></trkpt><trkpt lat="44.0068993" lon="11.9346578"><ele>219.0</ele><time>2026-04-11T15:41:06.939Z</time></trkpt><trkpt lat="44.0069147" lon="11.934832"><ele>219.0</ele><time>2026-04-11T15:41:07.938Z</time></trkpt><trkpt lat="44.0069237" lon="11.9349999"><ele>219.0</ele><time>2026-04-11T15:41:08.939Z</time></trkpt><trkpt lat="44.006935" lon="11.9351602"><ele>219.0</ele><time>2026-04-11T15:41:09.938Z</time></trkpt><trkpt lat="44.006947" lon="11.9353171"><ele>219.0</ele><time>2026-04-11T15:41:10.938Z</time></trkpt><trkpt lat="44.0069572" lon="11.9354783"><ele>219.0</ele><time>2026-04-11T15:41:11.938Z</time></trkpt><trkpt lat="44.0069661" lon="11.935639"><ele>219.0</ele><time>2026-04-11T15:41:12.939Z</time></trkpt><trkpt lat="44.0069758" lon="11.9357996"><ele>219.0</ele><time>2026-04-11T15:41:13.938Z</time></trkpt><trkpt lat="44.0069871" lon="11.9359606"><ele>219.0</ele><time>2026-04-11T15:41:14.939Z</time></trkpt><trkpt lat="44.0069983" lon="11.9361229"><ele>219.0</ele><time>2026-04-11T15:41:15.938Z</time></trkpt><trkpt lat="44.0070064" lon="11.936285"><ele>219.0</ele><time>2026-04-11T15:41:16.938Z</time></trkpt><trkpt lat="44.007014" lon="11.9364515"><ele>219.0</ele><time>2026-04-11T15:41:17.939Z</time></trkpt><trkpt lat="44.0070239" lon="11.9366204"><ele>219.0</ele><time>2026-04-11T15:41:18.938Z</time></trkpt><trkpt lat="44.0070352" lon="11.9367889"><ele>219.0</ele><time>2026-04-11T15:41:19.938Z</time></trkpt><trkpt lat="44.0070462" lon="11.9369564"><ele>219.0</ele><time>2026-04-11T15:41:20.939Z</time></trkpt><trkpt lat="44.0070574" lon="11.9371243"><ele>219.0</ele><time>2026-04-11T15:41:21.94Z</time></trkpt><trkpt lat="44.0070667" lon="11.9372884"><ele>219.0</ele><time>2026-04-11T15:41:22.939Z</time></trkpt><trkpt lat="44.0070764" lon="11.9374438"><ele>218.6</ele><time>2026-04-11T15:41:23.938Z</time></trkpt><trkpt lat="44.0070859" lon="11.9375947"><ele>218.2</ele><time>2026-04-11T15:41:24.939Z</time></trkpt><trkpt lat="44.0070963" lon="11.9377479"><ele>217.79999999999998</ele><time>2026-04-11T15:41:25.938Z</time></trkpt><trkpt lat="44.0071052" lon="11.9378995"><ele>217.39999999999998</ele><time>2026-04-11T15:41:26.939Z</time></trkpt><trkpt lat="44.0071153" lon="11.9380543"><ele>217.0</ele><time>2026-04-11T15:41:27.938Z</time></trkpt><trkpt lat="44.0071277" lon="11.9382064"><ele>217.0</ele><time>2026-04-11T15:41:28.938Z</time></trkpt><trkpt lat="44.0071389" lon="11.9383649"><ele>217.0</ele><time>2026-04-11T15:41:29.939Z</time></trkpt><trkpt lat="44.0071471" lon="11.9385255"><ele>217.0</ele><time>2026-04-11T15:41:30.939Z</time></trkpt><trkpt lat="44.0071558" lon="11.9386881"><ele>217.0</ele><time>2026-04-11T15:41:31.938Z</time></trkpt><trkpt lat="44.0071666" lon="11.9388501"><ele>217.5</ele><time>2026-04-11T15:41:32.938Z</time></trkpt><trkpt lat="44.0071765" lon="11.9390126"><ele>218.0</ele><time>2026-04-11T15:41:33.94Z</time></trkpt><trkpt lat="44.0071886" lon="11.9391735"><ele>218.5</ele><time>2026-04-11T15:41:34.94Z</time></trkpt><trkpt lat="44.0071974" lon="11.9393378"><ele>219.0</ele><time>2026-04-11T15:41:35.939Z</time></trkpt><trkpt lat="44.0072058" lon="11.9395072"><ele>219.25</ele><time>2026-04-11T15:41:36.938Z</time></trkpt><trkpt lat="44.0072147" lon="11.9396773"><ele>219.5</ele><time>2026-04-11T15:41:37.939Z</time></trkpt><trkpt lat="44.0072253" lon="11.9398495"><ele>219.75</ele><time>2026-04-11T15:41:38.939Z</time></trkpt><trkpt lat="44.0072372" lon="11.9400206"><ele>220.0</ele><time>2026-04-11T15:41:39.938Z</time></trkpt><trkpt lat="44.0072488" lon="11.9401871"><ele>220.0</ele><time>2026-04-11T15:41:40.938Z</time></trkpt><trkpt lat="44.0072573" lon="11.9403535"><ele>220.0</ele><time>2026-04-11T15:41:41.938Z</time></trkpt><trkpt lat="44.0072567" lon="11.9405174"><ele>220.0</ele><time>2026-04-11T15:41:42.939Z</time></trkpt><trkpt lat="44.0072508" lon="11.9406793"><ele>220.0</ele><time>2026-04-11T15:41:43.939Z</time></trkpt><trkpt lat="44.0072372" lon="11.9408352"><ele>219.5</ele><time>2026-04-11T15:41:44.938Z</time></trkpt><trkpt lat="44.0072032" lon="11.940984"><ele>219.0</ele><time>2026-04-11T15:41:45.94Z</time></trkpt><trkpt lat="44.0071547" lon="11.9411252"><ele>218.5</ele><time>2026-04-11T15:41:46.939Z</time></trkpt><trkpt lat="44.0070895" lon="11.9412538"><ele>218.0</ele><time>2026-04-11T15:41:47.939Z</time></trkpt><trkpt lat="44.0070139" lon="11.9413746"><ele>218.0</ele><time>2026-04-11T15:41:48.938Z</time></trkpt><trkpt lat="44.0069322" lon="11.9414952"><ele>218.0</ele><time>2026-04-11T15:41:49.94Z</time></trkpt><trkpt lat="44.0068473" lon="11.9416122"><ele>218.0</ele><time>2026-04-11T15:41:50.938Z</time></trkpt><trkpt lat="44.0067644" lon="11.9417235"><ele>218.0</ele><time>2026-04-11T15:41:51.939Z</time></trkpt><trkpt lat="44.0066898" lon="11.9418316"><ele>219.00000000000003</ele><time>2026-04-11T15:41:52.939Z</time></trkpt><trkpt lat="44.0066246" lon="11.9419393"><ele>220.0</ele><time>2026-04-11T15:41:53.938Z</time></trkpt><trkpt lat="44.0065749" lon="11.9420362"><ele>221.0</ele><time>2026-04-11T15:41:54.939Z</time></trkpt><trkpt lat="44.0065305" lon="11.94211"><ele>222.0</ele><time>2026-04-11T15:41:55.939Z</time></trkpt><trkpt lat="44.0064744" lon="11.9421564"><ele>223.00000000000003</ele><time>2026-04-11T15:41:56.938Z</time></trkpt><trkpt lat="44.0063556" lon="11.9421538"><ele>224.0</ele><time>2026-04-11T15:41:58.939Z</time></trkpt><trkpt lat="44.0062954" lon="11.9421128"><ele>224.00000000000003</ele><time>2026-04-11T15:41:59.94Z</time></trkpt><trkpt lat="44.0062392" lon="11.9420448"><ele>224.0</ele><time>2026-04-11T15:42:00.939Z</time></trkpt><trkpt lat="44.0061871" lon="11.9419615"><ele>224.0</ele><time>2026-04-11T15:42:01.938Z</time></trkpt><trkpt lat="44.006125" lon="11.9418743"><ele>224.0</ele><time>2026-04-11T15:42:02.938Z</time></trkpt><trkpt lat="44.0060662" lon="11.9417849"><ele>224.00000000000003</ele><time>2026-04-11T15:42:03.938Z</time></trkpt><trkpt lat="44.0060122" lon="11.9416992"><ele>224.0</ele><time>2026-04-11T15:42:04.94Z</time></trkpt><trkpt lat="44.0059654" lon="11.9416206"><ele>220.0</ele><time>2026-04-11T15:42:05.939Z</time></trkpt><trkpt lat="44.0059207" lon="11.9415587"><ele>220.0</ele><time>2026-04-11T15:42:06.938Z</time></trkpt><trkpt lat="44.005876" lon="11.9414623"><ele>220.0</ele><time>2026-04-11T15:42:08.938Z</time></trkpt></trkseg></trk></gpx>